<?xml version="1.0" encoding="UTF-8" standalone="no" ?>
<gpx xmlns="http://www.topografix.com/GPX/1/1" xmlns:xsi="http://www.w3.org/2001/XMLSchema-instance" xsi:schemaLocation="http://www.topografix.com/GPX/1/1 http://www.topografix.com/GPX/1/1/gpx.xsd" version="1.1" creator="VisuGPX - https://www.visugpx.com">
  <metadata>
    <name>Rando vtt Smarves 2018</name>
    <desc><![CDATA[Superbe rando technique!
Les 23km du tracé noir,très techniques!]]></desc>
  </metadata>
  <trk>
    <name><![CDATA[Rando vtt Smarves 2018]]></name>
    <trkseg>
      <trkpt lat="46.50672" lon="0.36792">
        <ele>177.47</ele>
        <time>2018-09-09T06:32:22.068Z</time>
      </trkpt>
      <trkpt lat="46.50662" lon="0.36814">
        <ele>175.76</ele>
        <time>2018-09-09T06:32:23.089Z</time>
      </trkpt>
      <trkpt lat="46.50652" lon="0.36836">
        <ele>208.95</ele>
        <time>2018-09-09T06:32:24.092Z</time>
      </trkpt>
      <trkpt lat="46.50661" lon="0.36824">
        <ele>208.85</ele>
        <time>2018-09-09T06:33:00.999Z</time>
      </trkpt>
      <trkpt lat="46.50652" lon="0.36818">
        <ele>200.89</ele>
        <time>2018-09-09T06:33:54.999Z</time>
      </trkpt>
      <trkpt lat="46.50642" lon="0.36817">
        <ele>197.74</ele>
        <time>2018-09-09T06:34:14.999Z</time>
      </trkpt>
      <trkpt lat="46.50638" lon="0.36805">
        <ele>197.28</ele>
        <time>2018-09-09T06:35:27.000Z</time>
      </trkpt>
      <trkpt lat="46.50643" lon="0.36793">
        <ele>197.59</ele>
        <time>2018-09-09T06:35:32.000Z</time>
      </trkpt>
      <trkpt lat="46.50648" lon="0.3678">
        <ele>197.83</ele>
        <time>2018-09-09T06:35:37.000Z</time>
      </trkpt>
      <trkpt lat="46.5065" lon="0.36765">
        <ele>198.06</ele>
        <time>2018-09-09T06:35:42.000Z</time>
      </trkpt>
      <trkpt lat="46.50649" lon="0.36752">
        <ele>198.57</ele>
        <time>2018-09-09T06:36:07.000Z</time>
      </trkpt>
      <trkpt lat="46.50646" lon="0.36737">
        <ele>197</ele>
        <time>2018-09-09T06:36:29.000Z</time>
      </trkpt>
      <trkpt lat="46.50646" lon="0.36723">
        <ele>196.59</ele>
        <time>2018-09-09T06:36:32.000Z</time>
      </trkpt>
      <trkpt lat="46.50647" lon="0.36707">
        <ele>196.16</ele>
        <time>2018-09-09T06:36:35.000Z</time>
      </trkpt>
      <trkpt lat="46.50649" lon="0.36687">
        <ele>192.03</ele>
        <time>2018-09-09T06:36:38.000Z</time>
      </trkpt>
      <trkpt lat="46.5065" lon="0.36674">
        <ele>188.98</ele>
        <time>2018-09-09T06:36:40.000Z</time>
      </trkpt>
      <trkpt lat="46.5065" lon="0.36654">
        <ele>186.43</ele>
        <time>2018-09-09T06:36:43.000Z</time>
      </trkpt>
      <trkpt lat="46.50653" lon="0.36639">
        <ele>185.09</ele>
        <time>2018-09-09T06:36:45.000Z</time>
      </trkpt>
      <trkpt lat="46.50658" lon="0.36626">
        <ele>183.71</ele>
        <time>2018-09-09T06:36:47.000Z</time>
      </trkpt>
      <trkpt lat="46.50668" lon="0.36613">
        <ele>182.13</ele>
        <time>2018-09-09T06:36:50.000Z</time>
      </trkpt>
      <trkpt lat="46.50677" lon="0.36606">
        <ele>181.68</ele>
        <time>2018-09-09T06:36:52.000Z</time>
      </trkpt>
      <trkpt lat="46.50686" lon="0.36597">
        <ele>181.57</ele>
        <time>2018-09-09T06:36:54.000Z</time>
      </trkpt>
      <trkpt lat="46.50693" lon="0.36582">
        <ele>180.94</ele>
        <time>2018-09-09T06:36:56.000Z</time>
      </trkpt>
      <trkpt lat="46.50697" lon="0.36565">
        <ele>180.14</ele>
        <time>2018-09-09T06:36:58.000Z</time>
      </trkpt>
      <trkpt lat="46.50698" lon="0.3655">
        <ele>179.5</ele>
        <time>2018-09-09T06:37:00.000Z</time>
      </trkpt>
      <trkpt lat="46.507" lon="0.36536">
        <ele>179.15</ele>
        <time>2018-09-09T06:37:02.000Z</time>
      </trkpt>
      <trkpt lat="46.50702" lon="0.36517">
        <ele>178.62</ele>
        <time>2018-09-09T06:37:05.000Z</time>
      </trkpt>
      <trkpt lat="46.50703" lon="0.36504">
        <ele>178.2</ele>
        <time>2018-09-09T06:37:07.000Z</time>
      </trkpt>
      <trkpt lat="46.50705" lon="0.36491">
        <ele>177.51</ele>
        <time>2018-09-09T06:37:09.000Z</time>
      </trkpt>
      <trkpt lat="46.50707" lon="0.36477">
        <ele>176.91</ele>
        <time>2018-09-09T06:37:11.000Z</time>
      </trkpt>
      <trkpt lat="46.5071" lon="0.36464">
        <ele>176.51</ele>
        <time>2018-09-09T06:37:13.000Z</time>
      </trkpt>
      <trkpt lat="46.50713" lon="0.36445">
        <ele>176.35</ele>
        <time>2018-09-09T06:37:16.000Z</time>
      </trkpt>
      <trkpt lat="46.50715" lon="0.36428">
        <ele>176.37</ele>
        <time>2018-09-09T06:37:19.000Z</time>
      </trkpt>
      <trkpt lat="46.50718" lon="0.36415">
        <ele>177.23</ele>
        <time>2018-09-09T06:37:21.000Z</time>
      </trkpt>
      <trkpt lat="46.5072" lon="0.36396">
        <ele>179</ele>
        <time>2018-09-09T06:37:24.000Z</time>
      </trkpt>
      <trkpt lat="46.50723" lon="0.36379">
        <ele>180.67</ele>
        <time>2018-09-09T06:37:27.000Z</time>
      </trkpt>
      <trkpt lat="46.50726" lon="0.36362">
        <ele>181.75</ele>
        <time>2018-09-09T06:37:30.000Z</time>
      </trkpt>
      <trkpt lat="46.50727" lon="0.36346">
        <ele>182.23</ele>
        <time>2018-09-09T06:37:33.000Z</time>
      </trkpt>
      <trkpt lat="46.50729" lon="0.3633">
        <ele>183.02</ele>
        <time>2018-09-09T06:37:36.000Z</time>
      </trkpt>
      <trkpt lat="46.50731" lon="0.36314">
        <ele>183.13</ele>
        <time>2018-09-09T06:37:39.000Z</time>
      </trkpt>
      <trkpt lat="46.50734" lon="0.36298">
        <ele>183.65</ele>
        <time>2018-09-09T06:37:42.000Z</time>
      </trkpt>
      <trkpt lat="46.50734" lon="0.36282">
        <ele>184.35</ele>
        <time>2018-09-09T06:37:45.000Z</time>
      </trkpt>
      <trkpt lat="46.50736" lon="0.36265">
        <ele>185.65</ele>
        <time>2018-09-09T06:37:48.000Z</time>
      </trkpt>
      <trkpt lat="46.50739" lon="0.36248">
        <ele>186.02</ele>
        <time>2018-09-09T06:37:51.000Z</time>
      </trkpt>
      <trkpt lat="46.50741" lon="0.36231">
        <ele>186.13</ele>
        <time>2018-09-09T06:37:54.000Z</time>
      </trkpt>
      <trkpt lat="46.50743" lon="0.36215">
        <ele>186.16</ele>
        <time>2018-09-09T06:37:57.000Z</time>
      </trkpt>
      <trkpt lat="46.50746" lon="0.36197">
        <ele>186.25</ele>
        <time>2018-09-09T06:38:00.000Z</time>
      </trkpt>
      <trkpt lat="46.50749" lon="0.3618">
        <ele>186.53</ele>
        <time>2018-09-09T06:38:03.000Z</time>
      </trkpt>
      <trkpt lat="46.50752" lon="0.36163">
        <ele>186.83</ele>
        <time>2018-09-09T06:38:06.000Z</time>
      </trkpt>
      <trkpt lat="46.50755" lon="0.36146">
        <ele>187.16</ele>
        <time>2018-09-09T06:38:09.000Z</time>
      </trkpt>
      <trkpt lat="46.50761" lon="0.36131">
        <ele>187.82</ele>
        <time>2018-09-09T06:38:12.000Z</time>
      </trkpt>
      <trkpt lat="46.5077" lon="0.36119">
        <ele>188.12</ele>
        <time>2018-09-09T06:38:15.000Z</time>
      </trkpt>
      <trkpt lat="46.50777" lon="0.36109">
        <ele>188.16</ele>
        <time>2018-09-09T06:38:17.000Z</time>
      </trkpt>
      <trkpt lat="46.50782" lon="0.36096">
        <ele>187.81</ele>
        <time>2018-09-09T06:38:19.000Z</time>
      </trkpt>
      <trkpt lat="46.50782" lon="0.36082">
        <ele>187.53</ele>
        <time>2018-09-09T06:38:21.000Z</time>
      </trkpt>
      <trkpt lat="46.50777" lon="0.36068">
        <ele>186.66</ele>
        <time>2018-09-09T06:38:24.000Z</time>
      </trkpt>
      <trkpt lat="46.50776" lon="0.3605">
        <ele>186.59</ele>
        <time>2018-09-09T06:38:27.000Z</time>
      </trkpt>
      <trkpt lat="46.50776" lon="0.36035">
        <ele>187.45</ele>
        <time>2018-09-09T06:38:29.000Z</time>
      </trkpt>
      <trkpt lat="46.50775" lon="0.3602">
        <ele>188.21</ele>
        <time>2018-09-09T06:38:32.000Z</time>
      </trkpt>
      <trkpt lat="46.50775" lon="0.36004">
        <ele>189.44</ele>
        <time>2018-09-09T06:38:35.000Z</time>
      </trkpt>
      <trkpt lat="46.50774" lon="0.35989">
        <ele>189.58</ele>
        <time>2018-09-09T06:38:38.000Z</time>
      </trkpt>
      <trkpt lat="46.50774" lon="0.35973">
        <ele>189.7</ele>
        <time>2018-09-09T06:38:41.000Z</time>
      </trkpt>
      <trkpt lat="46.50772" lon="0.35957">
        <ele>189.83</ele>
        <time>2018-09-09T06:38:44.000Z</time>
      </trkpt>
      <trkpt lat="46.5077" lon="0.35941">
        <ele>191.01</ele>
        <time>2018-09-09T06:38:47.000Z</time>
      </trkpt>
      <trkpt lat="46.50767" lon="0.35924">
        <ele>191.71</ele>
        <time>2018-09-09T06:38:50.000Z</time>
      </trkpt>
      <trkpt lat="46.50763" lon="0.35908">
        <ele>192.22</ele>
        <time>2018-09-09T06:38:53.000Z</time>
      </trkpt>
      <trkpt lat="46.50759" lon="0.35892">
        <ele>192.42</ele>
        <time>2018-09-09T06:38:56.000Z</time>
      </trkpt>
      <trkpt lat="46.50756" lon="0.35877">
        <ele>192.5</ele>
        <time>2018-09-09T06:38:59.000Z</time>
      </trkpt>
      <trkpt lat="46.50753" lon="0.35862">
        <ele>192.63</ele>
        <time>2018-09-09T06:39:02.000Z</time>
      </trkpt>
      <trkpt lat="46.50756" lon="0.35846">
        <ele>193.72</ele>
        <time>2018-09-09T06:39:05.000Z</time>
      </trkpt>
      <trkpt lat="46.5076" lon="0.35831">
        <ele>195.02</ele>
        <time>2018-09-09T06:39:08.000Z</time>
      </trkpt>
      <trkpt lat="46.50765" lon="0.35814">
        <ele>196.05</ele>
        <time>2018-09-09T06:39:11.000Z</time>
      </trkpt>
      <trkpt lat="46.50772" lon="0.35799">
        <ele>196.48</ele>
        <time>2018-09-09T06:39:14.000Z</time>
      </trkpt>
      <trkpt lat="46.50778" lon="0.35788">
        <ele>196.56</ele>
        <time>2018-09-09T06:39:16.000Z</time>
      </trkpt>
      <trkpt lat="46.50784" lon="0.35777">
        <ele>196.48</ele>
        <time>2018-09-09T06:39:18.000Z</time>
      </trkpt>
      <trkpt lat="46.50791" lon="0.35767">
        <ele>196.42</ele>
        <time>2018-09-09T06:39:20.000Z</time>
      </trkpt>
      <trkpt lat="46.50798" lon="0.35758">
        <ele>196.4</ele>
        <time>2018-09-09T06:39:22.000Z</time>
      </trkpt>
      <trkpt lat="46.50806" lon="0.35752">
        <ele>196.51</ele>
        <time>2018-09-09T06:39:24.000Z</time>
      </trkpt>
      <trkpt lat="46.50813" lon="0.35741">
        <ele>196.55</ele>
        <time>2018-09-09T06:39:27.000Z</time>
      </trkpt>
      <trkpt lat="46.50824" lon="0.35733">
        <ele>196.88</ele>
        <time>2018-09-09T06:39:30.000Z</time>
      </trkpt>
      <trkpt lat="46.50832" lon="0.35718">
        <ele>197.19</ele>
        <time>2018-09-09T06:39:33.000Z</time>
      </trkpt>
      <trkpt lat="46.50836" lon="0.35706">
        <ele>196.79</ele>
        <time>2018-09-09T06:39:35.000Z</time>
      </trkpt>
      <trkpt lat="46.50841" lon="0.35694">
        <ele>196.26</ele>
        <time>2018-09-09T06:39:37.000Z</time>
      </trkpt>
      <trkpt lat="46.50852" lon="0.35681">
        <ele>195.73</ele>
        <time>2018-09-09T06:39:40.000Z</time>
      </trkpt>
      <trkpt lat="46.50861" lon="0.35675">
        <ele>195.2</ele>
        <time>2018-09-09T06:39:42.000Z</time>
      </trkpt>
      <trkpt lat="46.50868" lon="0.35666">
        <ele>194.94</ele>
        <time>2018-09-09T06:39:44.000Z</time>
      </trkpt>
      <trkpt lat="46.50875" lon="0.35657">
        <ele>194.98</ele>
        <time>2018-09-09T06:39:46.000Z</time>
      </trkpt>
      <trkpt lat="46.50883" lon="0.35646">
        <ele>195.03</ele>
        <time>2018-09-09T06:39:48.000Z</time>
      </trkpt>
      <trkpt lat="46.50891" lon="0.35634">
        <ele>194.85</ele>
        <time>2018-09-09T06:39:50.000Z</time>
      </trkpt>
      <trkpt lat="46.50899" lon="0.35621">
        <ele>194.56</ele>
        <time>2018-09-09T06:39:52.000Z</time>
      </trkpt>
      <trkpt lat="46.50907" lon="0.35608">
        <ele>194.16</ele>
        <time>2018-09-09T06:39:54.000Z</time>
      </trkpt>
      <trkpt lat="46.50914" lon="0.35595">
        <ele>193.7</ele>
        <time>2018-09-09T06:39:56.000Z</time>
      </trkpt>
      <trkpt lat="46.50922" lon="0.35583">
        <ele>193.59</ele>
        <time>2018-09-09T06:39:58.000Z</time>
      </trkpt>
      <trkpt lat="46.5093" lon="0.3557">
        <ele>193.57</ele>
        <time>2018-09-09T06:40:00.000Z</time>
      </trkpt>
      <trkpt lat="46.50937" lon="0.35558">
        <ele>193.69</ele>
        <time>2018-09-09T06:40:02.000Z</time>
      </trkpt>
      <trkpt lat="46.50946" lon="0.35545">
        <ele>193.66</ele>
        <time>2018-09-09T06:40:04.000Z</time>
      </trkpt>
      <trkpt lat="46.50953" lon="0.35532">
        <ele>193.13</ele>
        <time>2018-09-09T06:40:06.000Z</time>
      </trkpt>
      <trkpt lat="46.5096" lon="0.35516">
        <ele>192.11</ele>
        <time>2018-09-09T06:40:08.000Z</time>
      </trkpt>
      <trkpt lat="46.50967" lon="0.35501">
        <ele>191.18</ele>
        <time>2018-09-09T06:40:10.000Z</time>
      </trkpt>
      <trkpt lat="46.50975" lon="0.35488">
        <ele>190.54</ele>
        <time>2018-09-09T06:40:12.000Z</time>
      </trkpt>
      <trkpt lat="46.50983" lon="0.35474">
        <ele>190.13</ele>
        <time>2018-09-09T06:40:14.000Z</time>
      </trkpt>
      <trkpt lat="46.50993" lon="0.35463">
        <ele>189.88</ele>
        <time>2018-09-09T06:40:16.000Z</time>
      </trkpt>
      <trkpt lat="46.51001" lon="0.35451">
        <ele>189.77</ele>
        <time>2018-09-09T06:40:18.000Z</time>
      </trkpt>
      <trkpt lat="46.51009" lon="0.3544">
        <ele>189.67</ele>
        <time>2018-09-09T06:40:20.000Z</time>
      </trkpt>
      <trkpt lat="46.51018" lon="0.35429">
        <ele>189.59</ele>
        <time>2018-09-09T06:40:22.000Z</time>
      </trkpt>
      <trkpt lat="46.51027" lon="0.35421">
        <ele>189.57</ele>
        <time>2018-09-09T06:40:24.000Z</time>
      </trkpt>
      <trkpt lat="46.51036" lon="0.35419">
        <ele>189.56</ele>
        <time>2018-09-09T06:40:26.000Z</time>
      </trkpt>
      <trkpt lat="46.51045" lon="0.35415">
        <ele>189.42</ele>
        <time>2018-09-09T06:40:28.000Z</time>
      </trkpt>
      <trkpt lat="46.51051" lon="0.35404">
        <ele>189.25</ele>
        <time>2018-09-09T06:40:30.000Z</time>
      </trkpt>
      <trkpt lat="46.5105" lon="0.35389">
        <ele>188.92</ele>
        <time>2018-09-09T06:40:32.000Z</time>
      </trkpt>
      <trkpt lat="46.51044" lon="0.35378">
        <ele>188.54</ele>
        <time>2018-09-09T06:40:34.000Z</time>
      </trkpt>
      <trkpt lat="46.51039" lon="0.35366">
        <ele>188.29</ele>
        <time>2018-09-09T06:40:36.000Z</time>
      </trkpt>
      <trkpt lat="46.51039" lon="0.35352">
        <ele>188.21</ele>
        <time>2018-09-09T06:40:38.000Z</time>
      </trkpt>
      <trkpt lat="46.51041" lon="0.35339">
        <ele>188.12</ele>
        <time>2018-09-09T06:40:40.000Z</time>
      </trkpt>
      <trkpt lat="46.51045" lon="0.35322">
        <ele>187.88</ele>
        <time>2018-09-09T06:40:43.000Z</time>
      </trkpt>
      <trkpt lat="46.51047" lon="0.35308">
        <ele>187.81</ele>
        <time>2018-09-09T06:40:45.000Z</time>
      </trkpt>
      <trkpt lat="46.51049" lon="0.35292">
        <ele>187.64</ele>
        <time>2018-09-09T06:40:47.000Z</time>
      </trkpt>
      <trkpt lat="46.51051" lon="0.35274">
        <ele>187.42</ele>
        <time>2018-09-09T06:40:49.000Z</time>
      </trkpt>
      <trkpt lat="46.51053" lon="0.35256">
        <ele>187.04</ele>
        <time>2018-09-09T06:40:51.000Z</time>
      </trkpt>
      <trkpt lat="46.51056" lon="0.35237">
        <ele>186.82</ele>
        <time>2018-09-09T06:40:53.000Z</time>
      </trkpt>
      <trkpt lat="46.51058" lon="0.35217">
        <ele>186.49</ele>
        <time>2018-09-09T06:40:55.000Z</time>
      </trkpt>
      <trkpt lat="46.5106" lon="0.35197">
        <ele>186.18</ele>
        <time>2018-09-09T06:40:57.000Z</time>
      </trkpt>
      <trkpt lat="46.51063" lon="0.35176">
        <ele>185.74</ele>
        <time>2018-09-09T06:40:59.000Z</time>
      </trkpt>
      <trkpt lat="46.51065" lon="0.35155">
        <ele>185.28</ele>
        <time>2018-09-09T06:41:01.000Z</time>
      </trkpt>
      <trkpt lat="46.51066" lon="0.35134">
        <ele>184.93</ele>
        <time>2018-09-09T06:41:03.000Z</time>
      </trkpt>
      <trkpt lat="46.51069" lon="0.35113">
        <ele>184.62</ele>
        <time>2018-09-09T06:41:05.000Z</time>
      </trkpt>
      <trkpt lat="46.51073" lon="0.35091">
        <ele>184.27</ele>
        <time>2018-09-09T06:41:07.000Z</time>
      </trkpt>
      <trkpt lat="46.51078" lon="0.35071">
        <ele>183.8</ele>
        <time>2018-09-09T06:41:09.000Z</time>
      </trkpt>
      <trkpt lat="46.51082" lon="0.35057">
        <ele>183.21</ele>
        <time>2018-09-09T06:41:11.000Z</time>
      </trkpt>
      <trkpt lat="46.51083" lon="0.35043">
        <ele>183.02</ele>
        <time>2018-09-09T06:41:15.000Z</time>
      </trkpt>
      <trkpt lat="46.51087" lon="0.35028">
        <ele>181.64</ele>
        <time>2018-09-09T06:41:27.000Z</time>
      </trkpt>
      <trkpt lat="46.51087" lon="0.35014">
        <ele>180.99</ele>
        <time>2018-09-09T06:41:29.000Z</time>
      </trkpt>
      <trkpt lat="46.51092" lon="0.35003">
        <ele>180.39</ele>
        <time>2018-09-09T06:41:31.000Z</time>
      </trkpt>
      <trkpt lat="46.51103" lon="0.35003">
        <ele>179.91</ele>
        <time>2018-09-09T06:41:33.000Z</time>
      </trkpt>
      <trkpt lat="46.51112" lon="0.35006">
        <ele>179.67</ele>
        <time>2018-09-09T06:41:35.000Z</time>
      </trkpt>
      <trkpt lat="46.51124" lon="0.35007">
        <ele>179.11</ele>
        <time>2018-09-09T06:41:38.000Z</time>
      </trkpt>
      <trkpt lat="46.51133" lon="0.34995">
        <ele>178.94</ele>
        <time>2018-09-09T06:41:41.000Z</time>
      </trkpt>
      <trkpt lat="46.51136" lon="0.34976">
        <ele>178.8</ele>
        <time>2018-09-09T06:41:44.000Z</time>
      </trkpt>
      <trkpt lat="46.51138" lon="0.34962">
        <ele>178.68</ele>
        <time>2018-09-09T06:41:46.000Z</time>
      </trkpt>
      <trkpt lat="46.51136" lon="0.34944">
        <ele>179.07</ele>
        <time>2018-09-09T06:41:49.000Z</time>
      </trkpt>
      <trkpt lat="46.51137" lon="0.34928">
        <ele>180.07</ele>
        <time>2018-09-09T06:41:52.000Z</time>
      </trkpt>
      <trkpt lat="46.51138" lon="0.3491">
        <ele>180.82</ele>
        <time>2018-09-09T06:41:55.000Z</time>
      </trkpt>
      <trkpt lat="46.5114" lon="0.34892">
        <ele>180.84</ele>
        <time>2018-09-09T06:41:58.000Z</time>
      </trkpt>
      <trkpt lat="46.51146" lon="0.34881">
        <ele>180.9</ele>
        <time>2018-09-09T06:42:01.000Z</time>
      </trkpt>
      <trkpt lat="46.51157" lon="0.34877">
        <ele>180.9</ele>
        <time>2018-09-09T06:42:04.000Z</time>
      </trkpt>
      <trkpt lat="46.51167" lon="0.34875">
        <ele>180.97</ele>
        <time>2018-09-09T06:42:07.000Z</time>
      </trkpt>
      <trkpt lat="46.51177" lon="0.34875">
        <ele>181.04</ele>
        <time>2018-09-09T06:42:10.000Z</time>
      </trkpt>
      <trkpt lat="46.5119" lon="0.34878">
        <ele>179.96</ele>
        <time>2018-09-09T06:42:13.000Z</time>
      </trkpt>
      <trkpt lat="46.51202" lon="0.34879">
        <ele>178.59</ele>
        <time>2018-09-09T06:42:16.000Z</time>
      </trkpt>
      <trkpt lat="46.51216" lon="0.34883">
        <ele>176.92</ele>
        <time>2018-09-09T06:42:19.000Z</time>
      </trkpt>
      <trkpt lat="46.51226" lon="0.34883">
        <ele>176.23</ele>
        <time>2018-09-09T06:42:21.000Z</time>
      </trkpt>
      <trkpt lat="46.51239" lon="0.34885">
        <ele>175.97</ele>
        <time>2018-09-09T06:42:24.000Z</time>
      </trkpt>
      <trkpt lat="46.51251" lon="0.34888">
        <ele>175.74</ele>
        <time>2018-09-09T06:42:27.000Z</time>
      </trkpt>
      <trkpt lat="46.51261" lon="0.34891">
        <ele>176.31</ele>
        <time>2018-09-09T06:42:29.000Z</time>
      </trkpt>
      <trkpt lat="46.51271" lon="0.34896">
        <ele>176.59</ele>
        <time>2018-09-09T06:42:31.000Z</time>
      </trkpt>
      <trkpt lat="46.51281" lon="0.34904">
        <ele>176.59</ele>
        <time>2018-09-09T06:42:34.000Z</time>
      </trkpt>
      <trkpt lat="46.51286" lon="0.34916">
        <ele>176.16</ele>
        <time>2018-09-09T06:42:39.000Z</time>
      </trkpt>
      <trkpt lat="46.51293" lon="0.34905">
        <ele>175.5</ele>
        <time>2018-09-09T06:42:47.000Z</time>
      </trkpt>
      <trkpt lat="46.51289" lon="0.3489">
        <ele>175.42</ele>
        <time>2018-09-09T06:42:51.000Z</time>
      </trkpt>
      <trkpt lat="46.51296" lon="0.34879">
        <ele>175.21</ele>
        <time>2018-09-09T06:42:56.000Z</time>
      </trkpt>
      <trkpt lat="46.51295" lon="0.34864">
        <ele>175.08</ele>
        <time>2018-09-09T06:43:00.000Z</time>
      </trkpt>
      <trkpt lat="46.51294" lon="0.34851">
        <ele>175.14</ele>
        <time>2018-09-09T06:43:04.000Z</time>
      </trkpt>
      <trkpt lat="46.51295" lon="0.34836">
        <ele>175.1</ele>
        <time>2018-09-09T06:43:08.000Z</time>
      </trkpt>
      <trkpt lat="46.51297" lon="0.3482">
        <ele>175.06</ele>
        <time>2018-09-09T06:43:13.000Z</time>
      </trkpt>
      <trkpt lat="46.51306" lon="0.3481">
        <ele>175.86</ele>
        <time>2018-09-09T06:43:23.000Z</time>
      </trkpt>
      <trkpt lat="46.51311" lon="0.34825">
        <ele>176.74</ele>
        <time>2018-09-09T06:43:29.000Z</time>
      </trkpt>
      <trkpt lat="46.51319" lon="0.34831">
        <ele>177.36</ele>
        <time>2018-09-09T06:43:33.000Z</time>
      </trkpt>
      <trkpt lat="46.51328" lon="0.34832">
        <ele>177.88</ele>
        <time>2018-09-09T06:43:36.000Z</time>
      </trkpt>
      <trkpt lat="46.51338" lon="0.34829">
        <ele>178.46</ele>
        <time>2018-09-09T06:43:39.000Z</time>
      </trkpt>
      <trkpt lat="46.5135" lon="0.34833">
        <ele>179.29</ele>
        <time>2018-09-09T06:43:43.000Z</time>
      </trkpt>
      <trkpt lat="46.51358" lon="0.34841">
        <ele>179.74</ele>
        <time>2018-09-09T06:43:46.000Z</time>
      </trkpt>
      <trkpt lat="46.51367" lon="0.34847">
        <ele>180</ele>
        <time>2018-09-09T06:43:49.000Z</time>
      </trkpt>
      <trkpt lat="46.51376" lon="0.34853">
        <ele>180.12</ele>
        <time>2018-09-09T06:43:53.000Z</time>
      </trkpt>
      <trkpt lat="46.51387" lon="0.34846">
        <ele>180.06</ele>
        <time>2018-09-09T06:43:57.000Z</time>
      </trkpt>
      <trkpt lat="46.51394" lon="0.34836">
        <ele>180.1</ele>
        <time>2018-09-09T06:44:02.000Z</time>
      </trkpt>
      <trkpt lat="46.51397" lon="0.34823">
        <ele>179.91</ele>
        <time>2018-09-09T06:44:06.000Z</time>
      </trkpt>
      <trkpt lat="46.51408" lon="0.34816">
        <ele>178.89</ele>
        <time>2018-09-09T06:44:16.000Z</time>
      </trkpt>
      <trkpt lat="46.51411" lon="0.34802">
        <ele>178.59</ele>
        <time>2018-09-09T06:44:20.000Z</time>
      </trkpt>
      <trkpt lat="46.51416" lon="0.3479">
        <ele>178.33</ele>
        <time>2018-09-09T06:44:23.000Z</time>
      </trkpt>
      <trkpt lat="46.51422" lon="0.34774">
        <ele>177.93</ele>
        <time>2018-09-09T06:44:26.000Z</time>
      </trkpt>
      <trkpt lat="46.51423" lon="0.3476">
        <ele>176.6</ele>
        <time>2018-09-09T06:44:34.000Z</time>
      </trkpt>
      <trkpt lat="46.51428" lon="0.34747">
        <ele>175.96</ele>
        <time>2018-09-09T06:44:39.000Z</time>
      </trkpt>
      <trkpt lat="46.51435" lon="0.34732">
        <ele>175.71</ele>
        <time>2018-09-09T06:44:43.000Z</time>
      </trkpt>
      <trkpt lat="46.51439" lon="0.34718">
        <ele>175.55</ele>
        <time>2018-09-09T06:44:46.000Z</time>
      </trkpt>
      <trkpt lat="46.51443" lon="0.34703">
        <ele>175.21</ele>
        <time>2018-09-09T06:44:49.000Z</time>
      </trkpt>
      <trkpt lat="46.51445" lon="0.34689">
        <ele>174.47</ele>
        <time>2018-09-09T06:44:56.000Z</time>
      </trkpt>
      <trkpt lat="46.51445" lon="0.34675">
        <ele>174.22</ele>
        <time>2018-09-09T06:45:00.000Z</time>
      </trkpt>
      <trkpt lat="46.51452" lon="0.34663">
        <ele>173.83</ele>
        <time>2018-09-09T06:45:05.000Z</time>
      </trkpt>
      <trkpt lat="46.51461" lon="0.3466">
        <ele>173.27</ele>
        <time>2018-09-09T06:45:09.000Z</time>
      </trkpt>
      <trkpt lat="46.51466" lon="0.34646">
        <ele>172.56</ele>
        <time>2018-09-09T06:45:13.000Z</time>
      </trkpt>
      <trkpt lat="46.51471" lon="0.34632">
        <ele>172.06</ele>
        <time>2018-09-09T06:45:16.000Z</time>
      </trkpt>
      <trkpt lat="46.51476" lon="0.3462">
        <ele>171.38</ele>
        <time>2018-09-09T06:45:20.000Z</time>
      </trkpt>
      <trkpt lat="46.5148" lon="0.34606">
        <ele>170.79</ele>
        <time>2018-09-09T06:45:23.000Z</time>
      </trkpt>
      <trkpt lat="46.51485" lon="0.34589">
        <ele>166.58</ele>
        <time>2018-09-09T06:45:26.000Z</time>
      </trkpt>
      <trkpt lat="46.5149" lon="0.34574">
        <ele>163.98</ele>
        <time>2018-09-09T06:45:28.000Z</time>
      </trkpt>
      <trkpt lat="46.51498" lon="0.34562">
        <ele>162.71</ele>
        <time>2018-09-09T06:45:30.000Z</time>
      </trkpt>
      <trkpt lat="46.51503" lon="0.34551">
        <ele>162.1</ele>
        <time>2018-09-09T06:45:33.000Z</time>
      </trkpt>
      <trkpt lat="46.51506" lon="0.34537">
        <ele>161.85</ele>
        <time>2018-09-09T06:45:37.000Z</time>
      </trkpt>
      <trkpt lat="46.51507" lon="0.34523">
        <ele>161.52</ele>
        <time>2018-09-09T06:45:41.000Z</time>
      </trkpt>
      <trkpt lat="46.51498" lon="0.34519">
        <ele>161.31</ele>
        <time>2018-09-09T06:45:44.000Z</time>
      </trkpt>
      <trkpt lat="46.5149" lon="0.34511">
        <ele>161.09</ele>
        <time>2018-09-09T06:45:48.000Z</time>
      </trkpt>
      <trkpt lat="46.51478" lon="0.34506">
        <ele>161.01</ele>
        <time>2018-09-09T06:45:52.000Z</time>
      </trkpt>
      <trkpt lat="46.51468" lon="0.345">
        <ele>161.07</ele>
        <time>2018-09-09T06:45:56.000Z</time>
      </trkpt>
      <trkpt lat="46.51457" lon="0.34497">
        <ele>161.35</ele>
        <time>2018-09-09T06:46:00.000Z</time>
      </trkpt>
      <trkpt lat="46.51447" lon="0.34496">
        <ele>161.82</ele>
        <time>2018-09-09T06:46:04.000Z</time>
      </trkpt>
      <trkpt lat="46.51435" lon="0.34494">
        <ele>162.4</ele>
        <time>2018-09-09T06:46:08.000Z</time>
      </trkpt>
      <trkpt lat="46.51425" lon="0.34493">
        <ele>163.03</ele>
        <time>2018-09-09T06:46:12.000Z</time>
      </trkpt>
      <trkpt lat="46.51415" lon="0.34495">
        <ele>163.87</ele>
        <time>2018-09-09T06:46:17.000Z</time>
      </trkpt>
      <trkpt lat="46.51406" lon="0.34501">
        <ele>164.63</ele>
        <time>2018-09-09T06:46:21.000Z</time>
      </trkpt>
      <trkpt lat="46.51399" lon="0.34512">
        <ele>165.49</ele>
        <time>2018-09-09T06:46:26.000Z</time>
      </trkpt>
      <trkpt lat="46.51391" lon="0.34521">
        <ele>166.21</ele>
        <time>2018-09-09T06:46:31.000Z</time>
      </trkpt>
      <trkpt lat="46.51382" lon="0.3453">
        <ele>166.92</ele>
        <time>2018-09-09T06:46:36.000Z</time>
      </trkpt>
      <trkpt lat="46.51373" lon="0.34539">
        <ele>167.76</ele>
        <time>2018-09-09T06:46:41.000Z</time>
      </trkpt>
      <trkpt lat="46.51363" lon="0.34545">
        <ele>168.65</ele>
        <time>2018-09-09T06:46:46.000Z</time>
      </trkpt>
      <trkpt lat="46.51355" lon="0.3455">
        <ele>169.35</ele>
        <time>2018-09-09T06:46:50.000Z</time>
      </trkpt>
      <trkpt lat="46.51345" lon="0.34554">
        <ele>170.02</ele>
        <time>2018-09-09T06:46:54.000Z</time>
      </trkpt>
      <trkpt lat="46.51336" lon="0.34558">
        <ele>170.66</ele>
        <time>2018-09-09T06:46:58.000Z</time>
      </trkpt>
      <trkpt lat="46.51326" lon="0.34564">
        <ele>171.27</ele>
        <time>2018-09-09T06:47:02.000Z</time>
      </trkpt>
      <trkpt lat="46.51321" lon="0.34577">
        <ele>172.41</ele>
        <time>2018-09-09T06:47:09.000Z</time>
      </trkpt>
      <trkpt lat="46.51318" lon="0.34591">
        <ele>172.99</ele>
        <time>2018-09-09T06:47:13.000Z</time>
      </trkpt>
      <trkpt lat="46.51318" lon="0.34607">
        <ele>173.43</ele>
        <time>2018-09-09T06:47:17.000Z</time>
      </trkpt>
      <trkpt lat="46.5132" lon="0.34621">
        <ele>174.01</ele>
        <time>2018-09-09T06:47:21.000Z</time>
      </trkpt>
      <trkpt lat="46.51321" lon="0.34636">
        <ele>174.62</ele>
        <time>2018-09-09T06:47:24.000Z</time>
      </trkpt>
      <trkpt lat="46.51323" lon="0.3465">
        <ele>175</ele>
        <time>2018-09-09T06:47:26.000Z</time>
      </trkpt>
      <trkpt lat="46.51323" lon="0.34664">
        <ele>175.5</ele>
        <time>2018-09-09T06:47:30.000Z</time>
      </trkpt>
      <trkpt lat="46.51326" lon="0.34651">
        <ele>177.18</ele>
        <time>2018-09-09T06:47:43.000Z</time>
      </trkpt>
      <trkpt lat="46.51326" lon="0.34635">
        <ele>177.69</ele>
        <time>2018-09-09T06:47:47.000Z</time>
      </trkpt>
      <trkpt lat="46.51325" lon="0.34618">
        <ele>179.21</ele>
        <time>2018-09-09T06:47:50.000Z</time>
      </trkpt>
      <trkpt lat="46.51325" lon="0.34602">
        <ele>179.52</ele>
        <time>2018-09-09T06:47:53.000Z</time>
      </trkpt>
      <trkpt lat="46.51324" lon="0.34589">
        <ele>179.85</ele>
        <time>2018-09-09T06:47:56.000Z</time>
      </trkpt>
      <trkpt lat="46.51323" lon="0.34574">
        <ele>180.28</ele>
        <time>2018-09-09T06:48:02.000Z</time>
      </trkpt>
      <trkpt lat="46.51314" lon="0.3458">
        <ele>180.37</ele>
        <time>2018-09-09T06:48:05.000Z</time>
      </trkpt>
      <trkpt lat="46.51305" lon="0.34588">
        <ele>180.43</ele>
        <time>2018-09-09T06:48:08.000Z</time>
      </trkpt>
      <trkpt lat="46.51296" lon="0.34596">
        <ele>180.48</ele>
        <time>2018-09-09T06:48:11.000Z</time>
      </trkpt>
      <trkpt lat="46.51288" lon="0.34603">
        <ele>180.54</ele>
        <time>2018-09-09T06:48:14.000Z</time>
      </trkpt>
      <trkpt lat="46.51277" lon="0.34607">
        <ele>180.57</ele>
        <time>2018-09-09T06:48:17.000Z</time>
      </trkpt>
      <trkpt lat="46.51266" lon="0.34608">
        <ele>180.8</ele>
        <time>2018-09-09T06:48:20.000Z</time>
      </trkpt>
      <trkpt lat="46.51255" lon="0.34604">
        <ele>180.87</ele>
        <time>2018-09-09T06:48:23.000Z</time>
      </trkpt>
      <trkpt lat="46.51245" lon="0.34604">
        <ele>180.96</ele>
        <time>2018-09-09T06:48:26.000Z</time>
      </trkpt>
      <trkpt lat="46.51235" lon="0.34604">
        <ele>181.09</ele>
        <time>2018-09-09T06:48:29.000Z</time>
      </trkpt>
      <trkpt lat="46.51224" lon="0.34605">
        <ele>181.23</ele>
        <time>2018-09-09T06:48:32.000Z</time>
      </trkpt>
      <trkpt lat="46.51215" lon="0.34605">
        <ele>181.32</ele>
        <time>2018-09-09T06:48:35.000Z</time>
      </trkpt>
      <trkpt lat="46.51204" lon="0.34606">
        <ele>181.41</ele>
        <time>2018-09-09T06:48:38.000Z</time>
      </trkpt>
      <trkpt lat="46.51193" lon="0.34609">
        <ele>181.67</ele>
        <time>2018-09-09T06:48:42.000Z</time>
      </trkpt>
      <trkpt lat="46.51185" lon="0.346">
        <ele>182.01</ele>
        <time>2018-09-09T06:48:46.000Z</time>
      </trkpt>
      <trkpt lat="46.51186" lon="0.34582">
        <ele>183.47</ele>
        <time>2018-09-09T06:48:49.000Z</time>
      </trkpt>
      <trkpt lat="46.51189" lon="0.34569">
        <ele>183.41</ele>
        <time>2018-09-09T06:48:51.000Z</time>
      </trkpt>
      <trkpt lat="46.5119" lon="0.34556">
        <ele>183.13</ele>
        <time>2018-09-09T06:48:53.000Z</time>
      </trkpt>
      <trkpt lat="46.51191" lon="0.3454">
        <ele>182.62</ele>
        <time>2018-09-09T06:48:55.000Z</time>
      </trkpt>
      <trkpt lat="46.5119" lon="0.34524">
        <ele>182.15</ele>
        <time>2018-09-09T06:48:57.000Z</time>
      </trkpt>
      <trkpt lat="46.51188" lon="0.34508">
        <ele>181.58</ele>
        <time>2018-09-09T06:48:59.000Z</time>
      </trkpt>
      <trkpt lat="46.51186" lon="0.34493">
        <ele>181.1</ele>
        <time>2018-09-09T06:49:01.000Z</time>
      </trkpt>
      <trkpt lat="46.51183" lon="0.34477">
        <ele>180.82</ele>
        <time>2018-09-09T06:49:03.000Z</time>
      </trkpt>
      <trkpt lat="46.5118" lon="0.34463">
        <ele>180.58</ele>
        <time>2018-09-09T06:49:05.000Z</time>
      </trkpt>
      <trkpt lat="46.51177" lon="0.34449">
        <ele>180.52</ele>
        <time>2018-09-09T06:49:07.000Z</time>
      </trkpt>
      <trkpt lat="46.51175" lon="0.34435">
        <ele>180.75</ele>
        <time>2018-09-09T06:49:09.000Z</time>
      </trkpt>
      <trkpt lat="46.51171" lon="0.34421">
        <ele>181.17</ele>
        <time>2018-09-09T06:49:11.000Z</time>
      </trkpt>
      <trkpt lat="46.51168" lon="0.34407">
        <ele>181.61</ele>
        <time>2018-09-09T06:49:13.000Z</time>
      </trkpt>
      <trkpt lat="46.51165" lon="0.34394">
        <ele>181.97</ele>
        <time>2018-09-09T06:49:15.000Z</time>
      </trkpt>
      <trkpt lat="46.51162" lon="0.34381">
        <ele>182.34</ele>
        <time>2018-09-09T06:49:17.000Z</time>
      </trkpt>
      <trkpt lat="46.51159" lon="0.34368">
        <ele>182.74</ele>
        <time>2018-09-09T06:49:19.000Z</time>
      </trkpt>
      <trkpt lat="46.51157" lon="0.34354">
        <ele>183.14</ele>
        <time>2018-09-09T06:49:21.000Z</time>
      </trkpt>
      <trkpt lat="46.51156" lon="0.34339">
        <ele>183.51</ele>
        <time>2018-09-09T06:49:23.000Z</time>
      </trkpt>
      <trkpt lat="46.51156" lon="0.34325">
        <ele>183.83</ele>
        <time>2018-09-09T06:49:25.000Z</time>
      </trkpt>
      <trkpt lat="46.51159" lon="0.34311">
        <ele>184.08</ele>
        <time>2018-09-09T06:49:27.000Z</time>
      </trkpt>
      <trkpt lat="46.51162" lon="0.34297">
        <ele>184.38</ele>
        <time>2018-09-09T06:49:29.000Z</time>
      </trkpt>
      <trkpt lat="46.51167" lon="0.34283">
        <ele>184.57</ele>
        <time>2018-09-09T06:49:31.000Z</time>
      </trkpt>
      <trkpt lat="46.51171" lon="0.3427">
        <ele>184.84</ele>
        <time>2018-09-09T06:49:33.000Z</time>
      </trkpt>
      <trkpt lat="46.51175" lon="0.34257">
        <ele>185.15</ele>
        <time>2018-09-09T06:49:35.000Z</time>
      </trkpt>
      <trkpt lat="46.51179" lon="0.34244">
        <ele>185.41</ele>
        <time>2018-09-09T06:49:37.000Z</time>
      </trkpt>
      <trkpt lat="46.51181" lon="0.34231">
        <ele>185.61</ele>
        <time>2018-09-09T06:49:39.000Z</time>
      </trkpt>
      <trkpt lat="46.51183" lon="0.34218">
        <ele>185.78</ele>
        <time>2018-09-09T06:49:41.000Z</time>
      </trkpt>
      <trkpt lat="46.51187" lon="0.342">
        <ele>185.89</ele>
        <time>2018-09-09T06:49:44.000Z</time>
      </trkpt>
      <trkpt lat="46.51191" lon="0.34186">
        <ele>186.09</ele>
        <time>2018-09-09T06:49:47.000Z</time>
      </trkpt>
      <trkpt lat="46.51197" lon="0.34176">
        <ele>186.24</ele>
        <time>2018-09-09T06:49:52.000Z</time>
      </trkpt>
      <trkpt lat="46.51188" lon="0.3418">
        <ele>185.65</ele>
        <time>2018-09-09T06:50:42.000Z</time>
      </trkpt>
      <trkpt lat="46.51179" lon="0.34174">
        <ele>185.46</ele>
        <time>2018-09-09T06:50:46.000Z</time>
      </trkpt>
      <trkpt lat="46.51185" lon="0.34162">
        <ele>185.59</ele>
        <time>2018-09-09T06:50:50.000Z</time>
      </trkpt>
      <trkpt lat="46.51197" lon="0.34163">
        <ele>185.69</ele>
        <time>2018-09-09T06:50:53.000Z</time>
      </trkpt>
      <trkpt lat="46.51202" lon="0.34151">
        <ele>185.63</ele>
        <time>2018-09-09T06:50:56.000Z</time>
      </trkpt>
      <trkpt lat="46.51192" lon="0.34146">
        <ele>184.74</ele>
        <time>2018-09-09T06:50:58.000Z</time>
      </trkpt>
      <trkpt lat="46.51178" lon="0.34142">
        <ele>182.85</ele>
        <time>2018-09-09T06:51:00.000Z</time>
      </trkpt>
      <trkpt lat="46.51167" lon="0.34134">
        <ele>180.62</ele>
        <time>2018-09-09T06:51:02.000Z</time>
      </trkpt>
      <trkpt lat="46.51159" lon="0.34123">
        <ele>179.59</ele>
        <time>2018-09-09T06:51:05.000Z</time>
      </trkpt>
      <trkpt lat="46.5116" lon="0.34108">
        <ele>179.15</ele>
        <time>2018-09-09T06:51:09.000Z</time>
      </trkpt>
      <trkpt lat="46.51165" lon="0.34123">
        <ele>178.39</ele>
        <time>2018-09-09T06:51:19.000Z</time>
      </trkpt>
      <trkpt lat="46.51174" lon="0.34131">
        <ele>178.72</ele>
        <time>2018-09-09T06:51:25.000Z</time>
      </trkpt>
      <trkpt lat="46.51183" lon="0.34137">
        <ele>179.22</ele>
        <time>2018-09-09T06:51:29.000Z</time>
      </trkpt>
      <trkpt lat="46.51193" lon="0.34142">
        <ele>179.99</ele>
        <time>2018-09-09T06:51:34.000Z</time>
      </trkpt>
      <trkpt lat="46.51184" lon="0.3415">
        <ele>181.8</ele>
        <time>2018-09-09T06:51:45.000Z</time>
      </trkpt>
      <trkpt lat="46.51175" lon="0.34151">
        <ele>182.5</ele>
        <time>2018-09-09T06:51:49.000Z</time>
      </trkpt>
      <trkpt lat="46.51163" lon="0.34152">
        <ele>183.13</ele>
        <time>2018-09-09T06:51:53.000Z</time>
      </trkpt>
      <trkpt lat="46.51154" lon="0.34146">
        <ele>184.64</ele>
        <time>2018-09-09T06:51:56.000Z</time>
      </trkpt>
      <trkpt lat="46.51145" lon="0.34141">
        <ele>186.62</ele>
        <time>2018-09-09T06:51:59.000Z</time>
      </trkpt>
      <trkpt lat="46.51133" lon="0.34136">
        <ele>185.58</ele>
        <time>2018-09-09T06:52:02.000Z</time>
      </trkpt>
      <trkpt lat="46.51122" lon="0.34128">
        <ele>184.18</ele>
        <time>2018-09-09T06:52:05.000Z</time>
      </trkpt>
      <trkpt lat="46.5111" lon="0.34121">
        <ele>182.9</ele>
        <time>2018-09-09T06:52:08.000Z</time>
      </trkpt>
      <trkpt lat="46.51098" lon="0.34114">
        <ele>182.06</ele>
        <time>2018-09-09T06:52:11.000Z</time>
      </trkpt>
      <trkpt lat="46.51088" lon="0.34104">
        <ele>181.5</ele>
        <time>2018-09-09T06:52:14.000Z</time>
      </trkpt>
      <trkpt lat="46.51088" lon="0.3409">
        <ele>181.59</ele>
        <time>2018-09-09T06:52:16.000Z</time>
      </trkpt>
      <trkpt lat="46.51091" lon="0.34074">
        <ele>181.75</ele>
        <time>2018-09-09T06:52:18.000Z</time>
      </trkpt>
      <trkpt lat="46.51093" lon="0.34057">
        <ele>181.85</ele>
        <time>2018-09-09T06:52:20.000Z</time>
      </trkpt>
      <trkpt lat="46.51092" lon="0.34037">
        <ele>181.52</ele>
        <time>2018-09-09T06:52:22.000Z</time>
      </trkpt>
      <trkpt lat="46.5109" lon="0.34018">
        <ele>181.21</ele>
        <time>2018-09-09T06:52:24.000Z</time>
      </trkpt>
      <trkpt lat="46.51085" lon="0.34">
        <ele>181.27</ele>
        <time>2018-09-09T06:52:26.000Z</time>
      </trkpt>
      <trkpt lat="46.5108" lon="0.33984">
        <ele>181.61</ele>
        <time>2018-09-09T06:52:28.000Z</time>
      </trkpt>
      <trkpt lat="46.51073" lon="0.33969">
        <ele>181.98</ele>
        <time>2018-09-09T06:52:30.000Z</time>
      </trkpt>
      <trkpt lat="46.51065" lon="0.33956">
        <ele>182.34</ele>
        <time>2018-09-09T06:52:32.000Z</time>
      </trkpt>
      <trkpt lat="46.51056" lon="0.33943">
        <ele>182.73</ele>
        <time>2018-09-09T06:52:34.000Z</time>
      </trkpt>
      <trkpt lat="46.51045" lon="0.3393">
        <ele>183.01</ele>
        <time>2018-09-09T06:52:36.000Z</time>
      </trkpt>
      <trkpt lat="46.51035" lon="0.33916">
        <ele>183.15</ele>
        <time>2018-09-09T06:52:38.000Z</time>
      </trkpt>
      <trkpt lat="46.51024" lon="0.33902">
        <ele>183.22</ele>
        <time>2018-09-09T06:52:40.000Z</time>
      </trkpt>
      <trkpt lat="46.51013" lon="0.33889">
        <ele>183.27</ele>
        <time>2018-09-09T06:52:42.000Z</time>
      </trkpt>
      <trkpt lat="46.51003" lon="0.33875">
        <ele>183.3</ele>
        <time>2018-09-09T06:52:44.000Z</time>
      </trkpt>
      <trkpt lat="46.50994" lon="0.33862">
        <ele>183.34</ele>
        <time>2018-09-09T06:52:46.000Z</time>
      </trkpt>
      <trkpt lat="46.50985" lon="0.33849">
        <ele>183.38</ele>
        <time>2018-09-09T06:52:48.000Z</time>
      </trkpt>
      <trkpt lat="46.50975" lon="0.33836">
        <ele>183.44</ele>
        <time>2018-09-09T06:52:50.000Z</time>
      </trkpt>
      <trkpt lat="46.50966" lon="0.33824">
        <ele>183.62</ele>
        <time>2018-09-09T06:52:52.000Z</time>
      </trkpt>
      <trkpt lat="46.50956" lon="0.33812">
        <ele>183.69</ele>
        <time>2018-09-09T06:52:54.000Z</time>
      </trkpt>
      <trkpt lat="46.50946" lon="0.338">
        <ele>183.65</ele>
        <time>2018-09-09T06:52:56.000Z</time>
      </trkpt>
      <trkpt lat="46.50938" lon="0.33787">
        <ele>183.62</ele>
        <time>2018-09-09T06:52:58.000Z</time>
      </trkpt>
      <trkpt lat="46.50928" lon="0.33775">
        <ele>183.64</ele>
        <time>2018-09-09T06:53:00.000Z</time>
      </trkpt>
      <trkpt lat="46.50918" lon="0.33763">
        <ele>183.66</ele>
        <time>2018-09-09T06:53:02.000Z</time>
      </trkpt>
      <trkpt lat="46.50909" lon="0.33751">
        <ele>183.63</ele>
        <time>2018-09-09T06:53:04.000Z</time>
      </trkpt>
      <trkpt lat="46.509" lon="0.33739">
        <ele>183.44</ele>
        <time>2018-09-09T06:53:06.000Z</time>
      </trkpt>
      <trkpt lat="46.5089" lon="0.33726">
        <ele>183.28</ele>
        <time>2018-09-09T06:53:08.000Z</time>
      </trkpt>
      <trkpt lat="46.50881" lon="0.33712">
        <ele>183.11</ele>
        <time>2018-09-09T06:53:10.000Z</time>
      </trkpt>
      <trkpt lat="46.50871" lon="0.33698">
        <ele>182.99</ele>
        <time>2018-09-09T06:53:12.000Z</time>
      </trkpt>
      <trkpt lat="46.50854" lon="0.33679">
        <ele>182.91</ele>
        <time>2018-09-09T06:53:15.000Z</time>
      </trkpt>
      <trkpt lat="46.50838" lon="0.33658">
        <ele>182.67</ele>
        <time>2018-09-09T06:53:18.000Z</time>
      </trkpt>
      <trkpt lat="46.50831" lon="0.33639">
        <ele>182.64</ele>
        <time>2018-09-09T06:53:20.000Z</time>
      </trkpt>
      <trkpt lat="46.50829" lon="0.33615">
        <ele>182.47</ele>
        <time>2018-09-09T06:53:22.000Z</time>
      </trkpt>
      <trkpt lat="46.50829" lon="0.33601">
        <ele>182.42</ele>
        <time>2018-09-09T06:53:23.000Z</time>
      </trkpt>
      <trkpt lat="46.50831" lon="0.33586">
        <ele>182.3</ele>
        <time>2018-09-09T06:53:24.000Z</time>
      </trkpt>
      <trkpt lat="46.50832" lon="0.33569">
        <ele>182.26</ele>
        <time>2018-09-09T06:53:25.000Z</time>
      </trkpt>
      <trkpt lat="46.50832" lon="0.33553">
        <ele>182.26</ele>
        <time>2018-09-09T06:53:26.000Z</time>
      </trkpt>
      <trkpt lat="46.50833" lon="0.33537">
        <ele>182.28</ele>
        <time>2018-09-09T06:53:27.000Z</time>
      </trkpt>
      <trkpt lat="46.50835" lon="0.33523">
        <ele>182.22</ele>
        <time>2018-09-09T06:53:28.000Z</time>
      </trkpt>
      <trkpt lat="46.50837" lon="0.3351">
        <ele>182.05</ele>
        <time>2018-09-09T06:53:29.000Z</time>
      </trkpt>
      <trkpt lat="46.50841" lon="0.33498">
        <ele>181.91</ele>
        <time>2018-09-09T06:53:30.000Z</time>
      </trkpt>
      <trkpt lat="46.50846" lon="0.33487">
        <ele>181.61</ele>
        <time>2018-09-09T06:53:31.000Z</time>
      </trkpt>
      <trkpt lat="46.50853" lon="0.33476">
        <ele>181.13</ele>
        <time>2018-09-09T06:53:32.000Z</time>
      </trkpt>
      <trkpt lat="46.50861" lon="0.33466">
        <ele>180.7</ele>
        <time>2018-09-09T06:53:33.000Z</time>
      </trkpt>
      <trkpt lat="46.5087" lon="0.33455">
        <ele>180.21</ele>
        <time>2018-09-09T06:53:34.000Z</time>
      </trkpt>
      <trkpt lat="46.50878" lon="0.33445">
        <ele>179.67</ele>
        <time>2018-09-09T06:53:35.000Z</time>
      </trkpt>
      <trkpt lat="46.50886" lon="0.33435">
        <ele>179.25</ele>
        <time>2018-09-09T06:53:36.000Z</time>
      </trkpt>
      <trkpt lat="46.50893" lon="0.33424">
        <ele>178.77</ele>
        <time>2018-09-09T06:53:37.000Z</time>
      </trkpt>
      <trkpt lat="46.50902" lon="0.33413">
        <ele>178.4</ele>
        <time>2018-09-09T06:53:38.000Z</time>
      </trkpt>
      <trkpt lat="46.5091" lon="0.33404">
        <ele>177.97</ele>
        <time>2018-09-09T06:53:39.000Z</time>
      </trkpt>
      <trkpt lat="46.50918" lon="0.33394">
        <ele>177.44</ele>
        <time>2018-09-09T06:53:40.000Z</time>
      </trkpt>
      <trkpt lat="46.50925" lon="0.33383">
        <ele>176.96</ele>
        <time>2018-09-09T06:53:41.000Z</time>
      </trkpt>
      <trkpt lat="46.50929" lon="0.3337">
        <ele>176.47</ele>
        <time>2018-09-09T06:53:42.000Z</time>
      </trkpt>
      <trkpt lat="46.50932" lon="0.33355">
        <ele>175.95</ele>
        <time>2018-09-09T06:53:43.000Z</time>
      </trkpt>
      <trkpt lat="46.50935" lon="0.33341">
        <ele>175.63</ele>
        <time>2018-09-09T06:53:44.000Z</time>
      </trkpt>
      <trkpt lat="46.50941" lon="0.33318">
        <ele>174.81</ele>
        <time>2018-09-09T06:53:46.000Z</time>
      </trkpt>
      <trkpt lat="46.50954" lon="0.33303">
        <ele>173.93</ele>
        <time>2018-09-09T06:53:48.000Z</time>
      </trkpt>
      <trkpt lat="46.50963" lon="0.33298">
        <ele>173.39</ele>
        <time>2018-09-09T06:53:49.000Z</time>
      </trkpt>
      <trkpt lat="46.50972" lon="0.33294">
        <ele>172.87</ele>
        <time>2018-09-09T06:53:50.000Z</time>
      </trkpt>
      <trkpt lat="46.50981" lon="0.3329">
        <ele>172.18</ele>
        <time>2018-09-09T06:53:51.000Z</time>
      </trkpt>
      <trkpt lat="46.50991" lon="0.33288">
        <ele>171.36</ele>
        <time>2018-09-09T06:53:52.000Z</time>
      </trkpt>
      <trkpt lat="46.51002" lon="0.3329">
        <ele>170.61</ele>
        <time>2018-09-09T06:53:53.000Z</time>
      </trkpt>
      <trkpt lat="46.51013" lon="0.33294">
        <ele>169.93</ele>
        <time>2018-09-09T06:53:54.000Z</time>
      </trkpt>
      <trkpt lat="46.51023" lon="0.33301">
        <ele>169.18</ele>
        <time>2018-09-09T06:53:55.000Z</time>
      </trkpt>
      <trkpt lat="46.51032" lon="0.3331">
        <ele>168.52</ele>
        <time>2018-09-09T06:53:56.000Z</time>
      </trkpt>
      <trkpt lat="46.5104" lon="0.3332">
        <ele>167.87</ele>
        <time>2018-09-09T06:53:57.000Z</time>
      </trkpt>
      <trkpt lat="46.51048" lon="0.33328">
        <ele>167.17</ele>
        <time>2018-09-09T06:53:58.000Z</time>
      </trkpt>
      <trkpt lat="46.51056" lon="0.33338">
        <ele>166.39</ele>
        <time>2018-09-09T06:53:59.000Z</time>
      </trkpt>
      <trkpt lat="46.51062" lon="0.33349">
        <ele>165.49</ele>
        <time>2018-09-09T06:54:00.000Z</time>
      </trkpt>
      <trkpt lat="46.51068" lon="0.33361">
        <ele>164.81</ele>
        <time>2018-09-09T06:54:01.000Z</time>
      </trkpt>
      <trkpt lat="46.51074" lon="0.33371">
        <ele>164.3</ele>
        <time>2018-09-09T06:54:02.000Z</time>
      </trkpt>
      <trkpt lat="46.51085" lon="0.3339">
        <ele>163.15</ele>
        <time>2018-09-09T06:54:04.000Z</time>
      </trkpt>
      <trkpt lat="46.51094" lon="0.33408">
        <ele>162.4</ele>
        <time>2018-09-09T06:54:06.000Z</time>
      </trkpt>
      <trkpt lat="46.51104" lon="0.33426">
        <ele>161.39</ele>
        <time>2018-09-09T06:54:08.000Z</time>
      </trkpt>
      <trkpt lat="46.51112" lon="0.33445">
        <ele>160.33</ele>
        <time>2018-09-09T06:54:10.000Z</time>
      </trkpt>
      <trkpt lat="46.51117" lon="0.33462">
        <ele>159.6</ele>
        <time>2018-09-09T06:54:12.000Z</time>
      </trkpt>
      <trkpt lat="46.51124" lon="0.3348">
        <ele>158.68</ele>
        <time>2018-09-09T06:54:14.000Z</time>
      </trkpt>
      <trkpt lat="46.51129" lon="0.33495">
        <ele>157.9</ele>
        <time>2018-09-09T06:54:16.000Z</time>
      </trkpt>
      <trkpt lat="46.51135" lon="0.33515">
        <ele>156.44</ele>
        <time>2018-09-09T06:54:18.000Z</time>
      </trkpt>
      <trkpt lat="46.5114" lon="0.33534">
        <ele>155.01</ele>
        <time>2018-09-09T06:54:20.000Z</time>
      </trkpt>
      <trkpt lat="46.51142" lon="0.33555">
        <ele>154.06</ele>
        <time>2018-09-09T06:54:22.000Z</time>
      </trkpt>
      <trkpt lat="46.51144" lon="0.33575">
        <ele>153.05</ele>
        <time>2018-09-09T06:54:24.000Z</time>
      </trkpt>
      <trkpt lat="46.51146" lon="0.33595">
        <ele>151.89</ele>
        <time>2018-09-09T06:54:26.000Z</time>
      </trkpt>
      <trkpt lat="46.51148" lon="0.33616">
        <ele>150.26</ele>
        <time>2018-09-09T06:54:28.000Z</time>
      </trkpt>
      <trkpt lat="46.5115" lon="0.33636">
        <ele>148.84</ele>
        <time>2018-09-09T06:54:30.000Z</time>
      </trkpt>
      <trkpt lat="46.51151" lon="0.33656">
        <ele>147.85</ele>
        <time>2018-09-09T06:54:32.000Z</time>
      </trkpt>
      <trkpt lat="46.51154" lon="0.33676">
        <ele>146.48</ele>
        <time>2018-09-09T06:54:34.000Z</time>
      </trkpt>
      <trkpt lat="46.51155" lon="0.33694">
        <ele>145.09</ele>
        <time>2018-09-09T06:54:36.000Z</time>
      </trkpt>
      <trkpt lat="46.51156" lon="0.3371">
        <ele>144.36</ele>
        <time>2018-09-09T06:54:38.000Z</time>
      </trkpt>
      <trkpt lat="46.51157" lon="0.33727">
        <ele>143.08</ele>
        <time>2018-09-09T06:54:40.000Z</time>
      </trkpt>
      <trkpt lat="46.51159" lon="0.33744">
        <ele>142.42</ele>
        <time>2018-09-09T06:54:42.000Z</time>
      </trkpt>
      <trkpt lat="46.51162" lon="0.33765">
        <ele>140.54</ele>
        <time>2018-09-09T06:54:44.000Z</time>
      </trkpt>
      <trkpt lat="46.51165" lon="0.33784">
        <ele>139.02</ele>
        <time>2018-09-09T06:54:46.000Z</time>
      </trkpt>
      <trkpt lat="46.51168" lon="0.33802">
        <ele>137.66</ele>
        <time>2018-09-09T06:54:48.000Z</time>
      </trkpt>
      <trkpt lat="46.51173" lon="0.33821">
        <ele>136.32</ele>
        <time>2018-09-09T06:54:50.000Z</time>
      </trkpt>
      <trkpt lat="46.51176" lon="0.33837">
        <ele>135.42</ele>
        <time>2018-09-09T06:54:52.000Z</time>
      </trkpt>
      <trkpt lat="46.51179" lon="0.33855">
        <ele>134.32</ele>
        <time>2018-09-09T06:54:54.000Z</time>
      </trkpt>
      <trkpt lat="46.51182" lon="0.33873">
        <ele>133.36</ele>
        <time>2018-09-09T06:54:56.000Z</time>
      </trkpt>
      <trkpt lat="46.51188" lon="0.3389">
        <ele>132.39</ele>
        <time>2018-09-09T06:54:58.000Z</time>
      </trkpt>
      <trkpt lat="46.51196" lon="0.33904">
        <ele>131.84</ele>
        <time>2018-09-09T06:55:00.000Z</time>
      </trkpt>
      <trkpt lat="46.51204" lon="0.33918">
        <ele>131.56</ele>
        <time>2018-09-09T06:55:02.000Z</time>
      </trkpt>
      <trkpt lat="46.51213" lon="0.33929">
        <ele>131.53</ele>
        <time>2018-09-09T06:55:04.000Z</time>
      </trkpt>
      <trkpt lat="46.51222" lon="0.3394">
        <ele>131.66</ele>
        <time>2018-09-09T06:55:06.000Z</time>
      </trkpt>
      <trkpt lat="46.5123" lon="0.3395">
        <ele>131.87</ele>
        <time>2018-09-09T06:55:08.000Z</time>
      </trkpt>
      <trkpt lat="46.51239" lon="0.33961">
        <ele>132.35</ele>
        <time>2018-09-09T06:55:10.000Z</time>
      </trkpt>
      <trkpt lat="46.51247" lon="0.33969">
        <ele>132.71</ele>
        <time>2018-09-09T06:55:12.000Z</time>
      </trkpt>
      <trkpt lat="46.51255" lon="0.33982">
        <ele>132.96</ele>
        <time>2018-09-09T06:55:14.000Z</time>
      </trkpt>
      <trkpt lat="46.51264" lon="0.33993">
        <ele>133.47</ele>
        <time>2018-09-09T06:55:16.000Z</time>
      </trkpt>
      <trkpt lat="46.51274" lon="0.34003">
        <ele>133.96</ele>
        <time>2018-09-09T06:55:18.000Z</time>
      </trkpt>
      <trkpt lat="46.51284" lon="0.34012">
        <ele>134.33</ele>
        <time>2018-09-09T06:55:20.000Z</time>
      </trkpt>
      <trkpt lat="46.51294" lon="0.34017">
        <ele>134.91</ele>
        <time>2018-09-09T06:55:22.000Z</time>
      </trkpt>
      <trkpt lat="46.51306" lon="0.34022">
        <ele>135.43</ele>
        <time>2018-09-09T06:55:24.000Z</time>
      </trkpt>
      <trkpt lat="46.51318" lon="0.34026">
        <ele>135.81</ele>
        <time>2018-09-09T06:55:26.000Z</time>
      </trkpt>
      <trkpt lat="46.5133" lon="0.34029">
        <ele>136.07</ele>
        <time>2018-09-09T06:55:28.000Z</time>
      </trkpt>
      <trkpt lat="46.51342" lon="0.34033">
        <ele>136.48</ele>
        <time>2018-09-09T06:55:30.000Z</time>
      </trkpt>
      <trkpt lat="46.51352" lon="0.34036">
        <ele>137.34</ele>
        <time>2018-09-09T06:55:32.000Z</time>
      </trkpt>
      <trkpt lat="46.51363" lon="0.34042">
        <ele>137.53</ele>
        <time>2018-09-09T06:55:34.000Z</time>
      </trkpt>
      <trkpt lat="46.51373" lon="0.34047">
        <ele>138.08</ele>
        <time>2018-09-09T06:55:36.000Z</time>
      </trkpt>
      <trkpt lat="46.51384" lon="0.34055">
        <ele>138.88</ele>
        <time>2018-09-09T06:55:38.000Z</time>
      </trkpt>
      <trkpt lat="46.51394" lon="0.34063">
        <ele>139.94</ele>
        <time>2018-09-09T06:55:40.000Z</time>
      </trkpt>
      <trkpt lat="46.51405" lon="0.34076">
        <ele>140.5</ele>
        <time>2018-09-09T06:55:42.000Z</time>
      </trkpt>
      <trkpt lat="46.51412" lon="0.34085">
        <ele>140.63</ele>
        <time>2018-09-09T06:55:44.000Z</time>
      </trkpt>
      <trkpt lat="46.51423" lon="0.34093">
        <ele>140.85</ele>
        <time>2018-09-09T06:55:47.000Z</time>
      </trkpt>
      <trkpt lat="46.51432" lon="0.341">
        <ele>141.05</ele>
        <time>2018-09-09T06:55:50.000Z</time>
      </trkpt>
      <trkpt lat="46.51442" lon="0.34105">
        <ele>141.22</ele>
        <time>2018-09-09T06:55:53.000Z</time>
      </trkpt>
      <trkpt lat="46.5145" lon="0.34112">
        <ele>141.55</ele>
        <time>2018-09-09T06:55:58.000Z</time>
      </trkpt>
      <trkpt lat="46.5146" lon="0.34107">
        <ele>142.23</ele>
        <time>2018-09-09T06:56:04.000Z</time>
      </trkpt>
      <trkpt lat="46.51471" lon="0.34102">
        <ele>142.47</ele>
        <time>2018-09-09T06:56:06.000Z</time>
      </trkpt>
      <trkpt lat="46.51485" lon="0.34102">
        <ele>141.71</ele>
        <time>2018-09-09T06:56:08.000Z</time>
      </trkpt>
      <trkpt lat="46.51498" lon="0.34105">
        <ele>140.4</ele>
        <time>2018-09-09T06:56:10.000Z</time>
      </trkpt>
      <trkpt lat="46.5151" lon="0.3411">
        <ele>139.04</ele>
        <time>2018-09-09T06:56:12.000Z</time>
      </trkpt>
      <trkpt lat="46.51519" lon="0.34117">
        <ele>137.81</ele>
        <time>2018-09-09T06:56:14.000Z</time>
      </trkpt>
      <trkpt lat="46.51529" lon="0.34123">
        <ele>136.81</ele>
        <time>2018-09-09T06:56:16.000Z</time>
      </trkpt>
      <trkpt lat="46.51538" lon="0.34127">
        <ele>136.01</ele>
        <time>2018-09-09T06:56:18.000Z</time>
      </trkpt>
      <trkpt lat="46.51549" lon="0.34131">
        <ele>135.32</ele>
        <time>2018-09-09T06:56:20.000Z</time>
      </trkpt>
      <trkpt lat="46.51559" lon="0.34133">
        <ele>134.87</ele>
        <time>2018-09-09T06:56:22.000Z</time>
      </trkpt>
      <trkpt lat="46.51571" lon="0.34133">
        <ele>134.66</ele>
        <time>2018-09-09T06:56:24.000Z</time>
      </trkpt>
      <trkpt lat="46.51582" lon="0.34135">
        <ele>134.53</ele>
        <time>2018-09-09T06:56:26.000Z</time>
      </trkpt>
      <trkpt lat="46.51593" lon="0.34137">
        <ele>134.56</ele>
        <time>2018-09-09T06:56:28.000Z</time>
      </trkpt>
      <trkpt lat="46.51603" lon="0.34138">
        <ele>134.59</ele>
        <time>2018-09-09T06:56:30.000Z</time>
      </trkpt>
      <trkpt lat="46.51613" lon="0.34139">
        <ele>134.53</ele>
        <time>2018-09-09T06:56:32.000Z</time>
      </trkpt>
      <trkpt lat="46.51623" lon="0.34144">
        <ele>134.38</ele>
        <time>2018-09-09T06:56:34.000Z</time>
      </trkpt>
      <trkpt lat="46.51632" lon="0.34151">
        <ele>134.12</ele>
        <time>2018-09-09T06:56:36.000Z</time>
      </trkpt>
      <trkpt lat="46.51642" lon="0.34156">
        <ele>134.06</ele>
        <time>2018-09-09T06:56:39.000Z</time>
      </trkpt>
      <trkpt lat="46.51641" lon="0.34171">
        <ele>134.09</ele>
        <time>2018-09-09T06:56:44.000Z</time>
      </trkpt>
      <trkpt lat="46.51638" lon="0.34184">
        <ele>134.59</ele>
        <time>2018-09-09T06:56:49.000Z</time>
      </trkpt>
      <trkpt lat="46.51639" lon="0.34197">
        <ele>135.8</ele>
        <time>2018-09-09T06:56:56.000Z</time>
      </trkpt>
      <trkpt lat="46.51646" lon="0.34206">
        <ele>136.19</ele>
        <time>2018-09-09T06:56:59.000Z</time>
      </trkpt>
      <trkpt lat="46.51658" lon="0.34212">
        <ele>137.51</ele>
        <time>2018-09-09T06:57:02.000Z</time>
      </trkpt>
      <trkpt lat="46.51667" lon="0.34216">
        <ele>137.79</ele>
        <time>2018-09-09T06:57:04.000Z</time>
      </trkpt>
      <trkpt lat="46.51676" lon="0.34218">
        <ele>137.64</ele>
        <time>2018-09-09T06:57:06.000Z</time>
      </trkpt>
      <trkpt lat="46.51686" lon="0.3422">
        <ele>137.56</ele>
        <time>2018-09-09T06:57:10.000Z</time>
      </trkpt>
      <trkpt lat="46.51694" lon="0.34208">
        <ele>137.56</ele>
        <time>2018-09-09T06:57:16.000Z</time>
      </trkpt>
      <trkpt lat="46.51699" lon="0.34194">
        <ele>137.26</ele>
        <time>2018-09-09T06:57:19.000Z</time>
      </trkpt>
      <trkpt lat="46.51704" lon="0.34183">
        <ele>137.03</ele>
        <time>2018-09-09T06:57:21.000Z</time>
      </trkpt>
      <trkpt lat="46.51709" lon="0.34172">
        <ele>136.65</ele>
        <time>2018-09-09T06:57:23.000Z</time>
      </trkpt>
      <trkpt lat="46.51715" lon="0.34159">
        <ele>135.94</ele>
        <time>2018-09-09T06:57:25.000Z</time>
      </trkpt>
      <trkpt lat="46.51722" lon="0.34145">
        <ele>135.2</ele>
        <time>2018-09-09T06:57:27.000Z</time>
      </trkpt>
      <trkpt lat="46.51726" lon="0.34131">
        <ele>134.65</ele>
        <time>2018-09-09T06:57:29.000Z</time>
      </trkpt>
      <trkpt lat="46.51729" lon="0.34115">
        <ele>134.34</ele>
        <time>2018-09-09T06:57:31.000Z</time>
      </trkpt>
      <trkpt lat="46.51732" lon="0.341">
        <ele>134.19</ele>
        <time>2018-09-09T06:57:33.000Z</time>
      </trkpt>
      <trkpt lat="46.51733" lon="0.34083">
        <ele>133.86</ele>
        <time>2018-09-09T06:57:36.000Z</time>
      </trkpt>
      <trkpt lat="46.51734" lon="0.34067">
        <ele>133.74</ele>
        <time>2018-09-09T06:57:40.000Z</time>
      </trkpt>
      <trkpt lat="46.51734" lon="0.34052">
        <ele>133.74</ele>
        <time>2018-09-09T06:57:44.000Z</time>
      </trkpt>
      <trkpt lat="46.51737" lon="0.34038">
        <ele>133.71</ele>
        <time>2018-09-09T06:57:47.000Z</time>
      </trkpt>
      <trkpt lat="46.51746" lon="0.3403">
        <ele>132.72</ele>
        <time>2018-09-09T06:57:50.000Z</time>
      </trkpt>
      <trkpt lat="46.51757" lon="0.34033">
        <ele>132.98</ele>
        <time>2018-09-09T06:57:53.000Z</time>
      </trkpt>
      <trkpt lat="46.51768" lon="0.34039">
        <ele>135.21</ele>
        <time>2018-09-09T06:57:56.000Z</time>
      </trkpt>
      <trkpt lat="46.51777" lon="0.34042">
        <ele>137.61</ele>
        <time>2018-09-09T06:57:58.000Z</time>
      </trkpt>
      <trkpt lat="46.51787" lon="0.34046">
        <ele>139.01</ele>
        <time>2018-09-09T06:58:00.000Z</time>
      </trkpt>
      <trkpt lat="46.51796" lon="0.34051">
        <ele>140.1</ele>
        <time>2018-09-09T06:58:02.000Z</time>
      </trkpt>
      <trkpt lat="46.51806" lon="0.34052">
        <ele>140.21</ele>
        <time>2018-09-09T06:58:04.000Z</time>
      </trkpt>
      <trkpt lat="46.51817" lon="0.34051">
        <ele>139.93</ele>
        <time>2018-09-09T06:58:07.000Z</time>
      </trkpt>
      <trkpt lat="46.5183" lon="0.34047">
        <ele>138.69</ele>
        <time>2018-09-09T06:58:10.000Z</time>
      </trkpt>
      <trkpt lat="46.51841" lon="0.34049">
        <ele>137.85</ele>
        <time>2018-09-09T06:58:12.000Z</time>
      </trkpt>
      <trkpt lat="46.5185" lon="0.34054">
        <ele>137.35</ele>
        <time>2018-09-09T06:58:14.000Z</time>
      </trkpt>
      <trkpt lat="46.51862" lon="0.34064">
        <ele>137.38</ele>
        <time>2018-09-09T06:58:17.000Z</time>
      </trkpt>
      <trkpt lat="46.51872" lon="0.34063">
        <ele>137.96</ele>
        <time>2018-09-09T06:58:19.000Z</time>
      </trkpt>
      <trkpt lat="46.51881" lon="0.34061">
        <ele>138.99</ele>
        <time>2018-09-09T06:58:21.000Z</time>
      </trkpt>
      <trkpt lat="46.5189" lon="0.34059">
        <ele>139.67</ele>
        <time>2018-09-09T06:58:23.000Z</time>
      </trkpt>
      <trkpt lat="46.51899" lon="0.34057">
        <ele>139.27</ele>
        <time>2018-09-09T06:58:25.000Z</time>
      </trkpt>
      <trkpt lat="46.51909" lon="0.34054">
        <ele>138.84</ele>
        <time>2018-09-09T06:58:27.000Z</time>
      </trkpt>
      <trkpt lat="46.5192" lon="0.34051">
        <ele>138.44</ele>
        <time>2018-09-09T06:58:29.000Z</time>
      </trkpt>
      <trkpt lat="46.5193" lon="0.34047">
        <ele>138.12</ele>
        <time>2018-09-09T06:58:31.000Z</time>
      </trkpt>
      <trkpt lat="46.51939" lon="0.34044">
        <ele>137.92</ele>
        <time>2018-09-09T06:58:33.000Z</time>
      </trkpt>
      <trkpt lat="46.51948" lon="0.3404">
        <ele>137.74</ele>
        <time>2018-09-09T06:58:35.000Z</time>
      </trkpt>
      <trkpt lat="46.51958" lon="0.34037">
        <ele>137.93</ele>
        <time>2018-09-09T06:58:37.000Z</time>
      </trkpt>
      <trkpt lat="46.51967" lon="0.34032">
        <ele>138.36</ele>
        <time>2018-09-09T06:58:39.000Z</time>
      </trkpt>
      <trkpt lat="46.51968" lon="0.34016">
        <ele>138.65</ele>
        <time>2018-09-09T06:58:42.000Z</time>
      </trkpt>
      <trkpt lat="46.51964" lon="0.33997">
        <ele>139.21</ele>
        <time>2018-09-09T06:58:45.000Z</time>
      </trkpt>
      <trkpt lat="46.51966" lon="0.33983">
        <ele>139.21</ele>
        <time>2018-09-09T06:58:48.000Z</time>
      </trkpt>
      <trkpt lat="46.51971" lon="0.33968">
        <ele>139.04</ele>
        <time>2018-09-09T06:58:51.000Z</time>
      </trkpt>
      <trkpt lat="46.5197" lon="0.33949">
        <ele>138.92</ele>
        <time>2018-09-09T06:58:54.000Z</time>
      </trkpt>
      <trkpt lat="46.51975" lon="0.33931">
        <ele>138.71</ele>
        <time>2018-09-09T06:58:57.000Z</time>
      </trkpt>
      <trkpt lat="46.51979" lon="0.33913">
        <ele>138.71</ele>
        <time>2018-09-09T06:59:00.000Z</time>
      </trkpt>
      <trkpt lat="46.51983" lon="0.339">
        <ele>138.68</ele>
        <time>2018-09-09T06:59:02.000Z</time>
      </trkpt>
      <trkpt lat="46.51986" lon="0.33886">
        <ele>138.61</ele>
        <time>2018-09-09T06:59:04.000Z</time>
      </trkpt>
      <trkpt lat="46.51989" lon="0.33874">
        <ele>138.38</ele>
        <time>2018-09-09T06:59:06.000Z</time>
      </trkpt>
      <trkpt lat="46.51991" lon="0.33861">
        <ele>138.22</ele>
        <time>2018-09-09T06:59:08.000Z</time>
      </trkpt>
      <trkpt lat="46.51994" lon="0.33848">
        <ele>138.01</ele>
        <time>2018-09-09T06:59:10.000Z</time>
      </trkpt>
      <trkpt lat="46.51996" lon="0.33835">
        <ele>137.59</ele>
        <time>2018-09-09T06:59:12.000Z</time>
      </trkpt>
      <trkpt lat="46.51996" lon="0.33816">
        <ele>136.79</ele>
        <time>2018-09-09T06:59:15.000Z</time>
      </trkpt>
      <trkpt lat="46.51997" lon="0.33797">
        <ele>136.25</ele>
        <time>2018-09-09T06:59:18.000Z</time>
      </trkpt>
      <trkpt lat="46.51997" lon="0.33784">
        <ele>136.16</ele>
        <time>2018-09-09T06:59:20.000Z</time>
      </trkpt>
      <trkpt lat="46.51998" lon="0.33765">
        <ele>136.27</ele>
        <time>2018-09-09T06:59:23.000Z</time>
      </trkpt>
      <trkpt lat="46.51999" lon="0.33749">
        <ele>136.3</ele>
        <time>2018-09-09T06:59:26.000Z</time>
      </trkpt>
      <trkpt lat="46.52" lon="0.33733">
        <ele>136.39</ele>
        <time>2018-09-09T06:59:29.000Z</time>
      </trkpt>
      <trkpt lat="46.5201" lon="0.33727">
        <ele>137</ele>
        <time>2018-09-09T06:59:35.000Z</time>
      </trkpt>
      <trkpt lat="46.52022" lon="0.33729">
        <ele>138.47</ele>
        <time>2018-09-09T06:59:38.000Z</time>
      </trkpt>
      <trkpt lat="46.52032" lon="0.33728">
        <ele>140.16</ele>
        <time>2018-09-09T06:59:40.000Z</time>
      </trkpt>
      <trkpt lat="46.52045" lon="0.3373">
        <ele>140.51</ele>
        <time>2018-09-09T06:59:43.000Z</time>
      </trkpt>
      <trkpt lat="46.52056" lon="0.33731">
        <ele>140.96</ele>
        <time>2018-09-09T06:59:45.000Z</time>
      </trkpt>
      <trkpt lat="46.52065" lon="0.33734">
        <ele>140.8</ele>
        <time>2018-09-09T06:59:47.000Z</time>
      </trkpt>
      <trkpt lat="46.52073" lon="0.33743">
        <ele>140.75</ele>
        <time>2018-09-09T06:59:50.000Z</time>
      </trkpt>
      <trkpt lat="46.5207" lon="0.33761">
        <ele>140.24</ele>
        <time>2018-09-09T06:59:53.000Z</time>
      </trkpt>
      <trkpt lat="46.52066" lon="0.33778">
        <ele>139.81</ele>
        <time>2018-09-09T06:59:56.000Z</time>
      </trkpt>
      <trkpt lat="46.52063" lon="0.33791">
        <ele>139.79</ele>
        <time>2018-09-09T06:59:59.000Z</time>
      </trkpt>
      <trkpt lat="46.5206" lon="0.33809">
        <ele>139.93</ele>
        <time>2018-09-09T07:00:02.000Z</time>
      </trkpt>
      <trkpt lat="46.5206" lon="0.33827">
        <ele>141.78</ele>
        <time>2018-09-09T07:00:05.000Z</time>
      </trkpt>
      <trkpt lat="46.5206" lon="0.33842">
        <ele>143</ele>
        <time>2018-09-09T07:00:07.000Z</time>
      </trkpt>
      <trkpt lat="46.52062" lon="0.33857">
        <ele>143.9</ele>
        <time>2018-09-09T07:00:09.000Z</time>
      </trkpt>
      <trkpt lat="46.52063" lon="0.33876">
        <ele>143.63</ele>
        <time>2018-09-09T07:00:11.000Z</time>
      </trkpt>
      <trkpt lat="46.52066" lon="0.33891">
        <ele>142.78</ele>
        <time>2018-09-09T07:00:13.000Z</time>
      </trkpt>
      <trkpt lat="46.5207" lon="0.33904">
        <ele>141.65</ele>
        <time>2018-09-09T07:00:15.000Z</time>
      </trkpt>
      <trkpt lat="46.52074" lon="0.33917">
        <ele>141.05</ele>
        <time>2018-09-09T07:00:17.000Z</time>
      </trkpt>
      <trkpt lat="46.52078" lon="0.3393">
        <ele>140.16</ele>
        <time>2018-09-09T07:00:19.000Z</time>
      </trkpt>
      <trkpt lat="46.52082" lon="0.33943">
        <ele>139.49</ele>
        <time>2018-09-09T07:00:21.000Z</time>
      </trkpt>
      <trkpt lat="46.52087" lon="0.33955">
        <ele>138.85</ele>
        <time>2018-09-09T07:00:23.000Z</time>
      </trkpt>
      <trkpt lat="46.52096" lon="0.33967">
        <ele>137.57</ele>
        <time>2018-09-09T07:00:25.000Z</time>
      </trkpt>
      <trkpt lat="46.5211" lon="0.33975">
        <ele>136.56</ele>
        <time>2018-09-09T07:00:28.000Z</time>
      </trkpt>
      <trkpt lat="46.5212" lon="0.3398">
        <ele>136.1</ele>
        <time>2018-09-09T07:00:30.000Z</time>
      </trkpt>
      <trkpt lat="46.52131" lon="0.33984">
        <ele>135.98</ele>
        <time>2018-09-09T07:00:32.000Z</time>
      </trkpt>
      <trkpt lat="46.5214" lon="0.33988">
        <ele>136.29</ele>
        <time>2018-09-09T07:00:34.000Z</time>
      </trkpt>
      <trkpt lat="46.52152" lon="0.33989">
        <ele>136.52</ele>
        <time>2018-09-09T07:00:36.000Z</time>
      </trkpt>
      <trkpt lat="46.52161" lon="0.33991">
        <ele>136.77</ele>
        <time>2018-09-09T07:00:38.000Z</time>
      </trkpt>
      <trkpt lat="46.52171" lon="0.3399">
        <ele>137.02</ele>
        <time>2018-09-09T07:00:40.000Z</time>
      </trkpt>
      <trkpt lat="46.52181" lon="0.33989">
        <ele>137.04</ele>
        <time>2018-09-09T07:00:42.000Z</time>
      </trkpt>
      <trkpt lat="46.5219" lon="0.33987">
        <ele>137.19</ele>
        <time>2018-09-09T07:00:44.000Z</time>
      </trkpt>
      <trkpt lat="46.52202" lon="0.33984">
        <ele>137.09</ele>
        <time>2018-09-09T07:00:46.000Z</time>
      </trkpt>
      <trkpt lat="46.52213" lon="0.3398">
        <ele>136.95</ele>
        <time>2018-09-09T07:00:48.000Z</time>
      </trkpt>
      <trkpt lat="46.52223" lon="0.33977">
        <ele>136.84</ele>
        <time>2018-09-09T07:00:50.000Z</time>
      </trkpt>
      <trkpt lat="46.52232" lon="0.33969">
        <ele>136.62</ele>
        <time>2018-09-09T07:00:52.000Z</time>
      </trkpt>
      <trkpt lat="46.52241" lon="0.33959">
        <ele>136.03</ele>
        <time>2018-09-09T07:00:54.000Z</time>
      </trkpt>
      <trkpt lat="46.5225" lon="0.33949">
        <ele>135.23</ele>
        <time>2018-09-09T07:00:56.000Z</time>
      </trkpt>
      <trkpt lat="46.52258" lon="0.33941">
        <ele>134.42</ele>
        <time>2018-09-09T07:00:58.000Z</time>
      </trkpt>
      <trkpt lat="46.52266" lon="0.33933">
        <ele>133.61</ele>
        <time>2018-09-09T07:01:00.000Z</time>
      </trkpt>
      <trkpt lat="46.52276" lon="0.33925">
        <ele>132.35</ele>
        <time>2018-09-09T07:01:02.000Z</time>
      </trkpt>
      <trkpt lat="46.52285" lon="0.33917">
        <ele>130.05</ele>
        <time>2018-09-09T07:01:04.000Z</time>
      </trkpt>
      <trkpt lat="46.52293" lon="0.33908">
        <ele>127.66</ele>
        <time>2018-09-09T07:01:06.000Z</time>
      </trkpt>
      <trkpt lat="46.52301" lon="0.33898">
        <ele>125.7</ele>
        <time>2018-09-09T07:01:08.000Z</time>
      </trkpt>
      <trkpt lat="46.5231" lon="0.33891">
        <ele>124.25</ele>
        <time>2018-09-09T07:01:10.000Z</time>
      </trkpt>
      <trkpt lat="46.52319" lon="0.33886">
        <ele>123.21</ele>
        <time>2018-09-09T07:01:12.000Z</time>
      </trkpt>
      <trkpt lat="46.52328" lon="0.33881">
        <ele>122.29</ele>
        <time>2018-09-09T07:01:14.000Z</time>
      </trkpt>
      <trkpt lat="46.52338" lon="0.33876">
        <ele>121.81</ele>
        <time>2018-09-09T07:01:16.000Z</time>
      </trkpt>
      <trkpt lat="46.52347" lon="0.33871">
        <ele>121.55</ele>
        <time>2018-09-09T07:01:18.000Z</time>
      </trkpt>
      <trkpt lat="46.52357" lon="0.33865">
        <ele>121.37</ele>
        <time>2018-09-09T07:01:20.000Z</time>
      </trkpt>
      <trkpt lat="46.52367" lon="0.33859">
        <ele>121.32</ele>
        <time>2018-09-09T07:01:22.000Z</time>
      </trkpt>
      <trkpt lat="46.52376" lon="0.33853">
        <ele>121.04</ele>
        <time>2018-09-09T07:01:24.000Z</time>
      </trkpt>
      <trkpt lat="46.52386" lon="0.33847">
        <ele>120.97</ele>
        <time>2018-09-09T07:01:26.000Z</time>
      </trkpt>
      <trkpt lat="46.52396" lon="0.33839">
        <ele>120.94</ele>
        <time>2018-09-09T07:01:28.000Z</time>
      </trkpt>
      <trkpt lat="46.52405" lon="0.33832">
        <ele>120.88</ele>
        <time>2018-09-09T07:01:30.000Z</time>
      </trkpt>
      <trkpt lat="46.52415" lon="0.33823">
        <ele>120.82</ele>
        <time>2018-09-09T07:01:32.000Z</time>
      </trkpt>
      <trkpt lat="46.52424" lon="0.33814">
        <ele>120.8</ele>
        <time>2018-09-09T07:01:34.000Z</time>
      </trkpt>
      <trkpt lat="46.52433" lon="0.33806">
        <ele>120.68</ele>
        <time>2018-09-09T07:01:36.000Z</time>
      </trkpt>
      <trkpt lat="46.52442" lon="0.33797">
        <ele>120.59</ele>
        <time>2018-09-09T07:01:38.000Z</time>
      </trkpt>
      <trkpt lat="46.52451" lon="0.33788">
        <ele>120.6</ele>
        <time>2018-09-09T07:01:40.000Z</time>
      </trkpt>
      <trkpt lat="46.5246" lon="0.33779">
        <ele>120.81</ele>
        <time>2018-09-09T07:01:42.000Z</time>
      </trkpt>
      <trkpt lat="46.52469" lon="0.33769">
        <ele>121.05</ele>
        <time>2018-09-09T07:01:44.000Z</time>
      </trkpt>
      <trkpt lat="46.52478" lon="0.33759">
        <ele>121.35</ele>
        <time>2018-09-09T07:01:46.000Z</time>
      </trkpt>
      <trkpt lat="46.52486" lon="0.33747">
        <ele>121.39</ele>
        <time>2018-09-09T07:01:48.000Z</time>
      </trkpt>
      <trkpt lat="46.52493" lon="0.33735">
        <ele>121.52</ele>
        <time>2018-09-09T07:01:50.000Z</time>
      </trkpt>
      <trkpt lat="46.52499" lon="0.33723">
        <ele>121.91</ele>
        <time>2018-09-09T07:01:52.000Z</time>
      </trkpt>
      <trkpt lat="46.52505" lon="0.33711">
        <ele>122.55</ele>
        <time>2018-09-09T07:01:54.000Z</time>
      </trkpt>
      <trkpt lat="46.5251" lon="0.33695">
        <ele>123.74</ele>
        <time>2018-09-09T07:01:57.000Z</time>
      </trkpt>
      <trkpt lat="46.52508" lon="0.33679">
        <ele>124.29</ele>
        <time>2018-09-09T07:02:00.000Z</time>
      </trkpt>
      <trkpt lat="46.52508" lon="0.33662">
        <ele>124.59</ele>
        <time>2018-09-09T07:02:04.000Z</time>
      </trkpt>
      <trkpt lat="46.52513" lon="0.33649">
        <ele>125.17</ele>
        <time>2018-09-09T07:02:09.000Z</time>
      </trkpt>
      <trkpt lat="46.5252" lon="0.33637">
        <ele>125.86</ele>
        <time>2018-09-09T07:02:14.000Z</time>
      </trkpt>
      <trkpt lat="46.52526" lon="0.33625">
        <ele>126.7</ele>
        <time>2018-09-09T07:02:19.000Z</time>
      </trkpt>
      <trkpt lat="46.52533" lon="0.33615">
        <ele>127.63</ele>
        <time>2018-09-09T07:02:24.000Z</time>
      </trkpt>
      <trkpt lat="46.52542" lon="0.33624">
        <ele>129.99</ele>
        <time>2018-09-09T07:02:28.000Z</time>
      </trkpt>
      <trkpt lat="46.52555" lon="0.33627">
        <ele>133.33</ele>
        <time>2018-09-09T07:02:31.000Z</time>
      </trkpt>
      <trkpt lat="46.52566" lon="0.33627">
        <ele>134.43</ele>
        <time>2018-09-09T07:02:33.000Z</time>
      </trkpt>
      <trkpt lat="46.52578" lon="0.33626">
        <ele>135.08</ele>
        <time>2018-09-09T07:02:35.000Z</time>
      </trkpt>
      <trkpt lat="46.5259" lon="0.33625">
        <ele>135.44</ele>
        <time>2018-09-09T07:02:37.000Z</time>
      </trkpt>
      <trkpt lat="46.52604" lon="0.33623">
        <ele>135.55</ele>
        <time>2018-09-09T07:02:39.000Z</time>
      </trkpt>
      <trkpt lat="46.52617" lon="0.33621">
        <ele>135.43</ele>
        <time>2018-09-09T07:02:41.000Z</time>
      </trkpt>
      <trkpt lat="46.52629" lon="0.33622">
        <ele>135.03</ele>
        <time>2018-09-09T07:02:43.000Z</time>
      </trkpt>
      <trkpt lat="46.52639" lon="0.33629">
        <ele>134.63</ele>
        <time>2018-09-09T07:02:45.000Z</time>
      </trkpt>
      <trkpt lat="46.52653" lon="0.33631">
        <ele>133.97</ele>
        <time>2018-09-09T07:02:47.000Z</time>
      </trkpt>
      <trkpt lat="46.52666" lon="0.33628">
        <ele>133.4</ele>
        <time>2018-09-09T07:02:49.000Z</time>
      </trkpt>
      <trkpt lat="46.52678" lon="0.33626">
        <ele>133.26</ele>
        <time>2018-09-09T07:02:51.000Z</time>
      </trkpt>
      <trkpt lat="46.52688" lon="0.33622">
        <ele>133.61</ele>
        <time>2018-09-09T07:02:53.000Z</time>
      </trkpt>
      <trkpt lat="46.527" lon="0.33617">
        <ele>134.64</ele>
        <time>2018-09-09T07:02:56.000Z</time>
      </trkpt>
      <trkpt lat="46.5271" lon="0.33616">
        <ele>135.13</ele>
        <time>2018-09-09T07:02:58.000Z</time>
      </trkpt>
      <trkpt lat="46.5272" lon="0.33618">
        <ele>135.73</ele>
        <time>2018-09-09T07:03:00.000Z</time>
      </trkpt>
      <trkpt lat="46.52729" lon="0.33622">
        <ele>136.42</ele>
        <time>2018-09-09T07:03:02.000Z</time>
      </trkpt>
      <trkpt lat="46.52739" lon="0.33625">
        <ele>136.26</ele>
        <time>2018-09-09T07:03:04.000Z</time>
      </trkpt>
      <trkpt lat="46.52752" lon="0.3363">
        <ele>137.3</ele>
        <time>2018-09-09T07:03:07.000Z</time>
      </trkpt>
      <trkpt lat="46.52762" lon="0.33635">
        <ele>138.13</ele>
        <time>2018-09-09T07:03:09.000Z</time>
      </trkpt>
      <trkpt lat="46.52771" lon="0.33634">
        <ele>139.2</ele>
        <time>2018-09-09T07:03:11.000Z</time>
      </trkpt>
      <trkpt lat="46.52783" lon="0.33631">
        <ele>139.8</ele>
        <time>2018-09-09T07:03:13.000Z</time>
      </trkpt>
      <trkpt lat="46.52794" lon="0.33633">
        <ele>139.96</ele>
        <time>2018-09-09T07:03:15.000Z</time>
      </trkpt>
      <trkpt lat="46.52804" lon="0.33631">
        <ele>140.25</ele>
        <time>2018-09-09T07:03:17.000Z</time>
      </trkpt>
      <trkpt lat="46.52816" lon="0.3363">
        <ele>140.67</ele>
        <time>2018-09-09T07:03:19.000Z</time>
      </trkpt>
      <trkpt lat="46.52827" lon="0.33637">
        <ele>140.44</ele>
        <time>2018-09-09T07:03:21.000Z</time>
      </trkpt>
      <trkpt lat="46.52839" lon="0.33642">
        <ele>139.42</ele>
        <time>2018-09-09T07:03:23.000Z</time>
      </trkpt>
      <trkpt lat="46.52852" lon="0.33647">
        <ele>137.98</ele>
        <time>2018-09-09T07:03:25.000Z</time>
      </trkpt>
      <trkpt lat="46.52863" lon="0.3365">
        <ele>136.06</ele>
        <time>2018-09-09T07:03:27.000Z</time>
      </trkpt>
      <trkpt lat="46.52873" lon="0.33655">
        <ele>134.52</ele>
        <time>2018-09-09T07:03:29.000Z</time>
      </trkpt>
      <trkpt lat="46.52884" lon="0.33658">
        <ele>132.28</ele>
        <time>2018-09-09T07:03:31.000Z</time>
      </trkpt>
      <trkpt lat="46.52897" lon="0.33663">
        <ele>130.26</ele>
        <time>2018-09-09T07:03:33.000Z</time>
      </trkpt>
      <trkpt lat="46.52908" lon="0.33666">
        <ele>129.44</ele>
        <time>2018-09-09T07:03:35.000Z</time>
      </trkpt>
      <trkpt lat="46.5292" lon="0.33669">
        <ele>128.82</ele>
        <time>2018-09-09T07:03:37.000Z</time>
      </trkpt>
      <trkpt lat="46.52931" lon="0.33671">
        <ele>128.29</ele>
        <time>2018-09-09T07:03:39.000Z</time>
      </trkpt>
      <trkpt lat="46.52942" lon="0.33674">
        <ele>127.4</ele>
        <time>2018-09-09T07:03:41.000Z</time>
      </trkpt>
      <trkpt lat="46.52952" lon="0.33678">
        <ele>126.71</ele>
        <time>2018-09-09T07:03:43.000Z</time>
      </trkpt>
      <trkpt lat="46.52963" lon="0.33682">
        <ele>126.02</ele>
        <time>2018-09-09T07:03:45.000Z</time>
      </trkpt>
      <trkpt lat="46.52976" lon="0.33684">
        <ele>124.78</ele>
        <time>2018-09-09T07:03:48.000Z</time>
      </trkpt>
      <trkpt lat="46.52988" lon="0.33681">
        <ele>124</ele>
        <time>2018-09-09T07:03:50.000Z</time>
      </trkpt>
      <trkpt lat="46.52998" lon="0.33679">
        <ele>122.92</ele>
        <time>2018-09-09T07:03:52.000Z</time>
      </trkpt>
      <trkpt lat="46.53008" lon="0.33678">
        <ele>121.73</ele>
        <time>2018-09-09T07:03:54.000Z</time>
      </trkpt>
      <trkpt lat="46.53019" lon="0.33676">
        <ele>121.62</ele>
        <time>2018-09-09T07:03:56.000Z</time>
      </trkpt>
      <trkpt lat="46.53029" lon="0.33672">
        <ele>122.52</ele>
        <time>2018-09-09T07:03:58.000Z</time>
      </trkpt>
      <trkpt lat="46.5304" lon="0.33667">
        <ele>123.34</ele>
        <time>2018-09-09T07:04:00.000Z</time>
      </trkpt>
      <trkpt lat="46.53049" lon="0.33662">
        <ele>124.02</ele>
        <time>2018-09-09T07:04:02.000Z</time>
      </trkpt>
      <trkpt lat="46.53059" lon="0.33656">
        <ele>124.33</ele>
        <time>2018-09-09T07:04:05.000Z</time>
      </trkpt>
      <trkpt lat="46.53065" lon="0.33643">
        <ele>124.79</ele>
        <time>2018-09-09T07:04:10.000Z</time>
      </trkpt>
      <trkpt lat="46.53073" lon="0.33636">
        <ele>125.51</ele>
        <time>2018-09-09T07:04:15.000Z</time>
      </trkpt>
      <trkpt lat="46.53086" lon="0.33642">
        <ele>126.17</ele>
        <time>2018-09-09T07:04:19.000Z</time>
      </trkpt>
      <trkpt lat="46.53094" lon="0.33648">
        <ele>126.61</ele>
        <time>2018-09-09T07:04:22.000Z</time>
      </trkpt>
      <trkpt lat="46.53104" lon="0.33659">
        <ele>129.22</ele>
        <time>2018-09-09T07:04:25.000Z</time>
      </trkpt>
      <trkpt lat="46.53113" lon="0.33663">
        <ele>129.88</ele>
        <time>2018-09-09T07:04:27.000Z</time>
      </trkpt>
      <trkpt lat="46.53125" lon="0.33669">
        <ele>129.89</ele>
        <time>2018-09-09T07:04:30.000Z</time>
      </trkpt>
      <trkpt lat="46.53136" lon="0.3367">
        <ele>129.9</ele>
        <time>2018-09-09T07:04:33.000Z</time>
      </trkpt>
      <trkpt lat="46.53146" lon="0.33673">
        <ele>130.22</ele>
        <time>2018-09-09T07:04:35.000Z</time>
      </trkpt>
      <trkpt lat="46.53155" lon="0.3368">
        <ele>130.44</ele>
        <time>2018-09-09T07:04:37.000Z</time>
      </trkpt>
      <trkpt lat="46.53167" lon="0.33686">
        <ele>130.54</ele>
        <time>2018-09-09T07:04:40.000Z</time>
      </trkpt>
      <trkpt lat="46.53177" lon="0.33691">
        <ele>130.55</ele>
        <time>2018-09-09T07:04:42.000Z</time>
      </trkpt>
      <trkpt lat="46.53185" lon="0.33694">
        <ele>130.49</ele>
        <time>2018-09-09T07:04:44.000Z</time>
      </trkpt>
      <trkpt lat="46.53195" lon="0.33696">
        <ele>129.47</ele>
        <time>2018-09-09T07:04:46.000Z</time>
      </trkpt>
      <trkpt lat="46.53204" lon="0.33698">
        <ele>129.41</ele>
        <time>2018-09-09T07:04:48.000Z</time>
      </trkpt>
      <trkpt lat="46.53216" lon="0.33705">
        <ele>128.92</ele>
        <time>2018-09-09T07:04:51.000Z</time>
      </trkpt>
      <trkpt lat="46.53227" lon="0.33712">
        <ele>128.84</ele>
        <time>2018-09-09T07:04:54.000Z</time>
      </trkpt>
      <trkpt lat="46.53239" lon="0.33719">
        <ele>129.07</ele>
        <time>2018-09-09T07:04:57.000Z</time>
      </trkpt>
      <trkpt lat="46.53249" lon="0.33724">
        <ele>129.3</ele>
        <time>2018-09-09T07:04:59.000Z</time>
      </trkpt>
      <trkpt lat="46.53259" lon="0.33729">
        <ele>129.58</ele>
        <time>2018-09-09T07:05:01.000Z</time>
      </trkpt>
      <trkpt lat="46.53268" lon="0.33733">
        <ele>129.65</ele>
        <time>2018-09-09T07:05:03.000Z</time>
      </trkpt>
      <trkpt lat="46.53278" lon="0.33738">
        <ele>130.02</ele>
        <time>2018-09-09T07:05:06.000Z</time>
      </trkpt>
      <trkpt lat="46.53288" lon="0.33742">
        <ele>130.1</ele>
        <time>2018-09-09T07:05:08.000Z</time>
      </trkpt>
      <trkpt lat="46.53299" lon="0.33747">
        <ele>130.88</ele>
        <time>2018-09-09T07:05:11.000Z</time>
      </trkpt>
      <trkpt lat="46.53308" lon="0.33753">
        <ele>131.66</ele>
        <time>2018-09-09T07:05:13.000Z</time>
      </trkpt>
      <trkpt lat="46.53317" lon="0.33758">
        <ele>131.91</ele>
        <time>2018-09-09T07:05:15.000Z</time>
      </trkpt>
      <trkpt lat="46.53326" lon="0.33762">
        <ele>131.97</ele>
        <time>2018-09-09T07:05:18.000Z</time>
      </trkpt>
      <trkpt lat="46.53339" lon="0.3377">
        <ele>132.16</ele>
        <time>2018-09-09T07:05:21.000Z</time>
      </trkpt>
      <trkpt lat="46.53348" lon="0.33775">
        <ele>132.22</ele>
        <time>2018-09-09T07:05:23.000Z</time>
      </trkpt>
      <trkpt lat="46.53361" lon="0.33781">
        <ele>132.49</ele>
        <time>2018-09-09T07:05:26.000Z</time>
      </trkpt>
      <trkpt lat="46.5337" lon="0.33785">
        <ele>132.69</ele>
        <time>2018-09-09T07:05:28.000Z</time>
      </trkpt>
      <trkpt lat="46.53379" lon="0.33791">
        <ele>132.71</ele>
        <time>2018-09-09T07:05:30.000Z</time>
      </trkpt>
      <trkpt lat="46.53391" lon="0.33794">
        <ele>132.72</ele>
        <time>2018-09-09T07:05:33.000Z</time>
      </trkpt>
      <trkpt lat="46.53401" lon="0.33804">
        <ele>132.96</ele>
        <time>2018-09-09T07:05:36.000Z</time>
      </trkpt>
      <trkpt lat="46.53413" lon="0.33811">
        <ele>133.08</ele>
        <time>2018-09-09T07:05:39.000Z</time>
      </trkpt>
      <trkpt lat="46.53426" lon="0.33818">
        <ele>132.79</ele>
        <time>2018-09-09T07:05:42.000Z</time>
      </trkpt>
      <trkpt lat="46.53436" lon="0.33821">
        <ele>131.89</ele>
        <time>2018-09-09T07:05:44.000Z</time>
      </trkpt>
      <trkpt lat="46.53446" lon="0.33823">
        <ele>131.11</ele>
        <time>2018-09-09T07:05:46.000Z</time>
      </trkpt>
      <trkpt lat="46.53455" lon="0.3383">
        <ele>130.24</ele>
        <time>2018-09-09T07:05:49.000Z</time>
      </trkpt>
      <trkpt lat="46.53463" lon="0.33835">
        <ele>130.1</ele>
        <time>2018-09-09T07:05:52.000Z</time>
      </trkpt>
      <trkpt lat="46.53471" lon="0.33826">
        <ele>130.05</ele>
        <time>2018-09-09T07:05:55.000Z</time>
      </trkpt>
      <trkpt lat="46.5348" lon="0.33821">
        <ele>130.13</ele>
        <time>2018-09-09T07:05:57.000Z</time>
      </trkpt>
      <trkpt lat="46.5349" lon="0.33818">
        <ele>130.68</ele>
        <time>2018-09-09T07:06:01.000Z</time>
      </trkpt>
      <trkpt lat="46.53499" lon="0.33817">
        <ele>131.71</ele>
        <time>2018-09-09T07:06:06.000Z</time>
      </trkpt>
      <trkpt lat="46.53508" lon="0.33824">
        <ele>132.49</ele>
        <time>2018-09-09T07:06:10.000Z</time>
      </trkpt>
      <trkpt lat="46.53516" lon="0.33833">
        <ele>133.33</ele>
        <time>2018-09-09T07:06:17.000Z</time>
      </trkpt>
      <trkpt lat="46.53526" lon="0.33837">
        <ele>134.42</ele>
        <time>2018-09-09T07:06:26.000Z</time>
      </trkpt>
      <trkpt lat="46.53535" lon="0.33843">
        <ele>135.41</ele>
        <time>2018-09-09T07:06:33.000Z</time>
      </trkpt>
      <trkpt lat="46.53544" lon="0.33847">
        <ele>136.73</ele>
        <time>2018-09-09T07:06:41.000Z</time>
      </trkpt>
      <trkpt lat="46.53554" lon="0.33848">
        <ele>137.95</ele>
        <time>2018-09-09T07:06:48.000Z</time>
      </trkpt>
      <trkpt lat="46.53563" lon="0.33852">
        <ele>140.24</ele>
        <time>2018-09-09T07:06:59.000Z</time>
      </trkpt>
      <trkpt lat="46.53573" lon="0.33849">
        <ele>142.58</ele>
        <time>2018-09-09T07:07:08.000Z</time>
      </trkpt>
      <trkpt lat="46.53582" lon="0.33844">
        <ele>144.15</ele>
        <time>2018-09-09T07:07:15.000Z</time>
      </trkpt>
      <trkpt lat="46.53587" lon="0.33831">
        <ele>144.93</ele>
        <time>2018-09-09T07:07:20.000Z</time>
      </trkpt>
      <trkpt lat="46.5359" lon="0.33817">
        <ele>145.48</ele>
        <time>2018-09-09T07:07:26.000Z</time>
      </trkpt>
      <trkpt lat="46.53592" lon="0.33804">
        <ele>145.83</ele>
        <time>2018-09-09T07:07:31.000Z</time>
      </trkpt>
      <trkpt lat="46.53591" lon="0.3379">
        <ele>146.34</ele>
        <time>2018-09-09T07:07:36.000Z</time>
      </trkpt>
      <trkpt lat="46.53587" lon="0.33778">
        <ele>147.12</ele>
        <time>2018-09-09T07:07:42.000Z</time>
      </trkpt>
      <trkpt lat="46.53578" lon="0.33776">
        <ele>147.58</ele>
        <time>2018-09-09T07:07:46.000Z</time>
      </trkpt>
      <trkpt lat="46.53568" lon="0.33777">
        <ele>148</ele>
        <time>2018-09-09T07:07:50.000Z</time>
      </trkpt>
      <trkpt lat="46.53557" lon="0.33774">
        <ele>148.61</ele>
        <time>2018-09-09T07:07:55.000Z</time>
      </trkpt>
      <trkpt lat="46.53546" lon="0.33772">
        <ele>149.04</ele>
        <time>2018-09-09T07:07:59.000Z</time>
      </trkpt>
      <trkpt lat="46.53536" lon="0.33772">
        <ele>155.68</ele>
        <time>2018-09-09T07:11:15.000Z</time>
      </trkpt>
      <trkpt lat="46.53524" lon="0.33767">
        <ele>156.8</ele>
        <time>2018-09-09T07:11:20.000Z</time>
      </trkpt>
      <trkpt lat="46.53514" lon="0.33762">
        <ele>157.55</ele>
        <time>2018-09-09T07:11:24.000Z</time>
      </trkpt>
      <trkpt lat="46.53503" lon="0.33758">
        <ele>158.22</ele>
        <time>2018-09-09T07:11:28.000Z</time>
      </trkpt>
      <trkpt lat="46.53495" lon="0.33753">
        <ele>158.88</ele>
        <time>2018-09-09T07:11:32.000Z</time>
      </trkpt>
      <trkpt lat="46.53486" lon="0.33745">
        <ele>159.57</ele>
        <time>2018-09-09T07:11:36.000Z</time>
      </trkpt>
      <trkpt lat="46.53477" lon="0.33738">
        <ele>160.07</ele>
        <time>2018-09-09T07:11:39.000Z</time>
      </trkpt>
      <trkpt lat="46.53466" lon="0.3373">
        <ele>160.62</ele>
        <time>2018-09-09T07:11:43.000Z</time>
      </trkpt>
      <trkpt lat="46.53456" lon="0.33722">
        <ele>161.01</ele>
        <time>2018-09-09T07:11:46.000Z</time>
      </trkpt>
      <trkpt lat="46.53444" lon="0.33716">
        <ele>161.31</ele>
        <time>2018-09-09T07:11:50.000Z</time>
      </trkpt>
      <trkpt lat="46.53434" lon="0.33711">
        <ele>161.63</ele>
        <time>2018-09-09T07:11:54.000Z</time>
      </trkpt>
      <trkpt lat="46.53426" lon="0.33703">
        <ele>161.96</ele>
        <time>2018-09-09T07:11:57.000Z</time>
      </trkpt>
      <trkpt lat="46.53425" lon="0.33688">
        <ele>162.44</ele>
        <time>2018-09-09T07:12:02.000Z</time>
      </trkpt>
      <trkpt lat="46.53431" lon="0.33677">
        <ele>162.88</ele>
        <time>2018-09-09T07:12:06.000Z</time>
      </trkpt>
      <trkpt lat="46.53435" lon="0.33662">
        <ele>163.37</ele>
        <time>2018-09-09T07:12:10.000Z</time>
      </trkpt>
      <trkpt lat="46.53439" lon="0.33646">
        <ele>163.87</ele>
        <time>2018-09-09T07:12:14.000Z</time>
      </trkpt>
      <trkpt lat="46.53443" lon="0.33634">
        <ele>164.18</ele>
        <time>2018-09-09T07:12:17.000Z</time>
      </trkpt>
      <trkpt lat="46.53448" lon="0.3362">
        <ele>164.43</ele>
        <time>2018-09-09T07:12:20.000Z</time>
      </trkpt>
      <trkpt lat="46.53451" lon="0.33607">
        <ele>164.67</ele>
        <time>2018-09-09T07:12:23.000Z</time>
      </trkpt>
      <trkpt lat="46.53451" lon="0.33593">
        <ele>164.94</ele>
        <time>2018-09-09T07:12:26.000Z</time>
      </trkpt>
      <trkpt lat="46.53445" lon="0.33581">
        <ele>165.24</ele>
        <time>2018-09-09T07:12:29.000Z</time>
      </trkpt>
      <trkpt lat="46.53437" lon="0.3357">
        <ele>165.53</ele>
        <time>2018-09-09T07:12:32.000Z</time>
      </trkpt>
      <trkpt lat="46.53429" lon="0.33562">
        <ele>165.77</ele>
        <time>2018-09-09T07:12:35.000Z</time>
      </trkpt>
      <trkpt lat="46.5342" lon="0.33553">
        <ele>166.09</ele>
        <time>2018-09-09T07:12:39.000Z</time>
      </trkpt>
      <trkpt lat="46.53415" lon="0.33538">
        <ele>166.2</ele>
        <time>2018-09-09T07:12:43.000Z</time>
      </trkpt>
      <trkpt lat="46.53426" lon="0.33533">
        <ele>165.92</ele>
        <time>2018-09-09T07:12:47.000Z</time>
      </trkpt>
      <trkpt lat="46.53438" lon="0.33529">
        <ele>165.5</ele>
        <time>2018-09-09T07:12:50.000Z</time>
      </trkpt>
      <trkpt lat="46.53447" lon="0.33527">
        <ele>165.31</ele>
        <time>2018-09-09T07:12:52.000Z</time>
      </trkpt>
      <trkpt lat="46.53457" lon="0.33524">
        <ele>165.35</ele>
        <time>2018-09-09T07:12:54.000Z</time>
      </trkpt>
      <trkpt lat="46.53466" lon="0.33521">
        <ele>165.54</ele>
        <time>2018-09-09T07:12:56.000Z</time>
      </trkpt>
      <trkpt lat="46.53479" lon="0.33518">
        <ele>165.61</ele>
        <time>2018-09-09T07:12:59.000Z</time>
      </trkpt>
      <trkpt lat="46.53492" lon="0.33512">
        <ele>165.22</ele>
        <time>2018-09-09T07:13:02.000Z</time>
      </trkpt>
      <trkpt lat="46.53503" lon="0.33508">
        <ele>165.24</ele>
        <time>2018-09-09T07:13:06.000Z</time>
      </trkpt>
      <trkpt lat="46.53512" lon="0.33499">
        <ele>165.28</ele>
        <time>2018-09-09T07:13:09.000Z</time>
      </trkpt>
      <trkpt lat="46.53521" lon="0.33493">
        <ele>165.49</ele>
        <time>2018-09-09T07:13:13.000Z</time>
      </trkpt>
      <trkpt lat="46.53529" lon="0.33484">
        <ele>165.63</ele>
        <time>2018-09-09T07:13:17.000Z</time>
      </trkpt>
      <trkpt lat="46.53536" lon="0.33478">
        <ele>165.76</ele>
        <time>2018-09-09T07:13:21.000Z</time>
      </trkpt>
      <trkpt lat="46.53544" lon="0.3347">
        <ele>166.11</ele>
        <time>2018-09-09T07:13:25.000Z</time>
      </trkpt>
      <trkpt lat="46.53553" lon="0.33459">
        <ele>166.47</ele>
        <time>2018-09-09T07:13:28.000Z</time>
      </trkpt>
      <trkpt lat="46.53561" lon="0.33449">
        <ele>166.91</ele>
        <time>2018-09-09T07:13:31.000Z</time>
      </trkpt>
      <trkpt lat="46.53569" lon="0.33441">
        <ele>168.58</ele>
        <time>2018-09-09T07:13:33.000Z</time>
      </trkpt>
      <trkpt lat="46.5358" lon="0.3343">
        <ele>168.95</ele>
        <time>2018-09-09T07:13:36.000Z</time>
      </trkpt>
      <trkpt lat="46.53588" lon="0.33415">
        <ele>169.24</ele>
        <time>2018-09-09T07:13:39.000Z</time>
      </trkpt>
      <trkpt lat="46.53596" lon="0.33403">
        <ele>169.52</ele>
        <time>2018-09-09T07:13:42.000Z</time>
      </trkpt>
      <trkpt lat="46.53603" lon="0.33395">
        <ele>169.98</ele>
        <time>2018-09-09T07:13:45.000Z</time>
      </trkpt>
      <trkpt lat="46.53611" lon="0.3338">
        <ele>172.67</ele>
        <time>2018-09-09T07:13:48.000Z</time>
      </trkpt>
      <trkpt lat="46.53619" lon="0.33365">
        <ele>175.17</ele>
        <time>2018-09-09T07:13:51.000Z</time>
      </trkpt>
      <trkpt lat="46.53624" lon="0.3335">
        <ele>178.38</ele>
        <time>2018-09-09T07:13:53.000Z</time>
      </trkpt>
      <trkpt lat="46.53626" lon="0.33333">
        <ele>178.54</ele>
        <time>2018-09-09T07:13:55.000Z</time>
      </trkpt>
      <trkpt lat="46.53633" lon="0.33318">
        <ele>178.89</ele>
        <time>2018-09-09T07:13:59.000Z</time>
      </trkpt>
      <trkpt lat="46.53642" lon="0.33307">
        <ele>177.9</ele>
        <time>2018-09-09T07:14:01.000Z</time>
      </trkpt>
      <trkpt lat="46.53651" lon="0.33294">
        <ele>176.26</ele>
        <time>2018-09-09T07:14:03.000Z</time>
      </trkpt>
      <trkpt lat="46.5366" lon="0.33283">
        <ele>174.15</ele>
        <time>2018-09-09T07:14:05.000Z</time>
      </trkpt>
      <trkpt lat="46.53668" lon="0.33271">
        <ele>172.03</ele>
        <time>2018-09-09T07:14:07.000Z</time>
      </trkpt>
      <trkpt lat="46.53676" lon="0.33258">
        <ele>170.44</ele>
        <time>2018-09-09T07:14:09.000Z</time>
      </trkpt>
      <trkpt lat="46.53684" lon="0.33247">
        <ele>169.14</ele>
        <time>2018-09-09T07:14:11.000Z</time>
      </trkpt>
      <trkpt lat="46.53694" lon="0.33235">
        <ele>167.76</ele>
        <time>2018-09-09T07:14:13.000Z</time>
      </trkpt>
      <trkpt lat="46.53702" lon="0.33225">
        <ele>166.63</ele>
        <time>2018-09-09T07:14:15.000Z</time>
      </trkpt>
      <trkpt lat="46.53709" lon="0.33215">
        <ele>165.86</ele>
        <time>2018-09-09T07:14:17.000Z</time>
      </trkpt>
      <trkpt lat="46.53718" lon="0.33203">
        <ele>165.25</ele>
        <time>2018-09-09T07:14:20.000Z</time>
      </trkpt>
      <trkpt lat="46.5373" lon="0.33206">
        <ele>165.2</ele>
        <time>2018-09-09T07:14:26.000Z</time>
      </trkpt>
      <trkpt lat="46.53735" lon="0.33218">
        <ele>165.58</ele>
        <time>2018-09-09T07:14:31.000Z</time>
      </trkpt>
      <trkpt lat="46.53741" lon="0.33228">
        <ele>165.9</ele>
        <time>2018-09-09T07:14:35.000Z</time>
      </trkpt>
      <trkpt lat="46.53751" lon="0.33229">
        <ele>166.25</ele>
        <time>2018-09-09T07:14:43.000Z</time>
      </trkpt>
      <trkpt lat="46.53752" lon="0.33243">
        <ele>166.38</ele>
        <time>2018-09-09T07:14:46.000Z</time>
      </trkpt>
      <trkpt lat="46.53756" lon="0.33258">
        <ele>166.5</ele>
        <time>2018-09-09T07:14:50.000Z</time>
      </trkpt>
      <trkpt lat="46.53766" lon="0.33262">
        <ele>166.76</ele>
        <time>2018-09-09T07:14:59.000Z</time>
      </trkpt>
      <trkpt lat="46.53775" lon="0.33264">
        <ele>166.38</ele>
        <time>2018-09-09T07:15:21.000Z</time>
      </trkpt>
      <trkpt lat="46.53782" lon="0.33275">
        <ele>165.02</ele>
        <time>2018-09-09T07:15:37.000Z</time>
      </trkpt>
      <trkpt lat="46.53779" lon="0.33287">
        <ele>164.48</ele>
        <time>2018-09-09T07:15:51.000Z</time>
      </trkpt>
      <trkpt lat="46.53788" lon="0.3329">
        <ele>164.19</ele>
        <time>2018-09-09T07:16:08.000Z</time>
      </trkpt>
      <trkpt lat="46.53801" lon="0.33286">
        <ele>164</ele>
        <time>2018-09-09T07:16:12.000Z</time>
      </trkpt>
      <trkpt lat="46.53811" lon="0.33286">
        <ele>163.07</ele>
        <time>2018-09-09T07:16:14.000Z</time>
      </trkpt>
      <trkpt lat="46.53819" lon="0.33277">
        <ele>162.86</ele>
        <time>2018-09-09T07:16:18.000Z</time>
      </trkpt>
      <trkpt lat="46.53827" lon="0.33268">
        <ele>162.77</ele>
        <time>2018-09-09T07:16:21.000Z</time>
      </trkpt>
      <trkpt lat="46.53836" lon="0.33255">
        <ele>162.62</ele>
        <time>2018-09-09T07:16:25.000Z</time>
      </trkpt>
      <trkpt lat="46.53839" lon="0.33242">
        <ele>162.43</ele>
        <time>2018-09-09T07:16:28.000Z</time>
      </trkpt>
      <trkpt lat="46.53834" lon="0.33231">
        <ele>161.62</ele>
        <time>2018-09-09T07:16:36.000Z</time>
      </trkpt>
      <trkpt lat="46.53826" lon="0.33224">
        <ele>161.27</ele>
        <time>2018-09-09T07:16:41.000Z</time>
      </trkpt>
      <trkpt lat="46.53818" lon="0.33216">
        <ele>160.8</ele>
        <time>2018-09-09T07:16:46.000Z</time>
      </trkpt>
      <trkpt lat="46.5381" lon="0.3321">
        <ele>160.24</ele>
        <time>2018-09-09T07:16:54.000Z</time>
      </trkpt>
      <trkpt lat="46.53801" lon="0.33208">
        <ele>160.3</ele>
        <time>2018-09-09T07:17:06.000Z</time>
      </trkpt>
      <trkpt lat="46.53793" lon="0.33201">
        <ele>160.77</ele>
        <time>2018-09-09T07:17:19.000Z</time>
      </trkpt>
      <trkpt lat="46.53784" lon="0.33197">
        <ele>160.71</ele>
        <time>2018-09-09T07:17:40.000Z</time>
      </trkpt>
      <trkpt lat="46.53775" lon="0.33195">
        <ele>161.34</ele>
        <time>2018-09-09T07:17:49.000Z</time>
      </trkpt>
      <trkpt lat="46.53766" lon="0.33195">
        <ele>162.4</ele>
        <time>2018-09-09T07:17:56.000Z</time>
      </trkpt>
      <trkpt lat="46.53755" lon="0.33193">
        <ele>164.38</ele>
        <time>2018-09-09T07:18:10.000Z</time>
      </trkpt>
      <trkpt lat="46.5375" lon="0.33182">
        <ele>165.72</ele>
        <time>2018-09-09T07:18:25.000Z</time>
      </trkpt>
      <trkpt lat="46.53751" lon="0.33168">
        <ele>166.74</ele>
        <time>2018-09-09T07:18:37.000Z</time>
      </trkpt>
      <trkpt lat="46.53758" lon="0.33154">
        <ele>167.03</ele>
        <time>2018-09-09T07:18:42.000Z</time>
      </trkpt>
      <trkpt lat="46.53764" lon="0.33143">
        <ele>167.13</ele>
        <time>2018-09-09T07:18:46.000Z</time>
      </trkpt>
      <trkpt lat="46.5377" lon="0.33132">
        <ele>167</ele>
        <time>2018-09-09T07:18:49.000Z</time>
      </trkpt>
      <trkpt lat="46.53776" lon="0.3312">
        <ele>167.08</ele>
        <time>2018-09-09T07:18:54.000Z</time>
      </trkpt>
      <trkpt lat="46.5378" lon="0.33108">
        <ele>167.29</ele>
        <time>2018-09-09T07:18:58.000Z</time>
      </trkpt>
      <trkpt lat="46.53789" lon="0.33091">
        <ele>168.01</ele>
        <time>2018-09-09T07:19:03.000Z</time>
      </trkpt>
      <trkpt lat="46.53796" lon="0.33076">
        <ele>168.4</ele>
        <time>2018-09-09T07:19:05.000Z</time>
      </trkpt>
      <trkpt lat="46.53803" lon="0.33065">
        <ele>170.68</ele>
        <time>2018-09-09T07:19:07.000Z</time>
      </trkpt>
      <trkpt lat="46.53811" lon="0.33049">
        <ele>173.92</ele>
        <time>2018-09-09T07:19:09.000Z</time>
      </trkpt>
      <trkpt lat="46.53819" lon="0.33034">
        <ele>176.46</ele>
        <time>2018-09-09T07:19:11.000Z</time>
      </trkpt>
      <trkpt lat="46.53822" lon="0.3302">
        <ele>177.96</ele>
        <time>2018-09-09T07:19:14.000Z</time>
      </trkpt>
      <trkpt lat="46.53829" lon="0.33005">
        <ele>179.09</ele>
        <time>2018-09-09T07:19:20.000Z</time>
      </trkpt>
      <trkpt lat="46.53833" lon="0.32992">
        <ele>179.77</ele>
        <time>2018-09-09T07:19:23.000Z</time>
      </trkpt>
      <trkpt lat="46.53836" lon="0.32979">
        <ele>180.96</ele>
        <time>2018-09-09T07:19:29.000Z</time>
      </trkpt>
      <trkpt lat="46.53845" lon="0.32973">
        <ele>181.52</ele>
        <time>2018-09-09T07:19:32.000Z</time>
      </trkpt>
      <trkpt lat="46.53858" lon="0.32971">
        <ele>183.03</ele>
        <time>2018-09-09T07:19:35.000Z</time>
      </trkpt>
      <trkpt lat="46.53869" lon="0.32966">
        <ele>183.24</ele>
        <time>2018-09-09T07:19:38.000Z</time>
      </trkpt>
      <trkpt lat="46.53877" lon="0.32955">
        <ele>183.4</ele>
        <time>2018-09-09T07:19:41.000Z</time>
      </trkpt>
      <trkpt lat="46.53887" lon="0.32946">
        <ele>183.7</ele>
        <time>2018-09-09T07:19:47.000Z</time>
      </trkpt>
      <trkpt lat="46.53893" lon="0.32935">
        <ele>183.25</ele>
        <time>2018-09-09T07:19:54.000Z</time>
      </trkpt>
      <trkpt lat="46.53894" lon="0.3292">
        <ele>181.63</ele>
        <time>2018-09-09T07:20:02.000Z</time>
      </trkpt>
      <trkpt lat="46.53895" lon="0.32907">
        <ele>180.47</ele>
        <time>2018-09-09T07:20:07.000Z</time>
      </trkpt>
      <trkpt lat="46.539" lon="0.32894">
        <ele>179.1</ele>
        <time>2018-09-09T07:20:13.000Z</time>
      </trkpt>
      <trkpt lat="46.53906" lon="0.32882">
        <ele>177.91</ele>
        <time>2018-09-09T07:20:18.000Z</time>
      </trkpt>
      <trkpt lat="46.53915" lon="0.32878">
        <ele>176.82</ele>
        <time>2018-09-09T07:20:22.000Z</time>
      </trkpt>
      <trkpt lat="46.53925" lon="0.32872">
        <ele>175.69</ele>
        <time>2018-09-09T07:20:27.000Z</time>
      </trkpt>
      <trkpt lat="46.53935" lon="0.32871">
        <ele>174.88</ele>
        <time>2018-09-09T07:20:33.000Z</time>
      </trkpt>
      <trkpt lat="46.5394" lon="0.32854">
        <ele>174.61</ele>
        <time>2018-09-09T07:20:39.000Z</time>
      </trkpt>
      <trkpt lat="46.53948" lon="0.32848">
        <ele>174.54</ele>
        <time>2018-09-09T07:20:42.000Z</time>
      </trkpt>
      <trkpt lat="46.53957" lon="0.32845">
        <ele>174.31</ele>
        <time>2018-09-09T07:20:46.000Z</time>
      </trkpt>
      <trkpt lat="46.53966" lon="0.32841">
        <ele>174.03</ele>
        <time>2018-09-09T07:20:51.000Z</time>
      </trkpt>
      <trkpt lat="46.53973" lon="0.32832">
        <ele>173.73</ele>
        <time>2018-09-09T07:20:55.000Z</time>
      </trkpt>
      <trkpt lat="46.53981" lon="0.32824">
        <ele>173.35</ele>
        <time>2018-09-09T07:20:59.000Z</time>
      </trkpt>
      <trkpt lat="46.53979" lon="0.32811">
        <ele>171.84</ele>
        <time>2018-09-09T07:21:09.000Z</time>
      </trkpt>
      <trkpt lat="46.53972" lon="0.32802">
        <ele>170.58</ele>
        <time>2018-09-09T07:21:16.000Z</time>
      </trkpt>
      <trkpt lat="46.53962" lon="0.32801">
        <ele>169.7</ele>
        <time>2018-09-09T07:21:22.000Z</time>
      </trkpt>
      <trkpt lat="46.53952" lon="0.32805">
        <ele>169.25</ele>
        <time>2018-09-09T07:21:26.000Z</time>
      </trkpt>
      <trkpt lat="46.53941" lon="0.32806">
        <ele>168.87</ele>
        <time>2018-09-09T07:21:33.000Z</time>
      </trkpt>
      <trkpt lat="46.53932" lon="0.32806">
        <ele>168.83</ele>
        <time>2018-09-09T07:21:36.000Z</time>
      </trkpt>
      <trkpt lat="46.53922" lon="0.32809">
        <ele>169.08</ele>
        <time>2018-09-09T07:21:43.000Z</time>
      </trkpt>
      <trkpt lat="46.53913" lon="0.32814">
        <ele>169.18</ele>
        <time>2018-09-09T07:21:46.000Z</time>
      </trkpt>
      <trkpt lat="46.53903" lon="0.32812">
        <ele>169.74</ele>
        <time>2018-09-09T07:21:53.000Z</time>
      </trkpt>
      <trkpt lat="46.53893" lon="0.32807">
        <ele>170.47</ele>
        <time>2018-09-09T07:21:58.000Z</time>
      </trkpt>
      <trkpt lat="46.53882" lon="0.32803">
        <ele>170.96</ele>
        <time>2018-09-09T07:22:02.000Z</time>
      </trkpt>
      <trkpt lat="46.53872" lon="0.32799">
        <ele>171.28</ele>
        <time>2018-09-09T07:22:05.000Z</time>
      </trkpt>
      <trkpt lat="46.53861" lon="0.32792">
        <ele>171.54</ele>
        <time>2018-09-09T07:22:09.000Z</time>
      </trkpt>
      <trkpt lat="46.53852" lon="0.32785">
        <ele>171.64</ele>
        <time>2018-09-09T07:22:13.000Z</time>
      </trkpt>
      <trkpt lat="46.53841" lon="0.32778">
        <ele>171.76</ele>
        <time>2018-09-09T07:22:17.000Z</time>
      </trkpt>
      <trkpt lat="46.53833" lon="0.32773">
        <ele>171.92</ele>
        <time>2018-09-09T07:22:21.000Z</time>
      </trkpt>
      <trkpt lat="46.53823" lon="0.32768">
        <ele>172.05</ele>
        <time>2018-09-09T07:22:24.000Z</time>
      </trkpt>
      <trkpt lat="46.53811" lon="0.32764">
        <ele>172.18</ele>
        <time>2018-09-09T07:22:27.000Z</time>
      </trkpt>
      <trkpt lat="46.53799" lon="0.32761">
        <ele>172.28</ele>
        <time>2018-09-09T07:22:30.000Z</time>
      </trkpt>
      <trkpt lat="46.53787" lon="0.32759">
        <ele>172.36</ele>
        <time>2018-09-09T07:22:33.000Z</time>
      </trkpt>
      <trkpt lat="46.53778" lon="0.32759">
        <ele>172.43</ele>
        <time>2018-09-09T07:22:35.000Z</time>
      </trkpt>
      <trkpt lat="46.53766" lon="0.32758">
        <ele>172.65</ele>
        <time>2018-09-09T07:22:38.000Z</time>
      </trkpt>
      <trkpt lat="46.53756" lon="0.32755">
        <ele>173.03</ele>
        <time>2018-09-09T07:22:41.000Z</time>
      </trkpt>
      <trkpt lat="46.53746" lon="0.32753">
        <ele>173.45</ele>
        <time>2018-09-09T07:22:44.000Z</time>
      </trkpt>
      <trkpt lat="46.53735" lon="0.32753">
        <ele>173.72</ele>
        <time>2018-09-09T07:22:46.000Z</time>
      </trkpt>
      <trkpt lat="46.53722" lon="0.3275">
        <ele>174.1</ele>
        <time>2018-09-09T07:22:49.000Z</time>
      </trkpt>
      <trkpt lat="46.53712" lon="0.32749">
        <ele>174.45</ele>
        <time>2018-09-09T07:22:52.000Z</time>
      </trkpt>
      <trkpt lat="46.53702" lon="0.32747">
        <ele>174.81</ele>
        <time>2018-09-09T07:22:55.000Z</time>
      </trkpt>
      <trkpt lat="46.53693" lon="0.32746">
        <ele>175.02</ele>
        <time>2018-09-09T07:22:57.000Z</time>
      </trkpt>
      <trkpt lat="46.53682" lon="0.32743">
        <ele>175.25</ele>
        <time>2018-09-09T07:23:00.000Z</time>
      </trkpt>
      <trkpt lat="46.5367" lon="0.32741">
        <ele>175.57</ele>
        <time>2018-09-09T07:23:04.000Z</time>
      </trkpt>
      <trkpt lat="46.53661" lon="0.32741">
        <ele>175.93</ele>
        <time>2018-09-09T07:23:07.000Z</time>
      </trkpt>
      <trkpt lat="46.53651" lon="0.3274">
        <ele>176.77</ele>
        <time>2018-09-09T07:23:12.000Z</time>
      </trkpt>
      <trkpt lat="46.53645" lon="0.32729">
        <ele>177.63</ele>
        <time>2018-09-09T07:23:19.000Z</time>
      </trkpt>
      <trkpt lat="46.53643" lon="0.32716">
        <ele>177.91</ele>
        <time>2018-09-09T07:23:23.000Z</time>
      </trkpt>
      <trkpt lat="46.5365" lon="0.32705">
        <ele>177.96</ele>
        <time>2018-09-09T07:23:27.000Z</time>
      </trkpt>
      <trkpt lat="46.53657" lon="0.32692">
        <ele>177.86</ele>
        <time>2018-09-09T07:23:30.000Z</time>
      </trkpt>
      <trkpt lat="46.5366" lon="0.32672">
        <ele>177.56</ele>
        <time>2018-09-09T07:23:33.000Z</time>
      </trkpt>
      <trkpt lat="46.5366" lon="0.32659">
        <ele>177.01</ele>
        <time>2018-09-09T07:23:37.000Z</time>
      </trkpt>
      <trkpt lat="46.53654" lon="0.32649">
        <ele>176.45</ele>
        <time>2018-09-09T07:23:40.000Z</time>
      </trkpt>
      <trkpt lat="46.53647" lon="0.32641">
        <ele>175.9</ele>
        <time>2018-09-09T07:23:42.000Z</time>
      </trkpt>
      <trkpt lat="46.53645" lon="0.32627">
        <ele>174.16</ele>
        <time>2018-09-09T07:23:48.000Z</time>
      </trkpt>
      <trkpt lat="46.5365" lon="0.32616">
        <ele>173.05</ele>
        <time>2018-09-09T07:23:52.000Z</time>
      </trkpt>
      <trkpt lat="46.53655" lon="0.32603">
        <ele>172.39</ele>
        <time>2018-09-09T07:23:55.000Z</time>
      </trkpt>
      <trkpt lat="46.53655" lon="0.32589">
        <ele>171.54</ele>
        <time>2018-09-09T07:24:00.000Z</time>
      </trkpt>
      <trkpt lat="46.53645" lon="0.32589">
        <ele>170.2</ele>
        <time>2018-09-09T07:24:06.000Z</time>
      </trkpt>
      <trkpt lat="46.53635" lon="0.32588">
        <ele>169.53</ele>
        <time>2018-09-09T07:24:11.000Z</time>
      </trkpt>
      <trkpt lat="46.53625" lon="0.32586">
        <ele>169.36</ele>
        <time>2018-09-09T07:24:14.000Z</time>
      </trkpt>
      <trkpt lat="46.53616" lon="0.32589">
        <ele>169.32</ele>
        <time>2018-09-09T07:24:17.000Z</time>
      </trkpt>
      <trkpt lat="46.53606" lon="0.32597">
        <ele>169.3</ele>
        <time>2018-09-09T07:24:21.000Z</time>
      </trkpt>
      <trkpt lat="46.53595" lon="0.326">
        <ele>169.34</ele>
        <time>2018-09-09T07:24:26.000Z</time>
      </trkpt>
      <trkpt lat="46.53585" lon="0.326">
        <ele>169.66</ele>
        <time>2018-09-09T07:24:32.000Z</time>
      </trkpt>
      <trkpt lat="46.53575" lon="0.32599">
        <ele>170.99</ele>
        <time>2018-09-09T07:24:39.000Z</time>
      </trkpt>
      <trkpt lat="46.53566" lon="0.32595">
        <ele>172.19</ele>
        <time>2018-09-09T07:24:48.000Z</time>
      </trkpt>
      <trkpt lat="46.5356" lon="0.32581">
        <ele>171.97</ele>
        <time>2018-09-09T07:24:51.000Z</time>
      </trkpt>
      <trkpt lat="46.53555" lon="0.32568">
        <ele>171.37</ele>
        <time>2018-09-09T07:24:54.000Z</time>
      </trkpt>
      <trkpt lat="46.53552" lon="0.32551">
        <ele>169.93</ele>
        <time>2018-09-09T07:24:59.000Z</time>
      </trkpt>
      <trkpt lat="46.53541" lon="0.32542">
        <ele>168.93</ele>
        <time>2018-09-09T07:25:03.000Z</time>
      </trkpt>
      <trkpt lat="46.53531" lon="0.32539">
        <ele>168.24</ele>
        <time>2018-09-09T07:25:06.000Z</time>
      </trkpt>
      <trkpt lat="46.53523" lon="0.32532">
        <ele>167.33</ele>
        <time>2018-09-09T07:25:11.000Z</time>
      </trkpt>
      <trkpt lat="46.53513" lon="0.32535">
        <ele>166.75</ele>
        <time>2018-09-09T07:25:20.000Z</time>
      </trkpt>
      <trkpt lat="46.53504" lon="0.32528">
        <ele>166.94</ele>
        <time>2018-09-09T07:25:28.000Z</time>
      </trkpt>
      <trkpt lat="46.53495" lon="0.32521">
        <ele>167.26</ele>
        <time>2018-09-09T07:25:33.000Z</time>
      </trkpt>
      <trkpt lat="46.53484" lon="0.32518">
        <ele>167.73</ele>
        <time>2018-09-09T07:25:38.000Z</time>
      </trkpt>
      <trkpt lat="46.53475" lon="0.32512">
        <ele>168.38</ele>
        <time>2018-09-09T07:25:50.000Z</time>
      </trkpt>
      <trkpt lat="46.53465" lon="0.32507">
        <ele>169.24</ele>
        <time>2018-09-09T07:26:01.000Z</time>
      </trkpt>
      <trkpt lat="46.53455" lon="0.32502">
        <ele>169.81</ele>
        <time>2018-09-09T07:26:13.000Z</time>
      </trkpt>
      <trkpt lat="46.53447" lon="0.32496">
        <ele>169.73</ele>
        <time>2018-09-09T07:26:18.000Z</time>
      </trkpt>
      <trkpt lat="46.53439" lon="0.3249">
        <ele>168.87</ele>
        <time>2018-09-09T07:26:33.000Z</time>
      </trkpt>
      <trkpt lat="46.53429" lon="0.3248">
        <ele>168.41</ele>
        <time>2018-09-09T07:26:42.000Z</time>
      </trkpt>
      <trkpt lat="46.53421" lon="0.32473">
        <ele>167.5</ele>
        <time>2018-09-09T07:27:10.000Z</time>
      </trkpt>
      <trkpt lat="46.53431" lon="0.32471">
        <ele>161.09</ele>
        <time>2018-09-09T07:27:55.000Z</time>
      </trkpt>
      <trkpt lat="46.53441" lon="0.32472">
        <ele>160.43</ele>
        <time>2018-09-09T07:28:00.000Z</time>
      </trkpt>
      <trkpt lat="46.53452" lon="0.32471">
        <ele>159.85</ele>
        <time>2018-09-09T07:28:04.000Z</time>
      </trkpt>
      <trkpt lat="46.53462" lon="0.32468">
        <ele>159.23</ele>
        <time>2018-09-09T07:28:08.000Z</time>
      </trkpt>
      <trkpt lat="46.53471" lon="0.32462">
        <ele>157.55</ele>
        <time>2018-09-09T07:28:19.000Z</time>
      </trkpt>
      <trkpt lat="46.53473" lon="0.32444">
        <ele>155.88</ele>
        <time>2018-09-09T07:28:26.000Z</time>
      </trkpt>
      <trkpt lat="46.53467" lon="0.32431">
        <ele>154.93</ele>
        <time>2018-09-09T07:28:31.000Z</time>
      </trkpt>
      <trkpt lat="46.53461" lon="0.32419">
        <ele>154.26</ele>
        <time>2018-09-09T07:28:36.000Z</time>
      </trkpt>
      <trkpt lat="46.53453" lon="0.32411">
        <ele>153.95</ele>
        <time>2018-09-09T07:28:39.000Z</time>
      </trkpt>
      <trkpt lat="46.53442" lon="0.32406">
        <ele>153.71</ele>
        <time>2018-09-09T07:28:42.000Z</time>
      </trkpt>
      <trkpt lat="46.53431" lon="0.32406">
        <ele>153.51</ele>
        <time>2018-09-09T07:28:45.000Z</time>
      </trkpt>
      <trkpt lat="46.5342" lon="0.32405">
        <ele>153.28</ele>
        <time>2018-09-09T07:28:48.000Z</time>
      </trkpt>
      <trkpt lat="46.5341" lon="0.32399">
        <ele>152.63</ele>
        <time>2018-09-09T07:28:55.000Z</time>
      </trkpt>
      <trkpt lat="46.53403" lon="0.32392">
        <ele>147.54</ele>
        <time>2018-09-09T07:29:49.000Z</time>
      </trkpt>
      <trkpt lat="46.53404" lon="0.32378">
        <ele>146.18</ele>
        <time>2018-09-09T07:30:01.000Z</time>
      </trkpt>
      <trkpt lat="46.534" lon="0.32365">
        <ele>144.93</ele>
        <time>2018-09-09T07:30:13.000Z</time>
      </trkpt>
      <trkpt lat="46.53394" lon="0.32357">
        <ele>144.5</ele>
        <time>2018-09-09T07:30:22.000Z</time>
      </trkpt>
      <trkpt lat="46.53384" lon="0.32357">
        <ele>144.97</ele>
        <time>2018-09-09T07:30:34.000Z</time>
      </trkpt>
      <trkpt lat="46.53375" lon="0.32352">
        <ele>145.36</ele>
        <time>2018-09-09T07:30:43.000Z</time>
      </trkpt>
      <trkpt lat="46.5337" lon="0.3234">
        <ele>145.58</ele>
        <time>2018-09-09T07:30:55.000Z</time>
      </trkpt>
      <trkpt lat="46.53363" lon="0.32327">
        <ele>145.87</ele>
        <time>2018-09-09T07:31:05.000Z</time>
      </trkpt>
      <trkpt lat="46.53358" lon="0.32316">
        <ele>145.82</ele>
        <time>2018-09-09T07:31:09.000Z</time>
      </trkpt>
      <trkpt lat="46.53352" lon="0.32303">
        <ele>145.57</ele>
        <time>2018-09-09T07:31:15.000Z</time>
      </trkpt>
      <trkpt lat="46.53346" lon="0.32293">
        <ele>145.67</ele>
        <time>2018-09-09T07:31:25.000Z</time>
      </trkpt>
      <trkpt lat="46.53337" lon="0.32289">
        <ele>145.92</ele>
        <time>2018-09-09T07:31:38.000Z</time>
      </trkpt>
      <trkpt lat="46.53329" lon="0.32282">
        <ele>146.44</ele>
        <time>2018-09-09T07:31:44.000Z</time>
      </trkpt>
      <trkpt lat="46.53321" lon="0.32272">
        <ele>147.16</ele>
        <time>2018-09-09T07:31:50.000Z</time>
      </trkpt>
      <trkpt lat="46.53312" lon="0.32265">
        <ele>147.57</ele>
        <time>2018-09-09T07:31:55.000Z</time>
      </trkpt>
      <trkpt lat="46.53304" lon="0.32256">
        <ele>148.06</ele>
        <time>2018-09-09T07:32:03.000Z</time>
      </trkpt>
      <trkpt lat="46.53296" lon="0.3225">
        <ele>148.4</ele>
        <time>2018-09-09T07:32:09.000Z</time>
      </trkpt>
      <trkpt lat="46.53287" lon="0.32243">
        <ele>148.82</ele>
        <time>2018-09-09T07:32:16.000Z</time>
      </trkpt>
      <trkpt lat="46.53278" lon="0.32239">
        <ele>149.26</ele>
        <time>2018-09-09T07:32:29.000Z</time>
      </trkpt>
      <trkpt lat="46.5327" lon="0.32231">
        <ele>150.16</ele>
        <time>2018-09-09T07:32:40.000Z</time>
      </trkpt>
      <trkpt lat="46.53264" lon="0.32219">
        <ele>150.85</ele>
        <time>2018-09-09T07:32:45.000Z</time>
      </trkpt>
      <trkpt lat="46.53256" lon="0.32211">
        <ele>151.43</ele>
        <time>2018-09-09T07:32:50.000Z</time>
      </trkpt>
      <trkpt lat="46.5325" lon="0.322">
        <ele>151.89</ele>
        <time>2018-09-09T07:32:54.000Z</time>
      </trkpt>
      <trkpt lat="46.53244" lon="0.32189">
        <ele>152.42</ele>
        <time>2018-09-09T07:32:59.000Z</time>
      </trkpt>
      <trkpt lat="46.53235" lon="0.32184">
        <ele>153.35</ele>
        <time>2018-09-09T07:33:06.000Z</time>
      </trkpt>
      <trkpt lat="46.53227" lon="0.32176">
        <ele>153.96</ele>
        <time>2018-09-09T07:33:11.000Z</time>
      </trkpt>
      <trkpt lat="46.53217" lon="0.32172">
        <ele>154.64</ele>
        <time>2018-09-09T07:33:16.000Z</time>
      </trkpt>
      <trkpt lat="46.53206" lon="0.32168">
        <ele>155.5</ele>
        <time>2018-09-09T07:33:22.000Z</time>
      </trkpt>
      <trkpt lat="46.53197" lon="0.32164">
        <ele>156.64</ele>
        <time>2018-09-09T07:33:28.000Z</time>
      </trkpt>
      <trkpt lat="46.53186" lon="0.32164">
        <ele>158.86</ele>
        <time>2018-09-09T07:33:38.000Z</time>
      </trkpt>
      <trkpt lat="46.53177" lon="0.32164">
        <ele>160.67</ele>
        <time>2018-09-09T07:33:44.000Z</time>
      </trkpt>
      <trkpt lat="46.53167" lon="0.32166">
        <ele>163.04</ele>
        <time>2018-09-09T07:33:52.000Z</time>
      </trkpt>
      <trkpt lat="46.53157" lon="0.32164">
        <ele>164.73</ele>
        <time>2018-09-09T07:33:59.000Z</time>
      </trkpt>
      <trkpt lat="46.53148" lon="0.32162">
        <ele>165.99</ele>
        <time>2018-09-09T07:34:04.000Z</time>
      </trkpt>
      <trkpt lat="46.53138" lon="0.32157">
        <ele>167.82</ele>
        <time>2018-09-09T07:34:12.000Z</time>
      </trkpt>
      <trkpt lat="46.53127" lon="0.32157">
        <ele>169.18</ele>
        <time>2018-09-09T07:34:20.000Z</time>
      </trkpt>
      <trkpt lat="46.53118" lon="0.32157">
        <ele>169.76</ele>
        <time>2018-09-09T07:34:24.000Z</time>
      </trkpt>
      <trkpt lat="46.53109" lon="0.32154">
        <ele>170.49</ele>
        <time>2018-09-09T07:34:31.000Z</time>
      </trkpt>
      <trkpt lat="46.53101" lon="0.32148">
        <ele>171.8</ele>
        <time>2018-09-09T07:34:48.000Z</time>
      </trkpt>
      <trkpt lat="46.53093" lon="0.32139">
        <ele>172.18</ele>
        <time>2018-09-09T07:34:53.000Z</time>
      </trkpt>
      <trkpt lat="46.53085" lon="0.32131">
        <ele>172.61</ele>
        <time>2018-09-09T07:34:59.000Z</time>
      </trkpt>
      <trkpt lat="46.53078" lon="0.3212">
        <ele>173.66</ele>
        <time>2018-09-09T07:35:07.000Z</time>
      </trkpt>
      <trkpt lat="46.53069" lon="0.32112">
        <ele>174.68</ele>
        <time>2018-09-09T07:35:14.000Z</time>
      </trkpt>
      <trkpt lat="46.53059" lon="0.32107">
        <ele>175.39</ele>
        <time>2018-09-09T07:35:18.000Z</time>
      </trkpt>
      <trkpt lat="46.5305" lon="0.32099">
        <ele>176.23</ele>
        <time>2018-09-09T07:35:25.000Z</time>
      </trkpt>
      <trkpt lat="46.53042" lon="0.32091">
        <ele>176.44</ele>
        <time>2018-09-09T07:35:30.000Z</time>
      </trkpt>
      <trkpt lat="46.53035" lon="0.32082">
        <ele>176.47</ele>
        <time>2018-09-09T07:35:36.000Z</time>
      </trkpt>
      <trkpt lat="46.53029" lon="0.32071">
        <ele>176.21</ele>
        <time>2018-09-09T07:35:42.000Z</time>
      </trkpt>
      <trkpt lat="46.53021" lon="0.32065">
        <ele>175.76</ele>
        <time>2018-09-09T07:35:48.000Z</time>
      </trkpt>
      <trkpt lat="46.53023" lon="0.32049">
        <ele>175.34</ele>
        <time>2018-09-09T07:36:05.000Z</time>
      </trkpt>
      <trkpt lat="46.5303" lon="0.32038">
        <ele>174.97</ele>
        <time>2018-09-09T07:36:10.000Z</time>
      </trkpt>
      <trkpt lat="46.53038" lon="0.32023">
        <ele>174.57</ele>
        <time>2018-09-09T07:36:15.000Z</time>
      </trkpt>
      <trkpt lat="46.53045" lon="0.32013">
        <ele>174.12</ele>
        <time>2018-09-09T07:36:21.000Z</time>
      </trkpt>
      <trkpt lat="46.53044" lon="0.31999">
        <ele>173.63</ele>
        <time>2018-09-09T07:36:29.000Z</time>
      </trkpt>
      <trkpt lat="46.53038" lon="0.31988">
        <ele>173.59</ele>
        <time>2018-09-09T07:36:34.000Z</time>
      </trkpt>
      <trkpt lat="46.53038" lon="0.31974">
        <ele>173.4</ele>
        <time>2018-09-09T07:36:38.000Z</time>
      </trkpt>
      <trkpt lat="46.53044" lon="0.31957">
        <ele>173.06</ele>
        <time>2018-09-09T07:36:42.000Z</time>
      </trkpt>
      <trkpt lat="46.53048" lon="0.31942">
        <ele>172.69</ele>
        <time>2018-09-09T07:36:45.000Z</time>
      </trkpt>
      <trkpt lat="46.53048" lon="0.31929">
        <ele>171.63</ele>
        <time>2018-09-09T07:36:52.000Z</time>
      </trkpt>
      <trkpt lat="46.53048" lon="0.31914">
        <ele>170.65</ele>
        <time>2018-09-09T07:36:58.000Z</time>
      </trkpt>
      <trkpt lat="46.53047" lon="0.319">
        <ele>169.55</ele>
        <time>2018-09-09T07:37:05.000Z</time>
      </trkpt>
      <trkpt lat="46.53046" lon="0.31887">
        <ele>168.88</ele>
        <time>2018-09-09T07:37:09.000Z</time>
      </trkpt>
      <trkpt lat="46.5304" lon="0.31876">
        <ele>168.02</ele>
        <time>2018-09-09T07:37:13.000Z</time>
      </trkpt>
      <trkpt lat="46.53045" lon="0.31862">
        <ele>166.89</ele>
        <time>2018-09-09T07:37:19.000Z</time>
      </trkpt>
      <trkpt lat="46.53046" lon="0.31849">
        <ele>161.43</ele>
        <time>2018-09-09T07:38:05.000Z</time>
      </trkpt>
      <trkpt lat="46.53043" lon="0.31836">
        <ele>156.29</ele>
        <time>2018-09-09T07:38:22.000Z</time>
      </trkpt>
      <trkpt lat="46.53039" lon="0.31822">
        <ele>154.3</ele>
        <time>2018-09-09T07:38:39.000Z</time>
      </trkpt>
      <trkpt lat="46.53038" lon="0.31805">
        <ele>154.38</ele>
        <time>2018-09-09T07:38:43.000Z</time>
      </trkpt>
      <trkpt lat="46.53037" lon="0.3179">
        <ele>154.84</ele>
        <time>2018-09-09T07:38:48.000Z</time>
      </trkpt>
      <trkpt lat="46.53038" lon="0.31774">
        <ele>155.33</ele>
        <time>2018-09-09T07:38:52.000Z</time>
      </trkpt>
      <trkpt lat="46.53037" lon="0.31759">
        <ele>155.77</ele>
        <time>2018-09-09T07:38:56.000Z</time>
      </trkpt>
      <trkpt lat="46.53033" lon="0.31745">
        <ele>156.38</ele>
        <time>2018-09-09T07:39:02.000Z</time>
      </trkpt>
      <trkpt lat="46.53033" lon="0.31732">
        <ele>157.24</ele>
        <time>2018-09-09T07:39:08.000Z</time>
      </trkpt>
      <trkpt lat="46.53032" lon="0.31718">
        <ele>157.97</ele>
        <time>2018-09-09T07:39:13.000Z</time>
      </trkpt>
      <trkpt lat="46.5303" lon="0.31704">
        <ele>159.18</ele>
        <time>2018-09-09T07:39:45.000Z</time>
      </trkpt>
      <trkpt lat="46.5303" lon="0.31691">
        <ele>160.03</ele>
        <time>2018-09-09T07:39:52.000Z</time>
      </trkpt>
      <trkpt lat="46.53026" lon="0.31679">
        <ele>162.19</ele>
        <time>2018-09-09T07:40:03.000Z</time>
      </trkpt>
      <trkpt lat="46.53019" lon="0.3167">
        <ele>164.38</ele>
        <time>2018-09-09T07:40:17.000Z</time>
      </trkpt>
      <trkpt lat="46.53013" lon="0.3166">
        <ele>166.7</ele>
        <time>2018-09-09T07:40:38.000Z</time>
      </trkpt>
      <trkpt lat="46.53009" lon="0.31646">
        <ele>167.41</ele>
        <time>2018-09-09T07:40:52.000Z</time>
      </trkpt>
      <trkpt lat="46.53005" lon="0.31634">
        <ele>168.46</ele>
        <time>2018-09-09T07:40:59.000Z</time>
      </trkpt>
      <trkpt lat="46.53002" lon="0.31621">
        <ele>169.34</ele>
        <time>2018-09-09T07:41:04.000Z</time>
      </trkpt>
      <trkpt lat="46.53" lon="0.31608">
        <ele>170.2</ele>
        <time>2018-09-09T07:41:09.000Z</time>
      </trkpt>
      <trkpt lat="46.52999" lon="0.31595">
        <ele>170.9</ele>
        <time>2018-09-09T07:41:13.000Z</time>
      </trkpt>
      <trkpt lat="46.52997" lon="0.3158">
        <ele>171.65</ele>
        <time>2018-09-09T07:41:18.000Z</time>
      </trkpt>
      <trkpt lat="46.52993" lon="0.31565">
        <ele>172.69</ele>
        <time>2018-09-09T07:41:25.000Z</time>
      </trkpt>
      <trkpt lat="46.5299" lon="0.3155">
        <ele>173.09</ele>
        <time>2018-09-09T07:41:28.000Z</time>
      </trkpt>
      <trkpt lat="46.52987" lon="0.31535">
        <ele>173.59</ele>
        <time>2018-09-09T07:41:32.000Z</time>
      </trkpt>
      <trkpt lat="46.52985" lon="0.31522">
        <ele>174.14</ele>
        <time>2018-09-09T07:41:36.000Z</time>
      </trkpt>
      <trkpt lat="46.52981" lon="0.31508">
        <ele>174.67</ele>
        <time>2018-09-09T07:41:40.000Z</time>
      </trkpt>
      <trkpt lat="46.52976" lon="0.31495">
        <ele>175.25</ele>
        <time>2018-09-09T07:41:44.000Z</time>
      </trkpt>
      <trkpt lat="46.52971" lon="0.31479">
        <ele>175.77</ele>
        <time>2018-09-09T07:41:48.000Z</time>
      </trkpt>
      <trkpt lat="46.52964" lon="0.31467">
        <ele>176.57</ele>
        <time>2018-09-09T07:41:53.000Z</time>
      </trkpt>
      <trkpt lat="46.52956" lon="0.31459">
        <ele>177.39</ele>
        <time>2018-09-09T07:41:58.000Z</time>
      </trkpt>
      <trkpt lat="46.52948" lon="0.31449">
        <ele>178.7</ele>
        <time>2018-09-09T07:42:05.000Z</time>
      </trkpt>
      <trkpt lat="46.52941" lon="0.31437">
        <ele>179.08</ele>
        <time>2018-09-09T07:42:08.000Z</time>
      </trkpt>
      <trkpt lat="46.52932" lon="0.31429">
        <ele>179.16</ele>
        <time>2018-09-09T07:42:11.000Z</time>
      </trkpt>
      <trkpt lat="46.52926" lon="0.31417">
        <ele>179.49</ele>
        <time>2018-09-09T07:42:17.000Z</time>
      </trkpt>
      <trkpt lat="46.52922" lon="0.31405">
        <ele>179.86</ele>
        <time>2018-09-09T07:42:22.000Z</time>
      </trkpt>
      <trkpt lat="46.52917" lon="0.3139">
        <ele>180.32</ele>
        <time>2018-09-09T07:42:27.000Z</time>
      </trkpt>
      <trkpt lat="46.52911" lon="0.31378">
        <ele>180.53</ele>
        <time>2018-09-09T07:42:32.000Z</time>
      </trkpt>
      <trkpt lat="46.52906" lon="0.31365">
        <ele>180.59</ele>
        <time>2018-09-09T07:42:35.000Z</time>
      </trkpt>
      <trkpt lat="46.52901" lon="0.31353">
        <ele>180.46</ele>
        <time>2018-09-09T07:42:37.000Z</time>
      </trkpt>
      <trkpt lat="46.52893" lon="0.31343">
        <ele>180.05</ele>
        <time>2018-09-09T07:42:41.000Z</time>
      </trkpt>
      <trkpt lat="46.52886" lon="0.31332">
        <ele>179.6</ele>
        <time>2018-09-09T07:42:45.000Z</time>
      </trkpt>
      <trkpt lat="46.5288" lon="0.31319">
        <ele>179.29</ele>
        <time>2018-09-09T07:42:49.000Z</time>
      </trkpt>
      <trkpt lat="46.52876" lon="0.31306">
        <ele>178.96</ele>
        <time>2018-09-09T07:42:54.000Z</time>
      </trkpt>
      <trkpt lat="46.52871" lon="0.31295">
        <ele>178.84</ele>
        <time>2018-09-09T07:43:00.000Z</time>
      </trkpt>
      <trkpt lat="46.52864" lon="0.31285">
        <ele>178.75</ele>
        <time>2018-09-09T07:43:16.000Z</time>
      </trkpt>
      <trkpt lat="46.52858" lon="0.31275">
        <ele>177.96</ele>
        <time>2018-09-09T07:43:41.000Z</time>
      </trkpt>
      <trkpt lat="46.52861" lon="0.31263">
        <ele>176.94</ele>
        <time>2018-09-09T07:43:54.000Z</time>
      </trkpt>
      <trkpt lat="46.52871" lon="0.31263">
        <ele>176.04</ele>
        <time>2018-09-09T07:44:07.000Z</time>
      </trkpt>
      <trkpt lat="46.52879" lon="0.31254">
        <ele>174.47</ele>
        <time>2018-09-09T07:44:21.000Z</time>
      </trkpt>
      <trkpt lat="46.52886" lon="0.31247">
        <ele>174.14</ele>
        <time>2018-09-09T07:44:34.000Z</time>
      </trkpt>
      <trkpt lat="46.52892" lon="0.31236">
        <ele>173.03</ele>
        <time>2018-09-09T07:45:03.000Z</time>
      </trkpt>
      <trkpt lat="46.52891" lon="0.3122">
        <ele>172.74</ele>
        <time>2018-09-09T07:45:15.000Z</time>
      </trkpt>
      <trkpt lat="46.52893" lon="0.31206">
        <ele>172.44</ele>
        <time>2018-09-09T07:45:24.000Z</time>
      </trkpt>
      <trkpt lat="46.52892" lon="0.31221">
        <ele>160.02</ele>
        <time>2018-09-09T07:46:24.000Z</time>
      </trkpt>
      <trkpt lat="46.5289" lon="0.31235">
        <ele>159.82</ele>
        <time>2018-09-09T07:46:31.000Z</time>
      </trkpt>
      <trkpt lat="46.52902" lon="0.31236">
        <ele>160.49</ele>
        <time>2018-09-09T07:46:43.000Z</time>
      </trkpt>
      <trkpt lat="46.52912" lon="0.31238">
        <ele>159.72</ele>
        <time>2018-09-09T07:46:46.000Z</time>
      </trkpt>
      <trkpt lat="46.52926" lon="0.31239">
        <ele>159.04</ele>
        <time>2018-09-09T07:46:48.000Z</time>
      </trkpt>
      <trkpt lat="46.52935" lon="0.31235">
        <ele>157.79</ele>
        <time>2018-09-09T07:46:51.000Z</time>
      </trkpt>
      <trkpt lat="46.52944" lon="0.3123">
        <ele>156.51</ele>
        <time>2018-09-09T07:46:54.000Z</time>
      </trkpt>
      <trkpt lat="46.52952" lon="0.31222">
        <ele>155.36</ele>
        <time>2018-09-09T07:46:57.000Z</time>
      </trkpt>
      <trkpt lat="46.52962" lon="0.31216">
        <ele>154.32</ele>
        <time>2018-09-09T07:47:00.000Z</time>
      </trkpt>
      <trkpt lat="46.52972" lon="0.31206">
        <ele>153</ele>
        <time>2018-09-09T07:47:04.000Z</time>
      </trkpt>
      <trkpt lat="46.52982" lon="0.31191">
        <ele>152.65</ele>
        <time>2018-09-09T07:47:06.000Z</time>
      </trkpt>
      <trkpt lat="46.5299" lon="0.31177">
        <ele>152.61</ele>
        <time>2018-09-09T07:47:09.000Z</time>
      </trkpt>
      <trkpt lat="46.52998" lon="0.31166">
        <ele>152.74</ele>
        <time>2018-09-09T07:47:11.000Z</time>
      </trkpt>
      <trkpt lat="46.53008" lon="0.31157">
        <ele>153.06</ele>
        <time>2018-09-09T07:47:14.000Z</time>
      </trkpt>
      <trkpt lat="46.53017" lon="0.31149">
        <ele>153.41</ele>
        <time>2018-09-09T07:47:17.000Z</time>
      </trkpt>
      <trkpt lat="46.53025" lon="0.31142">
        <ele>153.77</ele>
        <time>2018-09-09T07:47:20.000Z</time>
      </trkpt>
      <trkpt lat="46.53032" lon="0.31134">
        <ele>154.22</ele>
        <time>2018-09-09T07:47:23.000Z</time>
      </trkpt>
      <trkpt lat="46.5304" lon="0.31126">
        <ele>154.87</ele>
        <time>2018-09-09T07:47:27.000Z</time>
      </trkpt>
      <trkpt lat="46.53048" lon="0.31119">
        <ele>155.58</ele>
        <time>2018-09-09T07:47:31.000Z</time>
      </trkpt>
      <trkpt lat="46.53056" lon="0.31111">
        <ele>156.29</ele>
        <time>2018-09-09T07:47:35.000Z</time>
      </trkpt>
      <trkpt lat="46.53064" lon="0.31103">
        <ele>157.02</ele>
        <time>2018-09-09T07:47:39.000Z</time>
      </trkpt>
      <trkpt lat="46.53073" lon="0.31093">
        <ele>157.8</ele>
        <time>2018-09-09T07:47:43.000Z</time>
      </trkpt>
      <trkpt lat="46.53081" lon="0.31086">
        <ele>158.52</ele>
        <time>2018-09-09T07:47:47.000Z</time>
      </trkpt>
      <trkpt lat="46.5309" lon="0.31079">
        <ele>159.42</ele>
        <time>2018-09-09T07:47:52.000Z</time>
      </trkpt>
      <trkpt lat="46.53098" lon="0.31073">
        <ele>160.19</ele>
        <time>2018-09-09T07:47:56.000Z</time>
      </trkpt>
      <trkpt lat="46.53104" lon="0.31064">
        <ele>160.92</ele>
        <time>2018-09-09T07:48:00.000Z</time>
      </trkpt>
      <trkpt lat="46.53112" lon="0.31055">
        <ele>162.23</ele>
        <time>2018-09-09T07:48:06.000Z</time>
      </trkpt>
      <trkpt lat="46.5312" lon="0.31046">
        <ele>163.25</ele>
        <time>2018-09-09T07:48:10.000Z</time>
      </trkpt>
      <trkpt lat="46.53128" lon="0.31041">
        <ele>164.13</ele>
        <time>2018-09-09T07:48:14.000Z</time>
      </trkpt>
      <trkpt lat="46.53136" lon="0.31033">
        <ele>165.25</ele>
        <time>2018-09-09T07:48:19.000Z</time>
      </trkpt>
      <trkpt lat="46.53143" lon="0.31023">
        <ele>166.35</ele>
        <time>2018-09-09T07:48:24.000Z</time>
      </trkpt>
      <trkpt lat="46.53151" lon="0.31016">
        <ele>167.09</ele>
        <time>2018-09-09T07:48:28.000Z</time>
      </trkpt>
      <trkpt lat="46.53159" lon="0.31007">
        <ele>167.88</ele>
        <time>2018-09-09T07:48:32.000Z</time>
      </trkpt>
      <trkpt lat="46.53167" lon="0.30995">
        <ele>168.7</ele>
        <time>2018-09-09T07:48:36.000Z</time>
      </trkpt>
      <trkpt lat="46.53173" lon="0.30982">
        <ele>169.31</ele>
        <time>2018-09-09T07:48:39.000Z</time>
      </trkpt>
      <trkpt lat="46.53178" lon="0.3097">
        <ele>170.14</ele>
        <time>2018-09-09T07:48:43.000Z</time>
      </trkpt>
      <trkpt lat="46.53185" lon="0.30958">
        <ele>171.31</ele>
        <time>2018-09-09T07:48:48.000Z</time>
      </trkpt>
      <trkpt lat="46.53192" lon="0.30946">
        <ele>172.02</ele>
        <time>2018-09-09T07:48:51.000Z</time>
      </trkpt>
      <trkpt lat="46.53201" lon="0.30935">
        <ele>173.04</ele>
        <time>2018-09-09T07:48:56.000Z</time>
      </trkpt>
      <trkpt lat="46.5321" lon="0.30926">
        <ele>174.04</ele>
        <time>2018-09-09T07:49:01.000Z</time>
      </trkpt>
      <trkpt lat="46.5322" lon="0.30914">
        <ele>174.68</ele>
        <time>2018-09-09T07:49:04.000Z</time>
      </trkpt>
      <trkpt lat="46.53228" lon="0.30907">
        <ele>175.36</ele>
        <time>2018-09-09T07:49:07.000Z</time>
      </trkpt>
      <trkpt lat="46.53238" lon="0.30897">
        <ele>176.07</ele>
        <time>2018-09-09T07:49:10.000Z</time>
      </trkpt>
      <trkpt lat="46.53248" lon="0.30888">
        <ele>177.11</ele>
        <time>2018-09-09T07:49:15.000Z</time>
      </trkpt>
      <trkpt lat="46.53259" lon="0.30878">
        <ele>177.76</ele>
        <time>2018-09-09T07:49:19.000Z</time>
      </trkpt>
      <trkpt lat="46.53267" lon="0.3087">
        <ele>178.22</ele>
        <time>2018-09-09T07:49:23.000Z</time>
      </trkpt>
      <trkpt lat="46.53277" lon="0.30865">
        <ele>178.41</ele>
        <time>2018-09-09T07:49:27.000Z</time>
      </trkpt>
      <trkpt lat="46.53286" lon="0.30862">
        <ele>178.45</ele>
        <time>2018-09-09T07:49:30.000Z</time>
      </trkpt>
      <trkpt lat="46.53296" lon="0.3086">
        <ele>178.5</ele>
        <time>2018-09-09T07:49:33.000Z</time>
      </trkpt>
      <trkpt lat="46.53307" lon="0.30854">
        <ele>178.7</ele>
        <time>2018-09-09T07:49:37.000Z</time>
      </trkpt>
      <trkpt lat="46.53315" lon="0.30849">
        <ele>178.97</ele>
        <time>2018-09-09T07:49:41.000Z</time>
      </trkpt>
      <trkpt lat="46.53325" lon="0.30843">
        <ele>179.37</ele>
        <time>2018-09-09T07:49:47.000Z</time>
      </trkpt>
      <trkpt lat="46.53333" lon="0.30836">
        <ele>179.67</ele>
        <time>2018-09-09T07:49:51.000Z</time>
      </trkpt>
      <trkpt lat="46.53342" lon="0.30831">
        <ele>179.96</ele>
        <time>2018-09-09T07:49:55.000Z</time>
      </trkpt>
      <trkpt lat="46.53351" lon="0.30825">
        <ele>180.24</ele>
        <time>2018-09-09T07:49:59.000Z</time>
      </trkpt>
      <trkpt lat="46.53361" lon="0.30821">
        <ele>180.43</ele>
        <time>2018-09-09T07:50:03.000Z</time>
      </trkpt>
      <trkpt lat="46.53371" lon="0.30816">
        <ele>180.59</ele>
        <time>2018-09-09T07:50:07.000Z</time>
      </trkpt>
      <trkpt lat="46.53381" lon="0.30813">
        <ele>180.73</ele>
        <time>2018-09-09T07:50:11.000Z</time>
      </trkpt>
      <trkpt lat="46.53391" lon="0.30808">
        <ele>180.86</ele>
        <time>2018-09-09T07:50:15.000Z</time>
      </trkpt>
      <trkpt lat="46.53399" lon="0.30803">
        <ele>180.94</ele>
        <time>2018-09-09T07:50:18.000Z</time>
      </trkpt>
      <trkpt lat="46.53408" lon="0.30798">
        <ele>181.12</ele>
        <time>2018-09-09T07:50:22.000Z</time>
      </trkpt>
      <trkpt lat="46.53418" lon="0.30793">
        <ele>181.54</ele>
        <time>2018-09-09T07:50:27.000Z</time>
      </trkpt>
      <trkpt lat="46.53426" lon="0.30788">
        <ele>182.02</ele>
        <time>2018-09-09T07:50:31.000Z</time>
      </trkpt>
      <trkpt lat="46.53437" lon="0.30784">
        <ele>182.41</ele>
        <time>2018-09-09T07:50:35.000Z</time>
      </trkpt>
      <trkpt lat="46.53447" lon="0.30779">
        <ele>182.55</ele>
        <time>2018-09-09T07:50:39.000Z</time>
      </trkpt>
      <trkpt lat="46.53456" lon="0.30775">
        <ele>182.56</ele>
        <time>2018-09-09T07:50:44.000Z</time>
      </trkpt>
      <trkpt lat="46.53466" lon="0.30772">
        <ele>182.71</ele>
        <time>2018-09-09T07:50:50.000Z</time>
      </trkpt>
      <trkpt lat="46.53476" lon="0.3077">
        <ele>183.1</ele>
        <time>2018-09-09T07:50:55.000Z</time>
      </trkpt>
      <trkpt lat="46.53488" lon="0.30768">
        <ele>183.72</ele>
        <time>2018-09-09T07:51:00.000Z</time>
      </trkpt>
      <trkpt lat="46.53498" lon="0.30767">
        <ele>183.8</ele>
        <time>2018-09-09T07:51:03.000Z</time>
      </trkpt>
      <trkpt lat="46.53508" lon="0.30764">
        <ele>183.89</ele>
        <time>2018-09-09T07:51:07.000Z</time>
      </trkpt>
      <trkpt lat="46.53517" lon="0.30762">
        <ele>184.09</ele>
        <time>2018-09-09T07:51:11.000Z</time>
      </trkpt>
      <trkpt lat="46.53527" lon="0.30763">
        <ele>184.95</ele>
        <time>2018-09-09T07:51:19.000Z</time>
      </trkpt>
      <trkpt lat="46.53537" lon="0.30764">
        <ele>186</ele>
        <time>2018-09-09T07:51:25.000Z</time>
      </trkpt>
      <trkpt lat="46.53547" lon="0.30767">
        <ele>187.13</ele>
        <time>2018-09-09T07:51:30.000Z</time>
      </trkpt>
      <trkpt lat="46.53558" lon="0.30765">
        <ele>187.99</ele>
        <time>2018-09-09T07:51:34.000Z</time>
      </trkpt>
      <trkpt lat="46.53568" lon="0.3077">
        <ele>188.7</ele>
        <time>2018-09-09T07:51:39.000Z</time>
      </trkpt>
      <trkpt lat="46.53578" lon="0.30774">
        <ele>189.4</ele>
        <time>2018-09-09T07:51:45.000Z</time>
      </trkpt>
      <trkpt lat="46.53588" lon="0.30778">
        <ele>190.11</ele>
        <time>2018-09-09T07:51:51.000Z</time>
      </trkpt>
      <trkpt lat="46.53597" lon="0.30776">
        <ele>192.22</ele>
        <time>2018-09-09T07:52:02.000Z</time>
      </trkpt>
      <trkpt lat="46.53603" lon="0.30788">
        <ele>193.97</ele>
        <time>2018-09-09T07:52:07.000Z</time>
      </trkpt>
      <trkpt lat="46.53608" lon="0.30801">
        <ele>195.52</ele>
        <time>2018-09-09T07:52:12.000Z</time>
      </trkpt>
      <trkpt lat="46.53616" lon="0.30812">
        <ele>197.39</ele>
        <time>2018-09-09T07:52:18.000Z</time>
      </trkpt>
      <trkpt lat="46.53624" lon="0.30825">
        <ele>198.95</ele>
        <time>2018-09-09T07:52:23.000Z</time>
      </trkpt>
      <trkpt lat="46.53629" lon="0.30838">
        <ele>199.89</ele>
        <time>2018-09-09T07:52:28.000Z</time>
      </trkpt>
      <trkpt lat="46.53634" lon="0.3085">
        <ele>200.67</ele>
        <time>2018-09-09T07:52:35.000Z</time>
      </trkpt>
      <trkpt lat="46.5364" lon="0.30861">
        <ele>201.21</ele>
        <time>2018-09-09T07:52:40.000Z</time>
      </trkpt>
      <trkpt lat="46.53642" lon="0.30874">
        <ele>202.03</ele>
        <time>2018-09-09T07:52:46.000Z</time>
      </trkpt>
      <trkpt lat="46.53647" lon="0.30886">
        <ele>202.66</ele>
        <time>2018-09-09T07:52:51.000Z</time>
      </trkpt>
      <trkpt lat="46.53647" lon="0.309">
        <ele>202.96</ele>
        <time>2018-09-09T07:52:55.000Z</time>
      </trkpt>
      <trkpt lat="46.53651" lon="0.30913">
        <ele>202.91</ele>
        <time>2018-09-09T07:52:59.000Z</time>
      </trkpt>
      <trkpt lat="46.53658" lon="0.30923">
        <ele>202.88</ele>
        <time>2018-09-09T07:53:02.000Z</time>
      </trkpt>
      <trkpt lat="46.53663" lon="0.30936">
        <ele>202.7</ele>
        <time>2018-09-09T07:53:05.000Z</time>
      </trkpt>
      <trkpt lat="46.53668" lon="0.30955">
        <ele>202.45</ele>
        <time>2018-09-09T07:53:10.000Z</time>
      </trkpt>
      <trkpt lat="46.53672" lon="0.30969">
        <ele>202.11</ele>
        <time>2018-09-09T07:53:13.000Z</time>
      </trkpt>
      <trkpt lat="46.53676" lon="0.30985">
        <ele>201.53</ele>
        <time>2018-09-09T07:53:17.000Z</time>
      </trkpt>
      <trkpt lat="46.53679" lon="0.30997">
        <ele>201.01</ele>
        <time>2018-09-09T07:53:20.000Z</time>
      </trkpt>
      <trkpt lat="46.53686" lon="0.3101">
        <ele>200.47</ele>
        <time>2018-09-09T07:53:23.000Z</time>
      </trkpt>
      <trkpt lat="46.53693" lon="0.31023">
        <ele>199.87</ele>
        <time>2018-09-09T07:53:27.000Z</time>
      </trkpt>
      <trkpt lat="46.537" lon="0.31033">
        <ele>199.47</ele>
        <time>2018-09-09T07:53:30.000Z</time>
      </trkpt>
      <trkpt lat="46.53706" lon="0.31044">
        <ele>199.05</ele>
        <time>2018-09-09T07:53:34.000Z</time>
      </trkpt>
      <trkpt lat="46.5371" lon="0.31055">
        <ele>198.73</ele>
        <time>2018-09-09T07:53:38.000Z</time>
      </trkpt>
      <trkpt lat="46.53718" lon="0.3107">
        <ele>198.58</ele>
        <time>2018-09-09T07:53:42.000Z</time>
      </trkpt>
      <trkpt lat="46.53724" lon="0.31084">
        <ele>198.54</ele>
        <time>2018-09-09T07:53:46.000Z</time>
      </trkpt>
      <trkpt lat="46.53729" lon="0.31096">
        <ele>198.61</ele>
        <time>2018-09-09T07:53:49.000Z</time>
      </trkpt>
      <trkpt lat="46.53734" lon="0.31108">
        <ele>198.68</ele>
        <time>2018-09-09T07:53:52.000Z</time>
      </trkpt>
      <trkpt lat="46.53741" lon="0.3112">
        <ele>198.68</ele>
        <time>2018-09-09T07:53:55.000Z</time>
      </trkpt>
      <trkpt lat="46.53749" lon="0.31135">
        <ele>198.48</ele>
        <time>2018-09-09T07:53:58.000Z</time>
      </trkpt>
      <trkpt lat="46.53756" lon="0.3115">
        <ele>198.51</ele>
        <time>2018-09-09T07:54:01.000Z</time>
      </trkpt>
      <trkpt lat="46.53764" lon="0.31163">
        <ele>198.57</ele>
        <time>2018-09-09T07:54:04.000Z</time>
      </trkpt>
      <trkpt lat="46.53771" lon="0.31173">
        <ele>198.71</ele>
        <time>2018-09-09T07:54:06.000Z</time>
      </trkpt>
      <trkpt lat="46.53777" lon="0.31183">
        <ele>198.73</ele>
        <time>2018-09-09T07:54:08.000Z</time>
      </trkpt>
      <trkpt lat="46.53785" lon="0.31193">
        <ele>197.9</ele>
        <time>2018-09-09T07:54:10.000Z</time>
      </trkpt>
      <trkpt lat="46.53793" lon="0.31205">
        <ele>196.62</ele>
        <time>2018-09-09T07:54:12.000Z</time>
      </trkpt>
      <trkpt lat="46.53801" lon="0.31218">
        <ele>195.07</ele>
        <time>2018-09-09T07:54:14.000Z</time>
      </trkpt>
      <trkpt lat="46.53809" lon="0.31228">
        <ele>193.14</ele>
        <time>2018-09-09T07:54:16.000Z</time>
      </trkpt>
      <trkpt lat="46.5382" lon="0.31238">
        <ele>191.55</ele>
        <time>2018-09-09T07:54:18.000Z</time>
      </trkpt>
      <trkpt lat="46.53833" lon="0.31249">
        <ele>190.28</ele>
        <time>2018-09-09T07:54:21.000Z</time>
      </trkpt>
      <trkpt lat="46.53843" lon="0.31255">
        <ele>189.76</ele>
        <time>2018-09-09T07:54:23.000Z</time>
      </trkpt>
      <trkpt lat="46.53852" lon="0.31261">
        <ele>189.63</ele>
        <time>2018-09-09T07:54:25.000Z</time>
      </trkpt>
      <trkpt lat="46.53864" lon="0.31267">
        <ele>189.55</ele>
        <time>2018-09-09T07:54:28.000Z</time>
      </trkpt>
      <trkpt lat="46.53871" lon="0.31276">
        <ele>189.53</ele>
        <time>2018-09-09T07:54:31.000Z</time>
      </trkpt>
      <trkpt lat="46.53881" lon="0.31282">
        <ele>189.53</ele>
        <time>2018-09-09T07:54:34.000Z</time>
      </trkpt>
      <trkpt lat="46.53894" lon="0.3129">
        <ele>189.63</ele>
        <time>2018-09-09T07:54:37.000Z</time>
      </trkpt>
      <trkpt lat="46.53902" lon="0.31297">
        <ele>189.86</ele>
        <time>2018-09-09T07:54:40.000Z</time>
      </trkpt>
      <trkpt lat="46.53911" lon="0.31304">
        <ele>190.11</ele>
        <time>2018-09-09T07:54:43.000Z</time>
      </trkpt>
      <trkpt lat="46.53922" lon="0.31308">
        <ele>190.59</ele>
        <time>2018-09-09T07:54:47.000Z</time>
      </trkpt>
      <trkpt lat="46.53932" lon="0.31316">
        <ele>191.38</ele>
        <time>2018-09-09T07:54:51.000Z</time>
      </trkpt>
      <trkpt lat="46.53943" lon="0.31323">
        <ele>191.99</ele>
        <time>2018-09-09T07:54:54.000Z</time>
      </trkpt>
      <trkpt lat="46.53953" lon="0.31328">
        <ele>192.59</ele>
        <time>2018-09-09T07:54:57.000Z</time>
      </trkpt>
      <trkpt lat="46.53962" lon="0.31333">
        <ele>193.11</ele>
        <time>2018-09-09T07:55:00.000Z</time>
      </trkpt>
      <trkpt lat="46.5397" lon="0.31341">
        <ele>193.83</ele>
        <time>2018-09-09T07:55:05.000Z</time>
      </trkpt>
      <trkpt lat="46.53981" lon="0.31346">
        <ele>194.24</ele>
        <time>2018-09-09T07:55:17.000Z</time>
      </trkpt>
      <trkpt lat="46.53991" lon="0.31353">
        <ele>194.96</ele>
        <time>2018-09-09T07:55:23.000Z</time>
      </trkpt>
      <trkpt lat="46.54002" lon="0.31358">
        <ele>195.53</ele>
        <time>2018-09-09T07:55:27.000Z</time>
      </trkpt>
      <trkpt lat="46.54012" lon="0.31362">
        <ele>195.89</ele>
        <time>2018-09-09T07:55:30.000Z</time>
      </trkpt>
      <trkpt lat="46.5402" lon="0.31367">
        <ele>196.16</ele>
        <time>2018-09-09T07:55:32.000Z</time>
      </trkpt>
      <trkpt lat="46.54031" lon="0.31374">
        <ele>196.33</ele>
        <time>2018-09-09T07:55:34.000Z</time>
      </trkpt>
      <trkpt lat="46.5404" lon="0.31379">
        <ele>196.37</ele>
        <time>2018-09-09T07:55:36.000Z</time>
      </trkpt>
      <trkpt lat="46.5405" lon="0.3138">
        <ele>196.25</ele>
        <time>2018-09-09T07:55:38.000Z</time>
      </trkpt>
      <trkpt lat="46.54062" lon="0.31381">
        <ele>196.24</ele>
        <time>2018-09-09T07:55:41.000Z</time>
      </trkpt>
      <trkpt lat="46.54076" lon="0.31384">
        <ele>196.27</ele>
        <time>2018-09-09T07:55:44.000Z</time>
      </trkpt>
      <trkpt lat="46.54089" lon="0.31384">
        <ele>196.33</ele>
        <time>2018-09-09T07:55:47.000Z</time>
      </trkpt>
      <trkpt lat="46.54099" lon="0.31384">
        <ele>196.39</ele>
        <time>2018-09-09T07:55:49.000Z</time>
      </trkpt>
      <trkpt lat="46.54108" lon="0.31387">
        <ele>196.47</ele>
        <time>2018-09-09T07:55:51.000Z</time>
      </trkpt>
      <trkpt lat="46.54117" lon="0.3139">
        <ele>196.71</ele>
        <time>2018-09-09T07:55:53.000Z</time>
      </trkpt>
      <trkpt lat="46.54127" lon="0.31394">
        <ele>196.7</ele>
        <time>2018-09-09T07:55:55.000Z</time>
      </trkpt>
      <trkpt lat="46.54139" lon="0.31396">
        <ele>196.82</ele>
        <time>2018-09-09T07:55:58.000Z</time>
      </trkpt>
      <trkpt lat="46.54148" lon="0.314">
        <ele>196.92</ele>
        <time>2018-09-09T07:56:00.000Z</time>
      </trkpt>
      <trkpt lat="46.54159" lon="0.31403">
        <ele>197.29</ele>
        <time>2018-09-09T07:56:02.000Z</time>
      </trkpt>
      <trkpt lat="46.54169" lon="0.31407">
        <ele>197.56</ele>
        <time>2018-09-09T07:56:04.000Z</time>
      </trkpt>
      <trkpt lat="46.54179" lon="0.3141">
        <ele>198.02</ele>
        <time>2018-09-09T07:56:06.000Z</time>
      </trkpt>
      <trkpt lat="46.5419" lon="0.31412">
        <ele>198.01</ele>
        <time>2018-09-09T07:56:08.000Z</time>
      </trkpt>
      <trkpt lat="46.54201" lon="0.31411">
        <ele>197.69</ele>
        <time>2018-09-09T07:56:10.000Z</time>
      </trkpt>
      <trkpt lat="46.54212" lon="0.31412">
        <ele>196.96</ele>
        <time>2018-09-09T07:56:12.000Z</time>
      </trkpt>
      <trkpt lat="46.54222" lon="0.31412">
        <ele>196.41</ele>
        <time>2018-09-09T07:56:14.000Z</time>
      </trkpt>
      <trkpt lat="46.54233" lon="0.31409">
        <ele>195.85</ele>
        <time>2018-09-09T07:56:16.000Z</time>
      </trkpt>
      <trkpt lat="46.54242" lon="0.31407">
        <ele>195.85</ele>
        <time>2018-09-09T07:56:18.000Z</time>
      </trkpt>
      <trkpt lat="46.54255" lon="0.31405">
        <ele>195.82</ele>
        <time>2018-09-09T07:56:21.000Z</time>
      </trkpt>
      <trkpt lat="46.54265" lon="0.31403">
        <ele>195.75</ele>
        <time>2018-09-09T07:56:23.000Z</time>
      </trkpt>
      <trkpt lat="46.54274" lon="0.314">
        <ele>196.31</ele>
        <time>2018-09-09T07:56:25.000Z</time>
      </trkpt>
      <trkpt lat="46.54285" lon="0.31397">
        <ele>196.91</ele>
        <time>2018-09-09T07:56:27.000Z</time>
      </trkpt>
      <trkpt lat="46.54296" lon="0.31393">
        <ele>197.37</ele>
        <time>2018-09-09T07:56:29.000Z</time>
      </trkpt>
      <trkpt lat="46.54306" lon="0.31389">
        <ele>197.64</ele>
        <time>2018-09-09T07:56:31.000Z</time>
      </trkpt>
      <trkpt lat="46.54316" lon="0.31381">
        <ele>197.6</ele>
        <time>2018-09-09T07:56:34.000Z</time>
      </trkpt>
      <trkpt lat="46.54324" lon="0.31391">
        <ele>197.35</ele>
        <time>2018-09-09T07:56:41.000Z</time>
      </trkpt>
      <trkpt lat="46.54327" lon="0.31409">
        <ele>196.07</ele>
        <time>2018-09-09T07:56:44.000Z</time>
      </trkpt>
      <trkpt lat="46.5433" lon="0.31421">
        <ele>194.66</ele>
        <time>2018-09-09T07:56:46.000Z</time>
      </trkpt>
      <trkpt lat="46.54335" lon="0.3144">
        <ele>193.07</ele>
        <time>2018-09-09T07:56:49.000Z</time>
      </trkpt>
      <trkpt lat="46.54339" lon="0.31454">
        <ele>192.06</ele>
        <time>2018-09-09T07:56:51.000Z</time>
      </trkpt>
      <trkpt lat="46.54342" lon="0.31468">
        <ele>191.3</ele>
        <time>2018-09-09T07:56:53.000Z</time>
      </trkpt>
      <trkpt lat="46.54345" lon="0.31482">
        <ele>190.81</ele>
        <time>2018-09-09T07:56:55.000Z</time>
      </trkpt>
      <trkpt lat="46.54347" lon="0.31498">
        <ele>190.49</ele>
        <time>2018-09-09T07:56:57.000Z</time>
      </trkpt>
      <trkpt lat="46.54351" lon="0.31515">
        <ele>190.73</ele>
        <time>2018-09-09T07:56:59.000Z</time>
      </trkpt>
      <trkpt lat="46.54353" lon="0.31531">
        <ele>190.83</ele>
        <time>2018-09-09T07:57:01.000Z</time>
      </trkpt>
      <trkpt lat="46.54356" lon="0.31547">
        <ele>190.66</ele>
        <time>2018-09-09T07:57:03.000Z</time>
      </trkpt>
      <trkpt lat="46.5436" lon="0.31565">
        <ele>190.52</ele>
        <time>2018-09-09T07:57:05.000Z</time>
      </trkpt>
      <trkpt lat="46.54363" lon="0.31583">
        <ele>190.53</ele>
        <time>2018-09-09T07:57:07.000Z</time>
      </trkpt>
      <trkpt lat="46.54366" lon="0.31603">
        <ele>190.59</ele>
        <time>2018-09-09T07:57:09.000Z</time>
      </trkpt>
      <trkpt lat="46.54371" lon="0.31622">
        <ele>190.94</ele>
        <time>2018-09-09T07:57:11.000Z</time>
      </trkpt>
      <trkpt lat="46.54374" lon="0.3164">
        <ele>191.39</ele>
        <time>2018-09-09T07:57:13.000Z</time>
      </trkpt>
      <trkpt lat="46.54377" lon="0.31658">
        <ele>191.55</ele>
        <time>2018-09-09T07:57:15.000Z</time>
      </trkpt>
      <trkpt lat="46.54382" lon="0.31675">
        <ele>191.43</ele>
        <time>2018-09-09T07:57:17.000Z</time>
      </trkpt>
      <trkpt lat="46.54385" lon="0.31693">
        <ele>191.34</ele>
        <time>2018-09-09T07:57:19.000Z</time>
      </trkpt>
      <trkpt lat="46.54389" lon="0.31711">
        <ele>191.22</ele>
        <time>2018-09-09T07:57:21.000Z</time>
      </trkpt>
      <trkpt lat="46.54393" lon="0.31731">
        <ele>191.02</ele>
        <time>2018-09-09T07:57:23.000Z</time>
      </trkpt>
      <trkpt lat="46.54396" lon="0.3175">
        <ele>190.75</ele>
        <time>2018-09-09T07:57:25.000Z</time>
      </trkpt>
      <trkpt lat="46.54398" lon="0.31768">
        <ele>190.5</ele>
        <time>2018-09-09T07:57:27.000Z</time>
      </trkpt>
      <trkpt lat="46.54399" lon="0.31784">
        <ele>190.31</ele>
        <time>2018-09-09T07:57:29.000Z</time>
      </trkpt>
      <trkpt lat="46.54403" lon="0.31798">
        <ele>190.18</ele>
        <time>2018-09-09T07:57:31.000Z</time>
      </trkpt>
      <trkpt lat="46.54404" lon="0.31812">
        <ele>190.12</ele>
        <time>2018-09-09T07:57:33.000Z</time>
      </trkpt>
      <trkpt lat="46.54411" lon="0.31825">
        <ele>190.05</ele>
        <time>2018-09-09T07:57:36.000Z</time>
      </trkpt>
      <trkpt lat="46.54423" lon="0.31825">
        <ele>190.26</ele>
        <time>2018-09-09T07:57:39.000Z</time>
      </trkpt>
      <trkpt lat="46.54427" lon="0.31838">
        <ele>191.78</ele>
        <time>2018-09-09T07:57:44.000Z</time>
      </trkpt>
      <trkpt lat="46.54429" lon="0.31852">
        <ele>192.54</ele>
        <time>2018-09-09T07:57:46.000Z</time>
      </trkpt>
      <trkpt lat="46.54432" lon="0.31871">
        <ele>193.68</ele>
        <time>2018-09-09T07:57:48.000Z</time>
      </trkpt>
      <trkpt lat="46.54433" lon="0.31888">
        <ele>195.28</ele>
        <time>2018-09-09T07:57:50.000Z</time>
      </trkpt>
      <trkpt lat="46.54436" lon="0.31908">
        <ele>196.42</ele>
        <time>2018-09-09T07:57:52.000Z</time>
      </trkpt>
      <trkpt lat="46.54441" lon="0.31926">
        <ele>197.93</ele>
        <time>2018-09-09T07:57:54.000Z</time>
      </trkpt>
      <trkpt lat="46.54445" lon="0.3194">
        <ele>199.29</ele>
        <time>2018-09-09T07:57:56.000Z</time>
      </trkpt>
      <trkpt lat="46.54448" lon="0.31956">
        <ele>199.74</ele>
        <time>2018-09-09T07:58:00.000Z</time>
      </trkpt>
      <trkpt lat="46.54455" lon="0.31968">
        <ele>200.25</ele>
        <time>2018-09-09T07:58:04.000Z</time>
      </trkpt>
      <trkpt lat="46.54456" lon="0.31986">
        <ele>200.56</ele>
        <time>2018-09-09T07:58:07.000Z</time>
      </trkpt>
      <trkpt lat="46.54461" lon="0.32003">
        <ele>200.71</ele>
        <time>2018-09-09T07:58:10.000Z</time>
      </trkpt>
      <trkpt lat="46.54466" lon="0.32017">
        <ele>200.72</ele>
        <time>2018-09-09T07:58:13.000Z</time>
      </trkpt>
      <trkpt lat="46.54471" lon="0.3203">
        <ele>200.66</ele>
        <time>2018-09-09T07:58:17.000Z</time>
      </trkpt>
      <trkpt lat="46.54477" lon="0.32044">
        <ele>200.51</ele>
        <time>2018-09-09T07:58:26.000Z</time>
      </trkpt>
      <trkpt lat="46.54486" lon="0.32051">
        <ele>200.33</ele>
        <time>2018-09-09T07:58:28.000Z</time>
      </trkpt>
      <trkpt lat="46.54497" lon="0.32042">
        <ele>200.16</ele>
        <time>2018-09-09T07:58:32.000Z</time>
      </trkpt>
      <trkpt lat="46.54503" lon="0.32032">
        <ele>200.02</ele>
        <time>2018-09-09T07:58:34.000Z</time>
      </trkpt>
      <trkpt lat="46.54512" lon="0.32018">
        <ele>197.73</ele>
        <time>2018-09-09T07:58:37.000Z</time>
      </trkpt>
      <trkpt lat="46.54517" lon="0.32007">
        <ele>197.46</ele>
        <time>2018-09-09T07:58:39.000Z</time>
      </trkpt>
      <trkpt lat="46.54527" lon="0.31999">
        <ele>196.96</ele>
        <time>2018-09-09T07:58:42.000Z</time>
      </trkpt>
      <trkpt lat="46.54536" lon="0.32004">
        <ele>193.77</ele>
        <time>2018-09-09T07:58:44.000Z</time>
      </trkpt>
      <trkpt lat="46.54546" lon="0.32009">
        <ele>191.63</ele>
        <time>2018-09-09T07:58:46.000Z</time>
      </trkpt>
      <trkpt lat="46.54557" lon="0.32013">
        <ele>189.66</ele>
        <time>2018-09-09T07:58:48.000Z</time>
      </trkpt>
      <trkpt lat="46.54569" lon="0.32014">
        <ele>188.12</ele>
        <time>2018-09-09T07:58:50.000Z</time>
      </trkpt>
      <trkpt lat="46.54578" lon="0.32013">
        <ele>187.22</ele>
        <time>2018-09-09T07:58:52.000Z</time>
      </trkpt>
      <trkpt lat="46.54589" lon="0.3201">
        <ele>186.49</ele>
        <time>2018-09-09T07:58:54.000Z</time>
      </trkpt>
      <trkpt lat="46.54599" lon="0.32007">
        <ele>185.65</ele>
        <time>2018-09-09T07:58:56.000Z</time>
      </trkpt>
      <trkpt lat="46.54609" lon="0.32005">
        <ele>185.41</ele>
        <time>2018-09-09T07:58:58.000Z</time>
      </trkpt>
      <trkpt lat="46.5462" lon="0.32004">
        <ele>185.65</ele>
        <time>2018-09-09T07:59:00.000Z</time>
      </trkpt>
      <trkpt lat="46.54631" lon="0.32003">
        <ele>186.19</ele>
        <time>2018-09-09T07:59:02.000Z</time>
      </trkpt>
      <trkpt lat="46.54642" lon="0.32002">
        <ele>186.62</ele>
        <time>2018-09-09T07:59:04.000Z</time>
      </trkpt>
      <trkpt lat="46.54654" lon="0.32003">
        <ele>186.84</ele>
        <time>2018-09-09T07:59:06.000Z</time>
      </trkpt>
      <trkpt lat="46.54667" lon="0.32005">
        <ele>186.62</ele>
        <time>2018-09-09T07:59:08.000Z</time>
      </trkpt>
      <trkpt lat="46.54679" lon="0.32007">
        <ele>185.9</ele>
        <time>2018-09-09T07:59:10.000Z</time>
      </trkpt>
      <trkpt lat="46.54692" lon="0.3201">
        <ele>185.06</ele>
        <time>2018-09-09T07:59:12.000Z</time>
      </trkpt>
      <trkpt lat="46.54705" lon="0.3201">
        <ele>184.55</ele>
        <time>2018-09-09T07:59:15.000Z</time>
      </trkpt>
      <trkpt lat="46.54713" lon="0.32007">
        <ele>184.63</ele>
        <time>2018-09-09T07:59:17.000Z</time>
      </trkpt>
      <trkpt lat="46.54722" lon="0.31996">
        <ele>184.67</ele>
        <time>2018-09-09T07:59:20.000Z</time>
      </trkpt>
      <trkpt lat="46.54726" lon="0.31984">
        <ele>185.12</ele>
        <time>2018-09-09T07:59:23.000Z</time>
      </trkpt>
      <trkpt lat="46.54735" lon="0.31981">
        <ele>185.23</ele>
        <time>2018-09-09T07:59:25.000Z</time>
      </trkpt>
      <trkpt lat="46.54747" lon="0.31978">
        <ele>185.03</ele>
        <time>2018-09-09T07:59:28.000Z</time>
      </trkpt>
      <trkpt lat="46.54758" lon="0.31976">
        <ele>185.13</ele>
        <time>2018-09-09T07:59:30.000Z</time>
      </trkpt>
      <trkpt lat="46.54768" lon="0.3197">
        <ele>185.53</ele>
        <time>2018-09-09T07:59:32.000Z</time>
      </trkpt>
      <trkpt lat="46.5478" lon="0.31973">
        <ele>186.84</ele>
        <time>2018-09-09T07:59:35.000Z</time>
      </trkpt>
      <trkpt lat="46.54791" lon="0.31975">
        <ele>187.19</ele>
        <time>2018-09-09T07:59:38.000Z</time>
      </trkpt>
      <trkpt lat="46.54793" lon="0.31991">
        <ele>187.55</ele>
        <time>2018-09-09T07:59:45.000Z</time>
      </trkpt>
      <trkpt lat="46.54792" lon="0.32006">
        <ele>187.67</ele>
        <time>2018-09-09T07:59:48.000Z</time>
      </trkpt>
      <trkpt lat="46.54792" lon="0.32024">
        <ele>187.67</ele>
        <time>2018-09-09T07:59:52.000Z</time>
      </trkpt>
      <trkpt lat="46.54789" lon="0.32038">
        <ele>187.58</ele>
        <time>2018-09-09T07:59:54.000Z</time>
      </trkpt>
      <trkpt lat="46.5479" lon="0.32057">
        <ele>186.1</ele>
        <time>2018-09-09T07:59:57.000Z</time>
      </trkpt>
      <trkpt lat="46.54792" lon="0.32072">
        <ele>185.92</ele>
        <time>2018-09-09T08:00:00.000Z</time>
      </trkpt>
      <trkpt lat="46.54802" lon="0.3208">
        <ele>185.65</ele>
        <time>2018-09-09T08:00:03.000Z</time>
      </trkpt>
      <trkpt lat="46.54815" lon="0.32085">
        <ele>185.46</ele>
        <time>2018-09-09T08:00:06.000Z</time>
      </trkpt>
      <trkpt lat="46.54825" lon="0.32086">
        <ele>185.43</ele>
        <time>2018-09-09T08:00:09.000Z</time>
      </trkpt>
      <trkpt lat="46.54833" lon="0.32095">
        <ele>185.09</ele>
        <time>2018-09-09T08:00:26.000Z</time>
      </trkpt>
      <trkpt lat="46.5484" lon="0.32086">
        <ele>185.18</ele>
        <time>2018-09-09T08:00:51.000Z</time>
      </trkpt>
      <trkpt lat="46.54849" lon="0.32074">
        <ele>186.66</ele>
        <time>2018-09-09T08:01:06.000Z</time>
      </trkpt>
      <trkpt lat="46.54857" lon="0.32067">
        <ele>188.32</ele>
        <time>2018-09-09T08:01:08.000Z</time>
      </trkpt>
      <trkpt lat="46.5487" lon="0.32063">
        <ele>189.59</ele>
        <time>2018-09-09T08:01:11.000Z</time>
      </trkpt>
      <trkpt lat="46.54879" lon="0.32077">
        <ele>191.75</ele>
        <time>2018-09-09T08:01:14.000Z</time>
      </trkpt>
      <trkpt lat="46.54884" lon="0.3209">
        <ele>193.03</ele>
        <time>2018-09-09T08:01:16.000Z</time>
      </trkpt>
      <trkpt lat="46.54889" lon="0.32103">
        <ele>193.05</ele>
        <time>2018-09-09T08:01:18.000Z</time>
      </trkpt>
      <trkpt lat="46.54891" lon="0.3212">
        <ele>191.51</ele>
        <time>2018-09-09T08:01:21.000Z</time>
      </trkpt>
      <trkpt lat="46.54888" lon="0.32134">
        <ele>191.21</ele>
        <time>2018-09-09T08:01:24.000Z</time>
      </trkpt>
      <trkpt lat="46.54881" lon="0.32147">
        <ele>191.24</ele>
        <time>2018-09-09T08:01:27.000Z</time>
      </trkpt>
      <trkpt lat="46.54877" lon="0.32159">
        <ele>191.11</ele>
        <time>2018-09-09T08:01:30.000Z</time>
      </trkpt>
      <trkpt lat="46.54866" lon="0.32166">
        <ele>190.46</ele>
        <time>2018-09-09T08:01:33.000Z</time>
      </trkpt>
      <trkpt lat="46.54857" lon="0.32172">
        <ele>190.13</ele>
        <time>2018-09-09T08:01:36.000Z</time>
      </trkpt>
      <trkpt lat="46.54847" lon="0.32176">
        <ele>190.02</ele>
        <time>2018-09-09T08:01:41.000Z</time>
      </trkpt>
      <trkpt lat="46.54842" lon="0.32187">
        <ele>189.93</ele>
        <time>2018-09-09T08:01:46.000Z</time>
      </trkpt>
      <trkpt lat="46.54854" lon="0.32189">
        <ele>189.62</ele>
        <time>2018-09-09T08:01:51.000Z</time>
      </trkpt>
      <trkpt lat="46.54863" lon="0.32188">
        <ele>189.61</ele>
        <time>2018-09-09T08:01:53.000Z</time>
      </trkpt>
      <trkpt lat="46.54872" lon="0.32182">
        <ele>189.67</ele>
        <time>2018-09-09T08:01:56.000Z</time>
      </trkpt>
      <trkpt lat="46.54881" lon="0.32177">
        <ele>189.76</ele>
        <time>2018-09-09T08:02:00.000Z</time>
      </trkpt>
      <trkpt lat="46.5489" lon="0.32173">
        <ele>190.11</ele>
        <time>2018-09-09T08:02:09.000Z</time>
      </trkpt>
      <trkpt lat="46.54878" lon="0.32173">
        <ele>189.87</ele>
        <time>2018-09-09T08:02:23.000Z</time>
      </trkpt>
      <trkpt lat="46.54868" lon="0.32179">
        <ele>189.82</ele>
        <time>2018-09-09T08:02:26.000Z</time>
      </trkpt>
      <trkpt lat="46.5486" lon="0.32187">
        <ele>189.82</ele>
        <time>2018-09-09T08:02:29.000Z</time>
      </trkpt>
      <trkpt lat="46.5485" lon="0.32195">
        <ele>189.76</ele>
        <time>2018-09-09T08:02:32.000Z</time>
      </trkpt>
      <trkpt lat="46.5484" lon="0.32198">
        <ele>189.59</ele>
        <time>2018-09-09T08:02:35.000Z</time>
      </trkpt>
      <trkpt lat="46.54829" lon="0.32201">
        <ele>189.43</ele>
        <time>2018-09-09T08:02:38.000Z</time>
      </trkpt>
      <trkpt lat="46.54815" lon="0.32209">
        <ele>187.36</ele>
        <time>2018-09-09T08:02:41.000Z</time>
      </trkpt>
      <trkpt lat="46.54807" lon="0.32214">
        <ele>186.1</ele>
        <time>2018-09-09T08:02:43.000Z</time>
      </trkpt>
      <trkpt lat="46.54797" lon="0.32219">
        <ele>185.13</ele>
        <time>2018-09-09T08:02:45.000Z</time>
      </trkpt>
      <trkpt lat="46.54787" lon="0.32223">
        <ele>184.5</ele>
        <time>2018-09-09T08:02:47.000Z</time>
      </trkpt>
      <trkpt lat="46.54778" lon="0.32227">
        <ele>183.98</ele>
        <time>2018-09-09T08:02:49.000Z</time>
      </trkpt>
      <trkpt lat="46.54769" lon="0.32231">
        <ele>183.63</ele>
        <time>2018-09-09T08:02:51.000Z</time>
      </trkpt>
      <trkpt lat="46.54756" lon="0.32238">
        <ele>184.25</ele>
        <time>2018-09-09T08:02:54.000Z</time>
      </trkpt>
      <trkpt lat="46.54748" lon="0.32246">
        <ele>185.04</ele>
        <time>2018-09-09T08:02:56.000Z</time>
      </trkpt>
      <trkpt lat="46.54737" lon="0.32256">
        <ele>185.69</ele>
        <time>2018-09-09T08:02:59.000Z</time>
      </trkpt>
      <trkpt lat="46.54729" lon="0.32263">
        <ele>185.58</ele>
        <time>2018-09-09T08:03:01.000Z</time>
      </trkpt>
      <trkpt lat="46.54719" lon="0.32276">
        <ele>185.25</ele>
        <time>2018-09-09T08:03:04.000Z</time>
      </trkpt>
      <trkpt lat="46.54708" lon="0.32288">
        <ele>185.37</ele>
        <time>2018-09-09T08:03:07.000Z</time>
      </trkpt>
      <trkpt lat="46.54701" lon="0.32296">
        <ele>185.55</ele>
        <time>2018-09-09T08:03:09.000Z</time>
      </trkpt>
      <trkpt lat="46.54693" lon="0.32306">
        <ele>185.43</ele>
        <time>2018-09-09T08:03:11.000Z</time>
      </trkpt>
      <trkpt lat="46.54685" lon="0.32316">
        <ele>185.34</ele>
        <time>2018-09-09T08:03:13.000Z</time>
      </trkpt>
      <trkpt lat="46.54676" lon="0.32326">
        <ele>185.67</ele>
        <time>2018-09-09T08:03:16.000Z</time>
      </trkpt>
      <trkpt lat="46.54664" lon="0.32337">
        <ele>186.12</ele>
        <time>2018-09-09T08:03:19.000Z</time>
      </trkpt>
      <trkpt lat="46.54656" lon="0.32345">
        <ele>186.4</ele>
        <time>2018-09-09T08:03:21.000Z</time>
      </trkpt>
      <trkpt lat="46.54646" lon="0.32354">
        <ele>186.57</ele>
        <time>2018-09-09T08:03:23.000Z</time>
      </trkpt>
      <trkpt lat="46.54635" lon="0.32362">
        <ele>186.39</ele>
        <time>2018-09-09T08:03:25.000Z</time>
      </trkpt>
      <trkpt lat="46.54623" lon="0.32369">
        <ele>185.74</ele>
        <time>2018-09-09T08:03:27.000Z</time>
      </trkpt>
      <trkpt lat="46.54611" lon="0.32375">
        <ele>184.84</ele>
        <time>2018-09-09T08:03:29.000Z</time>
      </trkpt>
      <trkpt lat="46.54602" lon="0.32382">
        <ele>183.81</ele>
        <time>2018-09-09T08:03:31.000Z</time>
      </trkpt>
      <trkpt lat="46.54594" lon="0.32391">
        <ele>182.86</ele>
        <time>2018-09-09T08:03:33.000Z</time>
      </trkpt>
      <trkpt lat="46.54585" lon="0.32402">
        <ele>182.53</ele>
        <time>2018-09-09T08:03:35.000Z</time>
      </trkpt>
      <trkpt lat="46.54578" lon="0.32415">
        <ele>182.22</ele>
        <time>2018-09-09T08:03:37.000Z</time>
      </trkpt>
      <trkpt lat="46.54572" lon="0.32425">
        <ele>181.91</ele>
        <time>2018-09-09T08:03:39.000Z</time>
      </trkpt>
      <trkpt lat="46.54566" lon="0.32437">
        <ele>181.83</ele>
        <time>2018-09-09T08:03:42.000Z</time>
      </trkpt>
      <trkpt lat="46.54557" lon="0.32442">
        <ele>181.74</ele>
        <time>2018-09-09T08:03:45.000Z</time>
      </trkpt>
      <trkpt lat="46.54546" lon="0.3245">
        <ele>182.36</ele>
        <time>2018-09-09T08:03:48.000Z</time>
      </trkpt>
      <trkpt lat="46.54535" lon="0.32457">
        <ele>182.51</ele>
        <time>2018-09-09T08:03:51.000Z</time>
      </trkpt>
      <trkpt lat="46.54525" lon="0.32464">
        <ele>182.64</ele>
        <time>2018-09-09T08:03:56.000Z</time>
      </trkpt>
      <trkpt lat="46.54528" lon="0.32476">
        <ele>182.8</ele>
        <time>2018-09-09T08:04:03.000Z</time>
      </trkpt>
      <trkpt lat="46.54531" lon="0.32491">
        <ele>182.85</ele>
        <time>2018-09-09T08:04:06.000Z</time>
      </trkpt>
      <trkpt lat="46.54526" lon="0.32508">
        <ele>182.98</ele>
        <time>2018-09-09T08:04:10.000Z</time>
      </trkpt>
      <trkpt lat="46.54518" lon="0.32514">
        <ele>183.29</ele>
        <time>2018-09-09T08:04:14.000Z</time>
      </trkpt>
      <trkpt lat="46.54508" lon="0.32516">
        <ele>184.69</ele>
        <time>2018-09-09T08:04:17.000Z</time>
      </trkpt>
      <trkpt lat="46.54499" lon="0.32518">
        <ele>184.92</ele>
        <time>2018-09-09T08:04:19.000Z</time>
      </trkpt>
      <trkpt lat="46.54489" lon="0.32524">
        <ele>185.2</ele>
        <time>2018-09-09T08:04:22.000Z</time>
      </trkpt>
      <trkpt lat="46.54485" lon="0.32538">
        <ele>185.38</ele>
        <time>2018-09-09T08:04:25.000Z</time>
      </trkpt>
      <trkpt lat="46.54485" lon="0.32552">
        <ele>186.01</ele>
        <time>2018-09-09T08:04:27.000Z</time>
      </trkpt>
      <trkpt lat="46.54488" lon="0.32567">
        <ele>185.07</ele>
        <time>2018-09-09T08:04:29.000Z</time>
      </trkpt>
      <trkpt lat="46.54496" lon="0.3258">
        <ele>184.29</ele>
        <time>2018-09-09T08:04:31.000Z</time>
      </trkpt>
      <trkpt lat="46.54504" lon="0.32592">
        <ele>183.92</ele>
        <time>2018-09-09T08:04:34.000Z</time>
      </trkpt>
      <trkpt lat="46.54506" lon="0.32605">
        <ele>183.16</ele>
        <time>2018-09-09T08:04:38.000Z</time>
      </trkpt>
      <trkpt lat="46.54496" lon="0.32601">
        <ele>182.62</ele>
        <time>2018-09-09T08:04:43.000Z</time>
      </trkpt>
      <trkpt lat="46.54487" lon="0.32601">
        <ele>182.42</ele>
        <time>2018-09-09T08:04:46.000Z</time>
      </trkpt>
      <trkpt lat="46.54476" lon="0.32602">
        <ele>182.26</ele>
        <time>2018-09-09T08:04:49.000Z</time>
      </trkpt>
      <trkpt lat="46.54467" lon="0.32596">
        <ele>181.99</ele>
        <time>2018-09-09T08:04:54.000Z</time>
      </trkpt>
      <trkpt lat="46.54457" lon="0.3259">
        <ele>181.97</ele>
        <time>2018-09-09T08:05:01.000Z</time>
      </trkpt>
      <trkpt lat="46.54452" lon="0.32574">
        <ele>182.03</ele>
        <time>2018-09-09T08:05:04.000Z</time>
      </trkpt>
      <trkpt lat="46.54445" lon="0.32564">
        <ele>182.15</ele>
        <time>2018-09-09T08:05:07.000Z</time>
      </trkpt>
      <trkpt lat="46.54437" lon="0.32549">
        <ele>182.36</ele>
        <time>2018-09-09T08:05:11.000Z</time>
      </trkpt>
      <trkpt lat="46.5443" lon="0.32536">
        <ele>182.41</ele>
        <time>2018-09-09T08:05:14.000Z</time>
      </trkpt>
      <trkpt lat="46.54427" lon="0.32524">
        <ele>182.36</ele>
        <time>2018-09-09T08:05:17.000Z</time>
      </trkpt>
      <trkpt lat="46.54419" lon="0.32513">
        <ele>182.04</ele>
        <time>2018-09-09T08:05:21.000Z</time>
      </trkpt>
      <trkpt lat="46.5441" lon="0.32508">
        <ele>181.83</ele>
        <time>2018-09-09T08:05:25.000Z</time>
      </trkpt>
      <trkpt lat="46.54404" lon="0.32497">
        <ele>181.83</ele>
        <time>2018-09-09T08:05:30.000Z</time>
      </trkpt>
      <trkpt lat="46.54396" lon="0.3249">
        <ele>182.19</ele>
        <time>2018-09-09T08:05:34.000Z</time>
      </trkpt>
      <trkpt lat="46.54387" lon="0.32485">
        <ele>182.6</ele>
        <time>2018-09-09T08:05:37.000Z</time>
      </trkpt>
      <trkpt lat="46.54376" lon="0.32484">
        <ele>183.29</ele>
        <time>2018-09-09T08:05:41.000Z</time>
      </trkpt>
      <trkpt lat="46.54366" lon="0.32486">
        <ele>183.92</ele>
        <time>2018-09-09T08:05:44.000Z</time>
      </trkpt>
      <trkpt lat="46.54357" lon="0.32488">
        <ele>187.12</ele>
        <time>2018-09-09T08:05:47.000Z</time>
      </trkpt>
      <trkpt lat="46.54345" lon="0.3249">
        <ele>187.75</ele>
        <time>2018-09-09T08:05:50.000Z</time>
      </trkpt>
      <trkpt lat="46.54334" lon="0.32493">
        <ele>188.41</ele>
        <time>2018-09-09T08:05:53.000Z</time>
      </trkpt>
      <trkpt lat="46.54323" lon="0.32493">
        <ele>191.1</ele>
        <time>2018-09-09T08:05:55.000Z</time>
      </trkpt>
      <trkpt lat="46.54313" lon="0.32493">
        <ele>193.5</ele>
        <time>2018-09-09T08:05:57.000Z</time>
      </trkpt>
      <trkpt lat="46.54302" lon="0.32493">
        <ele>195.95</ele>
        <time>2018-09-09T08:05:59.000Z</time>
      </trkpt>
      <trkpt lat="46.54293" lon="0.32494">
        <ele>196.57</ele>
        <time>2018-09-09T08:06:01.000Z</time>
      </trkpt>
      <trkpt lat="46.54283" lon="0.32495">
        <ele>197.7</ele>
        <time>2018-09-09T08:06:03.000Z</time>
      </trkpt>
      <trkpt lat="46.54269" lon="0.32496">
        <ele>198.42</ele>
        <time>2018-09-09T08:06:05.000Z</time>
      </trkpt>
      <trkpt lat="46.54259" lon="0.32496">
        <ele>198.41</ele>
        <time>2018-09-09T08:06:07.000Z</time>
      </trkpt>
      <trkpt lat="46.54245" lon="0.32496">
        <ele>196.94</ele>
        <time>2018-09-09T08:06:09.000Z</time>
      </trkpt>
      <trkpt lat="46.54228" lon="0.32497">
        <ele>195.34</ele>
        <time>2018-09-09T08:06:11.000Z</time>
      </trkpt>
      <trkpt lat="46.54218" lon="0.325">
        <ele>194.09</ele>
        <time>2018-09-09T08:06:13.000Z</time>
      </trkpt>
      <trkpt lat="46.54208" lon="0.32505">
        <ele>193.74</ele>
        <time>2018-09-09T08:06:16.000Z</time>
      </trkpt>
      <trkpt lat="46.54195" lon="0.32509">
        <ele>192.47</ele>
        <time>2018-09-09T08:06:19.000Z</time>
      </trkpt>
      <trkpt lat="46.54184" lon="0.32513">
        <ele>192.16</ele>
        <time>2018-09-09T08:06:22.000Z</time>
      </trkpt>
      <trkpt lat="46.54174" lon="0.32521">
        <ele>191.76</ele>
        <time>2018-09-09T08:06:26.000Z</time>
      </trkpt>
      <trkpt lat="46.54164" lon="0.32532">
        <ele>191.36</ele>
        <time>2018-09-09T08:06:29.000Z</time>
      </trkpt>
      <trkpt lat="46.54158" lon="0.32543">
        <ele>190.87</ele>
        <time>2018-09-09T08:06:32.000Z</time>
      </trkpt>
      <trkpt lat="46.54152" lon="0.32554">
        <ele>190.21</ele>
        <time>2018-09-09T08:06:36.000Z</time>
      </trkpt>
      <trkpt lat="46.54146" lon="0.32565">
        <ele>189.58</ele>
        <time>2018-09-09T08:06:40.000Z</time>
      </trkpt>
      <trkpt lat="46.54135" lon="0.32568">
        <ele>188.85</ele>
        <time>2018-09-09T08:06:44.000Z</time>
      </trkpt>
      <trkpt lat="46.54126" lon="0.32576">
        <ele>188.11</ele>
        <time>2018-09-09T08:06:48.000Z</time>
      </trkpt>
      <trkpt lat="46.54116" lon="0.3258">
        <ele>187.41</ele>
        <time>2018-09-09T08:06:53.000Z</time>
      </trkpt>
      <trkpt lat="46.5411" lon="0.32571">
        <ele>186.52</ele>
        <time>2018-09-09T08:07:00.000Z</time>
      </trkpt>
      <trkpt lat="46.541" lon="0.3256">
        <ele>185.99</ele>
        <time>2018-09-09T08:07:03.000Z</time>
      </trkpt>
      <trkpt lat="46.54091" lon="0.32554">
        <ele>185.39</ele>
        <time>2018-09-09T08:07:06.000Z</time>
      </trkpt>
      <trkpt lat="46.54079" lon="0.32551">
        <ele>184.8</ele>
        <time>2018-09-09T08:07:09.000Z</time>
      </trkpt>
      <trkpt lat="46.5407" lon="0.32549">
        <ele>184.24</ele>
        <time>2018-09-09T08:07:12.000Z</time>
      </trkpt>
      <trkpt lat="46.5406" lon="0.32547">
        <ele>183.73</ele>
        <time>2018-09-09T08:07:15.000Z</time>
      </trkpt>
      <trkpt lat="46.54049" lon="0.32548">
        <ele>183.1</ele>
        <time>2018-09-09T08:07:19.000Z</time>
      </trkpt>
      <trkpt lat="46.54046" lon="0.32564">
        <ele>180.75</ele>
        <time>2018-09-09T08:07:22.000Z</time>
      </trkpt>
      <trkpt lat="46.54045" lon="0.3258">
        <ele>178.83</ele>
        <time>2018-09-09T08:07:24.000Z</time>
      </trkpt>
      <trkpt lat="46.54043" lon="0.32595">
        <ele>178.18</ele>
        <time>2018-09-09T08:07:27.000Z</time>
      </trkpt>
      <trkpt lat="46.54044" lon="0.32611">
        <ele>177.42</ele>
        <time>2018-09-09T08:07:30.000Z</time>
      </trkpt>
      <trkpt lat="46.54042" lon="0.32624">
        <ele>176.83</ele>
        <time>2018-09-09T08:07:32.000Z</time>
      </trkpt>
      <trkpt lat="46.5404" lon="0.32637">
        <ele>175.65</ele>
        <time>2018-09-09T08:07:35.000Z</time>
      </trkpt>
      <trkpt lat="46.54052" lon="0.32633">
        <ele>165.94</ele>
        <time>2018-09-09T08:08:12.000Z</time>
      </trkpt>
      <trkpt lat="46.5406" lon="0.32626">
        <ele>164.67</ele>
        <time>2018-09-09T08:08:15.000Z</time>
      </trkpt>
      <trkpt lat="46.54067" lon="0.32617">
        <ele>163.27</ele>
        <time>2018-09-09T08:08:20.000Z</time>
      </trkpt>
      <trkpt lat="46.54073" lon="0.32607">
        <ele>161.95</ele>
        <time>2018-09-09T08:08:23.000Z</time>
      </trkpt>
      <trkpt lat="46.54083" lon="0.32603">
        <ele>159.01</ele>
        <time>2018-09-09T08:08:31.000Z</time>
      </trkpt>
      <trkpt lat="46.54092" lon="0.32603">
        <ele>154.89</ele>
        <time>2018-09-09T08:08:46.000Z</time>
      </trkpt>
      <trkpt lat="46.54104" lon="0.32605">
        <ele>154.54</ele>
        <time>2018-09-09T08:08:58.000Z</time>
      </trkpt>
      <trkpt lat="46.54112" lon="0.326">
        <ele>155.78</ele>
        <time>2018-09-09T08:09:14.000Z</time>
      </trkpt>
      <trkpt lat="46.54123" lon="0.32602">
        <ele>157.88</ele>
        <time>2018-09-09T08:09:27.000Z</time>
      </trkpt>
      <trkpt lat="46.54133" lon="0.326">
        <ele>159.11</ele>
        <time>2018-09-09T08:09:31.000Z</time>
      </trkpt>
      <trkpt lat="46.54142" lon="0.32603">
        <ele>161.07</ele>
        <time>2018-09-09T08:09:37.000Z</time>
      </trkpt>
      <trkpt lat="46.54152" lon="0.32604">
        <ele>162.98</ele>
        <time>2018-09-09T08:09:42.000Z</time>
      </trkpt>
      <trkpt lat="46.54163" lon="0.32603">
        <ele>165</ele>
        <time>2018-09-09T08:09:47.000Z</time>
      </trkpt>
      <trkpt lat="46.54174" lon="0.32598">
        <ele>167.19</ele>
        <time>2018-09-09T08:09:53.000Z</time>
      </trkpt>
      <trkpt lat="46.54184" lon="0.32596">
        <ele>168.54</ele>
        <time>2018-09-09T08:09:58.000Z</time>
      </trkpt>
      <trkpt lat="46.54193" lon="0.32594">
        <ele>169.94</ele>
        <time>2018-09-09T08:10:03.000Z</time>
      </trkpt>
      <trkpt lat="46.54203" lon="0.32593">
        <ele>171.21</ele>
        <time>2018-09-09T08:10:08.000Z</time>
      </trkpt>
      <trkpt lat="46.54211" lon="0.32583">
        <ele>172.55</ele>
        <time>2018-09-09T08:10:14.000Z</time>
      </trkpt>
      <trkpt lat="46.54221" lon="0.32577">
        <ele>173.39</ele>
        <time>2018-09-09T08:10:19.000Z</time>
      </trkpt>
      <trkpt lat="46.54225" lon="0.32592">
        <ele>174.57</ele>
        <time>2018-09-09T08:10:30.000Z</time>
      </trkpt>
      <trkpt lat="46.54233" lon="0.32602">
        <ele>174.96</ele>
        <time>2018-09-09T08:10:34.000Z</time>
      </trkpt>
      <trkpt lat="46.5424" lon="0.32611">
        <ele>175.26</ele>
        <time>2018-09-09T08:10:38.000Z</time>
      </trkpt>
      <trkpt lat="46.54252" lon="0.32622">
        <ele>175.64</ele>
        <time>2018-09-09T08:10:42.000Z</time>
      </trkpt>
      <trkpt lat="46.54261" lon="0.32623">
        <ele>175.86</ele>
        <time>2018-09-09T08:10:46.000Z</time>
      </trkpt>
      <trkpt lat="46.5427" lon="0.32627">
        <ele>176.26</ele>
        <time>2018-09-09T08:10:52.000Z</time>
      </trkpt>
      <trkpt lat="46.54277" lon="0.32634">
        <ele>176.4</ele>
        <time>2018-09-09T08:10:55.000Z</time>
      </trkpt>
      <trkpt lat="46.54286" lon="0.3264">
        <ele>176.43</ele>
        <time>2018-09-09T08:10:59.000Z</time>
      </trkpt>
      <trkpt lat="46.54295" lon="0.3264">
        <ele>175.85</ele>
        <time>2018-09-09T08:11:12.000Z</time>
      </trkpt>
      <trkpt lat="46.54304" lon="0.32635">
        <ele>175.3</ele>
        <time>2018-09-09T08:11:25.000Z</time>
      </trkpt>
      <trkpt lat="46.54311" lon="0.32624">
        <ele>175.65</ele>
        <time>2018-09-09T08:11:36.000Z</time>
      </trkpt>
      <trkpt lat="46.5432" lon="0.32627">
        <ele>176.1</ele>
        <time>2018-09-09T08:11:47.000Z</time>
      </trkpt>
      <trkpt lat="46.54329" lon="0.32631">
        <ele>176.25</ele>
        <time>2018-09-09T08:11:51.000Z</time>
      </trkpt>
      <trkpt lat="46.54336" lon="0.32643">
        <ele>176.75</ele>
        <time>2018-09-09T08:11:59.000Z</time>
      </trkpt>
      <trkpt lat="46.54345" lon="0.32649">
        <ele>177.03</ele>
        <time>2018-09-09T08:12:04.000Z</time>
      </trkpt>
      <trkpt lat="46.54354" lon="0.32661">
        <ele>177.34</ele>
        <time>2018-09-09T08:12:09.000Z</time>
      </trkpt>
      <trkpt lat="46.54363" lon="0.3267">
        <ele>177.49</ele>
        <time>2018-09-09T08:12:15.000Z</time>
      </trkpt>
      <trkpt lat="46.54371" lon="0.32679">
        <ele>177.65</ele>
        <time>2018-09-09T08:12:18.000Z</time>
      </trkpt>
      <trkpt lat="46.54372" lon="0.32692">
        <ele>177.88</ele>
        <time>2018-09-09T08:12:26.000Z</time>
      </trkpt>
      <trkpt lat="46.54362" lon="0.32694">
        <ele>177.53</ele>
        <time>2018-09-09T08:12:30.000Z</time>
      </trkpt>
      <trkpt lat="46.54351" lon="0.32694">
        <ele>177.02</ele>
        <time>2018-09-09T08:12:33.000Z</time>
      </trkpt>
      <trkpt lat="46.54342" lon="0.32696">
        <ele>176.29</ele>
        <time>2018-09-09T08:12:36.000Z</time>
      </trkpt>
      <trkpt lat="46.5433" lon="0.327">
        <ele>174.97</ele>
        <time>2018-09-09T08:12:40.000Z</time>
      </trkpt>
      <trkpt lat="46.54321" lon="0.32705">
        <ele>173.65</ele>
        <time>2018-09-09T08:12:43.000Z</time>
      </trkpt>
      <trkpt lat="46.5431" lon="0.3271">
        <ele>171.81</ele>
        <time>2018-09-09T08:12:47.000Z</time>
      </trkpt>
      <trkpt lat="46.54301" lon="0.32715">
        <ele>170.39</ele>
        <time>2018-09-09T08:12:50.000Z</time>
      </trkpt>
      <trkpt lat="46.54291" lon="0.32717">
        <ele>165.18</ele>
        <time>2018-09-09T08:12:53.000Z</time>
      </trkpt>
      <trkpt lat="46.54279" lon="0.32715">
        <ele>156.46</ele>
        <time>2018-09-09T08:12:56.000Z</time>
      </trkpt>
      <trkpt lat="46.54268" lon="0.32714">
        <ele>152.44</ele>
        <time>2018-09-09T08:12:58.000Z</time>
      </trkpt>
      <trkpt lat="46.54258" lon="0.32716">
        <ele>150</ele>
        <time>2018-09-09T08:13:00.000Z</time>
      </trkpt>
      <trkpt lat="46.54245" lon="0.32711">
        <ele>147.68</ele>
        <time>2018-09-09T08:13:02.000Z</time>
      </trkpt>
      <trkpt lat="46.54236" lon="0.32706">
        <ele>146.23</ele>
        <time>2018-09-09T08:13:04.000Z</time>
      </trkpt>
      <trkpt lat="46.54227" lon="0.32703">
        <ele>145.37</ele>
        <time>2018-09-09T08:13:06.000Z</time>
      </trkpt>
      <trkpt lat="46.54216" lon="0.32699">
        <ele>145.26</ele>
        <time>2018-09-09T08:13:09.000Z</time>
      </trkpt>
      <trkpt lat="46.54207" lon="0.32703">
        <ele>145.17</ele>
        <time>2018-09-09T08:13:12.000Z</time>
      </trkpt>
      <trkpt lat="46.54202" lon="0.32716">
        <ele>145.11</ele>
        <time>2018-09-09T08:13:15.000Z</time>
      </trkpt>
      <trkpt lat="46.54203" lon="0.32735">
        <ele>145.19</ele>
        <time>2018-09-09T08:13:18.000Z</time>
      </trkpt>
      <trkpt lat="46.542" lon="0.32748">
        <ele>145.73</ele>
        <time>2018-09-09T08:13:21.000Z</time>
      </trkpt>
      <trkpt lat="46.54189" lon="0.3276">
        <ele>146.67</ele>
        <time>2018-09-09T08:13:24.000Z</time>
      </trkpt>
      <trkpt lat="46.5418" lon="0.32768">
        <ele>146.89</ele>
        <time>2018-09-09T08:13:26.000Z</time>
      </trkpt>
      <trkpt lat="46.54167" lon="0.32774">
        <ele>146.92</ele>
        <time>2018-09-09T08:13:29.000Z</time>
      </trkpt>
      <trkpt lat="46.54158" lon="0.32779">
        <ele>146.84</ele>
        <time>2018-09-09T08:13:31.000Z</time>
      </trkpt>
      <trkpt lat="46.54145" lon="0.32786">
        <ele>146.75</ele>
        <time>2018-09-09T08:13:34.000Z</time>
      </trkpt>
      <trkpt lat="46.54135" lon="0.3279">
        <ele>146.33</ele>
        <time>2018-09-09T08:13:36.000Z</time>
      </trkpt>
      <trkpt lat="46.54122" lon="0.32799">
        <ele>146.57</ele>
        <time>2018-09-09T08:13:38.000Z</time>
      </trkpt>
      <trkpt lat="46.5411" lon="0.32809">
        <ele>148.15</ele>
        <time>2018-09-09T08:13:40.000Z</time>
      </trkpt>
      <trkpt lat="46.54101" lon="0.32816">
        <ele>148.3</ele>
        <time>2018-09-09T08:13:42.000Z</time>
      </trkpt>
      <trkpt lat="46.54093" lon="0.32827">
        <ele>148.63</ele>
        <time>2018-09-09T08:13:45.000Z</time>
      </trkpt>
      <trkpt lat="46.54089" lon="0.32839">
        <ele>149.21</ele>
        <time>2018-09-09T08:13:49.000Z</time>
      </trkpt>
      <trkpt lat="46.54078" lon="0.32851">
        <ele>150.95</ele>
        <time>2018-09-09T08:13:52.000Z</time>
      </trkpt>
      <trkpt lat="46.54067" lon="0.32852">
        <ele>151.89</ele>
        <time>2018-09-09T08:13:54.000Z</time>
      </trkpt>
      <trkpt lat="46.54054" lon="0.32859">
        <ele>151.86</ele>
        <time>2018-09-09T08:13:56.000Z</time>
      </trkpt>
      <trkpt lat="46.54043" lon="0.32865">
        <ele>150.57</ele>
        <time>2018-09-09T08:13:58.000Z</time>
      </trkpt>
      <trkpt lat="46.5403" lon="0.3287">
        <ele>148.4</ele>
        <time>2018-09-09T08:14:00.000Z</time>
      </trkpt>
      <trkpt lat="46.54019" lon="0.32875">
        <ele>148.06</ele>
        <time>2018-09-09T08:14:03.000Z</time>
      </trkpt>
      <trkpt lat="46.54011" lon="0.32882">
        <ele>147.85</ele>
        <time>2018-09-09T08:14:05.000Z</time>
      </trkpt>
      <trkpt lat="46.54002" lon="0.3289">
        <ele>147.71</ele>
        <time>2018-09-09T08:14:08.000Z</time>
      </trkpt>
      <trkpt lat="46.53996" lon="0.32901">
        <ele>147.61</ele>
        <time>2018-09-09T08:14:22.000Z</time>
      </trkpt>
      <trkpt lat="46.53988" lon="0.32906">
        <ele>148.94</ele>
        <time>2018-09-09T08:14:37.000Z</time>
      </trkpt>
      <trkpt lat="46.5398" lon="0.32913">
        <ele>149.21</ele>
        <time>2018-09-09T08:14:40.000Z</time>
      </trkpt>
      <trkpt lat="46.5397" lon="0.32918">
        <ele>150.52</ele>
        <time>2018-09-09T08:14:42.000Z</time>
      </trkpt>
      <trkpt lat="46.5396" lon="0.3293">
        <ele>151.67</ele>
        <time>2018-09-09T08:14:45.000Z</time>
      </trkpt>
      <trkpt lat="46.53951" lon="0.32944">
        <ele>152.33</ele>
        <time>2018-09-09T08:14:48.000Z</time>
      </trkpt>
      <trkpt lat="46.53943" lon="0.32954">
        <ele>152.57</ele>
        <time>2018-09-09T08:14:50.000Z</time>
      </trkpt>
      <trkpt lat="46.53936" lon="0.32966">
        <ele>153.16</ele>
        <time>2018-09-09T08:14:52.000Z</time>
      </trkpt>
      <trkpt lat="46.5393" lon="0.32976">
        <ele>153.31</ele>
        <time>2018-09-09T08:14:54.000Z</time>
      </trkpt>
      <trkpt lat="46.53923" lon="0.32986">
        <ele>153.67</ele>
        <time>2018-09-09T08:14:56.000Z</time>
      </trkpt>
      <trkpt lat="46.53918" lon="0.33001">
        <ele>153.46</ele>
        <time>2018-09-09T08:14:58.000Z</time>
      </trkpt>
      <trkpt lat="46.53911" lon="0.33015">
        <ele>152.72</ele>
        <time>2018-09-09T08:15:00.000Z</time>
      </trkpt>
      <trkpt lat="46.53903" lon="0.33029">
        <ele>151.47</ele>
        <time>2018-09-09T08:15:02.000Z</time>
      </trkpt>
      <trkpt lat="46.53895" lon="0.33042">
        <ele>150.12</ele>
        <time>2018-09-09T08:15:04.000Z</time>
      </trkpt>
      <trkpt lat="46.53889" lon="0.33053">
        <ele>149.86</ele>
        <time>2018-09-09T08:15:06.000Z</time>
      </trkpt>
      <trkpt lat="46.53882" lon="0.33066">
        <ele>149.78</ele>
        <time>2018-09-09T08:15:09.000Z</time>
      </trkpt>
      <trkpt lat="46.5388" lon="0.33081">
        <ele>148.56</ele>
        <time>2018-09-09T08:15:11.000Z</time>
      </trkpt>
      <trkpt lat="46.53878" lon="0.33095">
        <ele>148.37</ele>
        <time>2018-09-09T08:15:13.000Z</time>
      </trkpt>
      <trkpt lat="46.53875" lon="0.33112">
        <ele>148.13</ele>
        <time>2018-09-09T08:15:16.000Z</time>
      </trkpt>
      <trkpt lat="46.5388" lon="0.33128">
        <ele>147.65</ele>
        <time>2018-09-09T08:15:19.000Z</time>
      </trkpt>
      <trkpt lat="46.53886" lon="0.33146">
        <ele>147.48</ele>
        <time>2018-09-09T08:15:21.000Z</time>
      </trkpt>
      <trkpt lat="46.53891" lon="0.33163">
        <ele>146.45</ele>
        <time>2018-09-09T08:15:23.000Z</time>
      </trkpt>
      <trkpt lat="46.53893" lon="0.33177">
        <ele>146.5</ele>
        <time>2018-09-09T08:15:26.000Z</time>
      </trkpt>
      <trkpt lat="46.53893" lon="0.3319">
        <ele>146.67</ele>
        <time>2018-09-09T08:15:45.000Z</time>
      </trkpt>
      <trkpt lat="46.53902" lon="0.33187">
        <ele>145.17</ele>
        <time>2018-09-09T08:16:14.000Z</time>
      </trkpt>
      <trkpt lat="46.53911" lon="0.33183">
        <ele>143.03</ele>
        <time>2018-09-09T08:16:32.000Z</time>
      </trkpt>
      <trkpt lat="46.53922" lon="0.33185">
        <ele>138.95</ele>
        <time>2018-09-09T08:17:45.000Z</time>
      </trkpt>
      <trkpt lat="46.53932" lon="0.33186">
        <ele>137.46</ele>
        <time>2018-09-09T08:18:06.000Z</time>
      </trkpt>
      <trkpt lat="46.53934" lon="0.33172">
        <ele>136.1</ele>
        <time>2018-09-09T08:18:35.000Z</time>
      </trkpt>
      <trkpt lat="46.53932" lon="0.33158">
        <ele>136.25</ele>
        <time>2018-09-09T08:18:37.000Z</time>
      </trkpt>
      <trkpt lat="46.53931" lon="0.3314">
        <ele>136.74</ele>
        <time>2018-09-09T08:18:40.000Z</time>
      </trkpt>
      <trkpt lat="46.53931" lon="0.33122">
        <ele>142.63</ele>
        <time>2018-09-09T08:18:43.000Z</time>
      </trkpt>
      <trkpt lat="46.5393" lon="0.33108">
        <ele>146.96</ele>
        <time>2018-09-09T08:18:45.000Z</time>
      </trkpt>
      <trkpt lat="46.5393" lon="0.3309">
        <ele>149.47</ele>
        <time>2018-09-09T08:18:47.000Z</time>
      </trkpt>
      <trkpt lat="46.53932" lon="0.33074">
        <ele>150.37</ele>
        <time>2018-09-09T08:18:49.000Z</time>
      </trkpt>
      <trkpt lat="46.53938" lon="0.33061">
        <ele>150.21</ele>
        <time>2018-09-09T08:18:51.000Z</time>
      </trkpt>
      <trkpt lat="46.53947" lon="0.33054">
        <ele>149.69</ele>
        <time>2018-09-09T08:18:53.000Z</time>
      </trkpt>
      <trkpt lat="46.53958" lon="0.33053">
        <ele>149.37</ele>
        <time>2018-09-09T08:18:56.000Z</time>
      </trkpt>
      <trkpt lat="46.5397" lon="0.33051">
        <ele>146.04</ele>
        <time>2018-09-09T08:18:58.000Z</time>
      </trkpt>
      <trkpt lat="46.53979" lon="0.33048">
        <ele>143.85</ele>
        <time>2018-09-09T08:19:00.000Z</time>
      </trkpt>
      <trkpt lat="46.5399" lon="0.33044">
        <ele>142.41</ele>
        <time>2018-09-09T08:19:02.000Z</time>
      </trkpt>
      <trkpt lat="46.54" lon="0.3304">
        <ele>141.53</ele>
        <time>2018-09-09T08:19:04.000Z</time>
      </trkpt>
      <trkpt lat="46.54012" lon="0.33046">
        <ele>140.35</ele>
        <time>2018-09-09T08:19:07.000Z</time>
      </trkpt>
      <trkpt lat="46.5402" lon="0.33054">
        <ele>140.3</ele>
        <time>2018-09-09T08:19:10.000Z</time>
      </trkpt>
      <trkpt lat="46.54029" lon="0.33062">
        <ele>140.31</ele>
        <time>2018-09-09T08:19:13.000Z</time>
      </trkpt>
      <trkpt lat="46.54035" lon="0.33075">
        <ele>140.38</ele>
        <time>2018-09-09T08:19:17.000Z</time>
      </trkpt>
      <trkpt lat="46.54037" lon="0.33089">
        <ele>140.48</ele>
        <time>2018-09-09T08:19:20.000Z</time>
      </trkpt>
      <trkpt lat="46.54036" lon="0.33102">
        <ele>140.61</ele>
        <time>2018-09-09T08:19:23.000Z</time>
      </trkpt>
      <trkpt lat="46.54031" lon="0.33114">
        <ele>140.74</ele>
        <time>2018-09-09T08:19:26.000Z</time>
      </trkpt>
      <trkpt lat="46.54026" lon="0.33126">
        <ele>141.05</ele>
        <time>2018-09-09T08:19:30.000Z</time>
      </trkpt>
      <trkpt lat="46.54023" lon="0.33138">
        <ele>141.5</ele>
        <time>2018-09-09T08:19:35.000Z</time>
      </trkpt>
      <trkpt lat="46.54022" lon="0.33152">
        <ele>141.69</ele>
        <time>2018-09-09T08:19:38.000Z</time>
      </trkpt>
      <trkpt lat="46.54021" lon="0.33168">
        <ele>141.81</ele>
        <time>2018-09-09T08:19:41.000Z</time>
      </trkpt>
      <trkpt lat="46.54022" lon="0.33182">
        <ele>141.86</ele>
        <time>2018-09-09T08:19:44.000Z</time>
      </trkpt>
      <trkpt lat="46.54021" lon="0.33198">
        <ele>141.94</ele>
        <time>2018-09-09T08:19:48.000Z</time>
      </trkpt>
      <trkpt lat="46.5402" lon="0.33211">
        <ele>141.92</ele>
        <time>2018-09-09T08:19:51.000Z</time>
      </trkpt>
      <trkpt lat="46.54021" lon="0.33226">
        <ele>141.8</ele>
        <time>2018-09-09T08:19:55.000Z</time>
      </trkpt>
      <trkpt lat="46.54023" lon="0.33244">
        <ele>141.76</ele>
        <time>2018-09-09T08:20:00.000Z</time>
      </trkpt>
      <trkpt lat="46.54026" lon="0.33257">
        <ele>141.8</ele>
        <time>2018-09-09T08:20:03.000Z</time>
      </trkpt>
      <trkpt lat="46.5403" lon="0.33272">
        <ele>142.1</ele>
        <time>2018-09-09T08:20:07.000Z</time>
      </trkpt>
      <trkpt lat="46.54032" lon="0.33289">
        <ele>142.35</ele>
        <time>2018-09-09T08:20:10.000Z</time>
      </trkpt>
      <trkpt lat="46.54034" lon="0.33303">
        <ele>142.47</ele>
        <time>2018-09-09T08:20:12.000Z</time>
      </trkpt>
      <trkpt lat="46.54036" lon="0.33322">
        <ele>143.67</ele>
        <time>2018-09-09T08:20:15.000Z</time>
      </trkpt>
      <trkpt lat="46.54037" lon="0.33336">
        <ele>144.03</ele>
        <time>2018-09-09T08:20:17.000Z</time>
      </trkpt>
      <trkpt lat="46.54037" lon="0.3335">
        <ele>144</ele>
        <time>2018-09-09T08:20:19.000Z</time>
      </trkpt>
      <trkpt lat="46.54037" lon="0.33364">
        <ele>144.05</ele>
        <time>2018-09-09T08:20:21.000Z</time>
      </trkpt>
      <trkpt lat="46.54038" lon="0.33378">
        <ele>144.34</ele>
        <time>2018-09-09T08:20:23.000Z</time>
      </trkpt>
      <trkpt lat="46.54039" lon="0.33392">
        <ele>144.6</ele>
        <time>2018-09-09T08:20:25.000Z</time>
      </trkpt>
      <trkpt lat="46.54041" lon="0.33405">
        <ele>144.92</ele>
        <time>2018-09-09T08:20:27.000Z</time>
      </trkpt>
      <trkpt lat="46.54045" lon="0.33418">
        <ele>145.59</ele>
        <time>2018-09-09T08:20:29.000Z</time>
      </trkpt>
      <trkpt lat="46.5405" lon="0.33434">
        <ele>146.28</ele>
        <time>2018-09-09T08:20:32.000Z</time>
      </trkpt>
      <trkpt lat="46.54055" lon="0.33446">
        <ele>146.38</ele>
        <time>2018-09-09T08:20:35.000Z</time>
      </trkpt>
      <trkpt lat="46.54062" lon="0.33459">
        <ele>146.49</ele>
        <time>2018-09-09T08:20:38.000Z</time>
      </trkpt>
      <trkpt lat="46.5407" lon="0.33471">
        <ele>146.63</ele>
        <time>2018-09-09T08:20:41.000Z</time>
      </trkpt>
      <trkpt lat="46.54078" lon="0.33484">
        <ele>146.81</ele>
        <time>2018-09-09T08:20:44.000Z</time>
      </trkpt>
      <trkpt lat="46.54086" lon="0.33496">
        <ele>146.99</ele>
        <time>2018-09-09T08:20:47.000Z</time>
      </trkpt>
      <trkpt lat="46.54092" lon="0.3351">
        <ele>147.23</ele>
        <time>2018-09-09T08:20:50.000Z</time>
      </trkpt>
      <trkpt lat="46.54099" lon="0.33522">
        <ele>147.54</ele>
        <time>2018-09-09T08:20:53.000Z</time>
      </trkpt>
      <trkpt lat="46.54104" lon="0.33533">
        <ele>147.87</ele>
        <time>2018-09-09T08:20:56.000Z</time>
      </trkpt>
      <trkpt lat="46.54109" lon="0.33548">
        <ele>148.39</ele>
        <time>2018-09-09T08:21:00.000Z</time>
      </trkpt>
      <trkpt lat="46.54113" lon="0.33564">
        <ele>148.97</ele>
        <time>2018-09-09T08:21:04.000Z</time>
      </trkpt>
      <trkpt lat="46.54118" lon="0.33577">
        <ele>149.6</ele>
        <time>2018-09-09T08:21:08.000Z</time>
      </trkpt>
      <trkpt lat="46.54121" lon="0.3359">
        <ele>150.23</ele>
        <time>2018-09-09T08:21:12.000Z</time>
      </trkpt>
      <trkpt lat="46.54125" lon="0.33603">
        <ele>150.93</ele>
        <time>2018-09-09T08:21:16.000Z</time>
      </trkpt>
      <trkpt lat="46.54129" lon="0.33618">
        <ele>151.63</ele>
        <time>2018-09-09T08:21:20.000Z</time>
      </trkpt>
      <trkpt lat="46.54134" lon="0.33633">
        <ele>152.31</ele>
        <time>2018-09-09T08:21:24.000Z</time>
      </trkpt>
      <trkpt lat="46.54139" lon="0.33647">
        <ele>153.01</ele>
        <time>2018-09-09T08:21:28.000Z</time>
      </trkpt>
      <trkpt lat="46.54143" lon="0.33662">
        <ele>153.67</ele>
        <time>2018-09-09T08:21:32.000Z</time>
      </trkpt>
      <trkpt lat="46.54148" lon="0.33676">
        <ele>154.39</ele>
        <time>2018-09-09T08:21:36.000Z</time>
      </trkpt>
      <trkpt lat="46.54151" lon="0.3369">
        <ele>155.09</ele>
        <time>2018-09-09T08:21:40.000Z</time>
      </trkpt>
      <trkpt lat="46.54155" lon="0.33704">
        <ele>155.77</ele>
        <time>2018-09-09T08:21:44.000Z</time>
      </trkpt>
      <trkpt lat="46.54158" lon="0.33719">
        <ele>156.47</ele>
        <time>2018-09-09T08:21:48.000Z</time>
      </trkpt>
      <trkpt lat="46.54161" lon="0.33733">
        <ele>157.28</ele>
        <time>2018-09-09T08:21:52.000Z</time>
      </trkpt>
      <trkpt lat="46.54164" lon="0.33748">
        <ele>158.21</ele>
        <time>2018-09-09T08:21:56.000Z</time>
      </trkpt>
      <trkpt lat="46.54167" lon="0.33762">
        <ele>158.89</ele>
        <time>2018-09-09T08:21:59.000Z</time>
      </trkpt>
      <trkpt lat="46.5417" lon="0.33775">
        <ele>159.75</ele>
        <time>2018-09-09T08:22:03.000Z</time>
      </trkpt>
      <trkpt lat="46.54172" lon="0.33791">
        <ele>160.58</ele>
        <time>2018-09-09T08:22:07.000Z</time>
      </trkpt>
      <trkpt lat="46.54174" lon="0.33806">
        <ele>161.43</ele>
        <time>2018-09-09T08:22:11.000Z</time>
      </trkpt>
      <trkpt lat="46.54177" lon="0.3382">
        <ele>162.48</ele>
        <time>2018-09-09T08:22:16.000Z</time>
      </trkpt>
      <trkpt lat="46.54179" lon="0.33836">
        <ele>163.02</ele>
        <time>2018-09-09T08:22:20.000Z</time>
      </trkpt>
      <trkpt lat="46.5418" lon="0.3385">
        <ele>163.71</ele>
        <time>2018-09-09T08:22:25.000Z</time>
      </trkpt>
      <trkpt lat="46.54182" lon="0.33865">
        <ele>164.35</ele>
        <time>2018-09-09T08:22:29.000Z</time>
      </trkpt>
      <trkpt lat="46.54184" lon="0.3388">
        <ele>165.11</ele>
        <time>2018-09-09T08:22:33.000Z</time>
      </trkpt>
      <trkpt lat="46.54187" lon="0.33893">
        <ele>165.6</ele>
        <time>2018-09-09T08:22:36.000Z</time>
      </trkpt>
      <trkpt lat="46.54189" lon="0.33907">
        <ele>166.24</ele>
        <time>2018-09-09T08:22:40.000Z</time>
      </trkpt>
      <trkpt lat="46.54192" lon="0.33921">
        <ele>166.86</ele>
        <time>2018-09-09T08:22:44.000Z</time>
      </trkpt>
      <trkpt lat="46.54195" lon="0.33935">
        <ele>167.54</ele>
        <time>2018-09-09T08:22:48.000Z</time>
      </trkpt>
      <trkpt lat="46.54197" lon="0.33949">
        <ele>168.17</ele>
        <time>2018-09-09T08:22:52.000Z</time>
      </trkpt>
      <trkpt lat="46.54195" lon="0.33962">
        <ele>168.66</ele>
        <time>2018-09-09T08:22:55.000Z</time>
      </trkpt>
      <trkpt lat="46.54189" lon="0.33974">
        <ele>169.06</ele>
        <time>2018-09-09T08:22:58.000Z</time>
      </trkpt>
      <trkpt lat="46.54183" lon="0.33989">
        <ele>170</ele>
        <time>2018-09-09T08:23:01.000Z</time>
      </trkpt>
      <trkpt lat="46.54185" lon="0.34005">
        <ele>170.2</ele>
        <time>2018-09-09T08:23:05.000Z</time>
      </trkpt>
      <trkpt lat="46.54188" lon="0.34018">
        <ele>170.32</ele>
        <time>2018-09-09T08:23:07.000Z</time>
      </trkpt>
      <trkpt lat="46.54189" lon="0.34032">
        <ele>170.64</ele>
        <time>2018-09-09T08:23:11.000Z</time>
      </trkpt>
      <trkpt lat="46.54184" lon="0.34047">
        <ele>170.83</ele>
        <time>2018-09-09T08:23:15.000Z</time>
      </trkpt>
      <trkpt lat="46.5418" lon="0.34061">
        <ele>170.91</ele>
        <time>2018-09-09T08:23:18.000Z</time>
      </trkpt>
      <trkpt lat="46.54176" lon="0.34077">
        <ele>171.41</ele>
        <time>2018-09-09T08:23:23.000Z</time>
      </trkpt>
      <trkpt lat="46.54172" lon="0.34093">
        <ele>172.06</ele>
        <time>2018-09-09T08:23:27.000Z</time>
      </trkpt>
      <trkpt lat="46.54171" lon="0.34107">
        <ele>172.64</ele>
        <time>2018-09-09T08:23:30.000Z</time>
      </trkpt>
      <trkpt lat="46.54166" lon="0.3412">
        <ele>173.36</ele>
        <time>2018-09-09T08:23:33.000Z</time>
      </trkpt>
      <trkpt lat="46.54159" lon="0.34132">
        <ele>174.07</ele>
        <time>2018-09-09T08:23:36.000Z</time>
      </trkpt>
      <trkpt lat="46.54153" lon="0.34142">
        <ele>174.46</ele>
        <time>2018-09-09T08:23:38.000Z</time>
      </trkpt>
      <trkpt lat="46.54149" lon="0.34155">
        <ele>175</ele>
        <time>2018-09-09T08:23:41.000Z</time>
      </trkpt>
      <trkpt lat="46.54144" lon="0.34169">
        <ele>175.5</ele>
        <time>2018-09-09T08:23:44.000Z</time>
      </trkpt>
      <trkpt lat="46.54142" lon="0.34182">
        <ele>175.74</ele>
        <time>2018-09-09T08:23:46.000Z</time>
      </trkpt>
      <trkpt lat="46.5414" lon="0.34196">
        <ele>176.15</ele>
        <time>2018-09-09T08:23:49.000Z</time>
      </trkpt>
      <trkpt lat="46.54136" lon="0.34209">
        <ele>176.49</ele>
        <time>2018-09-09T08:23:52.000Z</time>
      </trkpt>
      <trkpt lat="46.54129" lon="0.34218">
        <ele>176.97</ele>
        <time>2018-09-09T08:23:56.000Z</time>
      </trkpt>
      <trkpt lat="46.54123" lon="0.3423">
        <ele>177.27</ele>
        <time>2018-09-09T08:23:59.000Z</time>
      </trkpt>
      <trkpt lat="46.54119" lon="0.34244">
        <ele>177.49</ele>
        <time>2018-09-09T08:24:02.000Z</time>
      </trkpt>
      <trkpt lat="46.5411" lon="0.34253">
        <ele>177.73</ele>
        <time>2018-09-09T08:24:05.000Z</time>
      </trkpt>
      <trkpt lat="46.54103" lon="0.34265">
        <ele>177.97</ele>
        <time>2018-09-09T08:24:09.000Z</time>
      </trkpt>
      <trkpt lat="46.54097" lon="0.34277">
        <ele>177.89</ele>
        <time>2018-09-09T08:24:12.000Z</time>
      </trkpt>
      <trkpt lat="46.54093" lon="0.34288">
        <ele>177.75</ele>
        <time>2018-09-09T08:24:16.000Z</time>
      </trkpt>
      <trkpt lat="46.54086" lon="0.34301">
        <ele>177.63</ele>
        <time>2018-09-09T08:24:19.000Z</time>
      </trkpt>
      <trkpt lat="46.5408" lon="0.34313">
        <ele>177.43</ele>
        <time>2018-09-09T08:24:22.000Z</time>
      </trkpt>
      <trkpt lat="46.54073" lon="0.34329">
        <ele>176.96</ele>
        <time>2018-09-09T08:24:25.000Z</time>
      </trkpt>
      <trkpt lat="46.54064" lon="0.34343">
        <ele>173.41</ele>
        <time>2018-09-09T08:24:29.000Z</time>
      </trkpt>
      <trkpt lat="46.54058" lon="0.34353">
        <ele>173.25</ele>
        <time>2018-09-09T08:24:31.000Z</time>
      </trkpt>
      <trkpt lat="46.5405" lon="0.34363">
        <ele>172.88</ele>
        <time>2018-09-09T08:24:38.000Z</time>
      </trkpt>
      <trkpt lat="46.54042" lon="0.34373">
        <ele>171.61</ele>
        <time>2018-09-09T08:24:50.000Z</time>
      </trkpt>
      <trkpt lat="46.54036" lon="0.34383">
        <ele>171.42</ele>
        <time>2018-09-09T08:24:53.000Z</time>
      </trkpt>
      <trkpt lat="46.54027" lon="0.34386">
        <ele>171.22</ele>
        <time>2018-09-09T08:24:56.000Z</time>
      </trkpt>
      <trkpt lat="46.54018" lon="0.34386">
        <ele>170.62</ele>
        <time>2018-09-09T08:25:01.000Z</time>
      </trkpt>
      <trkpt lat="46.54022" lon="0.34374">
        <ele>168.28</ele>
        <time>2018-09-09T08:25:05.000Z</time>
      </trkpt>
      <trkpt lat="46.54026" lon="0.34361">
        <ele>167.66</ele>
        <time>2018-09-09T08:25:09.000Z</time>
      </trkpt>
      <trkpt lat="46.54023" lon="0.34346">
        <ele>166.9</ele>
        <time>2018-09-09T08:25:12.000Z</time>
      </trkpt>
      <trkpt lat="46.54016" lon="0.34334">
        <ele>165.78</ele>
        <time>2018-09-09T08:25:16.000Z</time>
      </trkpt>
      <trkpt lat="46.54007" lon="0.34328">
        <ele>165.02</ele>
        <time>2018-09-09T08:25:19.000Z</time>
      </trkpt>
      <trkpt lat="46.53998" lon="0.34318">
        <ele>164.04</ele>
        <time>2018-09-09T08:25:23.000Z</time>
      </trkpt>
      <trkpt lat="46.53985" lon="0.34316">
        <ele>163.11</ele>
        <time>2018-09-09T08:25:26.000Z</time>
      </trkpt>
      <trkpt lat="46.53975" lon="0.34322">
        <ele>161.84</ele>
        <time>2018-09-09T08:25:30.000Z</time>
      </trkpt>
      <trkpt lat="46.53967" lon="0.34332">
        <ele>161.02</ele>
        <time>2018-09-09T08:25:33.000Z</time>
      </trkpt>
      <trkpt lat="46.53956" lon="0.34341">
        <ele>160.19</ele>
        <time>2018-09-09T08:25:37.000Z</time>
      </trkpt>
      <trkpt lat="46.53947" lon="0.34344">
        <ele>159.63</ele>
        <time>2018-09-09T08:25:40.000Z</time>
      </trkpt>
      <trkpt lat="46.53938" lon="0.34351">
        <ele>159.21</ele>
        <time>2018-09-09T08:25:43.000Z</time>
      </trkpt>
      <trkpt lat="46.5393" lon="0.34365">
        <ele>158.87</ele>
        <time>2018-09-09T08:25:46.000Z</time>
      </trkpt>
      <trkpt lat="46.53922" lon="0.3438">
        <ele>158.38</ele>
        <time>2018-09-09T08:25:49.000Z</time>
      </trkpt>
      <trkpt lat="46.53915" lon="0.34391">
        <ele>157.91</ele>
        <time>2018-09-09T08:25:52.000Z</time>
      </trkpt>
      <trkpt lat="46.53912" lon="0.34406">
        <ele>157.36</ele>
        <time>2018-09-09T08:25:55.000Z</time>
      </trkpt>
      <trkpt lat="46.5391" lon="0.34419">
        <ele>156.74</ele>
        <time>2018-09-09T08:25:58.000Z</time>
      </trkpt>
      <trkpt lat="46.53911" lon="0.34434">
        <ele>156</ele>
        <time>2018-09-09T08:26:02.000Z</time>
      </trkpt>
      <trkpt lat="46.53914" lon="0.34447">
        <ele>155.33</ele>
        <time>2018-09-09T08:26:06.000Z</time>
      </trkpt>
      <trkpt lat="46.53916" lon="0.34462">
        <ele>154.64</ele>
        <time>2018-09-09T08:26:11.000Z</time>
      </trkpt>
      <trkpt lat="46.53919" lon="0.34477">
        <ele>154.27</ele>
        <time>2018-09-09T08:26:16.000Z</time>
      </trkpt>
      <trkpt lat="46.53913" lon="0.3449">
        <ele>153.91</ele>
        <time>2018-09-09T08:26:21.000Z</time>
      </trkpt>
      <trkpt lat="46.53901" lon="0.34496">
        <ele>153.68</ele>
        <time>2018-09-09T08:26:25.000Z</time>
      </trkpt>
      <trkpt lat="46.53889" lon="0.34497">
        <ele>153.39</ele>
        <time>2018-09-09T08:26:28.000Z</time>
      </trkpt>
      <trkpt lat="46.53879" lon="0.34497">
        <ele>152.98</ele>
        <time>2018-09-09T08:26:31.000Z</time>
      </trkpt>
      <trkpt lat="46.5387" lon="0.34496">
        <ele>152.54</ele>
        <time>2018-09-09T08:26:34.000Z</time>
      </trkpt>
      <trkpt lat="46.53859" lon="0.34496">
        <ele>152.38</ele>
        <time>2018-09-09T08:26:38.000Z</time>
      </trkpt>
      <trkpt lat="46.53849" lon="0.34495">
        <ele>152.24</ele>
        <time>2018-09-09T08:26:41.000Z</time>
      </trkpt>
      <trkpt lat="46.53836" lon="0.34491">
        <ele>151.2</ele>
        <time>2018-09-09T08:26:44.000Z</time>
      </trkpt>
      <trkpt lat="46.53827" lon="0.34487">
        <ele>150.76</ele>
        <time>2018-09-09T08:26:46.000Z</time>
      </trkpt>
      <trkpt lat="46.53818" lon="0.34484">
        <ele>150.42</ele>
        <time>2018-09-09T08:26:48.000Z</time>
      </trkpt>
      <trkpt lat="46.53808" lon="0.3448">
        <ele>150.06</ele>
        <time>2018-09-09T08:26:50.000Z</time>
      </trkpt>
      <trkpt lat="46.53797" lon="0.34477">
        <ele>150.06</ele>
        <time>2018-09-09T08:26:52.000Z</time>
      </trkpt>
      <trkpt lat="46.53786" lon="0.34473">
        <ele>150.25</ele>
        <time>2018-09-09T08:26:54.000Z</time>
      </trkpt>
      <trkpt lat="46.53775" lon="0.3447">
        <ele>149.91</ele>
        <time>2018-09-09T08:26:56.000Z</time>
      </trkpt>
      <trkpt lat="46.53765" lon="0.34466">
        <ele>149.72</ele>
        <time>2018-09-09T08:26:58.000Z</time>
      </trkpt>
      <trkpt lat="46.53754" lon="0.3446">
        <ele>148.98</ele>
        <time>2018-09-09T08:27:00.000Z</time>
      </trkpt>
      <trkpt lat="46.53744" lon="0.34456">
        <ele>148.24</ele>
        <time>2018-09-09T08:27:02.000Z</time>
      </trkpt>
      <trkpt lat="46.53733" lon="0.34453">
        <ele>148.15</ele>
        <time>2018-09-09T08:27:04.000Z</time>
      </trkpt>
      <trkpt lat="46.53722" lon="0.3445">
        <ele>147.79</ele>
        <time>2018-09-09T08:27:06.000Z</time>
      </trkpt>
      <trkpt lat="46.53711" lon="0.34447">
        <ele>147.03</ele>
        <time>2018-09-09T08:27:08.000Z</time>
      </trkpt>
      <trkpt lat="46.53701" lon="0.34442">
        <ele>146.12</ele>
        <time>2018-09-09T08:27:10.000Z</time>
      </trkpt>
      <trkpt lat="46.53689" lon="0.34435">
        <ele>145.5</ele>
        <time>2018-09-09T08:27:12.000Z</time>
      </trkpt>
      <trkpt lat="46.53676" lon="0.34428">
        <ele>144.55</ele>
        <time>2018-09-09T08:27:14.000Z</time>
      </trkpt>
      <trkpt lat="46.53664" lon="0.34423">
        <ele>143.7</ele>
        <time>2018-09-09T08:27:16.000Z</time>
      </trkpt>
      <trkpt lat="46.53652" lon="0.34418">
        <ele>143.34</ele>
        <time>2018-09-09T08:27:18.000Z</time>
      </trkpt>
      <trkpt lat="46.5364" lon="0.34413">
        <ele>143.21</ele>
        <time>2018-09-09T08:27:20.000Z</time>
      </trkpt>
      <trkpt lat="46.53629" lon="0.3441">
        <ele>143.01</ele>
        <time>2018-09-09T08:27:22.000Z</time>
      </trkpt>
      <trkpt lat="46.53617" lon="0.34407">
        <ele>142.85</ele>
        <time>2018-09-09T08:27:24.000Z</time>
      </trkpt>
      <trkpt lat="46.53603" lon="0.34407">
        <ele>142.85</ele>
        <time>2018-09-09T08:27:26.000Z</time>
      </trkpt>
      <trkpt lat="46.5359" lon="0.34408">
        <ele>142.8</ele>
        <time>2018-09-09T08:27:28.000Z</time>
      </trkpt>
      <trkpt lat="46.53577" lon="0.34405">
        <ele>142.63</ele>
        <time>2018-09-09T08:27:30.000Z</time>
      </trkpt>
      <trkpt lat="46.53566" lon="0.34399">
        <ele>142.48</ele>
        <time>2018-09-09T08:27:32.000Z</time>
      </trkpt>
      <trkpt lat="46.53555" lon="0.34391">
        <ele>142.28</ele>
        <time>2018-09-09T08:27:34.000Z</time>
      </trkpt>
      <trkpt lat="46.53546" lon="0.34383">
        <ele>142.1</ele>
        <time>2018-09-09T08:27:36.000Z</time>
      </trkpt>
      <trkpt lat="46.53537" lon="0.34376">
        <ele>142.12</ele>
        <time>2018-09-09T08:27:38.000Z</time>
      </trkpt>
      <trkpt lat="46.53525" lon="0.34368">
        <ele>142.22</ele>
        <time>2018-09-09T08:27:41.000Z</time>
      </trkpt>
      <trkpt lat="46.53513" lon="0.34364">
        <ele>142.54</ele>
        <time>2018-09-09T08:27:44.000Z</time>
      </trkpt>
      <trkpt lat="46.535" lon="0.34359">
        <ele>143.08</ele>
        <time>2018-09-09T08:27:47.000Z</time>
      </trkpt>
      <trkpt lat="46.53489" lon="0.34354">
        <ele>143.67</ele>
        <time>2018-09-09T08:27:50.000Z</time>
      </trkpt>
      <trkpt lat="46.53479" lon="0.34349">
        <ele>144.34</ele>
        <time>2018-09-09T08:27:52.000Z</time>
      </trkpt>
      <trkpt lat="46.53469" lon="0.34346">
        <ele>145.21</ele>
        <time>2018-09-09T08:27:54.000Z</time>
      </trkpt>
      <trkpt lat="46.5346" lon="0.34342">
        <ele>146.16</ele>
        <time>2018-09-09T08:27:56.000Z</time>
      </trkpt>
      <trkpt lat="46.5345" lon="0.3434">
        <ele>147.03</ele>
        <time>2018-09-09T08:27:58.000Z</time>
      </trkpt>
      <trkpt lat="46.53441" lon="0.34338">
        <ele>147.94</ele>
        <time>2018-09-09T08:28:00.000Z</time>
      </trkpt>
      <trkpt lat="46.53432" lon="0.34337">
        <ele>148.77</ele>
        <time>2018-09-09T08:28:02.000Z</time>
      </trkpt>
      <trkpt lat="46.53422" lon="0.34338">
        <ele>149.38</ele>
        <time>2018-09-09T08:28:04.000Z</time>
      </trkpt>
      <trkpt lat="46.53412" lon="0.34338">
        <ele>149.77</ele>
        <time>2018-09-09T08:28:06.000Z</time>
      </trkpt>
      <trkpt lat="46.53403" lon="0.34336">
        <ele>150.16</ele>
        <time>2018-09-09T08:28:08.000Z</time>
      </trkpt>
      <trkpt lat="46.53392" lon="0.34332">
        <ele>150.05</ele>
        <time>2018-09-09T08:28:10.000Z</time>
      </trkpt>
      <trkpt lat="46.53382" lon="0.34328">
        <ele>150.04</ele>
        <time>2018-09-09T08:28:12.000Z</time>
      </trkpt>
      <trkpt lat="46.53372" lon="0.34322">
        <ele>150.07</ele>
        <time>2018-09-09T08:28:14.000Z</time>
      </trkpt>
      <trkpt lat="46.53362" lon="0.34314">
        <ele>150.03</ele>
        <time>2018-09-09T08:28:16.000Z</time>
      </trkpt>
      <trkpt lat="46.53353" lon="0.34305">
        <ele>149.86</ele>
        <time>2018-09-09T08:28:18.000Z</time>
      </trkpt>
      <trkpt lat="46.53344" lon="0.34294">
        <ele>150.1</ele>
        <time>2018-09-09T08:28:20.000Z</time>
      </trkpt>
      <trkpt lat="46.53334" lon="0.34284">
        <ele>150.45</ele>
        <time>2018-09-09T08:28:22.000Z</time>
      </trkpt>
      <trkpt lat="46.53325" lon="0.34275">
        <ele>151.05</ele>
        <time>2018-09-09T08:28:24.000Z</time>
      </trkpt>
      <trkpt lat="46.53316" lon="0.34269">
        <ele>151.54</ele>
        <time>2018-09-09T08:28:26.000Z</time>
      </trkpt>
      <trkpt lat="46.53307" lon="0.34261">
        <ele>152.18</ele>
        <time>2018-09-09T08:28:28.000Z</time>
      </trkpt>
      <trkpt lat="46.53298" lon="0.34255">
        <ele>152.49</ele>
        <time>2018-09-09T08:28:30.000Z</time>
      </trkpt>
      <trkpt lat="46.53288" lon="0.34248">
        <ele>152.86</ele>
        <time>2018-09-09T08:28:32.000Z</time>
      </trkpt>
      <trkpt lat="46.53278" lon="0.34243">
        <ele>152.86</ele>
        <time>2018-09-09T08:28:34.000Z</time>
      </trkpt>
      <trkpt lat="46.53269" lon="0.34237">
        <ele>152.96</ele>
        <time>2018-09-09T08:28:36.000Z</time>
      </trkpt>
      <trkpt lat="46.5326" lon="0.34231">
        <ele>152.77</ele>
        <time>2018-09-09T08:28:38.000Z</time>
      </trkpt>
      <trkpt lat="46.53251" lon="0.34226">
        <ele>151.94</ele>
        <time>2018-09-09T08:28:40.000Z</time>
      </trkpt>
      <trkpt lat="46.53242" lon="0.34218">
        <ele>150.91</ele>
        <time>2018-09-09T08:28:42.000Z</time>
      </trkpt>
      <trkpt lat="46.53232" lon="0.34209">
        <ele>149.83</ele>
        <time>2018-09-09T08:28:44.000Z</time>
      </trkpt>
      <trkpt lat="46.53223" lon="0.342">
        <ele>148.71</ele>
        <time>2018-09-09T08:28:46.000Z</time>
      </trkpt>
      <trkpt lat="46.53214" lon="0.34191">
        <ele>148.28</ele>
        <time>2018-09-09T08:28:48.000Z</time>
      </trkpt>
      <trkpt lat="46.53205" lon="0.34184">
        <ele>148.14</ele>
        <time>2018-09-09T08:28:50.000Z</time>
      </trkpt>
      <trkpt lat="46.53196" lon="0.34175">
        <ele>148.32</ele>
        <time>2018-09-09T08:28:52.000Z</time>
      </trkpt>
      <trkpt lat="46.53187" lon="0.34165">
        <ele>148.46</ele>
        <time>2018-09-09T08:28:54.000Z</time>
      </trkpt>
      <trkpt lat="46.53179" lon="0.34154">
        <ele>148.55</ele>
        <time>2018-09-09T08:28:56.000Z</time>
      </trkpt>
      <trkpt lat="46.5317" lon="0.34144">
        <ele>148.26</ele>
        <time>2018-09-09T08:28:58.000Z</time>
      </trkpt>
      <trkpt lat="46.53162" lon="0.34133">
        <ele>148.01</ele>
        <time>2018-09-09T08:29:00.000Z</time>
      </trkpt>
      <trkpt lat="46.53155" lon="0.34123">
        <ele>147.99</ele>
        <time>2018-09-09T08:29:02.000Z</time>
      </trkpt>
      <trkpt lat="46.53148" lon="0.34115">
        <ele>148.28</ele>
        <time>2018-09-09T08:29:04.000Z</time>
      </trkpt>
      <trkpt lat="46.53138" lon="0.34108">
        <ele>148.64</ele>
        <time>2018-09-09T08:29:06.000Z</time>
      </trkpt>
      <trkpt lat="46.53128" lon="0.34101">
        <ele>148.74</ele>
        <time>2018-09-09T08:29:08.000Z</time>
      </trkpt>
      <trkpt lat="46.53118" lon="0.34095">
        <ele>148.92</ele>
        <time>2018-09-09T08:29:10.000Z</time>
      </trkpt>
      <trkpt lat="46.53106" lon="0.34089">
        <ele>148.61</ele>
        <time>2018-09-09T08:29:12.000Z</time>
      </trkpt>
      <trkpt lat="46.53094" lon="0.34083">
        <ele>148.58</ele>
        <time>2018-09-09T08:29:14.000Z</time>
      </trkpt>
      <trkpt lat="46.53082" lon="0.34076">
        <ele>148.25</ele>
        <time>2018-09-09T08:29:16.000Z</time>
      </trkpt>
      <trkpt lat="46.53069" lon="0.34069">
        <ele>147.65</ele>
        <time>2018-09-09T08:29:18.000Z</time>
      </trkpt>
      <trkpt lat="46.53056" lon="0.34061">
        <ele>146.91</ele>
        <time>2018-09-09T08:29:20.000Z</time>
      </trkpt>
      <trkpt lat="46.53042" lon="0.34055">
        <ele>146.21</ele>
        <time>2018-09-09T08:29:22.000Z</time>
      </trkpt>
      <trkpt lat="46.53029" lon="0.34053">
        <ele>145.68</ele>
        <time>2018-09-09T08:29:24.000Z</time>
      </trkpt>
      <trkpt lat="46.53015" lon="0.34053">
        <ele>145.28</ele>
        <time>2018-09-09T08:29:26.000Z</time>
      </trkpt>
      <trkpt lat="46.53002" lon="0.34053">
        <ele>145.31</ele>
        <time>2018-09-09T08:29:28.000Z</time>
      </trkpt>
      <trkpt lat="46.5299" lon="0.34054">
        <ele>145.06</ele>
        <time>2018-09-09T08:29:30.000Z</time>
      </trkpt>
      <trkpt lat="46.52977" lon="0.34054">
        <ele>144.85</ele>
        <time>2018-09-09T08:29:32.000Z</time>
      </trkpt>
      <trkpt lat="46.52965" lon="0.34051">
        <ele>144.53</ele>
        <time>2018-09-09T08:29:34.000Z</time>
      </trkpt>
      <trkpt lat="46.52953" lon="0.34045">
        <ele>144.25</ele>
        <time>2018-09-09T08:29:36.000Z</time>
      </trkpt>
      <trkpt lat="46.52946" lon="0.34027">
        <ele>144.08</ele>
        <time>2018-09-09T08:29:38.000Z</time>
      </trkpt>
      <trkpt lat="46.52945" lon="0.34006">
        <ele>143.54</ele>
        <time>2018-09-09T08:29:40.000Z</time>
      </trkpt>
      <trkpt lat="46.52944" lon="0.33985">
        <ele>143.08</ele>
        <time>2018-09-09T08:29:42.000Z</time>
      </trkpt>
      <trkpt lat="46.52943" lon="0.33963">
        <ele>142.58</ele>
        <time>2018-09-09T08:29:44.000Z</time>
      </trkpt>
      <trkpt lat="46.52939" lon="0.33943">
        <ele>142.13</ele>
        <time>2018-09-09T08:29:46.000Z</time>
      </trkpt>
      <trkpt lat="46.52934" lon="0.33925">
        <ele>141.76</ele>
        <time>2018-09-09T08:29:48.000Z</time>
      </trkpt>
      <trkpt lat="46.52926" lon="0.3391">
        <ele>141.65</ele>
        <time>2018-09-09T08:29:50.000Z</time>
      </trkpt>
      <trkpt lat="46.52916" lon="0.33902">
        <ele>141.38</ele>
        <time>2018-09-09T08:29:52.000Z</time>
      </trkpt>
      <trkpt lat="46.52905" lon="0.33901">
        <ele>141.05</ele>
        <time>2018-09-09T08:29:54.000Z</time>
      </trkpt>
      <trkpt lat="46.52893" lon="0.33903">
        <ele>140.86</ele>
        <time>2018-09-09T08:29:56.000Z</time>
      </trkpt>
      <trkpt lat="46.52881" lon="0.33903">
        <ele>140.82</ele>
        <time>2018-09-09T08:29:58.000Z</time>
      </trkpt>
      <trkpt lat="46.52868" lon="0.33902">
        <ele>140.49</ele>
        <time>2018-09-09T08:30:00.000Z</time>
      </trkpt>
      <trkpt lat="46.52855" lon="0.33903">
        <ele>140.17</ele>
        <time>2018-09-09T08:30:02.000Z</time>
      </trkpt>
      <trkpt lat="46.52845" lon="0.33904">
        <ele>140.03</ele>
        <time>2018-09-09T08:30:04.000Z</time>
      </trkpt>
      <trkpt lat="46.52834" lon="0.33906">
        <ele>139.92</ele>
        <time>2018-09-09T08:30:06.000Z</time>
      </trkpt>
      <trkpt lat="46.52824" lon="0.33909">
        <ele>139.85</ele>
        <time>2018-09-09T08:30:08.000Z</time>
      </trkpt>
      <trkpt lat="46.52812" lon="0.33911">
        <ele>139.42</ele>
        <time>2018-09-09T08:30:10.000Z</time>
      </trkpt>
      <trkpt lat="46.528" lon="0.33912">
        <ele>138.72</ele>
        <time>2018-09-09T08:30:12.000Z</time>
      </trkpt>
      <trkpt lat="46.5279" lon="0.33913">
        <ele>138.07</ele>
        <time>2018-09-09T08:30:14.000Z</time>
      </trkpt>
      <trkpt lat="46.52778" lon="0.33923">
        <ele>138.07</ele>
        <time>2018-09-09T08:30:17.000Z</time>
      </trkpt>
      <trkpt lat="46.52775" lon="0.33941">
        <ele>138.25</ele>
        <time>2018-09-09T08:30:19.000Z</time>
      </trkpt>
      <trkpt lat="46.52773" lon="0.33959">
        <ele>138.58</ele>
        <time>2018-09-09T08:30:21.000Z</time>
      </trkpt>
      <trkpt lat="46.52771" lon="0.33975">
        <ele>139.17</ele>
        <time>2018-09-09T08:30:23.000Z</time>
      </trkpt>
      <trkpt lat="46.52769" lon="0.33988">
        <ele>139.56</ele>
        <time>2018-09-09T08:30:25.000Z</time>
      </trkpt>
      <trkpt lat="46.52766" lon="0.34004">
        <ele>139.63</ele>
        <time>2018-09-09T08:30:28.000Z</time>
      </trkpt>
      <trkpt lat="46.52764" lon="0.34018">
        <ele>139.77</ele>
        <time>2018-09-09T08:30:32.000Z</time>
      </trkpt>
      <trkpt lat="46.52755" lon="0.34021">
        <ele>139.91</ele>
        <time>2018-09-09T08:30:37.000Z</time>
      </trkpt>
      <trkpt lat="46.52745" lon="0.3402">
        <ele>139.99</ele>
        <time>2018-09-09T08:30:42.000Z</time>
      </trkpt>
      <trkpt lat="46.52736" lon="0.34024">
        <ele>140.35</ele>
        <time>2018-09-09T08:30:46.000Z</time>
      </trkpt>
      <trkpt lat="46.52725" lon="0.34027">
        <ele>140.8</ele>
        <time>2018-09-09T08:30:49.000Z</time>
      </trkpt>
      <trkpt lat="46.52716" lon="0.3403">
        <ele>141.37</ele>
        <time>2018-09-09T08:30:53.000Z</time>
      </trkpt>
      <trkpt lat="46.52706" lon="0.34036">
        <ele>142.05</ele>
        <time>2018-09-09T08:30:58.000Z</time>
      </trkpt>
      <trkpt lat="46.52696" lon="0.34035">
        <ele>142.55</ele>
        <time>2018-09-09T08:31:01.000Z</time>
      </trkpt>
      <trkpt lat="46.52686" lon="0.34033">
        <ele>143.05</ele>
        <time>2018-09-09T08:31:04.000Z</time>
      </trkpt>
      <trkpt lat="46.52674" lon="0.34032">
        <ele>143.65</ele>
        <time>2018-09-09T08:31:08.000Z</time>
      </trkpt>
      <trkpt lat="46.52664" lon="0.34032">
        <ele>143.95</ele>
        <time>2018-09-09T08:31:11.000Z</time>
      </trkpt>
      <trkpt lat="46.52652" lon="0.3403">
        <ele>144.24</ele>
        <time>2018-09-09T08:31:14.000Z</time>
      </trkpt>
      <trkpt lat="46.52642" lon="0.34028">
        <ele>144.57</ele>
        <time>2018-09-09T08:31:17.000Z</time>
      </trkpt>
      <trkpt lat="46.52631" lon="0.34028">
        <ele>144.78</ele>
        <time>2018-09-09T08:31:19.000Z</time>
      </trkpt>
      <trkpt lat="46.52621" lon="0.34027">
        <ele>145.02</ele>
        <time>2018-09-09T08:31:22.000Z</time>
      </trkpt>
      <trkpt lat="46.52611" lon="0.34027">
        <ele>145.28</ele>
        <time>2018-09-09T08:31:25.000Z</time>
      </trkpt>
      <trkpt lat="46.52599" lon="0.34026">
        <ele>145.53</ele>
        <time>2018-09-09T08:31:28.000Z</time>
      </trkpt>
      <trkpt lat="46.52588" lon="0.34026">
        <ele>145.93</ele>
        <time>2018-09-09T08:31:32.000Z</time>
      </trkpt>
      <trkpt lat="46.5258" lon="0.34028">
        <ele>146.27</ele>
        <time>2018-09-09T08:31:35.000Z</time>
      </trkpt>
      <trkpt lat="46.5257" lon="0.3403">
        <ele>146.98</ele>
        <time>2018-09-09T08:31:39.000Z</time>
      </trkpt>
      <trkpt lat="46.52559" lon="0.34031">
        <ele>147.95</ele>
        <time>2018-09-09T08:31:43.000Z</time>
      </trkpt>
      <trkpt lat="46.5255" lon="0.34037">
        <ele>148.83</ele>
        <time>2018-09-09T08:31:47.000Z</time>
      </trkpt>
      <trkpt lat="46.52539" lon="0.3404">
        <ele>149.66</ele>
        <time>2018-09-09T08:31:52.000Z</time>
      </trkpt>
      <trkpt lat="46.5253" lon="0.34041">
        <ele>150.09</ele>
        <time>2018-09-09T08:31:57.000Z</time>
      </trkpt>
      <trkpt lat="46.52522" lon="0.3405">
        <ele>150.39</ele>
        <time>2018-09-09T08:32:02.000Z</time>
      </trkpt>
      <trkpt lat="46.52513" lon="0.34061">
        <ele>150.68</ele>
        <time>2018-09-09T08:32:06.000Z</time>
      </trkpt>
      <trkpt lat="46.52506" lon="0.34069">
        <ele>151.05</ele>
        <time>2018-09-09T08:32:09.000Z</time>
      </trkpt>
      <trkpt lat="46.52499" lon="0.3408">
        <ele>151.73</ele>
        <time>2018-09-09T08:32:14.000Z</time>
      </trkpt>
      <trkpt lat="46.52492" lon="0.34093">
        <ele>152.78</ele>
        <time>2018-09-09T08:32:20.000Z</time>
      </trkpt>
      <trkpt lat="46.52487" lon="0.34105">
        <ele>154.06</ele>
        <time>2018-09-09T08:32:26.000Z</time>
      </trkpt>
      <trkpt lat="46.52482" lon="0.34117">
        <ele>155.69</ele>
        <time>2018-09-09T08:32:33.000Z</time>
      </trkpt>
      <trkpt lat="46.52475" lon="0.34131">
        <ele>157.65</ele>
        <time>2018-09-09T08:32:40.000Z</time>
      </trkpt>
      <trkpt lat="46.52471" lon="0.34143">
        <ele>158.65</ele>
        <time>2018-09-09T08:32:45.000Z</time>
      </trkpt>
      <trkpt lat="46.52467" lon="0.34157">
        <ele>159.45</ele>
        <time>2018-09-09T08:32:52.000Z</time>
      </trkpt>
      <trkpt lat="46.52459" lon="0.34168">
        <ele>160.01</ele>
        <time>2018-09-09T08:32:59.000Z</time>
      </trkpt>
      <trkpt lat="46.5245" lon="0.3418">
        <ele>160.66</ele>
        <time>2018-09-09T08:33:05.000Z</time>
      </trkpt>
      <trkpt lat="46.52445" lon="0.34195">
        <ele>161.31</ele>
        <time>2018-09-09T08:33:10.000Z</time>
      </trkpt>
      <trkpt lat="46.5244" lon="0.3421">
        <ele>161.76</ele>
        <time>2018-09-09T08:33:14.000Z</time>
      </trkpt>
      <trkpt lat="46.52437" lon="0.34223">
        <ele>162.22</ele>
        <time>2018-09-09T08:33:18.000Z</time>
      </trkpt>
      <trkpt lat="46.52433" lon="0.34236">
        <ele>162.49</ele>
        <time>2018-09-09T08:33:21.000Z</time>
      </trkpt>
      <trkpt lat="46.5243" lon="0.34249">
        <ele>162.69</ele>
        <time>2018-09-09T08:33:24.000Z</time>
      </trkpt>
      <trkpt lat="46.52423" lon="0.3426">
        <ele>163.02</ele>
        <time>2018-09-09T08:33:29.000Z</time>
      </trkpt>
      <trkpt lat="46.52412" lon="0.34264">
        <ele>163.83</ele>
        <time>2018-09-09T08:33:32.000Z</time>
      </trkpt>
      <trkpt lat="46.52403" lon="0.34269">
        <ele>164.18</ele>
        <time>2018-09-09T08:33:34.000Z</time>
      </trkpt>
      <trkpt lat="46.52393" lon="0.34272">
        <ele>164.06</ele>
        <time>2018-09-09T08:33:37.000Z</time>
      </trkpt>
      <trkpt lat="46.52384" lon="0.34275">
        <ele>163.71</ele>
        <time>2018-09-09T08:33:40.000Z</time>
      </trkpt>
      <trkpt lat="46.52374" lon="0.3428">
        <ele>163.87</ele>
        <time>2018-09-09T08:33:42.000Z</time>
      </trkpt>
      <trkpt lat="46.52363" lon="0.34288">
        <ele>163.48</ele>
        <time>2018-09-09T08:33:44.000Z</time>
      </trkpt>
      <trkpt lat="46.52352" lon="0.34295">
        <ele>161.9</ele>
        <time>2018-09-09T08:33:46.000Z</time>
      </trkpt>
      <trkpt lat="46.52341" lon="0.34295">
        <ele>161.02</ele>
        <time>2018-09-09T08:33:48.000Z</time>
      </trkpt>
      <trkpt lat="46.52327" lon="0.34297">
        <ele>160.12</ele>
        <time>2018-09-09T08:33:50.000Z</time>
      </trkpt>
      <trkpt lat="46.52316" lon="0.34296">
        <ele>159.16</ele>
        <time>2018-09-09T08:33:52.000Z</time>
      </trkpt>
      <trkpt lat="46.52307" lon="0.34303">
        <ele>157.65</ele>
        <time>2018-09-09T08:33:55.000Z</time>
      </trkpt>
      <trkpt lat="46.52296" lon="0.34311">
        <ele>155.99</ele>
        <time>2018-09-09T08:33:57.000Z</time>
      </trkpt>
      <trkpt lat="46.52284" lon="0.34323">
        <ele>154.76</ele>
        <time>2018-09-09T08:33:59.000Z</time>
      </trkpt>
      <trkpt lat="46.52269" lon="0.34331">
        <ele>154.37</ele>
        <time>2018-09-09T08:34:01.000Z</time>
      </trkpt>
      <trkpt lat="46.52258" lon="0.34334">
        <ele>154.53</ele>
        <time>2018-09-09T08:34:03.000Z</time>
      </trkpt>
      <trkpt lat="46.52246" lon="0.34334">
        <ele>154.38</ele>
        <time>2018-09-09T08:34:05.000Z</time>
      </trkpt>
      <trkpt lat="46.52234" lon="0.34336">
        <ele>154.24</ele>
        <time>2018-09-09T08:34:07.000Z</time>
      </trkpt>
      <trkpt lat="46.52222" lon="0.34334">
        <ele>154.64</ele>
        <time>2018-09-09T08:34:09.000Z</time>
      </trkpt>
      <trkpt lat="46.52211" lon="0.34329">
        <ele>154.7</ele>
        <time>2018-09-09T08:34:11.000Z</time>
      </trkpt>
      <trkpt lat="46.52201" lon="0.34329">
        <ele>154.62</ele>
        <time>2018-09-09T08:34:13.000Z</time>
      </trkpt>
      <trkpt lat="46.5219" lon="0.34327">
        <ele>154.69</ele>
        <time>2018-09-09T08:34:17.000Z</time>
      </trkpt>
      <trkpt lat="46.52181" lon="0.34323">
        <ele>154.71</ele>
        <time>2018-09-09T08:34:19.000Z</time>
      </trkpt>
      <trkpt lat="46.52169" lon="0.34316">
        <ele>154.84</ele>
        <time>2018-09-09T08:34:21.000Z</time>
      </trkpt>
      <trkpt lat="46.52158" lon="0.34309">
        <ele>155.23</ele>
        <time>2018-09-09T08:34:23.000Z</time>
      </trkpt>
      <trkpt lat="46.52148" lon="0.34302">
        <ele>155.7</ele>
        <time>2018-09-09T08:34:25.000Z</time>
      </trkpt>
      <trkpt lat="46.5214" lon="0.34298">
        <ele>155.89</ele>
        <time>2018-09-09T08:34:28.000Z</time>
      </trkpt>
      <trkpt lat="46.52131" lon="0.34301">
        <ele>156.17</ele>
        <time>2018-09-09T08:34:32.000Z</time>
      </trkpt>
      <trkpt lat="46.52121" lon="0.34299">
        <ele>156.42</ele>
        <time>2018-09-09T08:34:35.000Z</time>
      </trkpt>
      <trkpt lat="46.52107" lon="0.34296">
        <ele>156.87</ele>
        <time>2018-09-09T08:34:38.000Z</time>
      </trkpt>
      <trkpt lat="46.52097" lon="0.34302">
        <ele>157.31</ele>
        <time>2018-09-09T08:34:40.000Z</time>
      </trkpt>
      <trkpt lat="46.52086" lon="0.34308">
        <ele>159.71</ele>
        <time>2018-09-09T08:34:42.000Z</time>
      </trkpt>
      <trkpt lat="46.52073" lon="0.34312">
        <ele>160.36</ele>
        <time>2018-09-09T08:34:44.000Z</time>
      </trkpt>
      <trkpt lat="46.52059" lon="0.34318">
        <ele>159.09</ele>
        <time>2018-09-09T08:34:46.000Z</time>
      </trkpt>
      <trkpt lat="46.52044" lon="0.34322">
        <ele>157.22</ele>
        <time>2018-09-09T08:34:48.000Z</time>
      </trkpt>
      <trkpt lat="46.52028" lon="0.34328">
        <ele>154.57</ele>
        <time>2018-09-09T08:34:50.000Z</time>
      </trkpt>
      <trkpt lat="46.52012" lon="0.34336">
        <ele>152.07</ele>
        <time>2018-09-09T08:34:52.000Z</time>
      </trkpt>
      <trkpt lat="46.52" lon="0.34344">
        <ele>149.85</ele>
        <time>2018-09-09T08:34:54.000Z</time>
      </trkpt>
      <trkpt lat="46.5199" lon="0.3435">
        <ele>148.32</ele>
        <time>2018-09-09T08:34:56.000Z</time>
      </trkpt>
      <trkpt lat="46.51979" lon="0.34355">
        <ele>147.98</ele>
        <time>2018-09-09T08:34:59.000Z</time>
      </trkpt>
      <trkpt lat="46.51969" lon="0.34359">
        <ele>148.14</ele>
        <time>2018-09-09T08:35:04.000Z</time>
      </trkpt>
      <trkpt lat="46.5196" lon="0.34365">
        <ele>148.91</ele>
        <time>2018-09-09T08:35:11.000Z</time>
      </trkpt>
      <trkpt lat="46.51951" lon="0.34373">
        <ele>150.33</ele>
        <time>2018-09-09T08:35:19.000Z</time>
      </trkpt>
      <trkpt lat="46.51941" lon="0.34381">
        <ele>151.96</ele>
        <time>2018-09-09T08:35:25.000Z</time>
      </trkpt>
      <trkpt lat="46.51933" lon="0.34391">
        <ele>152.96</ele>
        <time>2018-09-09T08:35:28.000Z</time>
      </trkpt>
      <trkpt lat="46.51925" lon="0.34399">
        <ele>154.82</ele>
        <time>2018-09-09T08:35:34.000Z</time>
      </trkpt>
      <trkpt lat="46.51915" lon="0.34407">
        <ele>155.81</ele>
        <time>2018-09-09T08:35:38.000Z</time>
      </trkpt>
      <trkpt lat="46.51908" lon="0.34417">
        <ele>156.89</ele>
        <time>2018-09-09T08:35:44.000Z</time>
      </trkpt>
      <trkpt lat="46.51899" lon="0.34423">
        <ele>158.12</ele>
        <time>2018-09-09T08:35:52.000Z</time>
      </trkpt>
      <trkpt lat="46.51891" lon="0.34429">
        <ele>158.94</ele>
        <time>2018-09-09T08:35:57.000Z</time>
      </trkpt>
      <trkpt lat="46.51881" lon="0.34439">
        <ele>161.4</ele>
        <time>2018-09-09T08:36:06.000Z</time>
      </trkpt>
      <trkpt lat="46.51872" lon="0.34444">
        <ele>162.08</ele>
        <time>2018-09-09T08:36:09.000Z</time>
      </trkpt>
      <trkpt lat="46.51864" lon="0.34453">
        <ele>163.26</ele>
        <time>2018-09-09T08:36:15.000Z</time>
      </trkpt>
      <trkpt lat="46.51856" lon="0.3446">
        <ele>164.12</ele>
        <time>2018-09-09T08:36:20.000Z</time>
      </trkpt>
      <trkpt lat="46.51848" lon="0.3447">
        <ele>165.02</ele>
        <time>2018-09-09T08:36:26.000Z</time>
      </trkpt>
      <trkpt lat="46.51842" lon="0.34481">
        <ele>165.52</ele>
        <time>2018-09-09T08:36:33.000Z</time>
      </trkpt>
      <trkpt lat="46.51831" lon="0.34485">
        <ele>167.27</ele>
        <time>2018-09-09T08:36:43.000Z</time>
      </trkpt>
      <trkpt lat="46.51823" lon="0.34495">
        <ele>168.13</ele>
        <time>2018-09-09T08:36:47.000Z</time>
      </trkpt>
      <trkpt lat="46.51819" lon="0.34506">
        <ele>169.57</ele>
        <time>2018-09-09T08:36:55.000Z</time>
      </trkpt>
      <trkpt lat="46.5181" lon="0.34511">
        <ele>170.12</ele>
        <time>2018-09-09T08:36:59.000Z</time>
      </trkpt>
      <trkpt lat="46.51801" lon="0.34519">
        <ele>170.72</ele>
        <time>2018-09-09T08:37:03.000Z</time>
      </trkpt>
      <trkpt lat="46.51791" lon="0.34525">
        <ele>171.41</ele>
        <time>2018-09-09T08:37:08.000Z</time>
      </trkpt>
      <trkpt lat="46.51782" lon="0.34531">
        <ele>172.47</ele>
        <time>2018-09-09T08:37:15.000Z</time>
      </trkpt>
      <trkpt lat="46.51772" lon="0.34539">
        <ele>173.21</ele>
        <time>2018-09-09T08:37:20.000Z</time>
      </trkpt>
      <trkpt lat="46.51763" lon="0.34547">
        <ele>174</ele>
        <time>2018-09-09T08:37:26.000Z</time>
      </trkpt>
      <trkpt lat="46.51752" lon="0.34551">
        <ele>174.47</ele>
        <time>2018-09-09T08:37:30.000Z</time>
      </trkpt>
      <trkpt lat="46.51744" lon="0.3456">
        <ele>175.26</ele>
        <time>2018-09-09T08:37:35.000Z</time>
      </trkpt>
      <trkpt lat="46.51733" lon="0.3457">
        <ele>175.7</ele>
        <time>2018-09-09T08:37:38.000Z</time>
      </trkpt>
      <trkpt lat="46.51725" lon="0.34578">
        <ele>175.93</ele>
        <time>2018-09-09T08:37:41.000Z</time>
      </trkpt>
      <trkpt lat="46.51715" lon="0.34586">
        <ele>176.1</ele>
        <time>2018-09-09T08:37:44.000Z</time>
      </trkpt>
      <trkpt lat="46.51704" lon="0.34593">
        <ele>176.61</ele>
        <time>2018-09-09T08:37:47.000Z</time>
      </trkpt>
      <trkpt lat="46.51696" lon="0.34599">
        <ele>177.45</ele>
        <time>2018-09-09T08:37:49.000Z</time>
      </trkpt>
      <trkpt lat="46.51687" lon="0.34605">
        <ele>177.66</ele>
        <time>2018-09-09T08:37:51.000Z</time>
      </trkpt>
      <trkpt lat="46.51675" lon="0.34615">
        <ele>177.55</ele>
        <time>2018-09-09T08:37:54.000Z</time>
      </trkpt>
      <trkpt lat="46.51667" lon="0.34622">
        <ele>177.38</ele>
        <time>2018-09-09T08:37:56.000Z</time>
      </trkpt>
      <trkpt lat="46.51659" lon="0.34629">
        <ele>177.7</ele>
        <time>2018-09-09T08:37:58.000Z</time>
      </trkpt>
      <trkpt lat="46.51649" lon="0.34636">
        <ele>178.25</ele>
        <time>2018-09-09T08:38:00.000Z</time>
      </trkpt>
      <trkpt lat="46.51639" lon="0.34646">
        <ele>178.54</ele>
        <time>2018-09-09T08:38:02.000Z</time>
      </trkpt>
      <trkpt lat="46.51632" lon="0.34653">
        <ele>178.51</ele>
        <time>2018-09-09T08:38:04.000Z</time>
      </trkpt>
      <trkpt lat="46.51623" lon="0.34664">
        <ele>178.48</ele>
        <time>2018-09-09T08:38:06.000Z</time>
      </trkpt>
      <trkpt lat="46.51615" lon="0.34673">
        <ele>178.4</ele>
        <time>2018-09-09T08:38:08.000Z</time>
      </trkpt>
      <trkpt lat="46.51607" lon="0.34685">
        <ele>177.88</ele>
        <time>2018-09-09T08:38:10.000Z</time>
      </trkpt>
      <trkpt lat="46.51599" lon="0.34698">
        <ele>177.11</ele>
        <time>2018-09-09T08:38:12.000Z</time>
      </trkpt>
      <trkpt lat="46.51592" lon="0.3471">
        <ele>176.06</ele>
        <time>2018-09-09T08:38:14.000Z</time>
      </trkpt>
      <trkpt lat="46.51584" lon="0.3472">
        <ele>175.18</ele>
        <time>2018-09-09T08:38:16.000Z</time>
      </trkpt>
      <trkpt lat="46.51577" lon="0.34729">
        <ele>174.4</ele>
        <time>2018-09-09T08:38:18.000Z</time>
      </trkpt>
      <trkpt lat="46.51566" lon="0.34741">
        <ele>173.73</ele>
        <time>2018-09-09T08:38:21.000Z</time>
      </trkpt>
      <trkpt lat="46.51557" lon="0.34754">
        <ele>173.33</ele>
        <time>2018-09-09T08:38:24.000Z</time>
      </trkpt>
      <trkpt lat="46.5155" lon="0.34763">
        <ele>173.22</ele>
        <time>2018-09-09T08:38:26.000Z</time>
      </trkpt>
      <trkpt lat="46.5154" lon="0.34775">
        <ele>174.49</ele>
        <time>2018-09-09T08:38:29.000Z</time>
      </trkpt>
      <trkpt lat="46.51533" lon="0.34786">
        <ele>175.14</ele>
        <time>2018-09-09T08:38:31.000Z</time>
      </trkpt>
      <trkpt lat="46.51526" lon="0.34797">
        <ele>175.59</ele>
        <time>2018-09-09T08:38:33.000Z</time>
      </trkpt>
      <trkpt lat="46.51519" lon="0.34811">
        <ele>175.28</ele>
        <time>2018-09-09T08:38:35.000Z</time>
      </trkpt>
      <trkpt lat="46.51514" lon="0.34825">
        <ele>174.68</ele>
        <time>2018-09-09T08:38:37.000Z</time>
      </trkpt>
      <trkpt lat="46.51507" lon="0.34839">
        <ele>173.96</ele>
        <time>2018-09-09T08:38:39.000Z</time>
      </trkpt>
      <trkpt lat="46.51501" lon="0.34853">
        <ele>173.39</ele>
        <time>2018-09-09T08:38:41.000Z</time>
      </trkpt>
      <trkpt lat="46.51493" lon="0.34866">
        <ele>173.39</ele>
        <time>2018-09-09T08:38:43.000Z</time>
      </trkpt>
      <trkpt lat="46.51483" lon="0.3488">
        <ele>172.95</ele>
        <time>2018-09-09T08:38:45.000Z</time>
      </trkpt>
      <trkpt lat="46.51473" lon="0.34893">
        <ele>172.74</ele>
        <time>2018-09-09T08:38:47.000Z</time>
      </trkpt>
      <trkpt lat="46.51464" lon="0.34905">
        <ele>172.15</ele>
        <time>2018-09-09T08:38:49.000Z</time>
      </trkpt>
      <trkpt lat="46.51454" lon="0.34915">
        <ele>171.7</ele>
        <time>2018-09-09T08:38:51.000Z</time>
      </trkpt>
      <trkpt lat="46.51444" lon="0.34923">
        <ele>171.38</ele>
        <time>2018-09-09T08:38:53.000Z</time>
      </trkpt>
      <trkpt lat="46.51436" lon="0.34933">
        <ele>171.02</ele>
        <time>2018-09-09T08:38:55.000Z</time>
      </trkpt>
      <trkpt lat="46.51426" lon="0.34945">
        <ele>170.43</ele>
        <time>2018-09-09T08:38:57.000Z</time>
      </trkpt>
      <trkpt lat="46.51416" lon="0.34958">
        <ele>169.91</ele>
        <time>2018-09-09T08:38:59.000Z</time>
      </trkpt>
      <trkpt lat="46.5141" lon="0.34968">
        <ele>169.42</ele>
        <time>2018-09-09T08:39:01.000Z</time>
      </trkpt>
      <trkpt lat="46.51403" lon="0.34979">
        <ele>169.35</ele>
        <time>2018-09-09T08:39:04.000Z</time>
      </trkpt>
      <trkpt lat="46.51396" lon="0.34991">
        <ele>169.23</ele>
        <time>2018-09-09T08:39:08.000Z</time>
      </trkpt>
      <trkpt lat="46.51387" lon="0.35002">
        <ele>168.81</ele>
        <time>2018-09-09T08:39:11.000Z</time>
      </trkpt>
      <trkpt lat="46.5138" lon="0.3501">
        <ele>168.83</ele>
        <time>2018-09-09T08:39:13.000Z</time>
      </trkpt>
      <trkpt lat="46.51371" lon="0.35016">
        <ele>168.77</ele>
        <time>2018-09-09T08:39:15.000Z</time>
      </trkpt>
      <trkpt lat="46.5136" lon="0.35019">
        <ele>168.82</ele>
        <time>2018-09-09T08:39:18.000Z</time>
      </trkpt>
      <trkpt lat="46.51352" lon="0.35023">
        <ele>168.92</ele>
        <time>2018-09-09T08:39:21.000Z</time>
      </trkpt>
      <trkpt lat="46.51343" lon="0.35028">
        <ele>169.08</ele>
        <time>2018-09-09T08:39:24.000Z</time>
      </trkpt>
      <trkpt lat="46.51334" lon="0.35033">
        <ele>169.33</ele>
        <time>2018-09-09T08:39:27.000Z</time>
      </trkpt>
      <trkpt lat="46.51328" lon="0.35042">
        <ele>169.77</ele>
        <time>2018-09-09T08:39:31.000Z</time>
      </trkpt>
      <trkpt lat="46.51333" lon="0.35052">
        <ele>171.37</ele>
        <time>2018-09-09T08:39:34.000Z</time>
      </trkpt>
      <trkpt lat="46.51337" lon="0.35064">
        <ele>171.63</ele>
        <time>2018-09-09T08:39:36.000Z</time>
      </trkpt>
      <trkpt lat="46.51341" lon="0.35076">
        <ele>172.2</ele>
        <time>2018-09-09T08:39:40.000Z</time>
      </trkpt>
      <trkpt lat="46.51347" lon="0.35089">
        <ele>173.09</ele>
        <time>2018-09-09T08:39:45.000Z</time>
      </trkpt>
      <trkpt lat="46.51352" lon="0.35104">
        <ele>173.75</ele>
        <time>2018-09-09T08:39:49.000Z</time>
      </trkpt>
      <trkpt lat="46.51358" lon="0.35118">
        <ele>174.35</ele>
        <time>2018-09-09T08:39:53.000Z</time>
      </trkpt>
      <trkpt lat="46.51358" lon="0.35133">
        <ele>174.71</ele>
        <time>2018-09-09T08:39:56.000Z</time>
      </trkpt>
      <trkpt lat="46.51357" lon="0.35148">
        <ele>175.05</ele>
        <time>2018-09-09T08:40:00.000Z</time>
      </trkpt>
      <trkpt lat="46.51361" lon="0.35163">
        <ele>175.42</ele>
        <time>2018-09-09T08:40:04.000Z</time>
      </trkpt>
      <trkpt lat="46.5136" lon="0.35178">
        <ele>175.98</ele>
        <time>2018-09-09T08:40:08.000Z</time>
      </trkpt>
      <trkpt lat="46.5136" lon="0.35193">
        <ele>176.5</ele>
        <time>2018-09-09T08:40:12.000Z</time>
      </trkpt>
      <trkpt lat="46.51358" lon="0.35207">
        <ele>177.09</ele>
        <time>2018-09-09T08:40:16.000Z</time>
      </trkpt>
      <trkpt lat="46.51355" lon="0.35224">
        <ele>177.97</ele>
        <time>2018-09-09T08:40:20.000Z</time>
      </trkpt>
      <trkpt lat="46.51353" lon="0.35239">
        <ele>178.52</ele>
        <time>2018-09-09T08:40:23.000Z</time>
      </trkpt>
      <trkpt lat="46.51348" lon="0.35252">
        <ele>178.87</ele>
        <time>2018-09-09T08:40:26.000Z</time>
      </trkpt>
      <trkpt lat="46.51339" lon="0.35252">
        <ele>180.02</ele>
        <time>2018-09-09T08:40:29.000Z</time>
      </trkpt>
      <trkpt lat="46.51325" lon="0.35254">
        <ele>180.79</ele>
        <time>2018-09-09T08:40:32.000Z</time>
      </trkpt>
      <trkpt lat="46.51315" lon="0.35255">
        <ele>181.23</ele>
        <time>2018-09-09T08:40:34.000Z</time>
      </trkpt>
      <trkpt lat="46.51304" lon="0.35257">
        <ele>182.11</ele>
        <time>2018-09-09T08:40:36.000Z</time>
      </trkpt>
      <trkpt lat="46.51294" lon="0.35261">
        <ele>182.93</ele>
        <time>2018-09-09T08:40:38.000Z</time>
      </trkpt>
      <trkpt lat="46.51284" lon="0.35265">
        <ele>183.57</ele>
        <time>2018-09-09T08:40:40.000Z</time>
      </trkpt>
      <trkpt lat="46.51274" lon="0.35269">
        <ele>183.61</ele>
        <time>2018-09-09T08:40:42.000Z</time>
      </trkpt>
      <trkpt lat="46.51265" lon="0.35275">
        <ele>183.78</ele>
        <time>2018-09-09T08:40:45.000Z</time>
      </trkpt>
      <trkpt lat="46.5127" lon="0.35295">
        <ele>184.9</ele>
        <time>2018-09-09T08:40:48.000Z</time>
      </trkpt>
      <trkpt lat="46.51273" lon="0.35311">
        <ele>185.3</ele>
        <time>2018-09-09T08:40:50.000Z</time>
      </trkpt>
      <trkpt lat="46.51277" lon="0.35326">
        <ele>185.75</ele>
        <time>2018-09-09T08:40:52.000Z</time>
      </trkpt>
      <trkpt lat="46.51278" lon="0.35344">
        <ele>185.59</ele>
        <time>2018-09-09T08:40:54.000Z</time>
      </trkpt>
      <trkpt lat="46.5128" lon="0.35361">
        <ele>185</ele>
        <time>2018-09-09T08:40:56.000Z</time>
      </trkpt>
      <trkpt lat="46.51283" lon="0.35376">
        <ele>184.27</ele>
        <time>2018-09-09T08:40:58.000Z</time>
      </trkpt>
      <trkpt lat="46.51286" lon="0.3539">
        <ele>183.59</ele>
        <time>2018-09-09T08:41:00.000Z</time>
      </trkpt>
      <trkpt lat="46.51289" lon="0.35402">
        <ele>183.22</ele>
        <time>2018-09-09T08:41:02.000Z</time>
      </trkpt>
      <trkpt lat="46.51293" lon="0.35415">
        <ele>182.57</ele>
        <time>2018-09-09T08:41:04.000Z</time>
      </trkpt>
      <trkpt lat="46.51297" lon="0.35427">
        <ele>182.07</ele>
        <time>2018-09-09T08:41:06.000Z</time>
      </trkpt>
      <trkpt lat="46.51303" lon="0.35444">
        <ele>182.74</ele>
        <time>2018-09-09T08:41:09.000Z</time>
      </trkpt>
      <trkpt lat="46.51307" lon="0.35457">
        <ele>183.29</ele>
        <time>2018-09-09T08:41:11.000Z</time>
      </trkpt>
      <trkpt lat="46.51311" lon="0.3547">
        <ele>183.86</ele>
        <time>2018-09-09T08:41:13.000Z</time>
      </trkpt>
      <trkpt lat="46.51315" lon="0.35487">
        <ele>184.87</ele>
        <time>2018-09-09T08:41:16.000Z</time>
      </trkpt>
      <trkpt lat="46.5132" lon="0.35504">
        <ele>185.61</ele>
        <time>2018-09-09T08:41:19.000Z</time>
      </trkpt>
      <trkpt lat="46.51325" lon="0.35521">
        <ele>186.57</ele>
        <time>2018-09-09T08:41:22.000Z</time>
      </trkpt>
      <trkpt lat="46.51328" lon="0.35534">
        <ele>186.96</ele>
        <time>2018-09-09T08:41:24.000Z</time>
      </trkpt>
      <trkpt lat="46.51333" lon="0.35553">
        <ele>187.63</ele>
        <time>2018-09-09T08:41:27.000Z</time>
      </trkpt>
      <trkpt lat="46.51336" lon="0.35565">
        <ele>188.13</ele>
        <time>2018-09-09T08:41:29.000Z</time>
      </trkpt>
      <trkpt lat="46.51336" lon="0.35579">
        <ele>188.14</ele>
        <time>2018-09-09T08:41:32.000Z</time>
      </trkpt>
      <trkpt lat="46.51325" lon="0.35578">
        <ele>188.15</ele>
        <time>2018-09-09T08:41:36.000Z</time>
      </trkpt>
      <trkpt lat="46.51314" lon="0.35575">
        <ele>189.25</ele>
        <time>2018-09-09T08:41:39.000Z</time>
      </trkpt>
      <trkpt lat="46.51304" lon="0.35574">
        <ele>189.73</ele>
        <time>2018-09-09T08:41:41.000Z</time>
      </trkpt>
      <trkpt lat="46.51291" lon="0.35577">
        <ele>190.35</ele>
        <time>2018-09-09T08:41:44.000Z</time>
      </trkpt>
      <trkpt lat="46.51279" lon="0.35585">
        <ele>191.43</ele>
        <time>2018-09-09T08:41:47.000Z</time>
      </trkpt>
      <trkpt lat="46.5127" lon="0.35592">
        <ele>192.45</ele>
        <time>2018-09-09T08:41:49.000Z</time>
      </trkpt>
      <trkpt lat="46.51257" lon="0.35598">
        <ele>193.66</ele>
        <time>2018-09-09T08:41:52.000Z</time>
      </trkpt>
      <trkpt lat="46.51248" lon="0.35603">
        <ele>193.92</ele>
        <time>2018-09-09T08:41:54.000Z</time>
      </trkpt>
      <trkpt lat="46.51237" lon="0.35609">
        <ele>194.09</ele>
        <time>2018-09-09T08:41:56.000Z</time>
      </trkpt>
      <trkpt lat="46.51224" lon="0.35615">
        <ele>194.32</ele>
        <time>2018-09-09T08:41:59.000Z</time>
      </trkpt>
      <trkpt lat="46.51214" lon="0.35624">
        <ele>193.89</ele>
        <time>2018-09-09T08:42:01.000Z</time>
      </trkpt>
      <trkpt lat="46.51205" lon="0.35631">
        <ele>193.18</ele>
        <time>2018-09-09T08:42:03.000Z</time>
      </trkpt>
      <trkpt lat="46.51195" lon="0.35634">
        <ele>192.37</ele>
        <time>2018-09-09T08:42:05.000Z</time>
      </trkpt>
      <trkpt lat="46.51184" lon="0.35638">
        <ele>191.89</ele>
        <time>2018-09-09T08:42:07.000Z</time>
      </trkpt>
      <trkpt lat="46.51173" lon="0.35643">
        <ele>191.64</ele>
        <time>2018-09-09T08:42:09.000Z</time>
      </trkpt>
      <trkpt lat="46.51161" lon="0.35648">
        <ele>191.75</ele>
        <time>2018-09-09T08:42:11.000Z</time>
      </trkpt>
      <trkpt lat="46.51151" lon="0.35652">
        <ele>192.05</ele>
        <time>2018-09-09T08:42:14.000Z</time>
      </trkpt>
      <trkpt lat="46.51141" lon="0.35656">
        <ele>192.53</ele>
        <time>2018-09-09T08:42:16.000Z</time>
      </trkpt>
      <trkpt lat="46.5113" lon="0.3566">
        <ele>192.92</ele>
        <time>2018-09-09T08:42:18.000Z</time>
      </trkpt>
      <trkpt lat="46.51118" lon="0.35666">
        <ele>192.72</ele>
        <time>2018-09-09T08:42:21.000Z</time>
      </trkpt>
      <trkpt lat="46.51109" lon="0.3567">
        <ele>192.53</ele>
        <time>2018-09-09T08:42:23.000Z</time>
      </trkpt>
      <trkpt lat="46.51098" lon="0.35676">
        <ele>193.17</ele>
        <time>2018-09-09T08:42:26.000Z</time>
      </trkpt>
      <trkpt lat="46.5109" lon="0.35686">
        <ele>193.18</ele>
        <time>2018-09-09T08:42:28.000Z</time>
      </trkpt>
      <trkpt lat="46.51093" lon="0.35699">
        <ele>193.31</ele>
        <time>2018-09-09T08:42:32.000Z</time>
      </trkpt>
      <trkpt lat="46.51097" lon="0.35712">
        <ele>193.71</ele>
        <time>2018-09-09T08:42:37.000Z</time>
      </trkpt>
      <trkpt lat="46.511" lon="0.35729">
        <ele>194.67</ele>
        <time>2018-09-09T08:42:40.000Z</time>
      </trkpt>
      <trkpt lat="46.51102" lon="0.35745">
        <ele>195.5</ele>
        <time>2018-09-09T08:42:42.000Z</time>
      </trkpt>
      <trkpt lat="46.51104" lon="0.35758">
        <ele>195.97</ele>
        <time>2018-09-09T08:42:44.000Z</time>
      </trkpt>
      <trkpt lat="46.51106" lon="0.35773">
        <ele>196.03</ele>
        <time>2018-09-09T08:42:46.000Z</time>
      </trkpt>
      <trkpt lat="46.51107" lon="0.35786">
        <ele>196</ele>
        <time>2018-09-09T08:42:48.000Z</time>
      </trkpt>
      <trkpt lat="46.51109" lon="0.35801">
        <ele>195.8</ele>
        <time>2018-09-09T08:42:54.000Z</time>
      </trkpt>
      <trkpt lat="46.51108" lon="0.35821">
        <ele>194.59</ele>
        <time>2018-09-09T08:42:57.000Z</time>
      </trkpt>
      <trkpt lat="46.51111" lon="0.35836">
        <ele>193.99</ele>
        <time>2018-09-09T08:42:59.000Z</time>
      </trkpt>
      <trkpt lat="46.51113" lon="0.35853">
        <ele>193.4</ele>
        <time>2018-09-09T08:43:01.000Z</time>
      </trkpt>
      <trkpt lat="46.51114" lon="0.35871">
        <ele>193.03</ele>
        <time>2018-09-09T08:43:03.000Z</time>
      </trkpt>
      <trkpt lat="46.51115" lon="0.35888">
        <ele>192.48</ele>
        <time>2018-09-09T08:43:05.000Z</time>
      </trkpt>
      <trkpt lat="46.51117" lon="0.35903">
        <ele>191.88</ele>
        <time>2018-09-09T08:43:07.000Z</time>
      </trkpt>
      <trkpt lat="46.51116" lon="0.35916">
        <ele>191.11</ele>
        <time>2018-09-09T08:43:09.000Z</time>
      </trkpt>
      <trkpt lat="46.51104" lon="0.3592">
        <ele>190.45</ele>
        <time>2018-09-09T08:43:12.000Z</time>
      </trkpt>
      <trkpt lat="46.51094" lon="0.35918">
        <ele>190.45</ele>
        <time>2018-09-09T08:43:14.000Z</time>
      </trkpt>
      <trkpt lat="46.51084" lon="0.35915">
        <ele>190.94</ele>
        <time>2018-09-09T08:43:16.000Z</time>
      </trkpt>
      <trkpt lat="46.51073" lon="0.35911">
        <ele>191.97</ele>
        <time>2018-09-09T08:43:18.000Z</time>
      </trkpt>
      <trkpt lat="46.51062" lon="0.35907">
        <ele>192.79</ele>
        <time>2018-09-09T08:43:20.000Z</time>
      </trkpt>
      <trkpt lat="46.51052" lon="0.359">
        <ele>193.75</ele>
        <time>2018-09-09T08:43:22.000Z</time>
      </trkpt>
      <trkpt lat="46.51041" lon="0.35893">
        <ele>194.74</ele>
        <time>2018-09-09T08:43:24.000Z</time>
      </trkpt>
      <trkpt lat="46.51032" lon="0.35885">
        <ele>195.72</ele>
        <time>2018-09-09T08:43:26.000Z</time>
      </trkpt>
      <trkpt lat="46.51022" lon="0.35877">
        <ele>196.22</ele>
        <time>2018-09-09T08:43:28.000Z</time>
      </trkpt>
      <trkpt lat="46.51014" lon="0.3587">
        <ele>196.77</ele>
        <time>2018-09-09T08:43:30.000Z</time>
      </trkpt>
      <trkpt lat="46.51004" lon="0.35862">
        <ele>197.5</ele>
        <time>2018-09-09T08:43:32.000Z</time>
      </trkpt>
      <trkpt lat="46.50995" lon="0.35853">
        <ele>197.96</ele>
        <time>2018-09-09T08:43:34.000Z</time>
      </trkpt>
      <trkpt lat="46.50986" lon="0.35845">
        <ele>197.86</ele>
        <time>2018-09-09T08:43:36.000Z</time>
      </trkpt>
      <trkpt lat="46.50977" lon="0.35839">
        <ele>197.8</ele>
        <time>2018-09-09T08:43:38.000Z</time>
      </trkpt>
      <trkpt lat="46.50962" lon="0.35834">
        <ele>197.6</ele>
        <time>2018-09-09T08:43:41.000Z</time>
      </trkpt>
      <trkpt lat="46.50952" lon="0.3583">
        <ele>197.79</ele>
        <time>2018-09-09T08:43:43.000Z</time>
      </trkpt>
      <trkpt lat="46.50942" lon="0.35824">
        <ele>198.44</ele>
        <time>2018-09-09T08:43:45.000Z</time>
      </trkpt>
      <trkpt lat="46.50932" lon="0.35817">
        <ele>199.03</ele>
        <time>2018-09-09T08:43:47.000Z</time>
      </trkpt>
      <trkpt lat="46.50922" lon="0.35812">
        <ele>199.39</ele>
        <time>2018-09-09T08:43:49.000Z</time>
      </trkpt>
      <trkpt lat="46.50912" lon="0.35807">
        <ele>199.48</ele>
        <time>2018-09-09T08:43:51.000Z</time>
      </trkpt>
      <trkpt lat="46.509" lon="0.35799">
        <ele>200.11</ele>
        <time>2018-09-09T08:43:54.000Z</time>
      </trkpt>
      <trkpt lat="46.50891" lon="0.35803">
        <ele>200.15</ele>
        <time>2018-09-09T08:43:57.000Z</time>
      </trkpt>
      <trkpt lat="46.50882" lon="0.35814">
        <ele>200.01</ele>
        <time>2018-09-09T08:44:00.000Z</time>
      </trkpt>
      <trkpt lat="46.50876" lon="0.35829">
        <ele>199.32</ele>
        <time>2018-09-09T08:44:02.000Z</time>
      </trkpt>
      <trkpt lat="46.50871" lon="0.35841">
        <ele>199.02</ele>
        <time>2018-09-09T08:44:04.000Z</time>
      </trkpt>
      <trkpt lat="46.50866" lon="0.35856">
        <ele>198.41</ele>
        <time>2018-09-09T08:44:06.000Z</time>
      </trkpt>
      <trkpt lat="46.50861" lon="0.35869">
        <ele>197.92</ele>
        <time>2018-09-09T08:44:08.000Z</time>
      </trkpt>
      <trkpt lat="46.50854" lon="0.35879">
        <ele>197.2</ele>
        <time>2018-09-09T08:44:10.000Z</time>
      </trkpt>
      <trkpt lat="46.50847" lon="0.35889">
        <ele>196.57</ele>
        <time>2018-09-09T08:44:12.000Z</time>
      </trkpt>
      <trkpt lat="46.50842" lon="0.35899">
        <ele>196.25</ele>
        <time>2018-09-09T08:44:14.000Z</time>
      </trkpt>
      <trkpt lat="46.50842" lon="0.35913">
        <ele>196.11</ele>
        <time>2018-09-09T08:44:16.000Z</time>
      </trkpt>
      <trkpt lat="46.50845" lon="0.3593">
        <ele>195.67</ele>
        <time>2018-09-09T08:44:18.000Z</time>
      </trkpt>
      <trkpt lat="46.50848" lon="0.35947">
        <ele>194.85</ele>
        <time>2018-09-09T08:44:20.000Z</time>
      </trkpt>
      <trkpt lat="46.50851" lon="0.35961">
        <ele>194.35</ele>
        <time>2018-09-09T08:44:22.000Z</time>
      </trkpt>
      <trkpt lat="46.50848" lon="0.35976">
        <ele>193.64</ele>
        <time>2018-09-09T08:44:25.000Z</time>
      </trkpt>
      <trkpt lat="46.50839" lon="0.35978">
        <ele>193.46</ele>
        <time>2018-09-09T08:44:28.000Z</time>
      </trkpt>
      <trkpt lat="46.50828" lon="0.3599">
        <ele>192.56</ele>
        <time>2018-09-09T08:44:31.000Z</time>
      </trkpt>
      <trkpt lat="46.50819" lon="0.36003">
        <ele>191.98</ele>
        <time>2018-09-09T08:44:33.000Z</time>
      </trkpt>
      <trkpt lat="46.50808" lon="0.36014">
        <ele>191.32</ele>
        <time>2018-09-09T08:44:35.000Z</time>
      </trkpt>
      <trkpt lat="46.50797" lon="0.36025">
        <ele>190.64</ele>
        <time>2018-09-09T08:44:37.000Z</time>
      </trkpt>
      <trkpt lat="46.50787" lon="0.36034">
        <ele>190.25</ele>
        <time>2018-09-09T08:44:39.000Z</time>
      </trkpt>
      <trkpt lat="46.50777" lon="0.36041">
        <ele>190.64</ele>
        <time>2018-09-09T08:44:58.000Z</time>
      </trkpt>
      <trkpt lat="46.50774" lon="0.36056">
        <ele>190.77</ele>
        <time>2018-09-09T08:45:01.000Z</time>
      </trkpt>
      <trkpt lat="46.50773" lon="0.36077">
        <ele>189.91</ele>
        <time>2018-09-09T08:45:04.000Z</time>
      </trkpt>
      <trkpt lat="46.50771" lon="0.36093">
        <ele>190</ele>
        <time>2018-09-09T08:45:06.000Z</time>
      </trkpt>
      <trkpt lat="46.50767" lon="0.36109">
        <ele>190.22</ele>
        <time>2018-09-09T08:45:10.000Z</time>
      </trkpt>
      <trkpt lat="46.50761" lon="0.36119">
        <ele>190.39</ele>
        <time>2018-09-09T08:45:14.000Z</time>
      </trkpt>
      <trkpt lat="46.50754" lon="0.36131">
        <ele>191.17</ele>
        <time>2018-09-09T08:45:17.000Z</time>
      </trkpt>
      <trkpt lat="46.50749" lon="0.36148">
        <ele>191.83</ele>
        <time>2018-09-09T08:45:20.000Z</time>
      </trkpt>
      <trkpt lat="46.50746" lon="0.36168">
        <ele>191.98</ele>
        <time>2018-09-09T08:45:23.000Z</time>
      </trkpt>
      <trkpt lat="46.50744" lon="0.36182">
        <ele>192.01</ele>
        <time>2018-09-09T08:45:25.000Z</time>
      </trkpt>
      <trkpt lat="46.50741" lon="0.36198">
        <ele>191.95</ele>
        <time>2018-09-09T08:45:27.000Z</time>
      </trkpt>
      <trkpt lat="46.50739" lon="0.36216">
        <ele>191.73</ele>
        <time>2018-09-09T08:45:29.000Z</time>
      </trkpt>
      <trkpt lat="46.50736" lon="0.36235">
        <ele>191.47</ele>
        <time>2018-09-09T08:45:31.000Z</time>
      </trkpt>
      <trkpt lat="46.50734" lon="0.36254">
        <ele>191.09</ele>
        <time>2018-09-09T08:45:33.000Z</time>
      </trkpt>
      <trkpt lat="46.50732" lon="0.36273">
        <ele>190.65</ele>
        <time>2018-09-09T08:45:35.000Z</time>
      </trkpt>
      <trkpt lat="46.50731" lon="0.36292">
        <ele>190.26</ele>
        <time>2018-09-09T08:45:37.000Z</time>
      </trkpt>
      <trkpt lat="46.50728" lon="0.3631">
        <ele>189.99</ele>
        <time>2018-09-09T08:45:39.000Z</time>
      </trkpt>
      <trkpt lat="46.50726" lon="0.36328">
        <ele>189.89</ele>
        <time>2018-09-09T08:45:41.000Z</time>
      </trkpt>
      <trkpt lat="46.50723" lon="0.36346">
        <ele>189.89</ele>
        <time>2018-09-09T08:45:43.000Z</time>
      </trkpt>
      <trkpt lat="46.50721" lon="0.36364">
        <ele>189.79</ele>
        <time>2018-09-09T08:45:45.000Z</time>
      </trkpt>
      <trkpt lat="46.50719" lon="0.36382">
        <ele>189.61</ele>
        <time>2018-09-09T08:45:47.000Z</time>
      </trkpt>
      <trkpt lat="46.50716" lon="0.36401">
        <ele>189.46</ele>
        <time>2018-09-09T08:45:49.000Z</time>
      </trkpt>
      <trkpt lat="46.50713" lon="0.3642">
        <ele>188.98</ele>
        <time>2018-09-09T08:45:51.000Z</time>
      </trkpt>
      <trkpt lat="46.50708" lon="0.36439">
        <ele>188.88</ele>
        <time>2018-09-09T08:45:53.000Z</time>
      </trkpt>
      <trkpt lat="46.50705" lon="0.36459">
        <ele>188.5</ele>
        <time>2018-09-09T08:45:55.000Z</time>
      </trkpt>
      <trkpt lat="46.50702" lon="0.3648">
        <ele>187.9</ele>
        <time>2018-09-09T08:45:57.000Z</time>
      </trkpt>
      <trkpt lat="46.50699" lon="0.36501">
        <ele>187.39</ele>
        <time>2018-09-09T08:45:59.000Z</time>
      </trkpt>
      <trkpt lat="46.50695" lon="0.36524">
        <ele>186.81</ele>
        <time>2018-09-09T08:46:01.000Z</time>
      </trkpt>
      <trkpt lat="46.50691" lon="0.36548">
        <ele>186.37</ele>
        <time>2018-09-09T08:46:03.000Z</time>
      </trkpt>
      <trkpt lat="46.50686" lon="0.36571">
        <ele>185.55</ele>
        <time>2018-09-09T08:46:05.000Z</time>
      </trkpt>
      <trkpt lat="46.50678" lon="0.36589">
        <ele>184.7</ele>
        <time>2018-09-09T08:46:07.000Z</time>
      </trkpt>
      <trkpt lat="46.50668" lon="0.36601">
        <ele>184.02</ele>
        <time>2018-09-09T08:46:09.000Z</time>
      </trkpt>
      <trkpt lat="46.50658" lon="0.36611">
        <ele>183.76</ele>
        <time>2018-09-09T08:46:11.000Z</time>
      </trkpt>
      <trkpt lat="46.50651" lon="0.36621">
        <ele>183.83</ele>
        <time>2018-09-09T08:46:13.000Z</time>
      </trkpt>
      <trkpt lat="46.50647" lon="0.36636">
        <ele>183.59</ele>
        <time>2018-09-09T08:46:15.000Z</time>
      </trkpt>
      <trkpt lat="46.50644" lon="0.36649">
        <ele>183.48</ele>
        <time>2018-09-09T08:46:17.000Z</time>
      </trkpt>
      <trkpt lat="46.50643" lon="0.36663">
        <ele>183.55</ele>
        <time>2018-09-09T08:46:19.000Z</time>
      </trkpt>
      <trkpt lat="46.50641" lon="0.36681">
        <ele>183.36</ele>
        <time>2018-09-09T08:46:22.000Z</time>
      </trkpt>
      <trkpt lat="46.50638" lon="0.36694">
        <ele>183.42</ele>
        <time>2018-09-09T08:46:25.000Z</time>
      </trkpt>
      <trkpt lat="46.50635" lon="0.36708">
        <ele>183.51</ele>
        <time>2018-09-09T08:46:28.000Z</time>
      </trkpt>
      <trkpt lat="46.50632" lon="0.36722">
        <ele>183.68</ele>
        <time>2018-09-09T08:46:32.000Z</time>
      </trkpt>
      <trkpt lat="46.50635" lon="0.36738">
        <ele>183.99</ele>
        <time>2018-09-09T08:46:36.000Z</time>
      </trkpt>
      <trkpt lat="46.50636" lon="0.36752">
        <ele>184.39</ele>
        <time>2018-09-09T08:46:39.000Z</time>
      </trkpt>
      <trkpt lat="46.50637" lon="0.36768">
        <ele>184.91</ele>
        <time>2018-09-09T08:46:42.000Z</time>
      </trkpt>
      <trkpt lat="46.50637" lon="0.36783">
        <ele>185.76</ele>
        <time>2018-09-09T08:46:46.000Z</time>
      </trkpt>
      <trkpt lat="46.50639" lon="0.36795">
        <ele>186.85</ele>
        <time>2018-09-09T08:46:51.000Z</time>
      </trkpt>
      <trkpt lat="46.5064" lon="0.36809">
        <ele>189.96</ele>
        <time>2018-09-09T08:47:38.000Z</time>
      </trkpt>
      <trkpt lat="46.5064" lon="0.36822">
        <ele>190.57</ele>
        <time>2018-09-09T08:48:12.000Z</time>
      </trkpt>
      <trkpt lat="46.50638" lon="0.36809">
        <ele>193.99</ele>
        <time>2018-09-09T09:01:40.999Z</time>
      </trkpt>
      <trkpt lat="46.5064" lon="0.36794">
        <ele>194.9</ele>
        <time>2018-09-09T09:01:53.999Z</time>
      </trkpt>
      <trkpt lat="46.50642" lon="0.36778">
        <ele>195.29</ele>
        <time>2018-09-09T09:01:57.999Z</time>
      </trkpt>
      <trkpt lat="46.50643" lon="0.36763">
        <ele>195.73</ele>
        <time>2018-09-09T09:02:01.999Z</time>
      </trkpt>
      <trkpt lat="46.50653" lon="0.36761">
        <ele>196.67</ele>
        <time>2018-09-09T09:02:07.999Z</time>
      </trkpt>
      <trkpt lat="46.50661" lon="0.36756">
        <ele>198.25</ele>
        <time>2018-09-09T09:02:29.999Z</time>
      </trkpt>
      <trkpt lat="46.50666" lon="0.36744">
        <ele>196.06</ele>
        <time>2018-09-09T09:04:14.999Z</time>
      </trkpt>
      <trkpt lat="46.50675" lon="0.3674">
        <ele>194.64</ele>
        <time>2018-09-09T09:04:21.999Z</time>
      </trkpt>
      <trkpt lat="46.50686" lon="0.36746">
        <ele>194.06</ele>
        <time>2018-09-09T09:04:24.999Z</time>
      </trkpt>
      <trkpt lat="46.50694" lon="0.36751">
        <ele>191.67</ele>
        <time>2018-09-09T09:04:26.999Z</time>
      </trkpt>
      <trkpt lat="46.50706" lon="0.36759">
        <ele>191.23</ele>
        <time>2018-09-09T09:04:29.999Z</time>
      </trkpt>
      <trkpt lat="46.50716" lon="0.36764">
        <ele>187.97</ele>
        <time>2018-09-09T09:04:31.999Z</time>
      </trkpt>
      <trkpt lat="46.50725" lon="0.36768">
        <ele>185.63</ele>
        <time>2018-09-09T09:04:33.999Z</time>
      </trkpt>
      <trkpt lat="46.50735" lon="0.36771">
        <ele>183.59</ele>
        <time>2018-09-09T09:04:35.999Z</time>
      </trkpt>
      <trkpt lat="46.50745" lon="0.36773">
        <ele>181.74</ele>
        <time>2018-09-09T09:04:37.999Z</time>
      </trkpt>
      <trkpt lat="46.50755" lon="0.36774">
        <ele>181.05</ele>
        <time>2018-09-09T09:04:39.999Z</time>
      </trkpt>
      <trkpt lat="46.50765" lon="0.36773">
        <ele>180.99</ele>
        <time>2018-09-09T09:04:41.999Z</time>
      </trkpt>
      <trkpt lat="46.50774" lon="0.36773">
        <ele>181.54</ele>
        <time>2018-09-09T09:04:43.999Z</time>
      </trkpt>
      <trkpt lat="46.50787" lon="0.36773">
        <ele>182.44</ele>
        <time>2018-09-09T09:04:45.999Z</time>
      </trkpt>
      <trkpt lat="46.50798" lon="0.36773">
        <ele>182.16</ele>
        <time>2018-09-09T09:04:47.999Z</time>
      </trkpt>
      <trkpt lat="46.50811" lon="0.36773">
        <ele>181.79</ele>
        <time>2018-09-09T09:04:49.999Z</time>
      </trkpt>
      <trkpt lat="46.50821" lon="0.36774">
        <ele>181.26</ele>
        <time>2018-09-09T09:04:51.999Z</time>
      </trkpt>
      <trkpt lat="46.50828" lon="0.36783">
        <ele>180.83</ele>
        <time>2018-09-09T09:04:53.999Z</time>
      </trkpt>
      <trkpt lat="46.50834" lon="0.36794">
        <ele>180.91</ele>
        <time>2018-09-09T09:04:55.999Z</time>
      </trkpt>
      <trkpt lat="46.50842" lon="0.36806">
        <ele>181.75</ele>
        <time>2018-09-09T09:04:58.999Z</time>
      </trkpt>
      <trkpt lat="46.50851" lon="0.36807">
        <ele>182.42</ele>
        <time>2018-09-09T09:05:00.999Z</time>
      </trkpt>
      <trkpt lat="46.50862" lon="0.36809">
        <ele>183.07</ele>
        <time>2018-09-09T09:05:02.999Z</time>
      </trkpt>
      <trkpt lat="46.50873" lon="0.36812">
        <ele>183.5</ele>
        <time>2018-09-09T09:05:04.999Z</time>
      </trkpt>
      <trkpt lat="46.50882" lon="0.36815">
        <ele>183.5</ele>
        <time>2018-09-09T09:05:06.999Z</time>
      </trkpt>
      <trkpt lat="46.50892" lon="0.36825">
        <ele>184.41</ele>
        <time>2018-09-09T09:05:09.999Z</time>
      </trkpt>
      <trkpt lat="46.509" lon="0.36834">
        <ele>185.62</ele>
        <time>2018-09-09T09:05:11.999Z</time>
      </trkpt>
      <trkpt lat="46.5091" lon="0.36844">
        <ele>186.54</ele>
        <time>2018-09-09T09:05:13.999Z</time>
      </trkpt>
      <trkpt lat="46.50919" lon="0.36856">
        <ele>187.44</ele>
        <time>2018-09-09T09:05:15.999Z</time>
      </trkpt>
      <trkpt lat="46.50925" lon="0.3687">
        <ele>188.16</ele>
        <time>2018-09-09T09:05:17.999Z</time>
      </trkpt>
      <trkpt lat="46.50932" lon="0.36883">
        <ele>189.18</ele>
        <time>2018-09-09T09:05:19.999Z</time>
      </trkpt>
      <trkpt lat="46.50938" lon="0.36896">
        <ele>189.96</ele>
        <time>2018-09-09T09:05:21.999Z</time>
      </trkpt>
      <trkpt lat="46.50945" lon="0.36912">
        <ele>191.57</ele>
        <time>2018-09-09T09:05:23.999Z</time>
      </trkpt>
      <trkpt lat="46.50953" lon="0.36928">
        <ele>193.46</ele>
        <time>2018-09-09T09:05:25.999Z</time>
      </trkpt>
      <trkpt lat="46.50959" lon="0.36942">
        <ele>195</ele>
        <time>2018-09-09T09:05:27.999Z</time>
      </trkpt>
      <trkpt lat="46.50967" lon="0.36956">
        <ele>196.69</ele>
        <time>2018-09-09T09:05:29.999Z</time>
      </trkpt>
      <trkpt lat="46.5098" lon="0.36966">
        <ele>197.54</ele>
        <time>2018-09-09T09:05:32.999Z</time>
      </trkpt>
      <trkpt lat="46.5099" lon="0.36976">
        <ele>198.37</ele>
        <time>2018-09-09T09:05:34.999Z</time>
      </trkpt>
      <trkpt lat="46.50999" lon="0.36987">
        <ele>199.19</ele>
        <time>2018-09-09T09:05:36.999Z</time>
      </trkpt>
      <trkpt lat="46.51006" lon="0.36999">
        <ele>198.68</ele>
        <time>2018-09-09T09:05:38.999Z</time>
      </trkpt>
      <trkpt lat="46.51013" lon="0.3701">
        <ele>198.87</ele>
        <time>2018-09-09T09:05:40.999Z</time>
      </trkpt>
      <trkpt lat="46.51021" lon="0.37022">
        <ele>199.4</ele>
        <time>2018-09-09T09:05:42.999Z</time>
      </trkpt>
      <trkpt lat="46.51029" lon="0.37032">
        <ele>199.48</ele>
        <time>2018-09-09T09:05:44.999Z</time>
      </trkpt>
      <trkpt lat="46.51037" lon="0.37046">
        <ele>199.61</ele>
        <time>2018-09-09T09:05:46.999Z</time>
      </trkpt>
      <trkpt lat="46.51043" lon="0.3706">
        <ele>199.39</ele>
        <time>2018-09-09T09:05:48.999Z</time>
      </trkpt>
      <trkpt lat="46.51054" lon="0.37062">
        <ele>199.29</ele>
        <time>2018-09-09T09:05:51.999Z</time>
      </trkpt>
      <trkpt lat="46.51066" lon="0.37067">
        <ele>198.08</ele>
        <time>2018-09-09T09:05:54.999Z</time>
      </trkpt>
      <trkpt lat="46.51077" lon="0.37071">
        <ele>197.49</ele>
        <time>2018-09-09T09:05:57.999Z</time>
      </trkpt>
      <trkpt lat="46.5109" lon="0.37064">
        <ele>197.37</ele>
        <time>2018-09-09T09:06:00.999Z</time>
      </trkpt>
      <trkpt lat="46.51101" lon="0.37063">
        <ele>197.57</ele>
        <time>2018-09-09T09:06:03.999Z</time>
      </trkpt>
      <trkpt lat="46.5111" lon="0.3706">
        <ele>197.04</ele>
        <time>2018-09-09T09:06:05.999Z</time>
      </trkpt>
      <trkpt lat="46.5112" lon="0.37061">
        <ele>195.86</ele>
        <time>2018-09-09T09:06:07.999Z</time>
      </trkpt>
      <trkpt lat="46.51129" lon="0.37063">
        <ele>195.64</ele>
        <time>2018-09-09T09:06:10.999Z</time>
      </trkpt>
      <trkpt lat="46.51128" lon="0.37049">
        <ele>195.78</ele>
        <time>2018-09-09T09:06:15.999Z</time>
      </trkpt>
      <trkpt lat="46.51138" lon="0.37037">
        <ele>196.05</ele>
        <time>2018-09-09T09:06:18.999Z</time>
      </trkpt>
      <trkpt lat="46.51149" lon="0.37032">
        <ele>197.41</ele>
        <time>2018-09-09T09:06:21.999Z</time>
      </trkpt>
      <trkpt lat="46.51158" lon="0.37032">
        <ele>198.57</ele>
        <time>2018-09-09T09:06:23.999Z</time>
      </trkpt>
      <trkpt lat="46.51169" lon="0.37031">
        <ele>198.65</ele>
        <time>2018-09-09T09:06:26.999Z</time>
      </trkpt>
      <trkpt lat="46.51181" lon="0.37027">
        <ele>198.6</ele>
        <time>2018-09-09T09:06:29.999Z</time>
      </trkpt>
      <trkpt lat="46.51189" lon="0.37022">
        <ele>198.5</ele>
        <time>2018-09-09T09:06:31.999Z</time>
      </trkpt>
      <trkpt lat="46.51198" lon="0.37013">
        <ele>198.4</ele>
        <time>2018-09-09T09:06:34.999Z</time>
      </trkpt>
      <trkpt lat="46.51206" lon="0.37003">
        <ele>198.22</ele>
        <time>2018-09-09T09:06:37.999Z</time>
      </trkpt>
      <trkpt lat="46.51215" lon="0.36998">
        <ele>198.03</ele>
        <time>2018-09-09T09:06:39.999Z</time>
      </trkpt>
      <trkpt lat="46.51228" lon="0.36995">
        <ele>195.05</ele>
        <time>2018-09-09T09:06:42.999Z</time>
      </trkpt>
      <trkpt lat="46.51239" lon="0.36989">
        <ele>193.54</ele>
        <time>2018-09-09T09:06:45.999Z</time>
      </trkpt>
      <trkpt lat="46.51249" lon="0.36978">
        <ele>192.88</ele>
        <time>2018-09-09T09:06:47.999Z</time>
      </trkpt>
      <trkpt lat="46.51258" lon="0.36968">
        <ele>193</ele>
        <time>2018-09-09T09:06:49.999Z</time>
      </trkpt>
      <trkpt lat="46.51271" lon="0.36964">
        <ele>192.93</ele>
        <time>2018-09-09T09:06:52.999Z</time>
      </trkpt>
      <trkpt lat="46.51281" lon="0.3696">
        <ele>192.96</ele>
        <time>2018-09-09T09:06:54.999Z</time>
      </trkpt>
      <trkpt lat="46.51292" lon="0.36955">
        <ele>192.89</ele>
        <time>2018-09-09T09:06:57.999Z</time>
      </trkpt>
      <trkpt lat="46.51303" lon="0.36971">
        <ele>191.67</ele>
        <time>2018-09-09T09:07:01.999Z</time>
      </trkpt>
      <trkpt lat="46.51316" lon="0.36976">
        <ele>190.31</ele>
        <time>2018-09-09T09:07:03.999Z</time>
      </trkpt>
      <trkpt lat="46.51329" lon="0.36978">
        <ele>189.52</ele>
        <time>2018-09-09T09:07:05.999Z</time>
      </trkpt>
      <trkpt lat="46.51338" lon="0.36985">
        <ele>189.27</ele>
        <time>2018-09-09T09:07:08.999Z</time>
      </trkpt>
      <trkpt lat="46.51345" lon="0.36993">
        <ele>188.92</ele>
        <time>2018-09-09T09:07:11.999Z</time>
      </trkpt>
      <trkpt lat="46.51355" lon="0.37002">
        <ele>188.37</ele>
        <time>2018-09-09T09:07:14.999Z</time>
      </trkpt>
      <trkpt lat="46.51368" lon="0.37003">
        <ele>183.05</ele>
        <time>2018-09-09T09:07:17.999Z</time>
      </trkpt>
      <trkpt lat="46.51378" lon="0.37004">
        <ele>180.48</ele>
        <time>2018-09-09T09:07:19.999Z</time>
      </trkpt>
      <trkpt lat="46.51384" lon="0.37015">
        <ele>179.76</ele>
        <time>2018-09-09T09:07:22.999Z</time>
      </trkpt>
      <trkpt lat="46.51393" lon="0.37024">
        <ele>175.31</ele>
        <time>2018-09-09T09:07:24.999Z</time>
      </trkpt>
      <trkpt lat="46.51404" lon="0.3703">
        <ele>171.39</ele>
        <time>2018-09-09T09:07:26.999Z</time>
      </trkpt>
      <trkpt lat="46.51413" lon="0.37041">
        <ele>168.94</ele>
        <time>2018-09-09T09:07:28.999Z</time>
      </trkpt>
      <trkpt lat="46.51422" lon="0.37047">
        <ele>168.83</ele>
        <time>2018-09-09T09:07:30.999Z</time>
      </trkpt>
      <trkpt lat="46.5143" lon="0.37041">
        <ele>168.55</ele>
        <time>2018-09-09T09:07:33.999Z</time>
      </trkpt>
      <trkpt lat="46.51438" lon="0.37047">
        <ele>168.21</ele>
        <time>2018-09-09T09:07:36.999Z</time>
      </trkpt>
      <trkpt lat="46.51448" lon="0.37034">
        <ele>167.18</ele>
        <time>2018-09-09T09:07:40.999Z</time>
      </trkpt>
      <trkpt lat="46.51455" lon="0.37023">
        <ele>166.03</ele>
        <time>2018-09-09T09:07:42.999Z</time>
      </trkpt>
      <trkpt lat="46.5146" lon="0.3701">
        <ele>165.85</ele>
        <time>2018-09-09T09:07:44.999Z</time>
      </trkpt>
      <trkpt lat="46.51468" lon="0.37">
        <ele>166.02</ele>
        <time>2018-09-09T09:07:48.999Z</time>
      </trkpt>
      <trkpt lat="46.51476" lon="0.36993">
        <ele>166.19</ele>
        <time>2018-09-09T09:07:51.999Z</time>
      </trkpt>
      <trkpt lat="46.51484" lon="0.37004">
        <ele>166.62</ele>
        <time>2018-09-09T09:08:02.999Z</time>
      </trkpt>
      <trkpt lat="46.51487" lon="0.37022">
        <ele>166.57</ele>
        <time>2018-09-09T09:08:05.999Z</time>
      </trkpt>
      <trkpt lat="46.51491" lon="0.37041">
        <ele>165.81</ele>
        <time>2018-09-09T09:08:08.999Z</time>
      </trkpt>
      <trkpt lat="46.51496" lon="0.37057">
        <ele>164.66</ele>
        <time>2018-09-09T09:08:10.999Z</time>
      </trkpt>
      <trkpt lat="46.51502" lon="0.3707">
        <ele>164.43</ele>
        <time>2018-09-09T09:08:13.999Z</time>
      </trkpt>
      <trkpt lat="46.51502" lon="0.37084">
        <ele>164.41</ele>
        <time>2018-09-09T09:08:20.999Z</time>
      </trkpt>
      <trkpt lat="46.51491" lon="0.37084">
        <ele>164.29</ele>
        <time>2018-09-09T09:08:27.999Z</time>
      </trkpt>
      <trkpt lat="46.51479" lon="0.37084">
        <ele>164.25</ele>
        <time>2018-09-09T09:08:31.999Z</time>
      </trkpt>
      <trkpt lat="46.5147" lon="0.3709">
        <ele>163.62</ele>
        <time>2018-09-09T09:08:40.999Z</time>
      </trkpt>
      <trkpt lat="46.51462" lon="0.371">
        <ele>163.97</ele>
        <time>2018-09-09T09:08:48.999Z</time>
      </trkpt>
      <trkpt lat="46.51456" lon="0.37111">
        <ele>164.65</ele>
        <time>2018-09-09T09:08:55.999Z</time>
      </trkpt>
      <trkpt lat="46.51452" lon="0.37123">
        <ele>165.54</ele>
        <time>2018-09-09T09:09:00.999Z</time>
      </trkpt>
      <trkpt lat="46.51448" lon="0.37134">
        <ele>166.65</ele>
        <time>2018-09-09T09:09:05.999Z</time>
      </trkpt>
      <trkpt lat="46.51444" lon="0.37147">
        <ele>168.92</ele>
        <time>2018-09-09T09:09:14.999Z</time>
      </trkpt>
      <trkpt lat="46.51439" lon="0.37159">
        <ele>171.04</ele>
        <time>2018-09-09T09:09:22.999Z</time>
      </trkpt>
      <trkpt lat="46.51436" lon="0.37172">
        <ele>172.55</ele>
        <time>2018-09-09T09:09:28.999Z</time>
      </trkpt>
      <trkpt lat="46.51433" lon="0.37185">
        <ele>174.96</ele>
        <time>2018-09-09T09:09:36.999Z</time>
      </trkpt>
      <trkpt lat="46.51427" lon="0.37195">
        <ele>177.4</ele>
        <time>2018-09-09T09:09:43.999Z</time>
      </trkpt>
      <trkpt lat="46.51423" lon="0.37208">
        <ele>179.64</ele>
        <time>2018-09-09T09:09:49.999Z</time>
      </trkpt>
      <trkpt lat="46.51419" lon="0.37222">
        <ele>180.64</ele>
        <time>2018-09-09T09:09:53.999Z</time>
      </trkpt>
      <trkpt lat="46.51416" lon="0.37237">
        <ele>181.57</ele>
        <time>2018-09-09T09:09:58.999Z</time>
      </trkpt>
      <trkpt lat="46.51412" lon="0.37252">
        <ele>182.64</ele>
        <time>2018-09-09T09:10:04.999Z</time>
      </trkpt>
      <trkpt lat="46.51407" lon="0.37267">
        <ele>183.61</ele>
        <time>2018-09-09T09:10:09.999Z</time>
      </trkpt>
      <trkpt lat="46.51405" lon="0.37281">
        <ele>184.34</ele>
        <time>2018-09-09T09:10:13.999Z</time>
      </trkpt>
      <trkpt lat="46.51407" lon="0.37296">
        <ele>184.98</ele>
        <time>2018-09-09T09:10:17.999Z</time>
      </trkpt>
      <trkpt lat="46.51407" lon="0.3731">
        <ele>185.44</ele>
        <time>2018-09-09T09:10:20.999Z</time>
      </trkpt>
      <trkpt lat="46.51407" lon="0.37325">
        <ele>185.97</ele>
        <time>2018-09-09T09:10:23.999Z</time>
      </trkpt>
      <trkpt lat="46.51407" lon="0.37338">
        <ele>186.57</ele>
        <time>2018-09-09T09:10:26.999Z</time>
      </trkpt>
      <trkpt lat="46.51406" lon="0.37352">
        <ele>187.1</ele>
        <time>2018-09-09T09:10:29.999Z</time>
      </trkpt>
      <trkpt lat="46.51404" lon="0.37366">
        <ele>187.59</ele>
        <time>2018-09-09T09:10:32.999Z</time>
      </trkpt>
      <trkpt lat="46.51404" lon="0.3738">
        <ele>188.07</ele>
        <time>2018-09-09T09:10:35.999Z</time>
      </trkpt>
      <trkpt lat="46.51405" lon="0.37393">
        <ele>188.4</ele>
        <time>2018-09-09T09:10:37.999Z</time>
      </trkpt>
      <trkpt lat="46.51406" lon="0.37409">
        <ele>189.66</ele>
        <time>2018-09-09T09:10:39.999Z</time>
      </trkpt>
      <trkpt lat="46.51407" lon="0.37424">
        <ele>190.75</ele>
        <time>2018-09-09T09:10:41.999Z</time>
      </trkpt>
      <trkpt lat="46.51407" lon="0.37438">
        <ele>191.07</ele>
        <time>2018-09-09T09:10:43.999Z</time>
      </trkpt>
      <trkpt lat="46.51409" lon="0.37452">
        <ele>191.61</ele>
        <time>2018-09-09T09:10:45.999Z</time>
      </trkpt>
      <trkpt lat="46.5141" lon="0.37465">
        <ele>191.6</ele>
        <time>2018-09-09T09:10:47.999Z</time>
      </trkpt>
      <trkpt lat="46.51412" lon="0.37481">
        <ele>190.55</ele>
        <time>2018-09-09T09:10:49.999Z</time>
      </trkpt>
      <trkpt lat="46.51413" lon="0.37494">
        <ele>189.04</ele>
        <time>2018-09-09T09:10:51.999Z</time>
      </trkpt>
      <trkpt lat="46.51416" lon="0.37506">
        <ele>188.98</ele>
        <time>2018-09-09T09:10:56.999Z</time>
      </trkpt>
      <trkpt lat="46.51423" lon="0.37495">
        <ele>189.53</ele>
        <time>2018-09-09T09:10:59.999Z</time>
      </trkpt>
      <trkpt lat="46.51428" lon="0.37481">
        <ele>190.34</ele>
        <time>2018-09-09T09:11:01.999Z</time>
      </trkpt>
      <trkpt lat="46.51434" lon="0.37467">
        <ele>190.35</ele>
        <time>2018-09-09T09:11:03.999Z</time>
      </trkpt>
      <trkpt lat="46.51442" lon="0.37458">
        <ele>190.29</ele>
        <time>2018-09-09T09:11:05.999Z</time>
      </trkpt>
      <trkpt lat="46.51451" lon="0.37452">
        <ele>189.83</ele>
        <time>2018-09-09T09:11:07.999Z</time>
      </trkpt>
      <trkpt lat="46.51463" lon="0.37453">
        <ele>189.87</ele>
        <time>2018-09-09T09:11:10.999Z</time>
      </trkpt>
      <trkpt lat="46.51472" lon="0.37452">
        <ele>190.72</ele>
        <time>2018-09-09T09:11:12.999Z</time>
      </trkpt>
      <trkpt lat="46.51481" lon="0.37446">
        <ele>190.53</ele>
        <time>2018-09-09T09:11:14.999Z</time>
      </trkpt>
      <trkpt lat="46.51491" lon="0.37441">
        <ele>190.43</ele>
        <time>2018-09-09T09:11:17.999Z</time>
      </trkpt>
      <trkpt lat="46.51498" lon="0.37453">
        <ele>190.07</ele>
        <time>2018-09-09T09:11:22.999Z</time>
      </trkpt>
      <trkpt lat="46.51507" lon="0.37458">
        <ele>189.54</ele>
        <time>2018-09-09T09:11:30.999Z</time>
      </trkpt>
      <trkpt lat="46.51504" lon="0.37471">
        <ele>189.37</ele>
        <time>2018-09-09T09:11:38.999Z</time>
      </trkpt>
      <trkpt lat="46.51503" lon="0.37487">
        <ele>189.44</ele>
        <time>2018-09-09T09:11:44.999Z</time>
      </trkpt>
      <trkpt lat="46.51512" lon="0.3749">
        <ele>189.55</ele>
        <time>2018-09-09T09:11:50.999Z</time>
      </trkpt>
      <trkpt lat="46.51522" lon="0.37484">
        <ele>189.56</ele>
        <time>2018-09-09T09:11:56.999Z</time>
      </trkpt>
      <trkpt lat="46.5153" lon="0.3747">
        <ele>189.32</ele>
        <time>2018-09-09T09:12:00.999Z</time>
      </trkpt>
      <trkpt lat="46.5154" lon="0.37473">
        <ele>188.8</ele>
        <time>2018-09-09T09:12:05.999Z</time>
      </trkpt>
      <trkpt lat="46.51546" lon="0.37464">
        <ele>188</ele>
        <time>2018-09-09T09:12:11.999Z</time>
      </trkpt>
      <trkpt lat="46.51547" lon="0.37446">
        <ele>187.77</ele>
        <time>2018-09-09T09:12:15.999Z</time>
      </trkpt>
      <trkpt lat="46.51548" lon="0.37432">
        <ele>187.62</ele>
        <time>2018-09-09T09:12:18.999Z</time>
      </trkpt>
      <trkpt lat="46.51542" lon="0.37421">
        <ele>187.42</ele>
        <time>2018-09-09T09:12:21.999Z</time>
      </trkpt>
      <trkpt lat="46.51534" lon="0.37411">
        <ele>187.16</ele>
        <time>2018-09-09T09:12:25.999Z</time>
      </trkpt>
      <trkpt lat="46.51526" lon="0.37396">
        <ele>185.47</ele>
        <time>2018-09-09T09:12:32.999Z</time>
      </trkpt>
      <trkpt lat="46.51517" lon="0.37395">
        <ele>185.02</ele>
        <time>2018-09-09T09:12:40.999Z</time>
      </trkpt>
      <trkpt lat="46.51513" lon="0.37377">
        <ele>183.08</ele>
        <time>2018-09-09T09:12:44.999Z</time>
      </trkpt>
      <trkpt lat="46.51512" lon="0.37363">
        <ele>182.75</ele>
        <time>2018-09-09T09:12:47.999Z</time>
      </trkpt>
      <trkpt lat="46.51506" lon="0.37349">
        <ele>182.09</ele>
        <time>2018-09-09T09:12:52.999Z</time>
      </trkpt>
      <trkpt lat="46.51498" lon="0.37341">
        <ele>181.48</ele>
        <time>2018-09-09T09:12:58.999Z</time>
      </trkpt>
      <trkpt lat="46.51489" lon="0.37338">
        <ele>180.96</ele>
        <time>2018-09-09T09:13:02.999Z</time>
      </trkpt>
      <trkpt lat="46.51479" lon="0.37337">
        <ele>180.18</ele>
        <time>2018-09-09T09:13:12.999Z</time>
      </trkpt>
      <trkpt lat="46.51476" lon="0.37325">
        <ele>180.64</ele>
        <time>2018-09-09T09:13:19.999Z</time>
      </trkpt>
      <trkpt lat="46.51476" lon="0.37308">
        <ele>181.27</ele>
        <time>2018-09-09T09:13:23.999Z</time>
      </trkpt>
      <trkpt lat="46.51477" lon="0.37293">
        <ele>181.7</ele>
        <time>2018-09-09T09:13:26.999Z</time>
      </trkpt>
      <trkpt lat="46.51477" lon="0.37277">
        <ele>182.13</ele>
        <time>2018-09-09T09:13:29.999Z</time>
      </trkpt>
      <trkpt lat="46.51479" lon="0.3726">
        <ele>182.63</ele>
        <time>2018-09-09T09:13:33.999Z</time>
      </trkpt>
      <trkpt lat="46.51481" lon="0.37247">
        <ele>182.83</ele>
        <time>2018-09-09T09:13:35.999Z</time>
      </trkpt>
      <trkpt lat="46.51489" lon="0.37231">
        <ele>184.05</ele>
        <time>2018-09-09T09:13:40.999Z</time>
      </trkpt>
      <trkpt lat="46.51495" lon="0.37221">
        <ele>183.93</ele>
        <time>2018-09-09T09:13:43.999Z</time>
      </trkpt>
      <trkpt lat="46.51504" lon="0.37212">
        <ele>183.66</ele>
        <time>2018-09-09T09:13:47.999Z</time>
      </trkpt>
      <trkpt lat="46.51513" lon="0.37204">
        <ele>182.96</ele>
        <time>2018-09-09T09:13:52.999Z</time>
      </trkpt>
      <trkpt lat="46.51523" lon="0.37199">
        <ele>181.08</ele>
        <time>2018-09-09T09:13:57.999Z</time>
      </trkpt>
      <trkpt lat="46.51534" lon="0.37196">
        <ele>180.72</ele>
        <time>2018-09-09T09:13:59.999Z</time>
      </trkpt>
      <trkpt lat="46.51542" lon="0.37185">
        <ele>179.95</ele>
        <time>2018-09-09T09:14:02.999Z</time>
      </trkpt>
      <trkpt lat="46.51538" lon="0.37171">
        <ele>178.49</ele>
        <time>2018-09-09T09:14:07.999Z</time>
      </trkpt>
      <trkpt lat="46.51537" lon="0.37158">
        <ele>177.88</ele>
        <time>2018-09-09T09:14:10.999Z</time>
      </trkpt>
      <trkpt lat="46.51542" lon="0.37142">
        <ele>176.95</ele>
        <time>2018-09-09T09:14:14.999Z</time>
      </trkpt>
      <trkpt lat="46.51545" lon="0.37126">
        <ele>176.12</ele>
        <time>2018-09-09T09:14:17.999Z</time>
      </trkpt>
      <trkpt lat="46.51544" lon="0.37111">
        <ele>175.18</ele>
        <time>2018-09-09T09:14:20.999Z</time>
      </trkpt>
      <trkpt lat="46.51537" lon="0.37093">
        <ele>168.3</ele>
        <time>2018-09-09T09:14:23.999Z</time>
      </trkpt>
      <trkpt lat="46.51532" lon="0.37077">
        <ele>163.17</ele>
        <time>2018-09-09T09:14:25.999Z</time>
      </trkpt>
      <trkpt lat="46.51528" lon="0.37062">
        <ele>159.53</ele>
        <time>2018-09-09T09:14:27.999Z</time>
      </trkpt>
      <trkpt lat="46.51522" lon="0.37046">
        <ele>159.07</ele>
        <time>2018-09-09T09:14:30.999Z</time>
      </trkpt>
      <trkpt lat="46.51519" lon="0.37031">
        <ele>158.56</ele>
        <time>2018-09-09T09:14:33.999Z</time>
      </trkpt>
      <trkpt lat="46.51517" lon="0.37017">
        <ele>158.26</ele>
        <time>2018-09-09T09:14:35.999Z</time>
      </trkpt>
      <trkpt lat="46.51513" lon="0.37004">
        <ele>156.97</ele>
        <time>2018-09-09T09:14:38.999Z</time>
      </trkpt>
      <trkpt lat="46.51512" lon="0.36986">
        <ele>156.69</ele>
        <time>2018-09-09T09:14:41.999Z</time>
      </trkpt>
      <trkpt lat="46.5151" lon="0.36973">
        <ele>156.52</ele>
        <time>2018-09-09T09:14:43.999Z</time>
      </trkpt>
      <trkpt lat="46.51502" lon="0.36962">
        <ele>156.12</ele>
        <time>2018-09-09T09:14:46.999Z</time>
      </trkpt>
      <trkpt lat="46.51494" lon="0.36953">
        <ele>155.9</ele>
        <time>2018-09-09T09:14:50.999Z</time>
      </trkpt>
      <trkpt lat="46.51492" lon="0.36938">
        <ele>155.88</ele>
        <time>2018-09-09T09:14:55.999Z</time>
      </trkpt>
      <trkpt lat="46.5149" lon="0.36923">
        <ele>156.07</ele>
        <time>2018-09-09T09:14:59.999Z</time>
      </trkpt>
      <trkpt lat="46.51488" lon="0.36909">
        <ele>156.24</ele>
        <time>2018-09-09T09:15:03.999Z</time>
      </trkpt>
      <trkpt lat="46.51487" lon="0.36894">
        <ele>156.42</ele>
        <time>2018-09-09T09:15:07.999Z</time>
      </trkpt>
      <trkpt lat="46.51489" lon="0.36879">
        <ele>156.53</ele>
        <time>2018-09-09T09:15:10.999Z</time>
      </trkpt>
      <trkpt lat="46.51488" lon="0.36865">
        <ele>156.68</ele>
        <time>2018-09-09T09:15:13.999Z</time>
      </trkpt>
      <trkpt lat="46.51486" lon="0.36848">
        <ele>156.81</ele>
        <time>2018-09-09T09:15:16.999Z</time>
      </trkpt>
      <trkpt lat="46.51485" lon="0.36834">
        <ele>156.89</ele>
        <time>2018-09-09T09:15:19.999Z</time>
      </trkpt>
      <trkpt lat="46.51481" lon="0.36821">
        <ele>157.04</ele>
        <time>2018-09-09T09:15:22.999Z</time>
      </trkpt>
      <trkpt lat="46.51477" lon="0.36808">
        <ele>157.21</ele>
        <time>2018-09-09T09:15:25.999Z</time>
      </trkpt>
      <trkpt lat="46.51473" lon="0.36793">
        <ele>157.31</ele>
        <time>2018-09-09T09:15:28.999Z</time>
      </trkpt>
      <trkpt lat="46.51469" lon="0.36781">
        <ele>157.31</ele>
        <time>2018-09-09T09:15:30.999Z</time>
      </trkpt>
      <trkpt lat="46.51467" lon="0.36767">
        <ele>157.14</ele>
        <time>2018-09-09T09:15:36.999Z</time>
      </trkpt>
      <trkpt lat="46.51469" lon="0.36754">
        <ele>156.62</ele>
        <time>2018-09-09T09:15:51.999Z</time>
      </trkpt>
      <trkpt lat="46.51463" lon="0.36741">
        <ele>156.54</ele>
        <time>2018-09-09T09:15:54.999Z</time>
      </trkpt>
      <trkpt lat="46.51454" lon="0.36728">
        <ele>155.7</ele>
        <time>2018-09-09T09:15:57.999Z</time>
      </trkpt>
      <trkpt lat="46.51444" lon="0.36714">
        <ele>154.01</ele>
        <time>2018-09-09T09:16:00.999Z</time>
      </trkpt>
      <trkpt lat="46.5144" lon="0.36701">
        <ele>152.75</ele>
        <time>2018-09-09T09:16:02.999Z</time>
      </trkpt>
      <trkpt lat="46.51434" lon="0.3669">
        <ele>152.63</ele>
        <time>2018-09-09T09:16:04.999Z</time>
      </trkpt>
      <trkpt lat="46.51426" lon="0.36682">
        <ele>151.5</ele>
        <time>2018-09-09T09:16:06.999Z</time>
      </trkpt>
      <trkpt lat="46.51417" lon="0.36669">
        <ele>150.85</ele>
        <time>2018-09-09T09:16:09.999Z</time>
      </trkpt>
      <trkpt lat="46.51409" lon="0.36658">
        <ele>150.74</ele>
        <time>2018-09-09T09:16:12.999Z</time>
      </trkpt>
      <trkpt lat="46.514" lon="0.36646">
        <ele>150.61</ele>
        <time>2018-09-09T09:16:15.999Z</time>
      </trkpt>
      <trkpt lat="46.51392" lon="0.36633">
        <ele>150.5</ele>
        <time>2018-09-09T09:16:18.999Z</time>
      </trkpt>
      <trkpt lat="46.51387" lon="0.36619">
        <ele>150.1</ele>
        <time>2018-09-09T09:16:21.999Z</time>
      </trkpt>
      <trkpt lat="46.51392" lon="0.36602">
        <ele>149.82</ele>
        <time>2018-09-09T09:16:24.999Z</time>
      </trkpt>
      <trkpt lat="46.51397" lon="0.36587">
        <ele>150.03</ele>
        <time>2018-09-09T09:16:27.999Z</time>
      </trkpt>
      <trkpt lat="46.51401" lon="0.36571">
        <ele>150.32</ele>
        <time>2018-09-09T09:16:30.999Z</time>
      </trkpt>
      <trkpt lat="46.51406" lon="0.36555">
        <ele>150.43</ele>
        <time>2018-09-09T09:16:33.999Z</time>
      </trkpt>
      <trkpt lat="46.51409" lon="0.36541">
        <ele>150.31</ele>
        <time>2018-09-09T09:16:36.999Z</time>
      </trkpt>
      <trkpt lat="46.51415" lon="0.36529">
        <ele>150.18</ele>
        <time>2018-09-09T09:16:39.999Z</time>
      </trkpt>
      <trkpt lat="46.51416" lon="0.36516">
        <ele>150.23</ele>
        <time>2018-09-09T09:16:44.999Z</time>
      </trkpt>
      <trkpt lat="46.51425" lon="0.36513">
        <ele>151.08</ele>
        <time>2018-09-09T09:16:52.999Z</time>
      </trkpt>
      <trkpt lat="46.51426" lon="0.36527">
        <ele>152.31</ele>
        <time>2018-09-09T09:16:58.999Z</time>
      </trkpt>
      <trkpt lat="46.51426" lon="0.36541">
        <ele>153.52</ele>
        <time>2018-09-09T09:17:03.999Z</time>
      </trkpt>
      <trkpt lat="46.51424" lon="0.36556">
        <ele>155.33</ele>
        <time>2018-09-09T09:17:10.999Z</time>
      </trkpt>
      <trkpt lat="46.51425" lon="0.36569">
        <ele>156.44</ele>
        <time>2018-09-09T09:17:15.999Z</time>
      </trkpt>
      <trkpt lat="46.51432" lon="0.36579">
        <ele>158.01</ele>
        <time>2018-09-09T09:17:22.999Z</time>
      </trkpt>
      <trkpt lat="46.51442" lon="0.36579">
        <ele>159.07</ele>
        <time>2018-09-09T09:17:27.999Z</time>
      </trkpt>
      <trkpt lat="46.5145" lon="0.36585">
        <ele>159.99</ele>
        <time>2018-09-09T09:17:33.999Z</time>
      </trkpt>
      <trkpt lat="46.5146" lon="0.36591">
        <ele>160.42</ele>
        <time>2018-09-09T09:17:38.999Z</time>
      </trkpt>
      <trkpt lat="46.51469" lon="0.36596">
        <ele>160.56</ele>
        <time>2018-09-09T09:17:42.999Z</time>
      </trkpt>
      <trkpt lat="46.51479" lon="0.36598">
        <ele>160.56</ele>
        <time>2018-09-09T09:17:48.999Z</time>
      </trkpt>
      <trkpt lat="46.51488" lon="0.36597">
        <ele>160.76</ele>
        <time>2018-09-09T09:17:54.999Z</time>
      </trkpt>
      <trkpt lat="46.51498" lon="0.36601">
        <ele>161.27</ele>
        <time>2018-09-09T09:17:59.999Z</time>
      </trkpt>
      <trkpt lat="46.51508" lon="0.36608">
        <ele>161.5</ele>
        <time>2018-09-09T09:18:03.999Z</time>
      </trkpt>
      <trkpt lat="46.51516" lon="0.36616">
        <ele>161.69</ele>
        <time>2018-09-09T09:18:07.999Z</time>
      </trkpt>
      <trkpt lat="46.51523" lon="0.36625">
        <ele>162.09</ele>
        <time>2018-09-09T09:18:11.999Z</time>
      </trkpt>
      <trkpt lat="46.51531" lon="0.36635">
        <ele>162.65</ele>
        <time>2018-09-09T09:18:15.999Z</time>
      </trkpt>
      <trkpt lat="46.51537" lon="0.36648">
        <ele>163.3</ele>
        <time>2018-09-09T09:18:19.999Z</time>
      </trkpt>
      <trkpt lat="46.51545" lon="0.36658">
        <ele>164.3</ele>
        <time>2018-09-09T09:18:23.999Z</time>
      </trkpt>
      <trkpt lat="46.51551" lon="0.3667">
        <ele>165.25</ele>
        <time>2018-09-09T09:18:26.999Z</time>
      </trkpt>
      <trkpt lat="46.51558" lon="0.36682">
        <ele>166.21</ele>
        <time>2018-09-09T09:18:29.999Z</time>
      </trkpt>
      <trkpt lat="46.51567" lon="0.36695">
        <ele>167.2</ele>
        <time>2018-09-09T09:18:32.999Z</time>
      </trkpt>
      <trkpt lat="46.51574" lon="0.36703">
        <ele>167.85</ele>
        <time>2018-09-09T09:18:34.999Z</time>
      </trkpt>
      <trkpt lat="46.51587" lon="0.36706">
        <ele>171.72</ele>
        <time>2018-09-09T09:18:37.999Z</time>
      </trkpt>
      <trkpt lat="46.51599" lon="0.36705">
        <ele>172.49</ele>
        <time>2018-09-09T09:18:40.999Z</time>
      </trkpt>
      <trkpt lat="46.51611" lon="0.36704">
        <ele>173.14</ele>
        <time>2018-09-09T09:18:43.999Z</time>
      </trkpt>
      <trkpt lat="46.51621" lon="0.36699">
        <ele>173.69</ele>
        <time>2018-09-09T09:18:46.999Z</time>
      </trkpt>
      <trkpt lat="46.51628" lon="0.36688">
        <ele>175.28</ele>
        <time>2018-09-09T09:18:48.999Z</time>
      </trkpt>
      <trkpt lat="46.51634" lon="0.36679">
        <ele>176.86</ele>
        <time>2018-09-09T09:18:50.999Z</time>
      </trkpt>
      <trkpt lat="46.5164" lon="0.36669">
        <ele>177.94</ele>
        <time>2018-09-09T09:18:52.999Z</time>
      </trkpt>
      <trkpt lat="46.51648" lon="0.36656">
        <ele>178.34</ele>
        <time>2018-09-09T09:18:54.999Z</time>
      </trkpt>
      <trkpt lat="46.51656" lon="0.36644">
        <ele>177.59</ele>
        <time>2018-09-09T09:18:56.999Z</time>
      </trkpt>
      <trkpt lat="46.51664" lon="0.3663">
        <ele>176.87</ele>
        <time>2018-09-09T09:18:58.999Z</time>
      </trkpt>
      <trkpt lat="46.5167" lon="0.36619">
        <ele>176.12</ele>
        <time>2018-09-09T09:19:00.999Z</time>
      </trkpt>
      <trkpt lat="46.51677" lon="0.36606">
        <ele>175.65</ele>
        <time>2018-09-09T09:19:02.999Z</time>
      </trkpt>
      <trkpt lat="46.51685" lon="0.36594">
        <ele>175.05</ele>
        <time>2018-09-09T09:19:04.999Z</time>
      </trkpt>
      <trkpt lat="46.51693" lon="0.3658">
        <ele>174.15</ele>
        <time>2018-09-09T09:19:06.999Z</time>
      </trkpt>
      <trkpt lat="46.51702" lon="0.36565">
        <ele>174</ele>
        <time>2018-09-09T09:19:08.999Z</time>
      </trkpt>
      <trkpt lat="46.51709" lon="0.3655">
        <ele>174.11</ele>
        <time>2018-09-09T09:19:10.999Z</time>
      </trkpt>
      <trkpt lat="46.51715" lon="0.36539">
        <ele>174.24</ele>
        <time>2018-09-09T09:19:12.999Z</time>
      </trkpt>
      <trkpt lat="46.51725" lon="0.36524">
        <ele>174.51</ele>
        <time>2018-09-09T09:19:15.999Z</time>
      </trkpt>
      <trkpt lat="46.51732" lon="0.3651">
        <ele>174.77</ele>
        <time>2018-09-09T09:19:17.999Z</time>
      </trkpt>
      <trkpt lat="46.5174" lon="0.36496">
        <ele>174.77</ele>
        <time>2018-09-09T09:19:19.999Z</time>
      </trkpt>
      <trkpt lat="46.51747" lon="0.36485">
        <ele>174.69</ele>
        <time>2018-09-09T09:19:21.999Z</time>
      </trkpt>
      <trkpt lat="46.51754" lon="0.36473">
        <ele>174.93</ele>
        <time>2018-09-09T09:19:23.999Z</time>
      </trkpt>
      <trkpt lat="46.51762" lon="0.36462">
        <ele>175.69</ele>
        <time>2018-09-09T09:19:25.999Z</time>
      </trkpt>
      <trkpt lat="46.51768" lon="0.36451">
        <ele>176.77</ele>
        <time>2018-09-09T09:19:27.999Z</time>
      </trkpt>
      <trkpt lat="46.51774" lon="0.36439">
        <ele>177.47</ele>
        <time>2018-09-09T09:19:29.999Z</time>
      </trkpt>
      <trkpt lat="46.51782" lon="0.36426">
        <ele>177.74</ele>
        <time>2018-09-09T09:19:31.999Z</time>
      </trkpt>
      <trkpt lat="46.5179" lon="0.36412">
        <ele>177.77</ele>
        <time>2018-09-09T09:19:34.999Z</time>
      </trkpt>
      <trkpt lat="46.518" lon="0.36404">
        <ele>177.81</ele>
        <time>2018-09-09T09:19:37.999Z</time>
      </trkpt>
      <trkpt lat="46.5181" lon="0.36398">
        <ele>177.78</ele>
        <time>2018-09-09T09:19:39.999Z</time>
      </trkpt>
      <trkpt lat="46.5182" lon="0.36394">
        <ele>177.54</ele>
        <time>2018-09-09T09:19:41.999Z</time>
      </trkpt>
      <trkpt lat="46.5183" lon="0.36393">
        <ele>177.32</ele>
        <time>2018-09-09T09:19:43.999Z</time>
      </trkpt>
      <trkpt lat="46.51842" lon="0.36391">
        <ele>177.12</ele>
        <time>2018-09-09T09:19:45.999Z</time>
      </trkpt>
      <trkpt lat="46.51852" lon="0.36388">
        <ele>177.59</ele>
        <time>2018-09-09T09:19:47.999Z</time>
      </trkpt>
      <trkpt lat="46.5186" lon="0.36385">
        <ele>177.8</ele>
        <time>2018-09-09T09:19:49.999Z</time>
      </trkpt>
      <trkpt lat="46.51872" lon="0.3638">
        <ele>178.41</ele>
        <time>2018-09-09T09:19:52.999Z</time>
      </trkpt>
      <trkpt lat="46.51881" lon="0.36377">
        <ele>179.44</ele>
        <time>2018-09-09T09:19:54.999Z</time>
      </trkpt>
      <trkpt lat="46.51891" lon="0.36374">
        <ele>180.24</ele>
        <time>2018-09-09T09:19:56.999Z</time>
      </trkpt>
      <trkpt lat="46.519" lon="0.36372">
        <ele>180.46</ele>
        <time>2018-09-09T09:19:58.999Z</time>
      </trkpt>
      <trkpt lat="46.5191" lon="0.3637">
        <ele>180.43</ele>
        <time>2018-09-09T09:20:00.999Z</time>
      </trkpt>
      <trkpt lat="46.51923" lon="0.36366">
        <ele>180.9</ele>
        <time>2018-09-09T09:20:03.999Z</time>
      </trkpt>
      <trkpt lat="46.51933" lon="0.36364">
        <ele>180.9</ele>
        <time>2018-09-09T09:20:05.999Z</time>
      </trkpt>
      <trkpt lat="46.51947" lon="0.36362">
        <ele>180.46</ele>
        <time>2018-09-09T09:20:07.999Z</time>
      </trkpt>
      <trkpt lat="46.51958" lon="0.3636">
        <ele>179.59</ele>
        <time>2018-09-09T09:20:09.999Z</time>
      </trkpt>
      <trkpt lat="46.51967" lon="0.36356">
        <ele>178.42</ele>
        <time>2018-09-09T09:20:11.999Z</time>
      </trkpt>
      <trkpt lat="46.51976" lon="0.36351">
        <ele>177.98</ele>
        <time>2018-09-09T09:20:13.999Z</time>
      </trkpt>
      <trkpt lat="46.51986" lon="0.36347">
        <ele>176.71</ele>
        <time>2018-09-09T09:20:15.999Z</time>
      </trkpt>
      <trkpt lat="46.51996" lon="0.36342">
        <ele>175.63</ele>
        <time>2018-09-09T09:20:17.999Z</time>
      </trkpt>
      <trkpt lat="46.52009" lon="0.36334">
        <ele>175.42</ele>
        <time>2018-09-09T09:20:19.999Z</time>
      </trkpt>
      <trkpt lat="46.5202" lon="0.3633">
        <ele>174.83</ele>
        <time>2018-09-09T09:20:21.999Z</time>
      </trkpt>
      <trkpt lat="46.52034" lon="0.36323">
        <ele>174.7</ele>
        <time>2018-09-09T09:20:23.999Z</time>
      </trkpt>
      <trkpt lat="46.52049" lon="0.36315">
        <ele>174.15</ele>
        <time>2018-09-09T09:20:25.999Z</time>
      </trkpt>
      <trkpt lat="46.52062" lon="0.36306">
        <ele>172.78</ele>
        <time>2018-09-09T09:20:27.999Z</time>
      </trkpt>
      <trkpt lat="46.52074" lon="0.36301">
        <ele>171.22</ele>
        <time>2018-09-09T09:20:29.999Z</time>
      </trkpt>
      <trkpt lat="46.5209" lon="0.36294">
        <ele>169.78</ele>
        <time>2018-09-09T09:20:31.999Z</time>
      </trkpt>
      <trkpt lat="46.52104" lon="0.36287">
        <ele>169.14</ele>
        <time>2018-09-09T09:20:33.999Z</time>
      </trkpt>
      <trkpt lat="46.5211" lon="0.36302">
        <ele>168.13</ele>
        <time>2018-09-09T09:20:38.999Z</time>
      </trkpt>
      <trkpt lat="46.52113" lon="0.36316">
        <ele>167</ele>
        <time>2018-09-09T09:20:40.999Z</time>
      </trkpt>
      <trkpt lat="46.52116" lon="0.36334">
        <ele>166.12</ele>
        <time>2018-09-09T09:20:42.999Z</time>
      </trkpt>
      <trkpt lat="46.52119" lon="0.3635">
        <ele>165.65</ele>
        <time>2018-09-09T09:20:44.999Z</time>
      </trkpt>
      <trkpt lat="46.52121" lon="0.3637">
        <ele>165.28</ele>
        <time>2018-09-09T09:20:46.999Z</time>
      </trkpt>
      <trkpt lat="46.52123" lon="0.36388">
        <ele>164.53</ele>
        <time>2018-09-09T09:20:48.999Z</time>
      </trkpt>
      <trkpt lat="46.52127" lon="0.36409">
        <ele>163.75</ele>
        <time>2018-09-09T09:20:50.999Z</time>
      </trkpt>
      <trkpt lat="46.52131" lon="0.36434">
        <ele>163.25</ele>
        <time>2018-09-09T09:20:52.999Z</time>
      </trkpt>
      <trkpt lat="46.52134" lon="0.36458">
        <ele>162.43</ele>
        <time>2018-09-09T09:20:54.999Z</time>
      </trkpt>
      <trkpt lat="46.52136" lon="0.36478">
        <ele>162.17</ele>
        <time>2018-09-09T09:20:56.999Z</time>
      </trkpt>
      <trkpt lat="46.52139" lon="0.365">
        <ele>161.91</ele>
        <time>2018-09-09T09:20:58.999Z</time>
      </trkpt>
      <trkpt lat="46.52142" lon="0.3652">
        <ele>161.21</ele>
        <time>2018-09-09T09:21:00.999Z</time>
      </trkpt>
      <trkpt lat="46.52147" lon="0.36544">
        <ele>160.32</ele>
        <time>2018-09-09T09:21:02.999Z</time>
      </trkpt>
      <trkpt lat="46.52148" lon="0.36568">
        <ele>159.58</ele>
        <time>2018-09-09T09:21:04.999Z</time>
      </trkpt>
      <trkpt lat="46.52154" lon="0.36589">
        <ele>158.44</ele>
        <time>2018-09-09T09:21:06.999Z</time>
      </trkpt>
      <trkpt lat="46.52165" lon="0.36605">
        <ele>157.43</ele>
        <time>2018-09-09T09:21:08.999Z</time>
      </trkpt>
      <trkpt lat="46.52176" lon="0.36616">
        <ele>155.52</ele>
        <time>2018-09-09T09:21:10.999Z</time>
      </trkpt>
      <trkpt lat="46.52186" lon="0.36627">
        <ele>154.19</ele>
        <time>2018-09-09T09:21:12.999Z</time>
      </trkpt>
      <trkpt lat="46.52196" lon="0.3663">
        <ele>152.96</ele>
        <time>2018-09-09T09:21:14.999Z</time>
      </trkpt>
      <trkpt lat="46.52206" lon="0.36628">
        <ele>152.78</ele>
        <time>2018-09-09T09:21:17.999Z</time>
      </trkpt>
      <trkpt lat="46.52217" lon="0.36627">
        <ele>152.56</ele>
        <time>2018-09-09T09:21:20.999Z</time>
      </trkpt>
      <trkpt lat="46.52227" lon="0.36627">
        <ele>152.31</ele>
        <time>2018-09-09T09:21:25.999Z</time>
      </trkpt>
      <trkpt lat="46.52238" lon="0.36632">
        <ele>152.28</ele>
        <time>2018-09-09T09:21:29.999Z</time>
      </trkpt>
      <trkpt lat="46.52248" lon="0.36637">
        <ele>152.27</ele>
        <time>2018-09-09T09:21:32.999Z</time>
      </trkpt>
      <trkpt lat="46.52259" lon="0.36641">
        <ele>152.41</ele>
        <time>2018-09-09T09:21:36.999Z</time>
      </trkpt>
      <trkpt lat="46.52269" lon="0.36642">
        <ele>152.53</ele>
        <time>2018-09-09T09:21:39.999Z</time>
      </trkpt>
      <trkpt lat="46.52279" lon="0.36645">
        <ele>152.75</ele>
        <time>2018-09-09T09:21:42.999Z</time>
      </trkpt>
      <trkpt lat="46.52289" lon="0.36649">
        <ele>153.04</ele>
        <time>2018-09-09T09:21:45.999Z</time>
      </trkpt>
      <trkpt lat="46.52298" lon="0.36651">
        <ele>153.56</ele>
        <time>2018-09-09T09:21:50.999Z</time>
      </trkpt>
      <trkpt lat="46.52309" lon="0.36651">
        <ele>154.04</ele>
        <time>2018-09-09T09:21:56.999Z</time>
      </trkpt>
      <trkpt lat="46.52318" lon="0.36649">
        <ele>154.43</ele>
        <time>2018-09-09T09:22:02.999Z</time>
      </trkpt>
      <trkpt lat="46.52329" lon="0.36646">
        <ele>154.58</ele>
        <time>2018-09-09T09:22:07.999Z</time>
      </trkpt>
      <trkpt lat="46.52339" lon="0.36647">
        <ele>154.53</ele>
        <time>2018-09-09T09:22:12.999Z</time>
      </trkpt>
      <trkpt lat="46.52349" lon="0.36653">
        <ele>154.58</ele>
        <time>2018-09-09T09:22:16.999Z</time>
      </trkpt>
      <trkpt lat="46.52358" lon="0.36662">
        <ele>154.51</ele>
        <time>2018-09-09T09:22:20.999Z</time>
      </trkpt>
      <trkpt lat="46.52367" lon="0.36664">
        <ele>154.53</ele>
        <time>2018-09-09T09:22:24.999Z</time>
      </trkpt>
      <trkpt lat="46.52374" lon="0.36652">
        <ele>154.59</ele>
        <time>2018-09-09T09:22:29.999Z</time>
      </trkpt>
      <trkpt lat="46.5237" lon="0.36637">
        <ele>154.76</ele>
        <time>2018-09-09T09:22:33.999Z</time>
      </trkpt>
      <trkpt lat="46.52367" lon="0.3662">
        <ele>155.12</ele>
        <time>2018-09-09T09:22:37.999Z</time>
      </trkpt>
      <trkpt lat="46.52366" lon="0.36607">
        <ele>155.46</ele>
        <time>2018-09-09T09:22:40.999Z</time>
      </trkpt>
      <trkpt lat="46.52366" lon="0.36592">
        <ele>155.9</ele>
        <time>2018-09-09T09:22:43.999Z</time>
      </trkpt>
      <trkpt lat="46.52367" lon="0.36576">
        <ele>156.29</ele>
        <time>2018-09-09T09:22:46.999Z</time>
      </trkpt>
      <trkpt lat="46.52369" lon="0.36562">
        <ele>156.87</ele>
        <time>2018-09-09T09:22:50.999Z</time>
      </trkpt>
      <trkpt lat="46.5237" lon="0.36548">
        <ele>157.35</ele>
        <time>2018-09-09T09:22:53.999Z</time>
      </trkpt>
      <trkpt lat="46.52373" lon="0.36532">
        <ele>157.71</ele>
        <time>2018-09-09T09:22:56.999Z</time>
      </trkpt>
      <trkpt lat="46.52375" lon="0.36519">
        <ele>158.09</ele>
        <time>2018-09-09T09:22:59.999Z</time>
      </trkpt>
      <trkpt lat="46.52378" lon="0.36506">
        <ele>158.59</ele>
        <time>2018-09-09T09:23:02.999Z</time>
      </trkpt>
      <trkpt lat="46.52383" lon="0.3649">
        <ele>159.11</ele>
        <time>2018-09-09T09:23:05.999Z</time>
      </trkpt>
      <trkpt lat="46.52386" lon="0.36475">
        <ele>159.65</ele>
        <time>2018-09-09T09:23:08.999Z</time>
      </trkpt>
      <trkpt lat="46.52393" lon="0.36465">
        <ele>160.19</ele>
        <time>2018-09-09T09:23:12.999Z</time>
      </trkpt>
      <trkpt lat="46.524" lon="0.3645">
        <ele>162.81</ele>
        <time>2018-09-09T09:23:15.999Z</time>
      </trkpt>
      <trkpt lat="46.52404" lon="0.36438">
        <ele>163.5</ele>
        <time>2018-09-09T09:23:17.999Z</time>
      </trkpt>
      <trkpt lat="46.52407" lon="0.36425">
        <ele>163.87</ele>
        <time>2018-09-09T09:23:19.999Z</time>
      </trkpt>
      <trkpt lat="46.52409" lon="0.36411">
        <ele>163.86</ele>
        <time>2018-09-09T09:23:21.999Z</time>
      </trkpt>
      <trkpt lat="46.5241" lon="0.36397">
        <ele>163.53</ele>
        <time>2018-09-09T09:23:23.999Z</time>
      </trkpt>
      <trkpt lat="46.52408" lon="0.3638">
        <ele>163.55</ele>
        <time>2018-09-09T09:23:26.999Z</time>
      </trkpt>
      <trkpt lat="46.52406" lon="0.36365">
        <ele>163.58</ele>
        <time>2018-09-09T09:23:29.999Z</time>
      </trkpt>
      <trkpt lat="46.52406" lon="0.36346">
        <ele>163.57</ele>
        <time>2018-09-09T09:23:32.999Z</time>
      </trkpt>
      <trkpt lat="46.52403" lon="0.3633">
        <ele>164.37</ele>
        <time>2018-09-09T09:23:35.999Z</time>
      </trkpt>
      <trkpt lat="46.52398" lon="0.36316">
        <ele>165.06</ele>
        <time>2018-09-09T09:23:37.999Z</time>
      </trkpt>
      <trkpt lat="46.52396" lon="0.36301">
        <ele>165.04</ele>
        <time>2018-09-09T09:23:40.999Z</time>
      </trkpt>
      <trkpt lat="46.52396" lon="0.36286">
        <ele>164.89</ele>
        <time>2018-09-09T09:23:43.999Z</time>
      </trkpt>
      <trkpt lat="46.52398" lon="0.36267">
        <ele>163.36</ele>
        <time>2018-09-09T09:23:46.999Z</time>
      </trkpt>
      <trkpt lat="46.52399" lon="0.3625">
        <ele>162.31</ele>
        <time>2018-09-09T09:23:48.999Z</time>
      </trkpt>
      <trkpt lat="46.52403" lon="0.36236">
        <ele>161.09</ele>
        <time>2018-09-09T09:23:50.999Z</time>
      </trkpt>
      <trkpt lat="46.52406" lon="0.3622">
        <ele>159.75</ele>
        <time>2018-09-09T09:23:52.999Z</time>
      </trkpt>
      <trkpt lat="46.52409" lon="0.36199">
        <ele>158.94</ele>
        <time>2018-09-09T09:23:54.999Z</time>
      </trkpt>
      <trkpt lat="46.52412" lon="0.36182">
        <ele>158.62</ele>
        <time>2018-09-09T09:23:56.999Z</time>
      </trkpt>
      <trkpt lat="46.52414" lon="0.36164">
        <ele>158.74</ele>
        <time>2018-09-09T09:23:58.999Z</time>
      </trkpt>
      <trkpt lat="46.52416" lon="0.36149">
        <ele>158.56</ele>
        <time>2018-09-09T09:24:00.999Z</time>
      </trkpt>
      <trkpt lat="46.52418" lon="0.36133">
        <ele>158.17</ele>
        <time>2018-09-09T09:24:02.999Z</time>
      </trkpt>
      <trkpt lat="46.52422" lon="0.36118">
        <ele>157.26</ele>
        <time>2018-09-09T09:24:04.999Z</time>
      </trkpt>
      <trkpt lat="46.52428" lon="0.36104">
        <ele>156.8</ele>
        <time>2018-09-09T09:24:07.999Z</time>
      </trkpt>
      <trkpt lat="46.52434" lon="0.3609">
        <ele>156.86</ele>
        <time>2018-09-09T09:24:10.999Z</time>
      </trkpt>
      <trkpt lat="46.52438" lon="0.36077">
        <ele>156.92</ele>
        <time>2018-09-09T09:24:12.999Z</time>
      </trkpt>
      <trkpt lat="46.52442" lon="0.36064">
        <ele>157.12</ele>
        <time>2018-09-09T09:24:15.999Z</time>
      </trkpt>
      <trkpt lat="46.52444" lon="0.36051">
        <ele>157.52</ele>
        <time>2018-09-09T09:24:18.999Z</time>
      </trkpt>
      <trkpt lat="46.52447" lon="0.36038">
        <ele>158.15</ele>
        <time>2018-09-09T09:24:21.999Z</time>
      </trkpt>
      <trkpt lat="46.52451" lon="0.36024">
        <ele>159.08</ele>
        <time>2018-09-09T09:24:25.999Z</time>
      </trkpt>
      <trkpt lat="46.52459" lon="0.36008">
        <ele>160.25</ele>
        <time>2018-09-09T09:24:29.999Z</time>
      </trkpt>
      <trkpt lat="46.52462" lon="0.35995">
        <ele>161.3</ele>
        <time>2018-09-09T09:24:32.999Z</time>
      </trkpt>
      <trkpt lat="46.52467" lon="0.35984">
        <ele>162.02</ele>
        <time>2018-09-09T09:24:34.999Z</time>
      </trkpt>
      <trkpt lat="46.52472" lon="0.35967">
        <ele>163.04</ele>
        <time>2018-09-09T09:24:37.999Z</time>
      </trkpt>
      <trkpt lat="46.52479" lon="0.35953">
        <ele>164</ele>
        <time>2018-09-09T09:24:40.999Z</time>
      </trkpt>
      <trkpt lat="46.52485" lon="0.35941">
        <ele>165.04</ele>
        <time>2018-09-09T09:24:43.999Z</time>
      </trkpt>
      <trkpt lat="46.52493" lon="0.35925">
        <ele>165.99</ele>
        <time>2018-09-09T09:24:46.999Z</time>
      </trkpt>
      <trkpt lat="46.52499" lon="0.35912">
        <ele>168.54</ele>
        <time>2018-09-09T09:24:48.999Z</time>
      </trkpt>
      <trkpt lat="46.52502" lon="0.35899">
        <ele>172.16</ele>
        <time>2018-09-09T09:24:50.999Z</time>
      </trkpt>
      <trkpt lat="46.52508" lon="0.35886">
        <ele>173.85</ele>
        <time>2018-09-09T09:24:52.999Z</time>
      </trkpt>
      <trkpt lat="46.52513" lon="0.35874">
        <ele>174.15</ele>
        <time>2018-09-09T09:24:54.999Z</time>
      </trkpt>
      <trkpt lat="46.52519" lon="0.35859">
        <ele>173.21</ele>
        <time>2018-09-09T09:24:56.999Z</time>
      </trkpt>
      <trkpt lat="46.52527" lon="0.35843">
        <ele>171.6</ele>
        <time>2018-09-09T09:24:58.999Z</time>
      </trkpt>
      <trkpt lat="46.52534" lon="0.35822">
        <ele>169.71</ele>
        <time>2018-09-09T09:25:00.999Z</time>
      </trkpt>
      <trkpt lat="46.52537" lon="0.35802">
        <ele>168.78</ele>
        <time>2018-09-09T09:25:02.999Z</time>
      </trkpt>
      <trkpt lat="46.52538" lon="0.35782">
        <ele>168.34</ele>
        <time>2018-09-09T09:25:04.999Z</time>
      </trkpt>
      <trkpt lat="46.52537" lon="0.35758">
        <ele>167.02</ele>
        <time>2018-09-09T09:25:06.999Z</time>
      </trkpt>
      <trkpt lat="46.52536" lon="0.35745">
        <ele>166.67</ele>
        <time>2018-09-09T09:25:08.999Z</time>
      </trkpt>
      <trkpt lat="46.52549" lon="0.35741">
        <ele>166.24</ele>
        <time>2018-09-09T09:25:14.999Z</time>
      </trkpt>
      <trkpt lat="46.5256" lon="0.35744">
        <ele>166.42</ele>
        <time>2018-09-09T09:25:16.999Z</time>
      </trkpt>
      <trkpt lat="46.52574" lon="0.35749">
        <ele>166.6</ele>
        <time>2018-09-09T09:25:18.999Z</time>
      </trkpt>
      <trkpt lat="46.52588" lon="0.35755">
        <ele>166.35</ele>
        <time>2018-09-09T09:25:20.999Z</time>
      </trkpt>
      <trkpt lat="46.52602" lon="0.35762">
        <ele>166.28</ele>
        <time>2018-09-09T09:25:22.999Z</time>
      </trkpt>
      <trkpt lat="46.52615" lon="0.35769">
        <ele>165.88</ele>
        <time>2018-09-09T09:25:24.999Z</time>
      </trkpt>
      <trkpt lat="46.52625" lon="0.3578">
        <ele>165.54</ele>
        <time>2018-09-09T09:25:26.999Z</time>
      </trkpt>
      <trkpt lat="46.52635" lon="0.35793">
        <ele>164.49</ele>
        <time>2018-09-09T09:25:28.999Z</time>
      </trkpt>
      <trkpt lat="46.52646" lon="0.35807">
        <ele>163.28</ele>
        <time>2018-09-09T09:25:30.999Z</time>
      </trkpt>
      <trkpt lat="46.52656" lon="0.35821">
        <ele>162.07</ele>
        <time>2018-09-09T09:25:32.999Z</time>
      </trkpt>
      <trkpt lat="46.52665" lon="0.35834">
        <ele>161.25</ele>
        <time>2018-09-09T09:25:34.999Z</time>
      </trkpt>
      <trkpt lat="46.52674" lon="0.35848">
        <ele>160.44</ele>
        <time>2018-09-09T09:25:36.999Z</time>
      </trkpt>
      <trkpt lat="46.52683" lon="0.35866">
        <ele>159.58</ele>
        <time>2018-09-09T09:25:38.999Z</time>
      </trkpt>
      <trkpt lat="46.5269" lon="0.35883">
        <ele>159.42</ele>
        <time>2018-09-09T09:25:40.999Z</time>
      </trkpt>
      <trkpt lat="46.52697" lon="0.359">
        <ele>158.62</ele>
        <time>2018-09-09T09:25:42.999Z</time>
      </trkpt>
      <trkpt lat="46.52703" lon="0.35917">
        <ele>157.93</ele>
        <time>2018-09-09T09:25:44.999Z</time>
      </trkpt>
      <trkpt lat="46.52709" lon="0.35933">
        <ele>156.95</ele>
        <time>2018-09-09T09:25:46.999Z</time>
      </trkpt>
      <trkpt lat="46.52715" lon="0.35949">
        <ele>156.22</ele>
        <time>2018-09-09T09:25:48.999Z</time>
      </trkpt>
      <trkpt lat="46.52718" lon="0.35968">
        <ele>155.42</ele>
        <time>2018-09-09T09:25:50.999Z</time>
      </trkpt>
      <trkpt lat="46.52722" lon="0.35984">
        <ele>154.39</ele>
        <time>2018-09-09T09:25:52.999Z</time>
      </trkpt>
      <trkpt lat="46.52726" lon="0.36001">
        <ele>153.62</ele>
        <time>2018-09-09T09:25:54.999Z</time>
      </trkpt>
      <trkpt lat="46.5273" lon="0.36016">
        <ele>153.52</ele>
        <time>2018-09-09T09:25:56.999Z</time>
      </trkpt>
      <trkpt lat="46.52733" lon="0.36029">
        <ele>153.69</ele>
        <time>2018-09-09T09:25:58.999Z</time>
      </trkpt>
      <trkpt lat="46.52737" lon="0.36041">
        <ele>153.78</ele>
        <time>2018-09-09T09:26:00.999Z</time>
      </trkpt>
      <trkpt lat="46.52744" lon="0.36051">
        <ele>153.69</ele>
        <time>2018-09-09T09:26:02.999Z</time>
      </trkpt>
      <trkpt lat="46.52751" lon="0.36061">
        <ele>154.29</ele>
        <time>2018-09-09T09:26:04.999Z</time>
      </trkpt>
      <trkpt lat="46.52759" lon="0.36072">
        <ele>155.22</ele>
        <time>2018-09-09T09:26:06.999Z</time>
      </trkpt>
      <trkpt lat="46.52767" lon="0.36084">
        <ele>155.76</ele>
        <time>2018-09-09T09:26:08.999Z</time>
      </trkpt>
      <trkpt lat="46.52777" lon="0.36095">
        <ele>156.53</ele>
        <time>2018-09-09T09:26:10.999Z</time>
      </trkpt>
      <trkpt lat="46.52786" lon="0.36112">
        <ele>156.71</ele>
        <time>2018-09-09T09:26:12.999Z</time>
      </trkpt>
      <trkpt lat="46.52797" lon="0.36132">
        <ele>156.09</ele>
        <time>2018-09-09T09:26:14.999Z</time>
      </trkpt>
      <trkpt lat="46.52805" lon="0.36148">
        <ele>154.83</ele>
        <time>2018-09-09T09:26:16.999Z</time>
      </trkpt>
      <trkpt lat="46.5281" lon="0.36169">
        <ele>152.84</ele>
        <time>2018-09-09T09:26:18.999Z</time>
      </trkpt>
      <trkpt lat="46.52815" lon="0.36189">
        <ele>150.92</ele>
        <time>2018-09-09T09:26:20.999Z</time>
      </trkpt>
      <trkpt lat="46.52818" lon="0.36208">
        <ele>149.47</ele>
        <time>2018-09-09T09:26:22.999Z</time>
      </trkpt>
      <trkpt lat="46.52824" lon="0.36222">
        <ele>148.3</ele>
        <time>2018-09-09T09:26:24.999Z</time>
      </trkpt>
      <trkpt lat="46.52832" lon="0.36227">
        <ele>147.54</ele>
        <time>2018-09-09T09:26:26.999Z</time>
      </trkpt>
      <trkpt lat="46.52842" lon="0.36225">
        <ele>147.08</ele>
        <time>2018-09-09T09:26:28.999Z</time>
      </trkpt>
      <trkpt lat="46.52852" lon="0.36224">
        <ele>146.76</ele>
        <time>2018-09-09T09:26:30.999Z</time>
      </trkpt>
      <trkpt lat="46.52861" lon="0.36225">
        <ele>146.35</ele>
        <time>2018-09-09T09:26:32.999Z</time>
      </trkpt>
      <trkpt lat="46.52872" lon="0.36223">
        <ele>146.3</ele>
        <time>2018-09-09T09:26:35.999Z</time>
      </trkpt>
      <trkpt lat="46.52882" lon="0.3622">
        <ele>146.27</ele>
        <time>2018-09-09T09:26:41.999Z</time>
      </trkpt>
      <trkpt lat="46.52889" lon="0.3621">
        <ele>146.32</ele>
        <time>2018-09-09T09:26:46.999Z</time>
      </trkpt>
      <trkpt lat="46.52896" lon="0.36198">
        <ele>146.39</ele>
        <time>2018-09-09T09:26:52.999Z</time>
      </trkpt>
      <trkpt lat="46.52902" lon="0.36185">
        <ele>146.46</ele>
        <time>2018-09-09T09:26:57.999Z</time>
      </trkpt>
      <trkpt lat="46.52908" lon="0.36174">
        <ele>146.54</ele>
        <time>2018-09-09T09:27:01.999Z</time>
      </trkpt>
      <trkpt lat="46.52914" lon="0.36163">
        <ele>146.8</ele>
        <time>2018-09-09T09:27:05.999Z</time>
      </trkpt>
      <trkpt lat="46.52919" lon="0.36149">
        <ele>147.21</ele>
        <time>2018-09-09T09:27:10.999Z</time>
      </trkpt>
      <trkpt lat="46.52925" lon="0.36139">
        <ele>147.61</ele>
        <time>2018-09-09T09:27:14.999Z</time>
      </trkpt>
      <trkpt lat="46.52931" lon="0.36127">
        <ele>148.02</ele>
        <time>2018-09-09T09:27:19.999Z</time>
      </trkpt>
      <trkpt lat="46.52937" lon="0.36118">
        <ele>148.21</ele>
        <time>2018-09-09T09:27:23.999Z</time>
      </trkpt>
      <trkpt lat="46.52947" lon="0.3611">
        <ele>148.21</ele>
        <time>2018-09-09T09:27:27.999Z</time>
      </trkpt>
      <trkpt lat="46.52957" lon="0.36102">
        <ele>148.22</ele>
        <time>2018-09-09T09:27:32.999Z</time>
      </trkpt>
      <trkpt lat="46.52966" lon="0.36095">
        <ele>148.35</ele>
        <time>2018-09-09T09:27:36.999Z</time>
      </trkpt>
      <trkpt lat="46.52976" lon="0.3609">
        <ele>148.64</ele>
        <time>2018-09-09T09:27:41.999Z</time>
      </trkpt>
      <trkpt lat="46.52986" lon="0.36088">
        <ele>148.96</ele>
        <time>2018-09-09T09:27:45.999Z</time>
      </trkpt>
      <trkpt lat="46.52995" lon="0.3609">
        <ele>149.08</ele>
        <time>2018-09-09T09:27:48.999Z</time>
      </trkpt>
      <trkpt lat="46.53007" lon="0.36088">
        <ele>148.99</ele>
        <time>2018-09-09T09:27:52.999Z</time>
      </trkpt>
      <trkpt lat="46.53018" lon="0.36085">
        <ele>148.65</ele>
        <time>2018-09-09T09:27:56.999Z</time>
      </trkpt>
      <trkpt lat="46.53029" lon="0.36081">
        <ele>148.3</ele>
        <time>2018-09-09T09:27:59.999Z</time>
      </trkpt>
      <trkpt lat="46.53042" lon="0.36078">
        <ele>147.83</ele>
        <time>2018-09-09T09:28:03.999Z</time>
      </trkpt>
      <trkpt lat="46.53051" lon="0.36073">
        <ele>147.46</ele>
        <time>2018-09-09T09:28:06.999Z</time>
      </trkpt>
      <trkpt lat="46.5306" lon="0.36072">
        <ele>147.08</ele>
        <time>2018-09-09T09:28:09.999Z</time>
      </trkpt>
      <trkpt lat="46.5307" lon="0.36071">
        <ele>146.72</ele>
        <time>2018-09-09T09:28:12.999Z</time>
      </trkpt>
      <trkpt lat="46.53082" lon="0.36071">
        <ele>146.31</ele>
        <time>2018-09-09T09:28:16.999Z</time>
      </trkpt>
      <trkpt lat="46.5309" lon="0.36065">
        <ele>146.13</ele>
        <time>2018-09-09T09:28:19.999Z</time>
      </trkpt>
      <trkpt lat="46.53098" lon="0.36055">
        <ele>146.2</ele>
        <time>2018-09-09T09:28:22.999Z</time>
      </trkpt>
      <trkpt lat="46.53106" lon="0.36046">
        <ele>146.4</ele>
        <time>2018-09-09T09:28:25.999Z</time>
      </trkpt>
      <trkpt lat="46.53117" lon="0.36039">
        <ele>146.71</ele>
        <time>2018-09-09T09:28:28.999Z</time>
      </trkpt>
      <trkpt lat="46.53129" lon="0.36034">
        <ele>148.39</ele>
        <time>2018-09-09T09:28:31.999Z</time>
      </trkpt>
      <trkpt lat="46.53141" lon="0.36029">
        <ele>149.25</ele>
        <time>2018-09-09T09:28:34.999Z</time>
      </trkpt>
      <trkpt lat="46.53152" lon="0.3602">
        <ele>150.59</ele>
        <time>2018-09-09T09:28:37.999Z</time>
      </trkpt>
      <trkpt lat="46.53161" lon="0.36015">
        <ele>152.04</ele>
        <time>2018-09-09T09:28:39.999Z</time>
      </trkpt>
      <trkpt lat="46.53172" lon="0.36011">
        <ele>152.97</ele>
        <time>2018-09-09T09:28:41.999Z</time>
      </trkpt>
      <trkpt lat="46.53182" lon="0.36008">
        <ele>153</ele>
        <time>2018-09-09T09:28:45.999Z</time>
      </trkpt>
      <trkpt lat="46.53189" lon="0.36017">
        <ele>152.83</ele>
        <time>2018-09-09T09:28:50.999Z</time>
      </trkpt>
      <trkpt lat="46.53193" lon="0.3603">
        <ele>151.8</ele>
        <time>2018-09-09T09:28:53.999Z</time>
      </trkpt>
      <trkpt lat="46.53198" lon="0.36041">
        <ele>150.77</ele>
        <time>2018-09-09T09:28:55.999Z</time>
      </trkpt>
      <trkpt lat="46.53204" lon="0.36054">
        <ele>150.34</ele>
        <time>2018-09-09T09:28:57.999Z</time>
      </trkpt>
      <trkpt lat="46.53211" lon="0.36068">
        <ele>150.11</ele>
        <time>2018-09-09T09:28:59.999Z</time>
      </trkpt>
      <trkpt lat="46.53219" lon="0.36083">
        <ele>149.98</ele>
        <time>2018-09-09T09:29:01.999Z</time>
      </trkpt>
      <trkpt lat="46.53228" lon="0.36093">
        <ele>150.58</ele>
        <time>2018-09-09T09:29:03.999Z</time>
      </trkpt>
      <trkpt lat="46.53241" lon="0.36087">
        <ele>151.75</ele>
        <time>2018-09-09T09:29:06.999Z</time>
      </trkpt>
      <trkpt lat="46.53249" lon="0.36078">
        <ele>151.73</ele>
        <time>2018-09-09T09:29:08.999Z</time>
      </trkpt>
      <trkpt lat="46.53258" lon="0.36073">
        <ele>151.35</ele>
        <time>2018-09-09T09:29:10.999Z</time>
      </trkpt>
      <trkpt lat="46.5327" lon="0.36069">
        <ele>150.13</ele>
        <time>2018-09-09T09:29:13.999Z</time>
      </trkpt>
      <trkpt lat="46.5328" lon="0.36066">
        <ele>150.07</ele>
        <time>2018-09-09T09:29:16.999Z</time>
      </trkpt>
      <trkpt lat="46.5329" lon="0.36063">
        <ele>149.97</ele>
        <time>2018-09-09T09:29:20.999Z</time>
      </trkpt>
      <trkpt lat="46.53301" lon="0.36061">
        <ele>149.86</ele>
        <time>2018-09-09T09:29:25.999Z</time>
      </trkpt>
      <trkpt lat="46.53311" lon="0.36058">
        <ele>149.93</ele>
        <time>2018-09-09T09:29:30.999Z</time>
      </trkpt>
      <trkpt lat="46.5332" lon="0.36055">
        <ele>150.24</ele>
        <time>2018-09-09T09:29:35.999Z</time>
      </trkpt>
      <trkpt lat="46.5333" lon="0.36053">
        <ele>151.01</ele>
        <time>2018-09-09T09:29:42.999Z</time>
      </trkpt>
      <trkpt lat="46.53339" lon="0.36057">
        <ele>151.69</ele>
        <time>2018-09-09T09:29:47.999Z</time>
      </trkpt>
      <trkpt lat="46.53349" lon="0.36061">
        <ele>153.57</ele>
        <time>2018-09-09T09:29:54.999Z</time>
      </trkpt>
      <trkpt lat="46.53359" lon="0.36064">
        <ele>154.84</ele>
        <time>2018-09-09T09:29:59.999Z</time>
      </trkpt>
      <trkpt lat="46.53368" lon="0.36067">
        <ele>155.77</ele>
        <time>2018-09-09T09:30:03.999Z</time>
      </trkpt>
      <trkpt lat="46.53377" lon="0.36072">
        <ele>156.6</ele>
        <time>2018-09-09T09:30:08.999Z</time>
      </trkpt>
      <trkpt lat="46.53386" lon="0.36078">
        <ele>157.51</ele>
        <time>2018-09-09T09:30:13.999Z</time>
      </trkpt>
      <trkpt lat="46.53395" lon="0.36085">
        <ele>158.1</ele>
        <time>2018-09-09T09:30:18.999Z</time>
      </trkpt>
      <trkpt lat="46.53404" lon="0.36092">
        <ele>158.63</ele>
        <time>2018-09-09T09:30:23.999Z</time>
      </trkpt>
      <trkpt lat="46.53412" lon="0.361">
        <ele>158.88</ele>
        <time>2018-09-09T09:30:26.999Z</time>
      </trkpt>
      <trkpt lat="46.53419" lon="0.36108">
        <ele>159.34</ele>
        <time>2018-09-09T09:30:30.999Z</time>
      </trkpt>
      <trkpt lat="46.53428" lon="0.36113">
        <ele>159.8</ele>
        <time>2018-09-09T09:30:33.999Z</time>
      </trkpt>
      <trkpt lat="46.53437" lon="0.36119">
        <ele>160.19</ele>
        <time>2018-09-09T09:30:36.999Z</time>
      </trkpt>
      <trkpt lat="46.53447" lon="0.36127">
        <ele>160.44</ele>
        <time>2018-09-09T09:30:39.999Z</time>
      </trkpt>
      <trkpt lat="46.53457" lon="0.36136">
        <ele>160.62</ele>
        <time>2018-09-09T09:30:42.999Z</time>
      </trkpt>
      <trkpt lat="46.53465" lon="0.36143">
        <ele>160.74</ele>
        <time>2018-09-09T09:30:45.999Z</time>
      </trkpt>
      <trkpt lat="46.53474" lon="0.36153">
        <ele>161.02</ele>
        <time>2018-09-09T09:30:48.999Z</time>
      </trkpt>
      <trkpt lat="46.53482" lon="0.36165">
        <ele>161.14</ele>
        <time>2018-09-09T09:30:51.999Z</time>
      </trkpt>
      <trkpt lat="46.53493" lon="0.36172">
        <ele>161.29</ele>
        <time>2018-09-09T09:30:54.999Z</time>
      </trkpt>
      <trkpt lat="46.53503" lon="0.36177">
        <ele>161.45</ele>
        <time>2018-09-09T09:30:56.999Z</time>
      </trkpt>
      <trkpt lat="46.53514" lon="0.3618">
        <ele>160.85</ele>
        <time>2018-09-09T09:30:58.999Z</time>
      </trkpt>
      <trkpt lat="46.53524" lon="0.36181">
        <ele>159.94</ele>
        <time>2018-09-09T09:31:00.999Z</time>
      </trkpt>
      <trkpt lat="46.53534" lon="0.3618">
        <ele>159.78</ele>
        <time>2018-09-09T09:31:02.999Z</time>
      </trkpt>
      <trkpt lat="46.53544" lon="0.3618">
        <ele>159.4</ele>
        <time>2018-09-09T09:31:05.999Z</time>
      </trkpt>
      <trkpt lat="46.53555" lon="0.36183">
        <ele>156.26</ele>
        <time>2018-09-09T09:31:08.999Z</time>
      </trkpt>
      <trkpt lat="46.53566" lon="0.36191">
        <ele>154.92</ele>
        <time>2018-09-09T09:31:11.999Z</time>
      </trkpt>
      <trkpt lat="46.53577" lon="0.362">
        <ele>154.76</ele>
        <time>2018-09-09T09:31:14.999Z</time>
      </trkpt>
      <trkpt lat="46.53587" lon="0.36205">
        <ele>154.84</ele>
        <time>2018-09-09T09:31:16.999Z</time>
      </trkpt>
      <trkpt lat="46.53597" lon="0.36212">
        <ele>155.01</ele>
        <time>2018-09-09T09:31:18.999Z</time>
      </trkpt>
      <trkpt lat="46.53606" lon="0.36223">
        <ele>155.32</ele>
        <time>2018-09-09T09:31:20.999Z</time>
      </trkpt>
      <trkpt lat="46.53613" lon="0.3624">
        <ele>155.37</ele>
        <time>2018-09-09T09:31:22.999Z</time>
      </trkpt>
      <trkpt lat="46.53621" lon="0.36254">
        <ele>155.44</ele>
        <time>2018-09-09T09:31:24.999Z</time>
      </trkpt>
      <trkpt lat="46.5363" lon="0.36266">
        <ele>155.71</ele>
        <time>2018-09-09T09:31:26.999Z</time>
      </trkpt>
      <trkpt lat="46.53639" lon="0.36278">
        <ele>156.38</ele>
        <time>2018-09-09T09:31:28.999Z</time>
      </trkpt>
      <trkpt lat="46.5365" lon="0.36289">
        <ele>157.06</ele>
        <time>2018-09-09T09:31:30.999Z</time>
      </trkpt>
      <trkpt lat="46.53659" lon="0.36299">
        <ele>157.43</ele>
        <time>2018-09-09T09:31:32.999Z</time>
      </trkpt>
      <trkpt lat="46.53666" lon="0.36308">
        <ele>158.05</ele>
        <time>2018-09-09T09:31:34.999Z</time>
      </trkpt>
      <trkpt lat="46.53676" lon="0.3632">
        <ele>159.61</ele>
        <time>2018-09-09T09:31:37.999Z</time>
      </trkpt>
      <trkpt lat="46.53684" lon="0.36328">
        <ele>162.05</ele>
        <time>2018-09-09T09:31:39.999Z</time>
      </trkpt>
      <trkpt lat="46.53696" lon="0.36338">
        <ele>163.72</ele>
        <time>2018-09-09T09:31:41.999Z</time>
      </trkpt>
      <trkpt lat="46.53706" lon="0.36346">
        <ele>164.51</ele>
        <time>2018-09-09T09:31:43.999Z</time>
      </trkpt>
      <trkpt lat="46.53716" lon="0.36354">
        <ele>165.19</ele>
        <time>2018-09-09T09:31:45.999Z</time>
      </trkpt>
      <trkpt lat="46.53725" lon="0.36364">
        <ele>164.87</ele>
        <time>2018-09-09T09:31:47.999Z</time>
      </trkpt>
      <trkpt lat="46.53733" lon="0.36373">
        <ele>164.29</ele>
        <time>2018-09-09T09:31:49.999Z</time>
      </trkpt>
      <trkpt lat="46.53742" lon="0.36379">
        <ele>163.97</ele>
        <time>2018-09-09T09:31:51.999Z</time>
      </trkpt>
      <trkpt lat="46.53753" lon="0.36387">
        <ele>163.29</ele>
        <time>2018-09-09T09:31:53.999Z</time>
      </trkpt>
      <trkpt lat="46.53762" lon="0.36395">
        <ele>162.99</ele>
        <time>2018-09-09T09:31:55.999Z</time>
      </trkpt>
      <trkpt lat="46.53772" lon="0.36406">
        <ele>163.37</ele>
        <time>2018-09-09T09:31:58.999Z</time>
      </trkpt>
      <trkpt lat="46.53781" lon="0.36416">
        <ele>163.46</ele>
        <time>2018-09-09T09:32:00.999Z</time>
      </trkpt>
      <trkpt lat="46.53793" lon="0.36427">
        <ele>163.82</ele>
        <time>2018-09-09T09:32:03.999Z</time>
      </trkpt>
      <trkpt lat="46.53802" lon="0.36436">
        <ele>163.94</ele>
        <time>2018-09-09T09:32:05.999Z</time>
      </trkpt>
      <trkpt lat="46.53811" lon="0.36444">
        <ele>164.85</ele>
        <time>2018-09-09T09:32:07.999Z</time>
      </trkpt>
      <trkpt lat="46.53819" lon="0.36451">
        <ele>164.94</ele>
        <time>2018-09-09T09:32:09.999Z</time>
      </trkpt>
      <trkpt lat="46.53829" lon="0.36455">
        <ele>164.96</ele>
        <time>2018-09-09T09:32:12.999Z</time>
      </trkpt>
      <trkpt lat="46.53838" lon="0.36452">
        <ele>164.78</ele>
        <time>2018-09-09T09:32:15.999Z</time>
      </trkpt>
      <trkpt lat="46.53843" lon="0.36435">
        <ele>163.92</ele>
        <time>2018-09-09T09:32:19.999Z</time>
      </trkpt>
      <trkpt lat="46.53841" lon="0.36416">
        <ele>162.88</ele>
        <time>2018-09-09T09:32:22.999Z</time>
      </trkpt>
      <trkpt lat="46.5384" lon="0.36401">
        <ele>162.89</ele>
        <time>2018-09-09T09:32:24.999Z</time>
      </trkpt>
      <trkpt lat="46.53837" lon="0.36383">
        <ele>163.53</ele>
        <time>2018-09-09T09:32:27.999Z</time>
      </trkpt>
      <trkpt lat="46.53836" lon="0.36369">
        <ele>163.68</ele>
        <time>2018-09-09T09:32:30.999Z</time>
      </trkpt>
      <trkpt lat="46.53834" lon="0.36355">
        <ele>163.93</ele>
        <time>2018-09-09T09:32:33.999Z</time>
      </trkpt>
      <trkpt lat="46.53832" lon="0.36339">
        <ele>164.32</ele>
        <time>2018-09-09T09:32:36.999Z</time>
      </trkpt>
      <trkpt lat="46.5383" lon="0.36321">
        <ele>166.9</ele>
        <time>2018-09-09T09:32:39.999Z</time>
      </trkpt>
      <trkpt lat="46.53829" lon="0.36303">
        <ele>167.88</ele>
        <time>2018-09-09T09:32:42.999Z</time>
      </trkpt>
      <trkpt lat="46.5383" lon="0.36284">
        <ele>168.44</ele>
        <time>2018-09-09T09:32:45.999Z</time>
      </trkpt>
      <trkpt lat="46.53832" lon="0.36266">
        <ele>168.64</ele>
        <time>2018-09-09T09:32:48.999Z</time>
      </trkpt>
      <trkpt lat="46.53837" lon="0.36251">
        <ele>168.91</ele>
        <time>2018-09-09T09:32:51.999Z</time>
      </trkpt>
      <trkpt lat="46.53842" lon="0.36239">
        <ele>168.68</ele>
        <time>2018-09-09T09:32:53.999Z</time>
      </trkpt>
      <trkpt lat="46.5385" lon="0.36225">
        <ele>168.26</ele>
        <time>2018-09-09T09:32:56.999Z</time>
      </trkpt>
      <trkpt lat="46.53857" lon="0.36214">
        <ele>167.63</ele>
        <time>2018-09-09T09:32:58.999Z</time>
      </trkpt>
      <trkpt lat="46.53864" lon="0.36202">
        <ele>167.02</ele>
        <time>2018-09-09T09:33:00.999Z</time>
      </trkpt>
      <trkpt lat="46.53871" lon="0.36191">
        <ele>166.47</ele>
        <time>2018-09-09T09:33:02.999Z</time>
      </trkpt>
      <trkpt lat="46.53877" lon="0.36179">
        <ele>165.99</ele>
        <time>2018-09-09T09:33:04.999Z</time>
      </trkpt>
      <trkpt lat="46.53884" lon="0.36168">
        <ele>165.82</ele>
        <time>2018-09-09T09:33:06.999Z</time>
      </trkpt>
      <trkpt lat="46.53891" lon="0.36158">
        <ele>165.78</ele>
        <time>2018-09-09T09:33:08.999Z</time>
      </trkpt>
      <trkpt lat="46.53899" lon="0.36147">
        <ele>165.68</ele>
        <time>2018-09-09T09:33:10.999Z</time>
      </trkpt>
      <trkpt lat="46.53906" lon="0.36136">
        <ele>165.64</ele>
        <time>2018-09-09T09:33:12.999Z</time>
      </trkpt>
      <trkpt lat="46.53914" lon="0.36125">
        <ele>166.13</ele>
        <time>2018-09-09T09:33:14.999Z</time>
      </trkpt>
      <trkpt lat="46.53922" lon="0.36114">
        <ele>167.08</ele>
        <time>2018-09-09T09:33:16.999Z</time>
      </trkpt>
      <trkpt lat="46.5393" lon="0.36102">
        <ele>167.83</ele>
        <time>2018-09-09T09:33:18.999Z</time>
      </trkpt>
      <trkpt lat="46.53938" lon="0.36093">
        <ele>168.02</ele>
        <time>2018-09-09T09:33:20.999Z</time>
      </trkpt>
      <trkpt lat="46.53947" lon="0.36082">
        <ele>168.07</ele>
        <time>2018-09-09T09:33:22.999Z</time>
      </trkpt>
      <trkpt lat="46.53957" lon="0.36073">
        <ele>167.69</ele>
        <time>2018-09-09T09:33:24.999Z</time>
      </trkpt>
      <trkpt lat="46.53967" lon="0.36063">
        <ele>167.06</ele>
        <time>2018-09-09T09:33:26.999Z</time>
      </trkpt>
      <trkpt lat="46.53976" lon="0.36052">
        <ele>166.16</ele>
        <time>2018-09-09T09:33:28.999Z</time>
      </trkpt>
      <trkpt lat="46.53985" lon="0.36036">
        <ele>165.15</ele>
        <time>2018-09-09T09:33:30.999Z</time>
      </trkpt>
      <trkpt lat="46.53991" lon="0.36017">
        <ele>164.27</ele>
        <time>2018-09-09T09:33:32.999Z</time>
      </trkpt>
      <trkpt lat="46.53994" lon="0.35995">
        <ele>163.37</ele>
        <time>2018-09-09T09:33:34.999Z</time>
      </trkpt>
      <trkpt lat="46.53995" lon="0.35972">
        <ele>162.47</ele>
        <time>2018-09-09T09:33:36.999Z</time>
      </trkpt>
      <trkpt lat="46.53996" lon="0.35949">
        <ele>161.99</ele>
        <time>2018-09-09T09:33:38.999Z</time>
      </trkpt>
      <trkpt lat="46.53997" lon="0.35927">
        <ele>161.56</ele>
        <time>2018-09-09T09:33:40.999Z</time>
      </trkpt>
      <trkpt lat="46.53998" lon="0.35908">
        <ele>161.27</ele>
        <time>2018-09-09T09:33:42.999Z</time>
      </trkpt>
      <trkpt lat="46.53999" lon="0.35891">
        <ele>161.2</ele>
        <time>2018-09-09T09:33:44.999Z</time>
      </trkpt>
      <trkpt lat="46.54" lon="0.35876">
        <ele>161.15</ele>
        <time>2018-09-09T09:33:46.999Z</time>
      </trkpt>
      <trkpt lat="46.54001" lon="0.35862">
        <ele>161.42</ele>
        <time>2018-09-09T09:33:48.999Z</time>
      </trkpt>
      <trkpt lat="46.54001" lon="0.35849">
        <ele>161.82</ele>
        <time>2018-09-09T09:33:50.999Z</time>
      </trkpt>
      <trkpt lat="46.54002" lon="0.35832">
        <ele>162.33</ele>
        <time>2018-09-09T09:33:53.999Z</time>
      </trkpt>
      <trkpt lat="46.54003" lon="0.35815">
        <ele>162.72</ele>
        <time>2018-09-09T09:33:56.999Z</time>
      </trkpt>
      <trkpt lat="46.54004" lon="0.35798">
        <ele>163.31</ele>
        <time>2018-09-09T09:33:59.999Z</time>
      </trkpt>
      <trkpt lat="46.54007" lon="0.35781">
        <ele>164.27</ele>
        <time>2018-09-09T09:34:02.999Z</time>
      </trkpt>
      <trkpt lat="46.54009" lon="0.35762">
        <ele>165.32</ele>
        <time>2018-09-09T09:34:05.999Z</time>
      </trkpt>
      <trkpt lat="46.54012" lon="0.35749">
        <ele>165.98</ele>
        <time>2018-09-09T09:34:07.999Z</time>
      </trkpt>
      <trkpt lat="46.54016" lon="0.35731">
        <ele>166.82</ele>
        <time>2018-09-09T09:34:10.999Z</time>
      </trkpt>
      <trkpt lat="46.54018" lon="0.35718">
        <ele>167.26</ele>
        <time>2018-09-09T09:34:12.999Z</time>
      </trkpt>
      <trkpt lat="46.5402" lon="0.35705">
        <ele>167.73</ele>
        <time>2018-09-09T09:34:14.999Z</time>
      </trkpt>
      <trkpt lat="46.54023" lon="0.35691">
        <ele>168</ele>
        <time>2018-09-09T09:34:16.999Z</time>
      </trkpt>
      <trkpt lat="46.54027" lon="0.35677">
        <ele>168.08</ele>
        <time>2018-09-09T09:34:18.999Z</time>
      </trkpt>
      <trkpt lat="46.54031" lon="0.35664">
        <ele>167.96</ele>
        <time>2018-09-09T09:34:20.999Z</time>
      </trkpt>
      <trkpt lat="46.54037" lon="0.35649">
        <ele>167.41</ele>
        <time>2018-09-09T09:34:22.999Z</time>
      </trkpt>
      <trkpt lat="46.54042" lon="0.35638">
        <ele>167.06</ele>
        <time>2018-09-09T09:34:24.999Z</time>
      </trkpt>
      <trkpt lat="46.54048" lon="0.35626">
        <ele>166.89</ele>
        <time>2018-09-09T09:34:26.999Z</time>
      </trkpt>
      <trkpt lat="46.54053" lon="0.35614">
        <ele>166.81</ele>
        <time>2018-09-09T09:34:28.999Z</time>
      </trkpt>
      <trkpt lat="46.54059" lon="0.35601">
        <ele>166.93</ele>
        <time>2018-09-09T09:34:30.999Z</time>
      </trkpt>
      <trkpt lat="46.54065" lon="0.35588">
        <ele>166.99</ele>
        <time>2018-09-09T09:34:32.999Z</time>
      </trkpt>
      <trkpt lat="46.54071" lon="0.35574">
        <ele>167.24</ele>
        <time>2018-09-09T09:34:34.999Z</time>
      </trkpt>
      <trkpt lat="46.54078" lon="0.35559">
        <ele>167.62</ele>
        <time>2018-09-09T09:34:36.999Z</time>
      </trkpt>
      <trkpt lat="46.54084" lon="0.35544">
        <ele>168.03</ele>
        <time>2018-09-09T09:34:38.999Z</time>
      </trkpt>
      <trkpt lat="46.54087" lon="0.35531">
        <ele>168.4</ele>
        <time>2018-09-09T09:34:40.999Z</time>
      </trkpt>
      <trkpt lat="46.54092" lon="0.35519">
        <ele>168.72</ele>
        <time>2018-09-09T09:34:42.999Z</time>
      </trkpt>
      <trkpt lat="46.54096" lon="0.35507">
        <ele>169.66</ele>
        <time>2018-09-09T09:34:44.999Z</time>
      </trkpt>
      <trkpt lat="46.54102" lon="0.35488">
        <ele>170.86</ele>
        <time>2018-09-09T09:34:47.999Z</time>
      </trkpt>
      <trkpt lat="46.54104" lon="0.35475">
        <ele>170.96</ele>
        <time>2018-09-09T09:34:49.999Z</time>
      </trkpt>
      <trkpt lat="46.54104" lon="0.35457">
        <ele>171.46</ele>
        <time>2018-09-09T09:34:52.999Z</time>
      </trkpt>
      <trkpt lat="46.54108" lon="0.35444">
        <ele>171.63</ele>
        <time>2018-09-09T09:34:54.999Z</time>
      </trkpt>
      <trkpt lat="46.54118" lon="0.35432">
        <ele>171.44</ele>
        <time>2018-09-09T09:34:56.999Z</time>
      </trkpt>
      <trkpt lat="46.54129" lon="0.35419">
        <ele>170.8</ele>
        <time>2018-09-09T09:34:58.999Z</time>
      </trkpt>
      <trkpt lat="46.54137" lon="0.35409">
        <ele>169.92</ele>
        <time>2018-09-09T09:35:00.999Z</time>
      </trkpt>
      <trkpt lat="46.54147" lon="0.35399">
        <ele>169.4</ele>
        <time>2018-09-09T09:35:02.999Z</time>
      </trkpt>
      <trkpt lat="46.54155" lon="0.3539">
        <ele>169.37</ele>
        <time>2018-09-09T09:35:04.999Z</time>
      </trkpt>
      <trkpt lat="46.54164" lon="0.35383">
        <ele>169.08</ele>
        <time>2018-09-09T09:35:06.999Z</time>
      </trkpt>
      <trkpt lat="46.54175" lon="0.35379">
        <ele>168.38</ele>
        <time>2018-09-09T09:35:08.999Z</time>
      </trkpt>
      <trkpt lat="46.54188" lon="0.35375">
        <ele>167.25</ele>
        <time>2018-09-09T09:35:10.999Z</time>
      </trkpt>
      <trkpt lat="46.54199" lon="0.35372">
        <ele>166.17</ele>
        <time>2018-09-09T09:35:12.999Z</time>
      </trkpt>
      <trkpt lat="46.54212" lon="0.3537">
        <ele>165.31</ele>
        <time>2018-09-09T09:35:14.999Z</time>
      </trkpt>
      <trkpt lat="46.54225" lon="0.35369">
        <ele>164.32</ele>
        <time>2018-09-09T09:35:16.999Z</time>
      </trkpt>
      <trkpt lat="46.54236" lon="0.3537">
        <ele>163.6</ele>
        <time>2018-09-09T09:35:18.999Z</time>
      </trkpt>
      <trkpt lat="46.54247" lon="0.35374">
        <ele>163.38</ele>
        <time>2018-09-09T09:35:20.999Z</time>
      </trkpt>
      <trkpt lat="46.54256" lon="0.35375">
        <ele>164.13</ele>
        <time>2018-09-09T09:35:22.999Z</time>
      </trkpt>
      <trkpt lat="46.54267" lon="0.35377">
        <ele>164.88</ele>
        <time>2018-09-09T09:35:24.999Z</time>
      </trkpt>
      <trkpt lat="46.54277" lon="0.35379">
        <ele>165.89</ele>
        <time>2018-09-09T09:35:26.999Z</time>
      </trkpt>
      <trkpt lat="46.54287" lon="0.35381">
        <ele>166.83</ele>
        <time>2018-09-09T09:35:28.999Z</time>
      </trkpt>
      <trkpt lat="46.54298" lon="0.35382">
        <ele>167.32</ele>
        <time>2018-09-09T09:35:30.999Z</time>
      </trkpt>
      <trkpt lat="46.54309" lon="0.35385">
        <ele>167.57</ele>
        <time>2018-09-09T09:35:32.999Z</time>
      </trkpt>
      <trkpt lat="46.54318" lon="0.35388">
        <ele>167.9</ele>
        <time>2018-09-09T09:35:34.999Z</time>
      </trkpt>
      <trkpt lat="46.54331" lon="0.3539">
        <ele>168</ele>
        <time>2018-09-09T09:35:36.999Z</time>
      </trkpt>
      <trkpt lat="46.5434" lon="0.35391">
        <ele>167.98</ele>
        <time>2018-09-09T09:35:38.999Z</time>
      </trkpt>
      <trkpt lat="46.54344" lon="0.35405">
        <ele>168.06</ele>
        <time>2018-09-09T09:35:43.999Z</time>
      </trkpt>
      <trkpt lat="46.5435" lon="0.35415">
        <ele>168.72</ele>
        <time>2018-09-09T09:35:49.999Z</time>
      </trkpt>
      <trkpt lat="46.54362" lon="0.3542">
        <ele>169.19</ele>
        <time>2018-09-09T09:35:54.999Z</time>
      </trkpt>
      <trkpt lat="46.54373" lon="0.35426">
        <ele>169.42</ele>
        <time>2018-09-09T09:35:57.999Z</time>
      </trkpt>
      <trkpt lat="46.54384" lon="0.35432">
        <ele>169.74</ele>
        <time>2018-09-09T09:36:00.999Z</time>
      </trkpt>
      <trkpt lat="46.54387" lon="0.35447">
        <ele>170.57</ele>
        <time>2018-09-09T09:36:05.999Z</time>
      </trkpt>
      <trkpt lat="46.54396" lon="0.35452">
        <ele>171.01</ele>
        <time>2018-09-09T09:36:09.999Z</time>
      </trkpt>
      <trkpt lat="46.54408" lon="0.35454">
        <ele>171.32</ele>
        <time>2018-09-09T09:36:11.999Z</time>
      </trkpt>
      <trkpt lat="46.54419" lon="0.35459">
        <ele>171.64</ele>
        <time>2018-09-09T09:36:13.999Z</time>
      </trkpt>
      <trkpt lat="46.5443" lon="0.35468">
        <ele>172.1</ele>
        <time>2018-09-09T09:36:16.999Z</time>
      </trkpt>
      <trkpt lat="46.54442" lon="0.35467">
        <ele>174.01</ele>
        <time>2018-09-09T09:36:18.999Z</time>
      </trkpt>
      <trkpt lat="46.54451" lon="0.35458">
        <ele>174.11</ele>
        <time>2018-09-09T09:36:21.999Z</time>
      </trkpt>
      <trkpt lat="46.54455" lon="0.35446">
        <ele>174.08</ele>
        <time>2018-09-09T09:36:24.999Z</time>
      </trkpt>
      <trkpt lat="46.54466" lon="0.35451">
        <ele>173.93</ele>
        <time>2018-09-09T09:36:29.999Z</time>
      </trkpt>
      <trkpt lat="46.54474" lon="0.35461">
        <ele>174.08</ele>
        <time>2018-09-09T09:36:31.999Z</time>
      </trkpt>
      <trkpt lat="46.54484" lon="0.35471">
        <ele>174.76</ele>
        <time>2018-09-09T09:36:33.999Z</time>
      </trkpt>
      <trkpt lat="46.5449" lon="0.35482">
        <ele>175.43</ele>
        <time>2018-09-09T09:36:35.999Z</time>
      </trkpt>
      <trkpt lat="46.54501" lon="0.35487">
        <ele>175.6</ele>
        <time>2018-09-09T09:36:39.999Z</time>
      </trkpt>
      <trkpt lat="46.54507" lon="0.35476">
        <ele>175.77</ele>
        <time>2018-09-09T09:36:45.999Z</time>
      </trkpt>
      <trkpt lat="46.54507" lon="0.35459">
        <ele>175.8</ele>
        <time>2018-09-09T09:36:51.999Z</time>
      </trkpt>
      <trkpt lat="46.5451" lon="0.35447">
        <ele>175.55</ele>
        <time>2018-09-09T09:36:56.999Z</time>
      </trkpt>
      <trkpt lat="46.54514" lon="0.35432">
        <ele>175.43</ele>
        <time>2018-09-09T09:37:00.999Z</time>
      </trkpt>
      <trkpt lat="46.54524" lon="0.35434">
        <ele>175.47</ele>
        <time>2018-09-09T09:37:05.999Z</time>
      </trkpt>
      <trkpt lat="46.54531" lon="0.35445">
        <ele>175.52</ele>
        <time>2018-09-09T09:37:11.999Z</time>
      </trkpt>
      <trkpt lat="46.5454" lon="0.35443">
        <ele>175.1</ele>
        <time>2018-09-09T09:37:22.999Z</time>
      </trkpt>
      <trkpt lat="46.54551" lon="0.35448">
        <ele>174.69</ele>
        <time>2018-09-09T09:37:27.999Z</time>
      </trkpt>
      <trkpt lat="46.54559" lon="0.35454">
        <ele>173.92</ele>
        <time>2018-09-09T09:37:34.999Z</time>
      </trkpt>
      <trkpt lat="46.54564" lon="0.35466">
        <ele>172.84</ele>
        <time>2018-09-09T09:37:45.999Z</time>
      </trkpt>
      <trkpt lat="46.54572" lon="0.35479">
        <ele>172.49</ele>
        <time>2018-09-09T09:37:48.999Z</time>
      </trkpt>
      <trkpt lat="46.54581" lon="0.35488">
        <ele>172.13</ele>
        <time>2018-09-09T09:37:50.999Z</time>
      </trkpt>
      <trkpt lat="46.5459" lon="0.35492">
        <ele>171.75</ele>
        <time>2018-09-09T09:37:52.999Z</time>
      </trkpt>
      <trkpt lat="46.54599" lon="0.35498">
        <ele>171.45</ele>
        <time>2018-09-09T09:37:54.999Z</time>
      </trkpt>
      <trkpt lat="46.54609" lon="0.35494">
        <ele>170.73</ele>
        <time>2018-09-09T09:38:00.999Z</time>
      </trkpt>
      <trkpt lat="46.54621" lon="0.355">
        <ele>169.37</ele>
        <time>2018-09-09T09:38:10.999Z</time>
      </trkpt>
      <trkpt lat="46.54633" lon="0.35502">
        <ele>169.26</ele>
        <time>2018-09-09T09:38:12.999Z</time>
      </trkpt>
      <trkpt lat="46.54644" lon="0.35505">
        <ele>169.13</ele>
        <time>2018-09-09T09:38:14.999Z</time>
      </trkpt>
      <trkpt lat="46.54654" lon="0.35513">
        <ele>168.86</ele>
        <time>2018-09-09T09:38:17.999Z</time>
      </trkpt>
      <trkpt lat="46.54665" lon="0.35517">
        <ele>168.26</ele>
        <time>2018-09-09T09:38:21.999Z</time>
      </trkpt>
      <trkpt lat="46.54676" lon="0.35518">
        <ele>167.76</ele>
        <time>2018-09-09T09:38:24.999Z</time>
      </trkpt>
      <trkpt lat="46.54687" lon="0.3552">
        <ele>167.23</ele>
        <time>2018-09-09T09:38:27.999Z</time>
      </trkpt>
      <trkpt lat="46.54694" lon="0.35533">
        <ele>166.17</ele>
        <time>2018-09-09T09:38:31.999Z</time>
      </trkpt>
      <trkpt lat="46.54707" lon="0.3554">
        <ele>162.52</ele>
        <time>2018-09-09T09:38:34.999Z</time>
      </trkpt>
      <trkpt lat="46.54717" lon="0.35544">
        <ele>161.85</ele>
        <time>2018-09-09T09:38:37.999Z</time>
      </trkpt>
      <trkpt lat="46.54728" lon="0.35554">
        <ele>160.67</ele>
        <time>2018-09-09T09:38:41.999Z</time>
      </trkpt>
      <trkpt lat="46.54731" lon="0.35568">
        <ele>156.01</ele>
        <time>2018-09-09T09:38:53.999Z</time>
      </trkpt>
      <trkpt lat="46.54728" lon="0.35581">
        <ele>155.1</ele>
        <time>2018-09-09T09:38:56.999Z</time>
      </trkpt>
      <trkpt lat="46.54727" lon="0.35595">
        <ele>153.39</ele>
        <time>2018-09-09T09:39:02.999Z</time>
      </trkpt>
      <trkpt lat="46.54723" lon="0.35609">
        <ele>150.99</ele>
        <time>2018-09-09T09:39:11.999Z</time>
      </trkpt>
      <trkpt lat="46.54723" lon="0.35625">
        <ele>150.58</ele>
        <time>2018-09-09T09:39:19.999Z</time>
      </trkpt>
      <trkpt lat="46.54729" lon="0.35639">
        <ele>150.33</ele>
        <time>2018-09-09T09:39:25.999Z</time>
      </trkpt>
      <trkpt lat="46.54729" lon="0.35652">
        <ele>149.92</ele>
        <time>2018-09-09T09:39:30.999Z</time>
      </trkpt>
      <trkpt lat="46.54732" lon="0.35665">
        <ele>149.97</ele>
        <time>2018-09-09T09:39:39.999Z</time>
      </trkpt>
      <trkpt lat="46.54732" lon="0.35679">
        <ele>150.15</ele>
        <time>2018-09-09T09:39:49.999Z</time>
      </trkpt>
      <trkpt lat="46.54726" lon="0.35688">
        <ele>151.4</ele>
        <time>2018-09-09T09:40:05.999Z</time>
      </trkpt>
      <trkpt lat="46.54718" lon="0.35694">
        <ele>152.25</ele>
        <time>2018-09-09T09:40:20.999Z</time>
      </trkpt>
      <trkpt lat="46.54711" lon="0.35705">
        <ele>153.2</ele>
        <time>2018-09-09T09:40:27.999Z</time>
      </trkpt>
      <trkpt lat="46.54702" lon="0.3571">
        <ele>154.13</ele>
        <time>2018-09-09T09:40:33.999Z</time>
      </trkpt>
      <trkpt lat="46.54693" lon="0.35714">
        <ele>156.07</ele>
        <time>2018-09-09T09:40:42.999Z</time>
      </trkpt>
      <trkpt lat="46.54691" lon="0.35727">
        <ele>158.08</ele>
        <time>2018-09-09T09:40:54.999Z</time>
      </trkpt>
      <trkpt lat="46.54692" lon="0.35742">
        <ele>158.43</ele>
        <time>2018-09-09T09:41:03.999Z</time>
      </trkpt>
      <trkpt lat="46.54694" lon="0.35756">
        <ele>157.86</ele>
        <time>2018-09-09T09:41:16.999Z</time>
      </trkpt>
      <trkpt lat="46.54701" lon="0.35769">
        <ele>157.86</ele>
        <time>2018-09-09T09:41:20.999Z</time>
      </trkpt>
      <trkpt lat="46.54706" lon="0.35784">
        <ele>157.91</ele>
        <time>2018-09-09T09:41:25.999Z</time>
      </trkpt>
      <trkpt lat="46.54709" lon="0.358">
        <ele>157.95</ele>
        <time>2018-09-09T09:41:30.999Z</time>
      </trkpt>
      <trkpt lat="46.5471" lon="0.35814">
        <ele>158</ele>
        <time>2018-09-09T09:41:33.999Z</time>
      </trkpt>
      <trkpt lat="46.54715" lon="0.35832">
        <ele>158.02</ele>
        <time>2018-09-09T09:41:36.999Z</time>
      </trkpt>
      <trkpt lat="46.54719" lon="0.35848">
        <ele>157.71</ele>
        <time>2018-09-09T09:41:38.999Z</time>
      </trkpt>
      <trkpt lat="46.54726" lon="0.35865">
        <ele>157.28</ele>
        <time>2018-09-09T09:41:40.999Z</time>
      </trkpt>
      <trkpt lat="46.5473" lon="0.35878">
        <ele>155.91</ele>
        <time>2018-09-09T09:41:42.999Z</time>
      </trkpt>
      <trkpt lat="46.54734" lon="0.35892">
        <ele>154.53</ele>
        <time>2018-09-09T09:41:44.999Z</time>
      </trkpt>
      <trkpt lat="46.54737" lon="0.35907">
        <ele>153.89</ele>
        <time>2018-09-09T09:41:46.999Z</time>
      </trkpt>
      <trkpt lat="46.54742" lon="0.35925">
        <ele>152.59</ele>
        <time>2018-09-09T09:41:49.999Z</time>
      </trkpt>
      <trkpt lat="46.54749" lon="0.35937">
        <ele>151.47</ele>
        <time>2018-09-09T09:41:51.999Z</time>
      </trkpt>
      <trkpt lat="46.54757" lon="0.35948">
        <ele>150.26</ele>
        <time>2018-09-09T09:41:53.999Z</time>
      </trkpt>
      <trkpt lat="46.54763" lon="0.35961">
        <ele>149.3</ele>
        <time>2018-09-09T09:41:55.999Z</time>
      </trkpt>
      <trkpt lat="46.5477" lon="0.35975">
        <ele>148.76</ele>
        <time>2018-09-09T09:41:58.999Z</time>
      </trkpt>
      <trkpt lat="46.54776" lon="0.3599">
        <ele>149.23</ele>
        <time>2018-09-09T09:42:01.999Z</time>
      </trkpt>
      <trkpt lat="46.54781" lon="0.36003">
        <ele>150.27</ele>
        <time>2018-09-09T09:42:03.999Z</time>
      </trkpt>
      <trkpt lat="46.54786" lon="0.36017">
        <ele>150.37</ele>
        <time>2018-09-09T09:42:06.999Z</time>
      </trkpt>
      <trkpt lat="46.54794" lon="0.36033">
        <ele>150.58</ele>
        <time>2018-09-09T09:42:09.999Z</time>
      </trkpt>
      <trkpt lat="46.54802" lon="0.36047">
        <ele>152.18</ele>
        <time>2018-09-09T09:42:12.999Z</time>
      </trkpt>
      <trkpt lat="46.54809" lon="0.3606">
        <ele>152.55</ele>
        <time>2018-09-09T09:42:15.999Z</time>
      </trkpt>
      <trkpt lat="46.54819" lon="0.36072">
        <ele>153.93</ele>
        <time>2018-09-09T09:42:18.999Z</time>
      </trkpt>
      <trkpt lat="46.54828" lon="0.3608">
        <ele>155.64</ele>
        <time>2018-09-09T09:42:20.999Z</time>
      </trkpt>
      <trkpt lat="46.54837" lon="0.36092">
        <ele>155.74</ele>
        <time>2018-09-09T09:42:22.999Z</time>
      </trkpt>
      <trkpt lat="46.54845" lon="0.36101">
        <ele>155.82</ele>
        <time>2018-09-09T09:42:24.999Z</time>
      </trkpt>
      <trkpt lat="46.54856" lon="0.36114">
        <ele>156.33</ele>
        <time>2018-09-09T09:42:27.999Z</time>
      </trkpt>
      <trkpt lat="46.54864" lon="0.36124">
        <ele>156.19</ele>
        <time>2018-09-09T09:42:29.999Z</time>
      </trkpt>
      <trkpt lat="46.54872" lon="0.36136">
        <ele>156.18</ele>
        <time>2018-09-09T09:42:31.999Z</time>
      </trkpt>
      <trkpt lat="46.54882" lon="0.3615">
        <ele>155.58</ele>
        <time>2018-09-09T09:42:33.999Z</time>
      </trkpt>
      <trkpt lat="46.5489" lon="0.36158">
        <ele>154.55</ele>
        <time>2018-09-09T09:42:35.999Z</time>
      </trkpt>
      <trkpt lat="46.54899" lon="0.36168">
        <ele>152.87</ele>
        <time>2018-09-09T09:42:37.999Z</time>
      </trkpt>
      <trkpt lat="46.5491" lon="0.36175">
        <ele>150.83</ele>
        <time>2018-09-09T09:42:39.999Z</time>
      </trkpt>
      <trkpt lat="46.54921" lon="0.36184">
        <ele>149.03</ele>
        <time>2018-09-09T09:42:41.999Z</time>
      </trkpt>
      <trkpt lat="46.54931" lon="0.36197">
        <ele>147.83</ele>
        <time>2018-09-09T09:42:43.999Z</time>
      </trkpt>
      <trkpt lat="46.54942" lon="0.36212">
        <ele>146.7</ele>
        <time>2018-09-09T09:42:45.999Z</time>
      </trkpt>
      <trkpt lat="46.54953" lon="0.36223">
        <ele>145.29</ele>
        <time>2018-09-09T09:42:47.999Z</time>
      </trkpt>
      <trkpt lat="46.54968" lon="0.36231">
        <ele>143.93</ele>
        <time>2018-09-09T09:42:49.999Z</time>
      </trkpt>
      <trkpt lat="46.54979" lon="0.36238">
        <ele>142.89</ele>
        <time>2018-09-09T09:42:51.999Z</time>
      </trkpt>
      <trkpt lat="46.5499" lon="0.36249">
        <ele>142.1</ele>
        <time>2018-09-09T09:42:54.999Z</time>
      </trkpt>
      <trkpt lat="46.54999" lon="0.36263">
        <ele>141.92</ele>
        <time>2018-09-09T09:42:57.999Z</time>
      </trkpt>
      <trkpt lat="46.5501" lon="0.36274">
        <ele>141.33</ele>
        <time>2018-09-09T09:42:59.999Z</time>
      </trkpt>
      <trkpt lat="46.55022" lon="0.36285">
        <ele>140.86</ele>
        <time>2018-09-09T09:43:01.999Z</time>
      </trkpt>
      <trkpt lat="46.55032" lon="0.36295">
        <ele>140.17</ele>
        <time>2018-09-09T09:43:03.999Z</time>
      </trkpt>
      <trkpt lat="46.55042" lon="0.36301">
        <ele>139.99</ele>
        <time>2018-09-09T09:43:05.999Z</time>
      </trkpt>
      <trkpt lat="46.5505" lon="0.3631">
        <ele>140.04</ele>
        <time>2018-09-09T09:43:09.999Z</time>
      </trkpt>
      <trkpt lat="46.55049" lon="0.36326">
        <ele>139.89</ele>
        <time>2018-09-09T09:43:14.999Z</time>
      </trkpt>
      <trkpt lat="46.55044" lon="0.36342">
        <ele>139.59</ele>
        <time>2018-09-09T09:43:19.999Z</time>
      </trkpt>
      <trkpt lat="46.5504" lon="0.36356">
        <ele>139.29</ele>
        <time>2018-09-09T09:43:22.999Z</time>
      </trkpt>
      <trkpt lat="46.55037" lon="0.36369">
        <ele>139.21</ele>
        <time>2018-09-09T09:43:24.999Z</time>
      </trkpt>
      <trkpt lat="46.55033" lon="0.36382">
        <ele>139.51</ele>
        <time>2018-09-09T09:43:28.999Z</time>
      </trkpt>
      <trkpt lat="46.55036" lon="0.36399">
        <ele>140.09</ele>
        <time>2018-09-09T09:43:32.999Z</time>
      </trkpt>
      <trkpt lat="46.55036" lon="0.36413">
        <ele>140.51</ele>
        <time>2018-09-09T09:43:35.999Z</time>
      </trkpt>
      <trkpt lat="46.55035" lon="0.36429">
        <ele>140.89</ele>
        <time>2018-09-09T09:43:39.999Z</time>
      </trkpt>
      <trkpt lat="46.55036" lon="0.36445">
        <ele>141.1</ele>
        <time>2018-09-09T09:43:43.999Z</time>
      </trkpt>
      <trkpt lat="46.55036" lon="0.36459">
        <ele>141.24</ele>
        <time>2018-09-09T09:43:47.999Z</time>
      </trkpt>
      <trkpt lat="46.55039" lon="0.36474">
        <ele>141.6</ele>
        <time>2018-09-09T09:43:51.999Z</time>
      </trkpt>
      <trkpt lat="46.55042" lon="0.36487">
        <ele>142.31</ele>
        <time>2018-09-09T09:43:55.999Z</time>
      </trkpt>
      <trkpt lat="46.55049" lon="0.36497">
        <ele>143.14</ele>
        <time>2018-09-09T09:43:59.999Z</time>
      </trkpt>
      <trkpt lat="46.55056" lon="0.36508">
        <ele>143.87</ele>
        <time>2018-09-09T09:44:03.999Z</time>
      </trkpt>
      <trkpt lat="46.55064" lon="0.36515">
        <ele>144.35</ele>
        <time>2018-09-09T09:44:06.999Z</time>
      </trkpt>
      <trkpt lat="46.55074" lon="0.36524">
        <ele>144.78</ele>
        <time>2018-09-09T09:44:09.999Z</time>
      </trkpt>
      <trkpt lat="46.5508" lon="0.36533">
        <ele>145.15</ele>
        <time>2018-09-09T09:44:12.999Z</time>
      </trkpt>
      <trkpt lat="46.5509" lon="0.36543">
        <ele>145.68</ele>
        <time>2018-09-09T09:44:17.999Z</time>
      </trkpt>
      <trkpt lat="46.55097" lon="0.36551">
        <ele>146.18</ele>
        <time>2018-09-09T09:44:21.999Z</time>
      </trkpt>
      <trkpt lat="46.55105" lon="0.36564">
        <ele>146.76</ele>
        <time>2018-09-09T09:44:25.999Z</time>
      </trkpt>
      <trkpt lat="46.55111" lon="0.36576">
        <ele>147.25</ele>
        <time>2018-09-09T09:44:29.999Z</time>
      </trkpt>
      <trkpt lat="46.55116" lon="0.3659">
        <ele>147.86</ele>
        <time>2018-09-09T09:44:34.999Z</time>
      </trkpt>
      <trkpt lat="46.5512" lon="0.36602">
        <ele>148.47</ele>
        <time>2018-09-09T09:44:39.999Z</time>
      </trkpt>
      <trkpt lat="46.55124" lon="0.36614">
        <ele>149.18</ele>
        <time>2018-09-09T09:44:45.999Z</time>
      </trkpt>
      <trkpt lat="46.55114" lon="0.36619">
        <ele>150.04</ele>
        <time>2018-09-09T09:45:06.999Z</time>
      </trkpt>
      <trkpt lat="46.55106" lon="0.36613">
        <ele>150.17</ele>
        <time>2018-09-09T09:45:10.999Z</time>
      </trkpt>
      <trkpt lat="46.55097" lon="0.36608">
        <ele>150.29</ele>
        <time>2018-09-09T09:45:13.999Z</time>
      </trkpt>
      <trkpt lat="46.55088" lon="0.36602">
        <ele>150.33</ele>
        <time>2018-09-09T09:45:16.999Z</time>
      </trkpt>
      <trkpt lat="46.55078" lon="0.36596">
        <ele>150.42</ele>
        <time>2018-09-09T09:45:19.999Z</time>
      </trkpt>
      <trkpt lat="46.55067" lon="0.36591">
        <ele>150.71</ele>
        <time>2018-09-09T09:45:23.999Z</time>
      </trkpt>
      <trkpt lat="46.55058" lon="0.36588">
        <ele>151.04</ele>
        <time>2018-09-09T09:45:26.999Z</time>
      </trkpt>
      <trkpt lat="46.55048" lon="0.36582">
        <ele>151.53</ele>
        <time>2018-09-09T09:45:30.999Z</time>
      </trkpt>
      <trkpt lat="46.55036" lon="0.36574">
        <ele>152.15</ele>
        <time>2018-09-09T09:45:35.999Z</time>
      </trkpt>
      <trkpt lat="46.55026" lon="0.36569">
        <ele>152.45</ele>
        <time>2018-09-09T09:45:38.999Z</time>
      </trkpt>
      <trkpt lat="46.55017" lon="0.36563">
        <ele>152.85</ele>
        <time>2018-09-09T09:45:42.999Z</time>
      </trkpt>
      <trkpt lat="46.55007" lon="0.36559">
        <ele>153.45</ele>
        <time>2018-09-09T09:45:47.999Z</time>
      </trkpt>
      <trkpt lat="46.55001" lon="0.36549">
        <ele>154.25</ele>
        <time>2018-09-09T09:45:53.999Z</time>
      </trkpt>
      <trkpt lat="46.54994" lon="0.36538">
        <ele>155.38</ele>
        <time>2018-09-09T09:46:00.999Z</time>
      </trkpt>
      <trkpt lat="46.54985" lon="0.3653">
        <ele>157.11</ele>
        <time>2018-09-09T09:46:08.999Z</time>
      </trkpt>
      <trkpt lat="46.54977" lon="0.36523">
        <ele>158.37</ele>
        <time>2018-09-09T09:46:14.999Z</time>
      </trkpt>
      <trkpt lat="46.54969" lon="0.36515">
        <ele>159.31</ele>
        <time>2018-09-09T09:46:19.999Z</time>
      </trkpt>
      <trkpt lat="46.54961" lon="0.36507">
        <ele>159.98</ele>
        <time>2018-09-09T09:46:24.999Z</time>
      </trkpt>
      <trkpt lat="46.54952" lon="0.36501">
        <ele>160.67</ele>
        <time>2018-09-09T09:46:31.999Z</time>
      </trkpt>
      <trkpt lat="46.54944" lon="0.36492">
        <ele>161.37</ele>
        <time>2018-09-09T09:46:37.999Z</time>
      </trkpt>
      <trkpt lat="46.54934" lon="0.36487">
        <ele>161.96</ele>
        <time>2018-09-09T09:46:42.999Z</time>
      </trkpt>
      <trkpt lat="46.54926" lon="0.36481">
        <ele>163.44</ele>
        <time>2018-09-09T09:46:51.999Z</time>
      </trkpt>
      <trkpt lat="46.54917" lon="0.36476">
        <ele>165.14</ele>
        <time>2018-09-09T09:46:58.999Z</time>
      </trkpt>
      <trkpt lat="46.54907" lon="0.36474">
        <ele>166.56</ele>
        <time>2018-09-09T09:47:03.999Z</time>
      </trkpt>
      <trkpt lat="46.54896" lon="0.36473">
        <ele>167.79</ele>
        <time>2018-09-09T09:47:10.999Z</time>
      </trkpt>
      <trkpt lat="46.54886" lon="0.3647">
        <ele>168.08</ele>
        <time>2018-09-09T09:47:13.999Z</time>
      </trkpt>
      <trkpt lat="46.54875" lon="0.36468">
        <ele>168.34</ele>
        <time>2018-09-09T09:47:18.999Z</time>
      </trkpt>
      <trkpt lat="46.54866" lon="0.36464">
        <ele>168.6</ele>
        <time>2018-09-09T09:47:23.999Z</time>
      </trkpt>
      <trkpt lat="46.54855" lon="0.36467">
        <ele>168.87</ele>
        <time>2018-09-09T09:47:27.999Z</time>
      </trkpt>
      <trkpt lat="46.54844" lon="0.3647">
        <ele>169.36</ele>
        <time>2018-09-09T09:47:32.999Z</time>
      </trkpt>
      <trkpt lat="46.54835" lon="0.36476">
        <ele>169.67</ele>
        <time>2018-09-09T09:47:36.999Z</time>
      </trkpt>
      <trkpt lat="46.54823" lon="0.36478">
        <ele>170.02</ele>
        <time>2018-09-09T09:47:40.999Z</time>
      </trkpt>
      <trkpt lat="46.54814" lon="0.36481">
        <ele>170.12</ele>
        <time>2018-09-09T09:47:43.999Z</time>
      </trkpt>
      <trkpt lat="46.54805" lon="0.36483">
        <ele>170.1</ele>
        <time>2018-09-09T09:47:46.999Z</time>
      </trkpt>
      <trkpt lat="46.54796" lon="0.36492">
        <ele>170.21</ele>
        <time>2018-09-09T09:47:51.999Z</time>
      </trkpt>
      <trkpt lat="46.54794" lon="0.36505">
        <ele>170.84</ele>
        <time>2018-09-09T09:47:55.999Z</time>
      </trkpt>
      <trkpt lat="46.5479" lon="0.36518">
        <ele>171.74</ele>
        <time>2018-09-09T09:47:59.999Z</time>
      </trkpt>
      <trkpt lat="46.54789" lon="0.36533">
        <ele>172.86</ele>
        <time>2018-09-09T09:48:03.999Z</time>
      </trkpt>
      <trkpt lat="46.54787" lon="0.36547">
        <ele>173.53</ele>
        <time>2018-09-09T09:48:06.999Z</time>
      </trkpt>
      <trkpt lat="46.54781" lon="0.3656">
        <ele>174.3</ele>
        <time>2018-09-09T09:48:10.999Z</time>
      </trkpt>
      <trkpt lat="46.54772" lon="0.36561">
        <ele>174.63</ele>
        <time>2018-09-09T09:48:12.999Z</time>
      </trkpt>
      <trkpt lat="46.54761" lon="0.36568">
        <ele>174.93</ele>
        <time>2018-09-09T09:48:15.999Z</time>
      </trkpt>
      <trkpt lat="46.54756" lon="0.36579">
        <ele>175.95</ele>
        <time>2018-09-09T09:48:17.999Z</time>
      </trkpt>
      <trkpt lat="46.54751" lon="0.3659">
        <ele>176.83</ele>
        <time>2018-09-09T09:48:19.999Z</time>
      </trkpt>
      <trkpt lat="46.54746" lon="0.36602">
        <ele>178</ele>
        <time>2018-09-09T09:48:21.999Z</time>
      </trkpt>
      <trkpt lat="46.54739" lon="0.36618">
        <ele>179.18</ele>
        <time>2018-09-09T09:48:24.999Z</time>
      </trkpt>
      <trkpt lat="46.54731" lon="0.36633">
        <ele>180.73</ele>
        <time>2018-09-09T09:48:27.999Z</time>
      </trkpt>
      <trkpt lat="46.54725" lon="0.36644">
        <ele>181.3</ele>
        <time>2018-09-09T09:48:29.999Z</time>
      </trkpt>
      <trkpt lat="46.5472" lon="0.36657">
        <ele>181.5</ele>
        <time>2018-09-09T09:48:31.999Z</time>
      </trkpt>
      <trkpt lat="46.54715" lon="0.36674">
        <ele>181.8</ele>
        <time>2018-09-09T09:48:34.999Z</time>
      </trkpt>
      <trkpt lat="46.54711" lon="0.36689">
        <ele>180.87</ele>
        <time>2018-09-09T09:48:36.999Z</time>
      </trkpt>
      <trkpt lat="46.54707" lon="0.36705">
        <ele>180.13</ele>
        <time>2018-09-09T09:48:38.999Z</time>
      </trkpt>
      <trkpt lat="46.54702" lon="0.3672">
        <ele>179</ele>
        <time>2018-09-09T09:48:40.999Z</time>
      </trkpt>
      <trkpt lat="46.54697" lon="0.36734">
        <ele>178</ele>
        <time>2018-09-09T09:48:42.999Z</time>
      </trkpt>
      <trkpt lat="46.54693" lon="0.3675">
        <ele>177.26</ele>
        <time>2018-09-09T09:48:44.999Z</time>
      </trkpt>
      <trkpt lat="46.54685" lon="0.36767">
        <ele>176.17</ele>
        <time>2018-09-09T09:48:46.999Z</time>
      </trkpt>
      <trkpt lat="46.54674" lon="0.36777">
        <ele>174.79</ele>
        <time>2018-09-09T09:48:48.999Z</time>
      </trkpt>
      <trkpt lat="46.54661" lon="0.36783">
        <ele>174.06</ele>
        <time>2018-09-09T09:48:50.999Z</time>
      </trkpt>
      <trkpt lat="46.54651" lon="0.36788">
        <ele>173.72</ele>
        <time>2018-09-09T09:48:52.999Z</time>
      </trkpt>
      <trkpt lat="46.54639" lon="0.36792">
        <ele>173.47</ele>
        <time>2018-09-09T09:48:54.999Z</time>
      </trkpt>
      <trkpt lat="46.54628" lon="0.36797">
        <ele>173.26</ele>
        <time>2018-09-09T09:48:56.999Z</time>
      </trkpt>
      <trkpt lat="46.54619" lon="0.36802">
        <ele>173.17</ele>
        <time>2018-09-09T09:48:58.999Z</time>
      </trkpt>
      <trkpt lat="46.54609" lon="0.36806">
        <ele>173.13</ele>
        <time>2018-09-09T09:49:00.999Z</time>
      </trkpt>
      <trkpt lat="46.54599" lon="0.36809">
        <ele>173.23</ele>
        <time>2018-09-09T09:49:02.999Z</time>
      </trkpt>
      <trkpt lat="46.54588" lon="0.36814">
        <ele>173.59</ele>
        <time>2018-09-09T09:49:05.999Z</time>
      </trkpt>
      <trkpt lat="46.54576" lon="0.3682">
        <ele>174.19</ele>
        <time>2018-09-09T09:49:08.999Z</time>
      </trkpt>
      <trkpt lat="46.54564" lon="0.36826">
        <ele>174.68</ele>
        <time>2018-09-09T09:49:11.999Z</time>
      </trkpt>
      <trkpt lat="46.54552" lon="0.36831">
        <ele>175.01</ele>
        <time>2018-09-09T09:49:14.999Z</time>
      </trkpt>
      <trkpt lat="46.54541" lon="0.36835">
        <ele>175.32</ele>
        <time>2018-09-09T09:49:17.999Z</time>
      </trkpt>
      <trkpt lat="46.5453" lon="0.36839">
        <ele>176.19</ele>
        <time>2018-09-09T09:49:20.999Z</time>
      </trkpt>
      <trkpt lat="46.54519" lon="0.36843">
        <ele>176.61</ele>
        <time>2018-09-09T09:49:23.999Z</time>
      </trkpt>
      <trkpt lat="46.54507" lon="0.36848">
        <ele>176.43</ele>
        <time>2018-09-09T09:49:26.999Z</time>
      </trkpt>
      <trkpt lat="46.54495" lon="0.36853">
        <ele>176.6</ele>
        <time>2018-09-09T09:49:29.999Z</time>
      </trkpt>
      <trkpt lat="46.54485" lon="0.36858">
        <ele>176.82</ele>
        <time>2018-09-09T09:49:32.999Z</time>
      </trkpt>
      <trkpt lat="46.54475" lon="0.36862">
        <ele>178.61</ele>
        <time>2018-09-09T09:49:35.999Z</time>
      </trkpt>
      <trkpt lat="46.54467" lon="0.36865">
        <ele>179.87</ele>
        <time>2018-09-09T09:49:37.999Z</time>
      </trkpt>
      <trkpt lat="46.54456" lon="0.36871">
        <ele>179.9</ele>
        <time>2018-09-09T09:49:40.999Z</time>
      </trkpt>
      <trkpt lat="46.54443" lon="0.36876">
        <ele>179.63</ele>
        <time>2018-09-09T09:49:43.999Z</time>
      </trkpt>
      <trkpt lat="46.5443" lon="0.3688">
        <ele>180.15</ele>
        <time>2018-09-09T09:49:46.999Z</time>
      </trkpt>
      <trkpt lat="46.54419" lon="0.36885">
        <ele>180.7</ele>
        <time>2018-09-09T09:49:49.999Z</time>
      </trkpt>
      <trkpt lat="46.54406" lon="0.36891">
        <ele>180.22</ele>
        <time>2018-09-09T09:49:52.999Z</time>
      </trkpt>
      <trkpt lat="46.54392" lon="0.36892">
        <ele>179.13</ele>
        <time>2018-09-09T09:49:55.999Z</time>
      </trkpt>
      <trkpt lat="46.54382" lon="0.36892">
        <ele>179.11</ele>
        <time>2018-09-09T09:49:57.999Z</time>
      </trkpt>
      <trkpt lat="46.54374" lon="0.3689">
        <ele>179.03</ele>
        <time>2018-09-09T09:49:59.999Z</time>
      </trkpt>
      <trkpt lat="46.54363" lon="0.3689">
        <ele>179.62</ele>
        <time>2018-09-09T09:50:01.999Z</time>
      </trkpt>
      <trkpt lat="46.54353" lon="0.36889">
        <ele>180.11</ele>
        <time>2018-09-09T09:50:03.999Z</time>
      </trkpt>
      <trkpt lat="46.54343" lon="0.36886">
        <ele>180.63</ele>
        <time>2018-09-09T09:50:05.999Z</time>
      </trkpt>
      <trkpt lat="46.54332" lon="0.36887">
        <ele>181.07</ele>
        <time>2018-09-09T09:50:07.999Z</time>
      </trkpt>
      <trkpt lat="46.54321" lon="0.36885">
        <ele>181.29</ele>
        <time>2018-09-09T09:50:09.999Z</time>
      </trkpt>
      <trkpt lat="46.54308" lon="0.36884">
        <ele>182.17</ele>
        <time>2018-09-09T09:50:12.999Z</time>
      </trkpt>
      <trkpt lat="46.54299" lon="0.36884">
        <ele>182.12</ele>
        <time>2018-09-09T09:50:14.999Z</time>
      </trkpt>
      <trkpt lat="46.54289" lon="0.36884">
        <ele>182.42</ele>
        <time>2018-09-09T09:50:16.999Z</time>
      </trkpt>
      <trkpt lat="46.54279" lon="0.36882">
        <ele>183.06</ele>
        <time>2018-09-09T09:50:18.999Z</time>
      </trkpt>
      <trkpt lat="46.54268" lon="0.36881">
        <ele>183.99</ele>
        <time>2018-09-09T09:50:20.999Z</time>
      </trkpt>
      <trkpt lat="46.54258" lon="0.36879">
        <ele>184.5</ele>
        <time>2018-09-09T09:50:22.999Z</time>
      </trkpt>
      <trkpt lat="46.54245" lon="0.36879">
        <ele>184.4</ele>
        <time>2018-09-09T09:50:24.999Z</time>
      </trkpt>
      <trkpt lat="46.54236" lon="0.36884">
        <ele>184.24</ele>
        <time>2018-09-09T09:50:26.999Z</time>
      </trkpt>
      <trkpt lat="46.54235" lon="0.36899">
        <ele>182.82</ele>
        <time>2018-09-09T09:50:28.999Z</time>
      </trkpt>
      <trkpt lat="46.54239" lon="0.36911">
        <ele>182</ele>
        <time>2018-09-09T09:50:30.999Z</time>
      </trkpt>
      <trkpt lat="46.54245" lon="0.36922">
        <ele>181.46</ele>
        <time>2018-09-09T09:50:32.999Z</time>
      </trkpt>
      <trkpt lat="46.54252" lon="0.36937">
        <ele>180.88</ele>
        <time>2018-09-09T09:50:34.999Z</time>
      </trkpt>
      <trkpt lat="46.54258" lon="0.36951">
        <ele>180.57</ele>
        <time>2018-09-09T09:50:36.999Z</time>
      </trkpt>
      <trkpt lat="46.54265" lon="0.36964">
        <ele>180.67</ele>
        <time>2018-09-09T09:50:38.999Z</time>
      </trkpt>
      <trkpt lat="46.54273" lon="0.36979">
        <ele>180.84</ele>
        <time>2018-09-09T09:50:40.999Z</time>
      </trkpt>
      <trkpt lat="46.5428" lon="0.36994">
        <ele>180.12</ele>
        <time>2018-09-09T09:50:42.999Z</time>
      </trkpt>
      <trkpt lat="46.54289" lon="0.37008">
        <ele>179.09</ele>
        <time>2018-09-09T09:50:44.999Z</time>
      </trkpt>
      <trkpt lat="46.54296" lon="0.3702">
        <ele>177.91</ele>
        <time>2018-09-09T09:50:46.999Z</time>
      </trkpt>
      <trkpt lat="46.54301" lon="0.37034">
        <ele>177.46</ele>
        <time>2018-09-09T09:50:48.999Z</time>
      </trkpt>
      <trkpt lat="46.54305" lon="0.37047">
        <ele>177.63</ele>
        <time>2018-09-09T09:50:50.999Z</time>
      </trkpt>
      <trkpt lat="46.54313" lon="0.3706">
        <ele>177.68</ele>
        <time>2018-09-09T09:50:52.999Z</time>
      </trkpt>
      <trkpt lat="46.5432" lon="0.37075">
        <ele>177.82</ele>
        <time>2018-09-09T09:50:54.999Z</time>
      </trkpt>
      <trkpt lat="46.54326" lon="0.37088">
        <ele>177.68</ele>
        <time>2018-09-09T09:50:56.999Z</time>
      </trkpt>
      <trkpt lat="46.54335" lon="0.37097">
        <ele>177.58</ele>
        <time>2018-09-09T09:50:59.999Z</time>
      </trkpt>
      <trkpt lat="46.54327" lon="0.37105">
        <ele>177.58</ele>
        <time>2018-09-09T09:51:05.999Z</time>
      </trkpt>
      <trkpt lat="46.54319" lon="0.37113">
        <ele>177.69</ele>
        <time>2018-09-09T09:51:08.999Z</time>
      </trkpt>
      <trkpt lat="46.54312" lon="0.3712">
        <ele>178.45</ele>
        <time>2018-09-09T09:51:10.999Z</time>
      </trkpt>
      <trkpt lat="46.54302" lon="0.37124">
        <ele>178.63</ele>
        <time>2018-09-09T09:51:13.999Z</time>
      </trkpt>
      <trkpt lat="46.5429" lon="0.3712">
        <ele>179.54</ele>
        <time>2018-09-09T09:51:16.999Z</time>
      </trkpt>
      <trkpt lat="46.54276" lon="0.37121">
        <ele>180.38</ele>
        <time>2018-09-09T09:51:19.999Z</time>
      </trkpt>
      <trkpt lat="46.54267" lon="0.3712">
        <ele>181.05</ele>
        <time>2018-09-09T09:51:21.999Z</time>
      </trkpt>
      <trkpt lat="46.54259" lon="0.37128">
        <ele>181.19</ele>
        <time>2018-09-09T09:51:24.999Z</time>
      </trkpt>
      <trkpt lat="46.54258" lon="0.37114">
        <ele>178.41</ele>
        <time>2018-09-09T09:51:41.999Z</time>
      </trkpt>
      <trkpt lat="46.54258" lon="0.37101">
        <ele>176.78</ele>
        <time>2018-09-09T09:51:46.999Z</time>
      </trkpt>
      <trkpt lat="46.5425" lon="0.37093">
        <ele>172.81</ele>
        <time>2018-09-09T09:52:02.999Z</time>
      </trkpt>
      <trkpt lat="46.54238" lon="0.37091">
        <ele>171.9</ele>
        <time>2018-09-09T09:52:06.999Z</time>
      </trkpt>
      <trkpt lat="46.54229" lon="0.37096">
        <ele>170.52</ele>
        <time>2018-09-09T09:52:11.999Z</time>
      </trkpt>
      <trkpt lat="46.54229" lon="0.37111">
        <ele>168.99</ele>
        <time>2018-09-09T09:52:17.999Z</time>
      </trkpt>
      <trkpt lat="46.54234" lon="0.37124">
        <ele>167.72</ele>
        <time>2018-09-09T09:52:23.999Z</time>
      </trkpt>
      <trkpt lat="46.54238" lon="0.37138">
        <ele>166.65</ele>
        <time>2018-09-09T09:52:28.999Z</time>
      </trkpt>
      <trkpt lat="46.5424" lon="0.37152">
        <ele>165.28</ele>
        <time>2018-09-09T09:52:34.999Z</time>
      </trkpt>
      <trkpt lat="46.54241" lon="0.3717">
        <ele>164.33</ele>
        <time>2018-09-09T09:52:39.999Z</time>
      </trkpt>
      <trkpt lat="46.54237" lon="0.37186">
        <ele>163.6</ele>
        <time>2018-09-09T09:52:43.999Z</time>
      </trkpt>
      <trkpt lat="46.54229" lon="0.37198">
        <ele>163.01</ele>
        <time>2018-09-09T09:52:47.999Z</time>
      </trkpt>
      <trkpt lat="46.54221" lon="0.37206">
        <ele>162.67</ele>
        <time>2018-09-09T09:52:52.999Z</time>
      </trkpt>
      <trkpt lat="46.54212" lon="0.37213">
        <ele>162.65</ele>
        <time>2018-09-09T09:52:58.999Z</time>
      </trkpt>
      <trkpt lat="46.54204" lon="0.37218">
        <ele>162.7</ele>
        <time>2018-09-09T09:53:06.999Z</time>
      </trkpt>
      <trkpt lat="46.54201" lon="0.37232">
        <ele>163.69</ele>
        <time>2018-09-09T09:53:18.999Z</time>
      </trkpt>
      <trkpt lat="46.54193" lon="0.37242">
        <ele>163.4</ele>
        <time>2018-09-09T09:53:23.000Z</time>
      </trkpt>
      <trkpt lat="46.54184" lon="0.37248">
        <ele>163.4</ele>
        <time>2018-09-09T09:53:26.000Z</time>
      </trkpt>
      <trkpt lat="46.54176" lon="0.37253">
        <ele>163.91</ele>
        <time>2018-09-09T09:53:32.000Z</time>
      </trkpt>
      <trkpt lat="46.54167" lon="0.37258">
        <ele>164.76</ele>
        <time>2018-09-09T09:53:37.000Z</time>
      </trkpt>
      <trkpt lat="46.54159" lon="0.37264">
        <ele>165.62</ele>
        <time>2018-09-09T09:53:42.000Z</time>
      </trkpt>
      <trkpt lat="46.5415" lon="0.37272">
        <ele>166.55</ele>
        <time>2018-09-09T09:53:47.000Z</time>
      </trkpt>
      <trkpt lat="46.54143" lon="0.37281">
        <ele>167.28</ele>
        <time>2018-09-09T09:53:51.000Z</time>
      </trkpt>
      <trkpt lat="46.54134" lon="0.37288">
        <ele>168.28</ele>
        <time>2018-09-09T09:53:57.000Z</time>
      </trkpt>
      <trkpt lat="46.54126" lon="0.37296">
        <ele>168.94</ele>
        <time>2018-09-09T09:54:02.000Z</time>
      </trkpt>
      <trkpt lat="46.54118" lon="0.37304">
        <ele>169.26</ele>
        <time>2018-09-09T09:54:06.000Z</time>
      </trkpt>
      <trkpt lat="46.5411" lon="0.37314">
        <ele>169.64</ele>
        <time>2018-09-09T09:54:10.000Z</time>
      </trkpt>
      <trkpt lat="46.54099" lon="0.37311">
        <ele>170.03</ele>
        <time>2018-09-09T09:54:14.000Z</time>
      </trkpt>
      <trkpt lat="46.54096" lon="0.37299">
        <ele>170.36</ele>
        <time>2018-09-09T09:54:17.000Z</time>
      </trkpt>
      <trkpt lat="46.54089" lon="0.37286">
        <ele>170.71</ele>
        <time>2018-09-09T09:54:20.000Z</time>
      </trkpt>
      <trkpt lat="46.5408" lon="0.37285">
        <ele>171.04</ele>
        <time>2018-09-09T09:54:23.000Z</time>
      </trkpt>
      <trkpt lat="46.5407" lon="0.37297">
        <ele>172.99</ele>
        <time>2018-09-09T09:54:26.000Z</time>
      </trkpt>
      <trkpt lat="46.54063" lon="0.37307">
        <ele>173.57</ele>
        <time>2018-09-09T09:54:28.000Z</time>
      </trkpt>
      <trkpt lat="46.54056" lon="0.37316">
        <ele>173.87</ele>
        <time>2018-09-09T09:54:30.000Z</time>
      </trkpt>
      <trkpt lat="46.54047" lon="0.37328">
        <ele>174.54</ele>
        <time>2018-09-09T09:54:33.000Z</time>
      </trkpt>
      <trkpt lat="46.5404" lon="0.37336">
        <ele>174.99</ele>
        <time>2018-09-09T09:54:35.000Z</time>
      </trkpt>
      <trkpt lat="46.54031" lon="0.37348">
        <ele>175.41</ele>
        <time>2018-09-09T09:54:38.000Z</time>
      </trkpt>
      <trkpt lat="46.54023" lon="0.37361">
        <ele>176.05</ele>
        <time>2018-09-09T09:54:41.000Z</time>
      </trkpt>
      <trkpt lat="46.54015" lon="0.37372">
        <ele>176.3</ele>
        <time>2018-09-09T09:54:44.000Z</time>
      </trkpt>
      <trkpt lat="46.54007" lon="0.37381">
        <ele>177.21</ele>
        <time>2018-09-09T09:54:47.000Z</time>
      </trkpt>
      <trkpt lat="46.53997" lon="0.37396">
        <ele>177.98</ele>
        <time>2018-09-09T09:54:50.000Z</time>
      </trkpt>
      <trkpt lat="46.53992" lon="0.37407">
        <ele>178.11</ele>
        <time>2018-09-09T09:54:52.000Z</time>
      </trkpt>
      <trkpt lat="46.53988" lon="0.37423">
        <ele>178.26</ele>
        <time>2018-09-09T09:54:55.000Z</time>
      </trkpt>
      <trkpt lat="46.53982" lon="0.37439">
        <ele>178.36</ele>
        <time>2018-09-09T09:54:58.000Z</time>
      </trkpt>
      <trkpt lat="46.53977" lon="0.37451">
        <ele>178.36</ele>
        <time>2018-09-09T09:55:01.000Z</time>
      </trkpt>
      <trkpt lat="46.53972" lon="0.37464">
        <ele>178.42</ele>
        <time>2018-09-09T09:55:04.000Z</time>
      </trkpt>
      <trkpt lat="46.53968" lon="0.37477">
        <ele>178.54</ele>
        <time>2018-09-09T09:55:07.000Z</time>
      </trkpt>
      <trkpt lat="46.53962" lon="0.37491">
        <ele>178.67</ele>
        <time>2018-09-09T09:55:10.000Z</time>
      </trkpt>
      <trkpt lat="46.53955" lon="0.37504">
        <ele>179.32</ele>
        <time>2018-09-09T09:55:13.000Z</time>
      </trkpt>
      <trkpt lat="46.53945" lon="0.37516">
        <ele>178.96</ele>
        <time>2018-09-09T09:55:16.000Z</time>
      </trkpt>
      <trkpt lat="46.53938" lon="0.37526">
        <ele>178.47</ele>
        <time>2018-09-09T09:55:18.000Z</time>
      </trkpt>
      <trkpt lat="46.53928" lon="0.37538">
        <ele>177.62</ele>
        <time>2018-09-09T09:55:21.000Z</time>
      </trkpt>
      <trkpt lat="46.53921" lon="0.37553">
        <ele>177.38</ele>
        <time>2018-09-09T09:55:24.000Z</time>
      </trkpt>
      <trkpt lat="46.53915" lon="0.37565">
        <ele>177.69</ele>
        <time>2018-09-09T09:55:26.000Z</time>
      </trkpt>
      <trkpt lat="46.53911" lon="0.37578">
        <ele>177.79</ele>
        <time>2018-09-09T09:55:28.000Z</time>
      </trkpt>
      <trkpt lat="46.53906" lon="0.37591">
        <ele>177.53</ele>
        <time>2018-09-09T09:55:30.000Z</time>
      </trkpt>
      <trkpt lat="46.53901" lon="0.37604">
        <ele>177.35</ele>
        <time>2018-09-09T09:55:32.000Z</time>
      </trkpt>
      <trkpt lat="46.53897" lon="0.37618">
        <ele>177.38</ele>
        <time>2018-09-09T09:55:34.000Z</time>
      </trkpt>
      <trkpt lat="46.5389" lon="0.37632">
        <ele>177.3</ele>
        <time>2018-09-09T09:55:36.000Z</time>
      </trkpt>
      <trkpt lat="46.53882" lon="0.37644">
        <ele>177.56</ele>
        <time>2018-09-09T09:55:38.000Z</time>
      </trkpt>
      <trkpt lat="46.53874" lon="0.37653">
        <ele>177.97</ele>
        <time>2018-09-09T09:55:40.000Z</time>
      </trkpt>
      <trkpt lat="46.53867" lon="0.37663">
        <ele>178.43</ele>
        <time>2018-09-09T09:55:42.000Z</time>
      </trkpt>
      <trkpt lat="46.53857" lon="0.37673">
        <ele>178.85</ele>
        <time>2018-09-09T09:55:44.000Z</time>
      </trkpt>
      <trkpt lat="46.53849" lon="0.37683">
        <ele>179.34</ele>
        <time>2018-09-09T09:55:46.000Z</time>
      </trkpt>
      <trkpt lat="46.53841" lon="0.37696">
        <ele>179.49</ele>
        <time>2018-09-09T09:55:48.000Z</time>
      </trkpt>
      <trkpt lat="46.53836" lon="0.3771">
        <ele>179.1</ele>
        <time>2018-09-09T09:55:50.000Z</time>
      </trkpt>
      <trkpt lat="46.53831" lon="0.37724">
        <ele>178.77</ele>
        <time>2018-09-09T09:55:52.000Z</time>
      </trkpt>
      <trkpt lat="46.53826" lon="0.37739">
        <ele>178.24</ele>
        <time>2018-09-09T09:55:54.000Z</time>
      </trkpt>
      <trkpt lat="46.53822" lon="0.37753">
        <ele>177.81</ele>
        <time>2018-09-09T09:55:56.000Z</time>
      </trkpt>
      <trkpt lat="46.53817" lon="0.37767">
        <ele>177.43</ele>
        <time>2018-09-09T09:55:58.000Z</time>
      </trkpt>
      <trkpt lat="46.53813" lon="0.37783">
        <ele>176.61</ele>
        <time>2018-09-09T09:56:00.000Z</time>
      </trkpt>
      <trkpt lat="46.53809" lon="0.37798">
        <ele>175.85</ele>
        <time>2018-09-09T09:56:02.000Z</time>
      </trkpt>
      <trkpt lat="46.53804" lon="0.37818">
        <ele>175.43</ele>
        <time>2018-09-09T09:56:04.000Z</time>
      </trkpt>
      <trkpt lat="46.53798" lon="0.37841">
        <ele>174.83</ele>
        <time>2018-09-09T09:56:06.000Z</time>
      </trkpt>
      <trkpt lat="46.53794" lon="0.37864">
        <ele>173.88</ele>
        <time>2018-09-09T09:56:08.000Z</time>
      </trkpt>
      <trkpt lat="46.53788" lon="0.37887">
        <ele>172.81</ele>
        <time>2018-09-09T09:56:10.000Z</time>
      </trkpt>
      <trkpt lat="46.53781" lon="0.37909">
        <ele>171.89</ele>
        <time>2018-09-09T09:56:12.000Z</time>
      </trkpt>
      <trkpt lat="46.53775" lon="0.37919">
        <ele>171.78</ele>
        <time>2018-09-09T09:56:13.000Z</time>
      </trkpt>
      <trkpt lat="46.5376" lon="0.37931">
        <ele>172.05</ele>
        <time>2018-09-09T09:56:15.000Z</time>
      </trkpt>
      <trkpt lat="46.53743" lon="0.37939">
        <ele>172.19</ele>
        <time>2018-09-09T09:56:17.000Z</time>
      </trkpt>
      <trkpt lat="46.53733" lon="0.37944">
        <ele>172.44</ele>
        <time>2018-09-09T09:56:18.000Z</time>
      </trkpt>
      <trkpt lat="46.53722" lon="0.37945">
        <ele>172.33</ele>
        <time>2018-09-09T09:56:19.000Z</time>
      </trkpt>
      <trkpt lat="46.53712" lon="0.37945">
        <ele>172.19</ele>
        <time>2018-09-09T09:56:20.000Z</time>
      </trkpt>
      <trkpt lat="46.53701" lon="0.37944">
        <ele>172.13</ele>
        <time>2018-09-09T09:56:21.000Z</time>
      </trkpt>
      <trkpt lat="46.5369" lon="0.3794">
        <ele>172.02</ele>
        <time>2018-09-09T09:56:22.000Z</time>
      </trkpt>
      <trkpt lat="46.53679" lon="0.37938">
        <ele>171.63</ele>
        <time>2018-09-09T09:56:23.000Z</time>
      </trkpt>
      <trkpt lat="46.53668" lon="0.37938">
        <ele>171.23</ele>
        <time>2018-09-09T09:56:24.000Z</time>
      </trkpt>
      <trkpt lat="46.53658" lon="0.37939">
        <ele>170.77</ele>
        <time>2018-09-09T09:56:25.000Z</time>
      </trkpt>
      <trkpt lat="46.53648" lon="0.37939">
        <ele>170.05</ele>
        <time>2018-09-09T09:56:26.000Z</time>
      </trkpt>
      <trkpt lat="46.53631" lon="0.37932">
        <ele>169.23</ele>
        <time>2018-09-09T09:56:28.000Z</time>
      </trkpt>
      <trkpt lat="46.53621" lon="0.37922">
        <ele>169.26</ele>
        <time>2018-09-09T09:56:30.000Z</time>
      </trkpt>
      <trkpt lat="46.53613" lon="0.37909">
        <ele>169.53</ele>
        <time>2018-09-09T09:56:33.000Z</time>
      </trkpt>
      <trkpt lat="46.53605" lon="0.37899">
        <ele>169.61</ele>
        <time>2018-09-09T09:56:36.000Z</time>
      </trkpt>
      <trkpt lat="46.53594" lon="0.37891">
        <ele>169.74</ele>
        <time>2018-09-09T09:56:39.000Z</time>
      </trkpt>
      <trkpt lat="46.53583" lon="0.37883">
        <ele>169.91</ele>
        <time>2018-09-09T09:56:42.000Z</time>
      </trkpt>
      <trkpt lat="46.53572" lon="0.37875">
        <ele>170.23</ele>
        <time>2018-09-09T09:56:46.000Z</time>
      </trkpt>
      <trkpt lat="46.53563" lon="0.3787">
        <ele>170.56</ele>
        <time>2018-09-09T09:56:49.000Z</time>
      </trkpt>
      <trkpt lat="46.53552" lon="0.37863">
        <ele>171.09</ele>
        <time>2018-09-09T09:56:53.000Z</time>
      </trkpt>
      <trkpt lat="46.53541" lon="0.37858">
        <ele>171.64</ele>
        <time>2018-09-09T09:56:57.000Z</time>
      </trkpt>
      <trkpt lat="46.53532" lon="0.37853">
        <ele>172.16</ele>
        <time>2018-09-09T09:57:01.000Z</time>
      </trkpt>
      <trkpt lat="46.53522" lon="0.37847">
        <ele>172.54</ele>
        <time>2018-09-09T09:57:05.000Z</time>
      </trkpt>
      <trkpt lat="46.53513" lon="0.37842">
        <ele>172.8</ele>
        <time>2018-09-09T09:57:09.000Z</time>
      </trkpt>
      <trkpt lat="46.53502" lon="0.37837">
        <ele>172.97</ele>
        <time>2018-09-09T09:57:14.000Z</time>
      </trkpt>
      <trkpt lat="46.53493" lon="0.37834">
        <ele>173</ele>
        <time>2018-09-09T09:57:18.000Z</time>
      </trkpt>
      <trkpt lat="46.53484" lon="0.37826">
        <ele>173.05</ele>
        <time>2018-09-09T09:57:22.000Z</time>
      </trkpt>
      <trkpt lat="46.53474" lon="0.37818">
        <ele>173.13</ele>
        <time>2018-09-09T09:57:26.000Z</time>
      </trkpt>
      <trkpt lat="46.53465" lon="0.37806">
        <ele>173.41</ele>
        <time>2018-09-09T09:57:30.000Z</time>
      </trkpt>
      <trkpt lat="46.53457" lon="0.37795">
        <ele>173.69</ele>
        <time>2018-09-09T09:57:33.000Z</time>
      </trkpt>
      <trkpt lat="46.53451" lon="0.37784">
        <ele>173.97</ele>
        <time>2018-09-09T09:57:36.000Z</time>
      </trkpt>
      <trkpt lat="46.53444" lon="0.3777">
        <ele>174.28</ele>
        <time>2018-09-09T09:57:39.000Z</time>
      </trkpt>
      <trkpt lat="46.53439" lon="0.37758">
        <ele>174.61</ele>
        <time>2018-09-09T09:57:42.000Z</time>
      </trkpt>
      <trkpt lat="46.53433" lon="0.37744">
        <ele>174.97</ele>
        <time>2018-09-09T09:57:45.000Z</time>
      </trkpt>
      <trkpt lat="46.53427" lon="0.37729">
        <ele>175.49</ele>
        <time>2018-09-09T09:57:49.000Z</time>
      </trkpt>
      <trkpt lat="46.53423" lon="0.37715">
        <ele>175.89</ele>
        <time>2018-09-09T09:57:52.000Z</time>
      </trkpt>
      <trkpt lat="46.53417" lon="0.377">
        <ele>176.43</ele>
        <time>2018-09-09T09:57:56.000Z</time>
      </trkpt>
      <trkpt lat="46.5341" lon="0.37685">
        <ele>176.94</ele>
        <time>2018-09-09T09:58:00.000Z</time>
      </trkpt>
      <trkpt lat="46.53405" lon="0.37674">
        <ele>177.29</ele>
        <time>2018-09-09T09:58:03.000Z</time>
      </trkpt>
      <trkpt lat="46.534" lon="0.37658">
        <ele>177.76</ele>
        <time>2018-09-09T09:58:07.000Z</time>
      </trkpt>
      <trkpt lat="46.53396" lon="0.37646">
        <ele>178.12</ele>
        <time>2018-09-09T09:58:10.000Z</time>
      </trkpt>
      <trkpt lat="46.53391" lon="0.37633">
        <ele>178.39</ele>
        <time>2018-09-09T09:58:13.000Z</time>
      </trkpt>
      <trkpt lat="46.53385" lon="0.37618">
        <ele>178.75</ele>
        <time>2018-09-09T09:58:17.000Z</time>
      </trkpt>
      <trkpt lat="46.5338" lon="0.37606">
        <ele>178.95</ele>
        <time>2018-09-09T09:58:20.000Z</time>
      </trkpt>
      <trkpt lat="46.53374" lon="0.37592">
        <ele>179.07</ele>
        <time>2018-09-09T09:58:23.000Z</time>
      </trkpt>
      <trkpt lat="46.53368" lon="0.37579">
        <ele>179.28</ele>
        <time>2018-09-09T09:58:26.000Z</time>
      </trkpt>
      <trkpt lat="46.53362" lon="0.37565">
        <ele>179.54</ele>
        <time>2018-09-09T09:58:29.000Z</time>
      </trkpt>
      <trkpt lat="46.53357" lon="0.37549">
        <ele>182.44</ele>
        <time>2018-09-09T09:58:32.000Z</time>
      </trkpt>
      <trkpt lat="46.5335" lon="0.37532">
        <ele>183.02</ele>
        <time>2018-09-09T09:58:35.000Z</time>
      </trkpt>
      <trkpt lat="46.53345" lon="0.37521">
        <ele>182.91</ele>
        <time>2018-09-09T09:58:37.000Z</time>
      </trkpt>
      <trkpt lat="46.5334" lon="0.37509">
        <ele>183.27</ele>
        <time>2018-09-09T09:58:39.000Z</time>
      </trkpt>
      <trkpt lat="46.53335" lon="0.37496">
        <ele>183.47</ele>
        <time>2018-09-09T09:58:41.000Z</time>
      </trkpt>
      <trkpt lat="46.53328" lon="0.37483">
        <ele>183.19</ele>
        <time>2018-09-09T09:58:43.000Z</time>
      </trkpt>
      <trkpt lat="46.53323" lon="0.3747">
        <ele>182.7</ele>
        <time>2018-09-09T09:58:45.000Z</time>
      </trkpt>
      <trkpt lat="46.53318" lon="0.37455">
        <ele>182.28</ele>
        <time>2018-09-09T09:58:47.000Z</time>
      </trkpt>
      <trkpt lat="46.53312" lon="0.3744">
        <ele>181.84</ele>
        <time>2018-09-09T09:58:49.000Z</time>
      </trkpt>
      <trkpt lat="46.53308" lon="0.3742">
        <ele>181.58</ele>
        <time>2018-09-09T09:58:51.000Z</time>
      </trkpt>
      <trkpt lat="46.53304" lon="0.37401">
        <ele>180.93</ele>
        <time>2018-09-09T09:58:53.000Z</time>
      </trkpt>
      <trkpt lat="46.53299" lon="0.37382">
        <ele>180.41</ele>
        <time>2018-09-09T09:58:55.000Z</time>
      </trkpt>
      <trkpt lat="46.53293" lon="0.37365">
        <ele>179.88</ele>
        <time>2018-09-09T09:58:57.000Z</time>
      </trkpt>
      <trkpt lat="46.53287" lon="0.37347">
        <ele>178.91</ele>
        <time>2018-09-09T09:58:59.000Z</time>
      </trkpt>
      <trkpt lat="46.53282" lon="0.37328">
        <ele>178.3</ele>
        <time>2018-09-09T09:59:01.000Z</time>
      </trkpt>
      <trkpt lat="46.53275" lon="0.3731">
        <ele>177.43</ele>
        <time>2018-09-09T09:59:03.000Z</time>
      </trkpt>
      <trkpt lat="46.53268" lon="0.37294">
        <ele>176.98</ele>
        <time>2018-09-09T09:59:05.000Z</time>
      </trkpt>
      <trkpt lat="46.53259" lon="0.37284">
        <ele>176.34</ele>
        <time>2018-09-09T09:59:07.000Z</time>
      </trkpt>
      <trkpt lat="46.53249" lon="0.37273">
        <ele>175.73</ele>
        <time>2018-09-09T09:59:09.000Z</time>
      </trkpt>
      <trkpt lat="46.53235" lon="0.37267">
        <ele>175.44</ele>
        <time>2018-09-09T09:59:11.000Z</time>
      </trkpt>
      <trkpt lat="46.53221" lon="0.37261">
        <ele>175.14</ele>
        <time>2018-09-09T09:59:13.000Z</time>
      </trkpt>
      <trkpt lat="46.53204" lon="0.37256">
        <ele>174.75</ele>
        <time>2018-09-09T09:59:15.000Z</time>
      </trkpt>
      <trkpt lat="46.53188" lon="0.37253">
        <ele>174.07</ele>
        <time>2018-09-09T09:59:17.000Z</time>
      </trkpt>
      <trkpt lat="46.53173" lon="0.37249">
        <ele>173.4</ele>
        <time>2018-09-09T09:59:19.000Z</time>
      </trkpt>
      <trkpt lat="46.5316" lon="0.37244">
        <ele>172.61</ele>
        <time>2018-09-09T09:59:21.000Z</time>
      </trkpt>
      <trkpt lat="46.53148" lon="0.3724">
        <ele>172.02</ele>
        <time>2018-09-09T09:59:23.000Z</time>
      </trkpt>
      <trkpt lat="46.53138" lon="0.37236">
        <ele>171.49</ele>
        <time>2018-09-09T09:59:25.000Z</time>
      </trkpt>
      <trkpt lat="46.53128" lon="0.37231">
        <ele>171.11</ele>
        <time>2018-09-09T09:59:27.000Z</time>
      </trkpt>
      <trkpt lat="46.53119" lon="0.37228">
        <ele>171.04</ele>
        <time>2018-09-09T09:59:29.000Z</time>
      </trkpt>
      <trkpt lat="46.53108" lon="0.37222">
        <ele>171.26</ele>
        <time>2018-09-09T09:59:32.000Z</time>
      </trkpt>
      <trkpt lat="46.53097" lon="0.37215">
        <ele>171.85</ele>
        <time>2018-09-09T09:59:35.000Z</time>
      </trkpt>
      <trkpt lat="46.53087" lon="0.37207">
        <ele>172.08</ele>
        <time>2018-09-09T09:59:38.000Z</time>
      </trkpt>
      <trkpt lat="46.53077" lon="0.37196">
        <ele>172.37</ele>
        <time>2018-09-09T09:59:41.000Z</time>
      </trkpt>
      <trkpt lat="46.53068" lon="0.37181">
        <ele>174.27</ele>
        <time>2018-09-09T09:59:44.000Z</time>
      </trkpt>
      <trkpt lat="46.53063" lon="0.37166">
        <ele>175.62</ele>
        <time>2018-09-09T09:59:47.000Z</time>
      </trkpt>
      <trkpt lat="46.53059" lon="0.37148">
        <ele>178.48</ele>
        <time>2018-09-09T09:59:50.000Z</time>
      </trkpt>
      <trkpt lat="46.53054" lon="0.37133">
        <ele>178.75</ele>
        <time>2018-09-09T09:59:53.000Z</time>
      </trkpt>
      <trkpt lat="46.53049" lon="0.37122">
        <ele>179.01</ele>
        <time>2018-09-09T09:59:55.000Z</time>
      </trkpt>
      <trkpt lat="46.53043" lon="0.37109">
        <ele>179.4</ele>
        <time>2018-09-09T09:59:58.000Z</time>
      </trkpt>
      <trkpt lat="46.53041" lon="0.37095">
        <ele>180.12</ele>
        <time>2018-09-09T10:00:00.000Z</time>
      </trkpt>
      <trkpt lat="46.53036" lon="0.37083">
        <ele>180.01</ele>
        <time>2018-09-09T10:00:02.000Z</time>
      </trkpt>
      <trkpt lat="46.53032" lon="0.37072">
        <ele>179.82</ele>
        <time>2018-09-09T10:00:04.000Z</time>
      </trkpt>
      <trkpt lat="46.53023" lon="0.37059">
        <ele>179.5</ele>
        <time>2018-09-09T10:00:07.000Z</time>
      </trkpt>
      <trkpt lat="46.53013" lon="0.37053">
        <ele>179.11</ele>
        <time>2018-09-09T10:00:10.000Z</time>
      </trkpt>
      <trkpt lat="46.53004" lon="0.37048">
        <ele>178.61</ele>
        <time>2018-09-09T10:00:13.000Z</time>
      </trkpt>
      <trkpt lat="46.52994" lon="0.37044">
        <ele>178.19</ele>
        <time>2018-09-09T10:00:17.000Z</time>
      </trkpt>
      <trkpt lat="46.52985" lon="0.3704">
        <ele>177.81</ele>
        <time>2018-09-09T10:00:21.000Z</time>
      </trkpt>
      <trkpt lat="46.52974" lon="0.37036">
        <ele>177.42</ele>
        <time>2018-09-09T10:00:27.000Z</time>
      </trkpt>
      <trkpt lat="46.52964" lon="0.37031">
        <ele>177.29</ele>
        <time>2018-09-09T10:00:32.000Z</time>
      </trkpt>
      <trkpt lat="46.52954" lon="0.37026">
        <ele>177.37</ele>
        <time>2018-09-09T10:00:36.000Z</time>
      </trkpt>
      <trkpt lat="46.52945" lon="0.37018">
        <ele>177.39</ele>
        <time>2018-09-09T10:00:40.000Z</time>
      </trkpt>
      <trkpt lat="46.52937" lon="0.37005">
        <ele>177.62</ele>
        <time>2018-09-09T10:00:45.000Z</time>
      </trkpt>
      <trkpt lat="46.52931" lon="0.3699">
        <ele>177.97</ele>
        <time>2018-09-09T10:00:50.000Z</time>
      </trkpt>
      <trkpt lat="46.52927" lon="0.36976">
        <ele>178.06</ele>
        <time>2018-09-09T10:00:53.000Z</time>
      </trkpt>
      <trkpt lat="46.52924" lon="0.36963">
        <ele>178</ele>
        <time>2018-09-09T10:00:56.000Z</time>
      </trkpt>
      <trkpt lat="46.52921" lon="0.3695">
        <ele>177.49</ele>
        <time>2018-09-09T10:00:58.000Z</time>
      </trkpt>
      <trkpt lat="46.52919" lon="0.36934">
        <ele>177.03</ele>
        <time>2018-09-09T10:01:00.000Z</time>
      </trkpt>
      <trkpt lat="46.52918" lon="0.3692">
        <ele>175.73</ele>
        <time>2018-09-09T10:01:02.000Z</time>
      </trkpt>
      <trkpt lat="46.52916" lon="0.36904">
        <ele>174.31</ele>
        <time>2018-09-09T10:01:04.000Z</time>
      </trkpt>
      <trkpt lat="46.52914" lon="0.36888">
        <ele>173.18</ele>
        <time>2018-09-09T10:01:06.000Z</time>
      </trkpt>
      <trkpt lat="46.52907" lon="0.36876">
        <ele>172.67</ele>
        <time>2018-09-09T10:01:08.000Z</time>
      </trkpt>
      <trkpt lat="46.52901" lon="0.36865">
        <ele>173.12</ele>
        <time>2018-09-09T10:01:10.000Z</time>
      </trkpt>
      <trkpt lat="46.52893" lon="0.36856">
        <ele>173.7</ele>
        <time>2018-09-09T10:01:12.000Z</time>
      </trkpt>
      <trkpt lat="46.52882" lon="0.36847">
        <ele>174.2</ele>
        <time>2018-09-09T10:01:14.000Z</time>
      </trkpt>
      <trkpt lat="46.52873" lon="0.36839">
        <ele>174</ele>
        <time>2018-09-09T10:01:16.000Z</time>
      </trkpt>
      <trkpt lat="46.52863" lon="0.36829">
        <ele>173.56</ele>
        <time>2018-09-09T10:01:18.000Z</time>
      </trkpt>
      <trkpt lat="46.5285" lon="0.36819">
        <ele>173.14</ele>
        <time>2018-09-09T10:01:20.000Z</time>
      </trkpt>
      <trkpt lat="46.52838" lon="0.36812">
        <ele>172.72</ele>
        <time>2018-09-09T10:01:22.000Z</time>
      </trkpt>
      <trkpt lat="46.52824" lon="0.36804">
        <ele>172.22</ele>
        <time>2018-09-09T10:01:24.000Z</time>
      </trkpt>
      <trkpt lat="46.52815" lon="0.36801">
        <ele>172.11</ele>
        <time>2018-09-09T10:01:25.000Z</time>
      </trkpt>
      <trkpt lat="46.52806" lon="0.36797">
        <ele>172.39</ele>
        <time>2018-09-09T10:01:26.000Z</time>
      </trkpt>
      <trkpt lat="46.52789" lon="0.36796">
        <ele>172.87</ele>
        <time>2018-09-09T10:01:28.000Z</time>
      </trkpt>
      <trkpt lat="46.5278" lon="0.36796">
        <ele>173.17</ele>
        <time>2018-09-09T10:01:29.000Z</time>
      </trkpt>
      <trkpt lat="46.52771" lon="0.36799">
        <ele>173.59</ele>
        <time>2018-09-09T10:01:30.000Z</time>
      </trkpt>
      <trkpt lat="46.52762" lon="0.36802">
        <ele>173.76</ele>
        <time>2018-09-09T10:01:31.000Z</time>
      </trkpt>
      <trkpt lat="46.52745" lon="0.36809">
        <ele>174.2</ele>
        <time>2018-09-09T10:01:33.000Z</time>
      </trkpt>
      <trkpt lat="46.52731" lon="0.36821">
        <ele>174.69</ele>
        <time>2018-09-09T10:01:35.000Z</time>
      </trkpt>
      <trkpt lat="46.52719" lon="0.36838">
        <ele>174.52</ele>
        <time>2018-09-09T10:01:37.000Z</time>
      </trkpt>
      <trkpt lat="46.52707" lon="0.36855">
        <ele>173.83</ele>
        <time>2018-09-09T10:01:39.000Z</time>
      </trkpt>
      <trkpt lat="46.52694" lon="0.36875">
        <ele>173.06</ele>
        <time>2018-09-09T10:01:41.000Z</time>
      </trkpt>
      <trkpt lat="46.52688" lon="0.36885">
        <ele>172.59</ele>
        <time>2018-09-09T10:01:42.000Z</time>
      </trkpt>
      <trkpt lat="46.52679" lon="0.36907">
        <ele>171.27</ele>
        <time>2018-09-09T10:01:44.000Z</time>
      </trkpt>
      <trkpt lat="46.52671" lon="0.36928">
        <ele>170.33</ele>
        <time>2018-09-09T10:01:46.000Z</time>
      </trkpt>
      <trkpt lat="46.52665" lon="0.36951">
        <ele>169.52</ele>
        <time>2018-09-09T10:01:48.000Z</time>
      </trkpt>
      <trkpt lat="46.52659" lon="0.36971">
        <ele>168.9</ele>
        <time>2018-09-09T10:01:50.000Z</time>
      </trkpt>
      <trkpt lat="46.52652" lon="0.36988">
        <ele>168.48</ele>
        <time>2018-09-09T10:01:52.000Z</time>
      </trkpt>
      <trkpt lat="46.52646" lon="0.37006">
        <ele>168.03</ele>
        <time>2018-09-09T10:01:54.000Z</time>
      </trkpt>
      <trkpt lat="46.52642" lon="0.37028">
        <ele>167.41</ele>
        <time>2018-09-09T10:01:56.000Z</time>
      </trkpt>
      <trkpt lat="46.52641" lon="0.37051">
        <ele>166.67</ele>
        <time>2018-09-09T10:01:58.000Z</time>
      </trkpt>
      <trkpt lat="46.52638" lon="0.37068">
        <ele>166.66</ele>
        <time>2018-09-09T10:02:00.000Z</time>
      </trkpt>
      <trkpt lat="46.52636" lon="0.37084">
        <ele>165.79</ele>
        <time>2018-09-09T10:02:02.000Z</time>
      </trkpt>
      <trkpt lat="46.52638" lon="0.37099">
        <ele>165.35</ele>
        <time>2018-09-09T10:02:04.000Z</time>
      </trkpt>
      <trkpt lat="46.52642" lon="0.37115">
        <ele>165.4</ele>
        <time>2018-09-09T10:02:06.000Z</time>
      </trkpt>
      <trkpt lat="46.52646" lon="0.37131">
        <ele>165.19</ele>
        <time>2018-09-09T10:02:08.000Z</time>
      </trkpt>
      <trkpt lat="46.5265" lon="0.37145">
        <ele>165.38</ele>
        <time>2018-09-09T10:02:10.000Z</time>
      </trkpt>
      <trkpt lat="46.52652" lon="0.37159">
        <ele>166.26</ele>
        <time>2018-09-09T10:02:12.000Z</time>
      </trkpt>
      <trkpt lat="46.52655" lon="0.37179">
        <ele>166.81</ele>
        <time>2018-09-09T10:02:15.000Z</time>
      </trkpt>
      <trkpt lat="46.52661" lon="0.37198">
        <ele>166.54</ele>
        <time>2018-09-09T10:02:17.000Z</time>
      </trkpt>
      <trkpt lat="46.52665" lon="0.37214">
        <ele>166.28</ele>
        <time>2018-09-09T10:02:19.000Z</time>
      </trkpt>
      <trkpt lat="46.52668" lon="0.37229">
        <ele>166.21</ele>
        <time>2018-09-09T10:02:21.000Z</time>
      </trkpt>
      <trkpt lat="46.52673" lon="0.3725">
        <ele>165.19</ele>
        <time>2018-09-09T10:02:23.000Z</time>
      </trkpt>
      <trkpt lat="46.52682" lon="0.37271">
        <ele>162.67</ele>
        <time>2018-09-09T10:02:25.000Z</time>
      </trkpt>
      <trkpt lat="46.52686" lon="0.37294">
        <ele>159.54</ele>
        <time>2018-09-09T10:02:27.000Z</time>
      </trkpt>
      <trkpt lat="46.52685" lon="0.37313">
        <ele>157.65</ele>
        <time>2018-09-09T10:02:29.000Z</time>
      </trkpt>
      <trkpt lat="46.52681" lon="0.37325">
        <ele>154.81</ele>
        <time>2018-09-09T10:02:31.000Z</time>
      </trkpt>
      <trkpt lat="46.52677" lon="0.37339">
        <ele>151.58</ele>
        <time>2018-09-09T10:02:33.000Z</time>
      </trkpt>
      <trkpt lat="46.5267" lon="0.37356">
        <ele>147.35</ele>
        <time>2018-09-09T10:02:36.000Z</time>
      </trkpt>
      <trkpt lat="46.52665" lon="0.37372">
        <ele>145.31</ele>
        <time>2018-09-09T10:02:38.000Z</time>
      </trkpt>
      <trkpt lat="46.52659" lon="0.37384">
        <ele>144.33</ele>
        <time>2018-09-09T10:02:40.000Z</time>
      </trkpt>
      <trkpt lat="46.5265" lon="0.37393">
        <ele>144.08</ele>
        <time>2018-09-09T10:02:43.000Z</time>
      </trkpt>
      <trkpt lat="46.5264" lon="0.37392">
        <ele>143</ele>
        <time>2018-09-09T10:02:46.000Z</time>
      </trkpt>
      <trkpt lat="46.52631" lon="0.37387">
        <ele>142.19</ele>
        <time>2018-09-09T10:02:48.000Z</time>
      </trkpt>
      <trkpt lat="46.52623" lon="0.37379">
        <ele>141.61</ele>
        <time>2018-09-09T10:02:50.000Z</time>
      </trkpt>
      <trkpt lat="46.52615" lon="0.37371">
        <ele>141.28</ele>
        <time>2018-09-09T10:02:52.000Z</time>
      </trkpt>
      <trkpt lat="46.52607" lon="0.37359">
        <ele>141.49</ele>
        <time>2018-09-09T10:02:55.000Z</time>
      </trkpt>
      <trkpt lat="46.526" lon="0.3735">
        <ele>141.6</ele>
        <time>2018-09-09T10:02:58.000Z</time>
      </trkpt>
      <trkpt lat="46.52594" lon="0.37339">
        <ele>141.79</ele>
        <time>2018-09-09T10:03:01.000Z</time>
      </trkpt>
      <trkpt lat="46.52586" lon="0.37326">
        <ele>142.1</ele>
        <time>2018-09-09T10:03:05.000Z</time>
      </trkpt>
      <trkpt lat="46.52579" lon="0.37312">
        <ele>142.25</ele>
        <time>2018-09-09T10:03:09.000Z</time>
      </trkpt>
      <trkpt lat="46.52574" lon="0.373">
        <ele>142.38</ele>
        <time>2018-09-09T10:03:12.000Z</time>
      </trkpt>
      <trkpt lat="46.52565" lon="0.37284">
        <ele>142.52</ele>
        <time>2018-09-09T10:03:16.000Z</time>
      </trkpt>
      <trkpt lat="46.52558" lon="0.3727">
        <ele>142.85</ele>
        <time>2018-09-09T10:03:19.000Z</time>
      </trkpt>
      <trkpt lat="46.52551" lon="0.3726">
        <ele>143.29</ele>
        <time>2018-09-09T10:03:22.000Z</time>
      </trkpt>
      <trkpt lat="46.52545" lon="0.37247">
        <ele>143.74</ele>
        <time>2018-09-09T10:03:25.000Z</time>
      </trkpt>
      <trkpt lat="46.52539" lon="0.37237">
        <ele>144.24</ele>
        <time>2018-09-09T10:03:28.000Z</time>
      </trkpt>
      <trkpt lat="46.52531" lon="0.37227">
        <ele>144.67</ele>
        <time>2018-09-09T10:03:31.000Z</time>
      </trkpt>
      <trkpt lat="46.52525" lon="0.37215">
        <ele>145.12</ele>
        <time>2018-09-09T10:03:34.000Z</time>
      </trkpt>
      <trkpt lat="46.52518" lon="0.37204">
        <ele>145.56</ele>
        <time>2018-09-09T10:03:37.000Z</time>
      </trkpt>
      <trkpt lat="46.52511" lon="0.37191">
        <ele>145.99</ele>
        <time>2018-09-09T10:03:40.000Z</time>
      </trkpt>
      <trkpt lat="46.52504" lon="0.37179">
        <ele>146.49</ele>
        <time>2018-09-09T10:03:43.000Z</time>
      </trkpt>
      <trkpt lat="46.52498" lon="0.37169">
        <ele>147.05</ele>
        <time>2018-09-09T10:03:46.000Z</time>
      </trkpt>
      <trkpt lat="46.52489" lon="0.37157">
        <ele>147.88</ele>
        <time>2018-09-09T10:03:50.000Z</time>
      </trkpt>
      <trkpt lat="46.52482" lon="0.37148">
        <ele>148.75</ele>
        <time>2018-09-09T10:03:54.000Z</time>
      </trkpt>
      <trkpt lat="46.52475" lon="0.37133">
        <ele>149.74</ele>
        <time>2018-09-09T10:03:59.000Z</time>
      </trkpt>
      <trkpt lat="46.5247" lon="0.37122">
        <ele>150.34</ele>
        <time>2018-09-09T10:04:04.000Z</time>
      </trkpt>
      <trkpt lat="46.52465" lon="0.3711">
        <ele>150.74</ele>
        <time>2018-09-09T10:04:07.000Z</time>
      </trkpt>
      <trkpt lat="46.5246" lon="0.37098">
        <ele>151.3</ele>
        <time>2018-09-09T10:04:11.000Z</time>
      </trkpt>
      <trkpt lat="46.52453" lon="0.37088">
        <ele>152.21</ele>
        <time>2018-09-09T10:04:17.000Z</time>
      </trkpt>
      <trkpt lat="46.52443" lon="0.37084">
        <ele>152.76</ele>
        <time>2018-09-09T10:04:22.000Z</time>
      </trkpt>
      <trkpt lat="46.52432" lon="0.37087">
        <ele>153.22</ele>
        <time>2018-09-09T10:04:27.000Z</time>
      </trkpt>
      <trkpt lat="46.52424" lon="0.37091">
        <ele>153.49</ele>
        <time>2018-09-09T10:04:31.000Z</time>
      </trkpt>
      <trkpt lat="46.52416" lon="0.37099">
        <ele>153.96</ele>
        <time>2018-09-09T10:04:34.000Z</time>
      </trkpt>
      <trkpt lat="46.52407" lon="0.37112">
        <ele>154.41</ele>
        <time>2018-09-09T10:04:37.000Z</time>
      </trkpt>
      <trkpt lat="46.52398" lon="0.37122">
        <ele>153.9</ele>
        <time>2018-09-09T10:04:39.000Z</time>
      </trkpt>
      <trkpt lat="46.52388" lon="0.37137">
        <ele>152.8</ele>
        <time>2018-09-09T10:04:41.000Z</time>
      </trkpt>
      <trkpt lat="46.52382" lon="0.37157">
        <ele>151.86</ele>
        <time>2018-09-09T10:04:43.000Z</time>
      </trkpt>
      <trkpt lat="46.52379" lon="0.37179">
        <ele>151.05</ele>
        <time>2018-09-09T10:04:45.000Z</time>
      </trkpt>
      <trkpt lat="46.52374" lon="0.37202">
        <ele>150.53</ele>
        <time>2018-09-09T10:04:47.000Z</time>
      </trkpt>
      <trkpt lat="46.52363" lon="0.3722">
        <ele>149.82</ele>
        <time>2018-09-09T10:04:49.000Z</time>
      </trkpt>
      <trkpt lat="46.52346" lon="0.37222">
        <ele>149.3</ele>
        <time>2018-09-09T10:04:51.000Z</time>
      </trkpt>
      <trkpt lat="46.52329" lon="0.37221">
        <ele>148.84</ele>
        <time>2018-09-09T10:04:53.000Z</time>
      </trkpt>
      <trkpt lat="46.5232" lon="0.37225">
        <ele>148.65</ele>
        <time>2018-09-09T10:04:54.000Z</time>
      </trkpt>
      <trkpt lat="46.52313" lon="0.37233">
        <ele>148.27</ele>
        <time>2018-09-09T10:04:55.000Z</time>
      </trkpt>
      <trkpt lat="46.52306" lon="0.37256">
        <ele>147.55</ele>
        <time>2018-09-09T10:04:57.000Z</time>
      </trkpt>
      <trkpt lat="46.52307" lon="0.37278">
        <ele>147.29</ele>
        <time>2018-09-09T10:04:59.000Z</time>
      </trkpt>
      <trkpt lat="46.52308" lon="0.37298">
        <ele>146.97</ele>
        <time>2018-09-09T10:05:01.000Z</time>
      </trkpt>
      <trkpt lat="46.52308" lon="0.37318">
        <ele>146.46</ele>
        <time>2018-09-09T10:05:03.000Z</time>
      </trkpt>
      <trkpt lat="46.52308" lon="0.37337">
        <ele>145.86</ele>
        <time>2018-09-09T10:05:05.000Z</time>
      </trkpt>
      <trkpt lat="46.52308" lon="0.37355">
        <ele>145.26</ele>
        <time>2018-09-09T10:05:07.000Z</time>
      </trkpt>
      <trkpt lat="46.52307" lon="0.37373">
        <ele>144.81</ele>
        <time>2018-09-09T10:05:09.000Z</time>
      </trkpt>
      <trkpt lat="46.52306" lon="0.37392">
        <ele>144.6</ele>
        <time>2018-09-09T10:05:11.000Z</time>
      </trkpt>
      <trkpt lat="46.52304" lon="0.37414">
        <ele>144.63</ele>
        <time>2018-09-09T10:05:14.000Z</time>
      </trkpt>
      <trkpt lat="46.52304" lon="0.37428">
        <ele>144.87</ele>
        <time>2018-09-09T10:05:16.000Z</time>
      </trkpt>
      <trkpt lat="46.52306" lon="0.37446">
        <ele>145.3</ele>
        <time>2018-09-09T10:05:19.000Z</time>
      </trkpt>
      <trkpt lat="46.52308" lon="0.37463">
        <ele>145.91</ele>
        <time>2018-09-09T10:05:22.000Z</time>
      </trkpt>
      <trkpt lat="46.52311" lon="0.3748">
        <ele>146.18</ele>
        <time>2018-09-09T10:05:25.000Z</time>
      </trkpt>
      <trkpt lat="46.52312" lon="0.37494">
        <ele>146.3</ele>
        <time>2018-09-09T10:05:28.000Z</time>
      </trkpt>
      <trkpt lat="46.52313" lon="0.37509">
        <ele>146.64</ele>
        <time>2018-09-09T10:05:32.000Z</time>
      </trkpt>
      <trkpt lat="46.52312" lon="0.37522">
        <ele>147.21</ele>
        <time>2018-09-09T10:05:36.000Z</time>
      </trkpt>
      <trkpt lat="46.52311" lon="0.37536">
        <ele>147.98</ele>
        <time>2018-09-09T10:05:40.000Z</time>
      </trkpt>
      <trkpt lat="46.52312" lon="0.3755">
        <ele>148.57</ele>
        <time>2018-09-09T10:05:43.000Z</time>
      </trkpt>
      <trkpt lat="46.52313" lon="0.37568">
        <ele>149.1</ele>
        <time>2018-09-09T10:05:47.000Z</time>
      </trkpt>
      <trkpt lat="46.52311" lon="0.37582">
        <ele>149.68</ele>
        <time>2018-09-09T10:05:52.000Z</time>
      </trkpt>
      <trkpt lat="46.52311" lon="0.37596">
        <ele>150.37</ele>
        <time>2018-09-09T10:05:59.000Z</time>
      </trkpt>
      <trkpt lat="46.52311" lon="0.3761">
        <ele>150.72</ele>
        <time>2018-09-09T10:06:04.000Z</time>
      </trkpt>
      <trkpt lat="46.52311" lon="0.37625">
        <ele>151.08</ele>
        <time>2018-09-09T10:06:09.000Z</time>
      </trkpt>
      <trkpt lat="46.52312" lon="0.37641">
        <ele>151.93</ele>
        <time>2018-09-09T10:06:15.000Z</time>
      </trkpt>
      <trkpt lat="46.52313" lon="0.37657">
        <ele>152.83</ele>
        <time>2018-09-09T10:06:21.000Z</time>
      </trkpt>
      <trkpt lat="46.52314" lon="0.37672">
        <ele>153.61</ele>
        <time>2018-09-09T10:06:26.000Z</time>
      </trkpt>
      <trkpt lat="46.52316" lon="0.37685">
        <ele>154.37</ele>
        <time>2018-09-09T10:06:31.000Z</time>
      </trkpt>
      <trkpt lat="46.52317" lon="0.37699">
        <ele>154.97</ele>
        <time>2018-09-09T10:06:36.000Z</time>
      </trkpt>
      <trkpt lat="46.52319" lon="0.37712">
        <ele>155.67</ele>
        <time>2018-09-09T10:06:41.000Z</time>
      </trkpt>
      <trkpt lat="46.52322" lon="0.37726">
        <ele>156.8</ele>
        <time>2018-09-09T10:06:48.000Z</time>
      </trkpt>
      <trkpt lat="46.52323" lon="0.3774">
        <ele>157.88</ele>
        <time>2018-09-09T10:06:54.000Z</time>
      </trkpt>
      <trkpt lat="46.52324" lon="0.37757">
        <ele>158.55</ele>
        <time>2018-09-09T10:06:59.000Z</time>
      </trkpt>
      <trkpt lat="46.52324" lon="0.37773">
        <ele>159.16</ele>
        <time>2018-09-09T10:07:05.000Z</time>
      </trkpt>
      <trkpt lat="46.52324" lon="0.37787">
        <ele>159.84</ele>
        <time>2018-09-09T10:07:11.000Z</time>
      </trkpt>
      <trkpt lat="46.52322" lon="0.37801">
        <ele>160.5</ele>
        <time>2018-09-09T10:07:17.000Z</time>
      </trkpt>
      <trkpt lat="46.52323" lon="0.37816">
        <ele>162.2</ele>
        <time>2018-09-09T10:07:27.000Z</time>
      </trkpt>
      <trkpt lat="46.52322" lon="0.3783">
        <ele>163.15</ele>
        <time>2018-09-09T10:07:32.000Z</time>
      </trkpt>
      <trkpt lat="46.52323" lon="0.37845">
        <ele>164.13</ele>
        <time>2018-09-09T10:07:38.000Z</time>
      </trkpt>
      <trkpt lat="46.52325" lon="0.37858">
        <ele>165.59</ele>
        <time>2018-09-09T10:07:46.000Z</time>
      </trkpt>
      <trkpt lat="46.52324" lon="0.37871">
        <ele>167.15</ele>
        <time>2018-09-09T10:07:54.000Z</time>
      </trkpt>
      <trkpt lat="46.52313" lon="0.37873">
        <ele>167.9</ele>
        <time>2018-09-09T10:08:15.000Z</time>
      </trkpt>
      <trkpt lat="46.52303" lon="0.37875">
        <ele>168.16</ele>
        <time>2018-09-09T10:08:18.000Z</time>
      </trkpt>
      <trkpt lat="46.52294" lon="0.37878">
        <ele>168.6</ele>
        <time>2018-09-09T10:08:21.000Z</time>
      </trkpt>
      <trkpt lat="46.52286" lon="0.37886">
        <ele>169.2</ele>
        <time>2018-09-09T10:08:26.000Z</time>
      </trkpt>
      <trkpt lat="46.52276" lon="0.37891">
        <ele>169.44</ele>
        <time>2018-09-09T10:08:30.000Z</time>
      </trkpt>
      <trkpt lat="46.52264" lon="0.37896">
        <ele>169.46</ele>
        <time>2018-09-09T10:08:33.000Z</time>
      </trkpt>
      <trkpt lat="46.52255" lon="0.37901">
        <ele>169.4</ele>
        <time>2018-09-09T10:08:36.000Z</time>
      </trkpt>
      <trkpt lat="46.52246" lon="0.37906">
        <ele>169.35</ele>
        <time>2018-09-09T10:08:39.000Z</time>
      </trkpt>
      <trkpt lat="46.52236" lon="0.37916">
        <ele>169.37</ele>
        <time>2018-09-09T10:08:43.000Z</time>
      </trkpt>
      <trkpt lat="46.52227" lon="0.37927">
        <ele>169.34</ele>
        <time>2018-09-09T10:08:46.000Z</time>
      </trkpt>
      <trkpt lat="46.5222" lon="0.37937">
        <ele>169.39</ele>
        <time>2018-09-09T10:08:49.000Z</time>
      </trkpt>
      <trkpt lat="46.52213" lon="0.37945">
        <ele>169.64</ele>
        <time>2018-09-09T10:08:52.000Z</time>
      </trkpt>
      <trkpt lat="46.52206" lon="0.37956">
        <ele>169.89</ele>
        <time>2018-09-09T10:08:55.000Z</time>
      </trkpt>
      <trkpt lat="46.522" lon="0.37967">
        <ele>170.16</ele>
        <time>2018-09-09T10:08:58.000Z</time>
      </trkpt>
      <trkpt lat="46.52189" lon="0.37977">
        <ele>171.57</ele>
        <time>2018-09-09T10:09:01.000Z</time>
      </trkpt>
      <trkpt lat="46.52181" lon="0.37984">
        <ele>171.38</ele>
        <time>2018-09-09T10:09:03.000Z</time>
      </trkpt>
      <trkpt lat="46.52171" lon="0.37991">
        <ele>170.83</ele>
        <time>2018-09-09T10:09:05.000Z</time>
      </trkpt>
      <trkpt lat="46.52153" lon="0.38">
        <ele>170.56</ele>
        <time>2018-09-09T10:09:07.000Z</time>
      </trkpt>
      <trkpt lat="46.52139" lon="0.38008">
        <ele>170.28</ele>
        <time>2018-09-09T10:09:09.000Z</time>
      </trkpt>
      <trkpt lat="46.52131" lon="0.3801">
        <ele>170.11</ele>
        <time>2018-09-09T10:09:10.000Z</time>
      </trkpt>
      <trkpt lat="46.52116" lon="0.38013">
        <ele>169.78</ele>
        <time>2018-09-09T10:09:12.000Z</time>
      </trkpt>
      <trkpt lat="46.52105" lon="0.38016">
        <ele>169.27</ele>
        <time>2018-09-09T10:09:15.000Z</time>
      </trkpt>
      <trkpt lat="46.52094" lon="0.38015">
        <ele>167.82</ele>
        <time>2018-09-09T10:09:17.000Z</time>
      </trkpt>
      <trkpt lat="46.52084" lon="0.38015">
        <ele>166.63</ele>
        <time>2018-09-09T10:09:19.000Z</time>
      </trkpt>
      <trkpt lat="46.52071" lon="0.38015">
        <ele>164.69</ele>
        <time>2018-09-09T10:09:22.000Z</time>
      </trkpt>
      <trkpt lat="46.5206" lon="0.38013">
        <ele>164.29</ele>
        <time>2018-09-09T10:09:25.000Z</time>
      </trkpt>
      <trkpt lat="46.5205" lon="0.38008">
        <ele>162.22</ele>
        <time>2018-09-09T10:09:27.000Z</time>
      </trkpt>
      <trkpt lat="46.52042" lon="0.38003">
        <ele>161.72</ele>
        <time>2018-09-09T10:09:29.000Z</time>
      </trkpt>
      <trkpt lat="46.52033" lon="0.37998">
        <ele>161.09</ele>
        <time>2018-09-09T10:09:31.000Z</time>
      </trkpt>
      <trkpt lat="46.52022" lon="0.37995">
        <ele>159.74</ele>
        <time>2018-09-09T10:09:35.000Z</time>
      </trkpt>
      <trkpt lat="46.52012" lon="0.37994">
        <ele>153.84</ele>
        <time>2018-09-09T10:09:37.000Z</time>
      </trkpt>
      <trkpt lat="46.52002" lon="0.37979">
        <ele>150.02</ele>
        <time>2018-09-09T10:09:39.000Z</time>
      </trkpt>
      <trkpt lat="46.51994" lon="0.37967">
        <ele>147.42</ele>
        <time>2018-09-09T10:09:41.000Z</time>
      </trkpt>
      <trkpt lat="46.51981" lon="0.37963">
        <ele>145.31</ele>
        <time>2018-09-09T10:09:43.000Z</time>
      </trkpt>
      <trkpt lat="46.51969" lon="0.37962">
        <ele>143.78</ele>
        <time>2018-09-09T10:09:45.000Z</time>
      </trkpt>
      <trkpt lat="46.51955" lon="0.37963">
        <ele>144.42</ele>
        <time>2018-09-09T10:09:47.000Z</time>
      </trkpt>
      <trkpt lat="46.51946" lon="0.37967">
        <ele>145.08</ele>
        <time>2018-09-09T10:09:50.000Z</time>
      </trkpt>
      <trkpt lat="46.51937" lon="0.37972">
        <ele>145.55</ele>
        <time>2018-09-09T10:09:56.000Z</time>
      </trkpt>
      <trkpt lat="46.51928" lon="0.37979">
        <ele>145.92</ele>
        <time>2018-09-09T10:10:02.000Z</time>
      </trkpt>
      <trkpt lat="46.5192" lon="0.37988">
        <ele>146.13</ele>
        <time>2018-09-09T10:10:06.000Z</time>
      </trkpt>
      <trkpt lat="46.5191" lon="0.37996">
        <ele>146.22</ele>
        <time>2018-09-09T10:10:10.000Z</time>
      </trkpt>
      <trkpt lat="46.519" lon="0.38002">
        <ele>146.21</ele>
        <time>2018-09-09T10:10:13.000Z</time>
      </trkpt>
      <trkpt lat="46.51889" lon="0.38009">
        <ele>146.11</ele>
        <time>2018-09-09T10:10:17.000Z</time>
      </trkpt>
      <trkpt lat="46.51878" lon="0.38008">
        <ele>146.19</ele>
        <time>2018-09-09T10:10:21.000Z</time>
      </trkpt>
      <trkpt lat="46.51868" lon="0.38005">
        <ele>146.48</ele>
        <time>2018-09-09T10:10:25.000Z</time>
      </trkpt>
      <trkpt lat="46.51859" lon="0.38">
        <ele>146.94</ele>
        <time>2018-09-09T10:10:29.000Z</time>
      </trkpt>
      <trkpt lat="46.5185" lon="0.37997">
        <ele>147.31</ele>
        <time>2018-09-09T10:10:32.000Z</time>
      </trkpt>
      <trkpt lat="46.5184" lon="0.37995">
        <ele>147.9</ele>
        <time>2018-09-09T10:10:36.000Z</time>
      </trkpt>
      <trkpt lat="46.5183" lon="0.37994">
        <ele>148.79</ele>
        <time>2018-09-09T10:10:40.000Z</time>
      </trkpt>
      <trkpt lat="46.51829" lon="0.37977">
        <ele>150.75</ele>
        <time>2018-09-09T10:10:49.000Z</time>
      </trkpt>
      <trkpt lat="46.51833" lon="0.37963">
        <ele>151.56</ele>
        <time>2018-09-09T10:10:53.000Z</time>
      </trkpt>
      <trkpt lat="46.51835" lon="0.37949">
        <ele>152.35</ele>
        <time>2018-09-09T10:10:57.000Z</time>
      </trkpt>
      <trkpt lat="46.51836" lon="0.3793">
        <ele>152.8</ele>
        <time>2018-09-09T10:11:00.000Z</time>
      </trkpt>
      <trkpt lat="46.51837" lon="0.37916">
        <ele>153.12</ele>
        <time>2018-09-09T10:11:02.000Z</time>
      </trkpt>
      <trkpt lat="46.51839" lon="0.37901">
        <ele>153.67</ele>
        <time>2018-09-09T10:11:05.000Z</time>
      </trkpt>
      <trkpt lat="46.5184" lon="0.37887">
        <ele>154.09</ele>
        <time>2018-09-09T10:11:07.000Z</time>
      </trkpt>
      <trkpt lat="46.51845" lon="0.3787">
        <ele>154.41</ele>
        <time>2018-09-09T10:11:09.000Z</time>
      </trkpt>
      <trkpt lat="46.5185" lon="0.37857">
        <ele>155.66</ele>
        <time>2018-09-09T10:11:11.000Z</time>
      </trkpt>
      <trkpt lat="46.51856" lon="0.37845">
        <ele>155.9</ele>
        <time>2018-09-09T10:11:13.000Z</time>
      </trkpt>
      <trkpt lat="46.51861" lon="0.37832">
        <ele>155.57</ele>
        <time>2018-09-09T10:11:15.000Z</time>
      </trkpt>
      <trkpt lat="46.51867" lon="0.3782">
        <ele>155.82</ele>
        <time>2018-09-09T10:11:17.000Z</time>
      </trkpt>
      <trkpt lat="46.51873" lon="0.37806">
        <ele>155.82</ele>
        <time>2018-09-09T10:11:19.000Z</time>
      </trkpt>
      <trkpt lat="46.51878" lon="0.37794">
        <ele>155.59</ele>
        <time>2018-09-09T10:11:21.000Z</time>
      </trkpt>
      <trkpt lat="46.51881" lon="0.37776">
        <ele>155.43</ele>
        <time>2018-09-09T10:11:23.000Z</time>
      </trkpt>
      <trkpt lat="46.51884" lon="0.37758">
        <ele>155.19</ele>
        <time>2018-09-09T10:11:25.000Z</time>
      </trkpt>
      <trkpt lat="46.51887" lon="0.37745">
        <ele>155.22</ele>
        <time>2018-09-09T10:11:27.000Z</time>
      </trkpt>
      <trkpt lat="46.5189" lon="0.37725">
        <ele>155.93</ele>
        <time>2018-09-09T10:11:30.000Z</time>
      </trkpt>
      <trkpt lat="46.51891" lon="0.37708">
        <ele>156.54</ele>
        <time>2018-09-09T10:11:32.000Z</time>
      </trkpt>
      <trkpt lat="46.51895" lon="0.3769">
        <ele>157.71</ele>
        <time>2018-09-09T10:11:35.000Z</time>
      </trkpt>
      <trkpt lat="46.51898" lon="0.37671">
        <ele>160.27</ele>
        <time>2018-09-09T10:11:38.000Z</time>
      </trkpt>
      <trkpt lat="46.519" lon="0.37657">
        <ele>161.41</ele>
        <time>2018-09-09T10:11:40.000Z</time>
      </trkpt>
      <trkpt lat="46.51903" lon="0.37643">
        <ele>161.99</ele>
        <time>2018-09-09T10:11:42.000Z</time>
      </trkpt>
      <trkpt lat="46.51907" lon="0.37628">
        <ele>162.36</ele>
        <time>2018-09-09T10:11:44.000Z</time>
      </trkpt>
      <trkpt lat="46.51909" lon="0.37613">
        <ele>162.03</ele>
        <time>2018-09-09T10:11:46.000Z</time>
      </trkpt>
      <trkpt lat="46.51908" lon="0.37598">
        <ele>161.96</ele>
        <time>2018-09-09T10:11:48.000Z</time>
      </trkpt>
      <trkpt lat="46.51904" lon="0.37582">
        <ele>161.89</ele>
        <time>2018-09-09T10:11:50.000Z</time>
      </trkpt>
      <trkpt lat="46.519" lon="0.37561">
        <ele>162.85</ele>
        <time>2018-09-09T10:11:52.000Z</time>
      </trkpt>
      <trkpt lat="46.51896" lon="0.37545">
        <ele>163.03</ele>
        <time>2018-09-09T10:11:54.000Z</time>
      </trkpt>
      <trkpt lat="46.51886" lon="0.37531">
        <ele>162.97</ele>
        <time>2018-09-09T10:11:57.000Z</time>
      </trkpt>
      <trkpt lat="46.51876" lon="0.37521">
        <ele>162.08</ele>
        <time>2018-09-09T10:11:59.000Z</time>
      </trkpt>
      <trkpt lat="46.51865" lon="0.37512">
        <ele>160.39</ele>
        <time>2018-09-09T10:12:01.000Z</time>
      </trkpt>
      <trkpt lat="46.51854" lon="0.37503">
        <ele>158.57</ele>
        <time>2018-09-09T10:12:03.000Z</time>
      </trkpt>
      <trkpt lat="46.51844" lon="0.37499">
        <ele>156.71</ele>
        <time>2018-09-09T10:12:05.000Z</time>
      </trkpt>
      <trkpt lat="46.51831" lon="0.37496">
        <ele>154.74</ele>
        <time>2018-09-09T10:12:07.000Z</time>
      </trkpt>
      <trkpt lat="46.5182" lon="0.37495">
        <ele>153.44</ele>
        <time>2018-09-09T10:12:09.000Z</time>
      </trkpt>
      <trkpt lat="46.51809" lon="0.37492">
        <ele>152.24</ele>
        <time>2018-09-09T10:12:11.000Z</time>
      </trkpt>
      <trkpt lat="46.51798" lon="0.3749">
        <ele>151.28</ele>
        <time>2018-09-09T10:12:13.000Z</time>
      </trkpt>
      <trkpt lat="46.51787" lon="0.37487">
        <ele>151.15</ele>
        <time>2018-09-09T10:12:15.000Z</time>
      </trkpt>
      <trkpt lat="46.51777" lon="0.37484">
        <ele>151.55</ele>
        <time>2018-09-09T10:12:17.000Z</time>
      </trkpt>
      <trkpt lat="46.51767" lon="0.3748">
        <ele>151.96</ele>
        <time>2018-09-09T10:12:20.000Z</time>
      </trkpt>
      <trkpt lat="46.51758" lon="0.37476">
        <ele>152.22</ele>
        <time>2018-09-09T10:12:23.000Z</time>
      </trkpt>
      <trkpt lat="46.51757" lon="0.3749">
        <ele>154.08</ele>
        <time>2018-09-09T10:12:34.000Z</time>
      </trkpt>
      <trkpt lat="46.51761" lon="0.37502">
        <ele>155.63</ele>
        <time>2018-09-09T10:12:41.000Z</time>
      </trkpt>
      <trkpt lat="46.51761" lon="0.37516">
        <ele>156.68</ele>
        <time>2018-09-09T10:12:49.000Z</time>
      </trkpt>
      <trkpt lat="46.51757" lon="0.3753">
        <ele>158.19</ele>
        <time>2018-09-09T10:13:05.000Z</time>
      </trkpt>
      <trkpt lat="46.51755" lon="0.37543">
        <ele>159.25</ele>
        <time>2018-09-09T10:13:14.000Z</time>
      </trkpt>
      <trkpt lat="46.51753" lon="0.37557">
        <ele>160.07</ele>
        <time>2018-09-09T10:13:26.000Z</time>
      </trkpt>
      <trkpt lat="46.51748" lon="0.37569">
        <ele>162.05</ele>
        <time>2018-09-09T10:13:35.000Z</time>
      </trkpt>
      <trkpt lat="46.51744" lon="0.37583">
        <ele>163.08</ele>
        <time>2018-09-09T10:13:40.000Z</time>
      </trkpt>
      <trkpt lat="46.51737" lon="0.37595">
        <ele>164.02</ele>
        <time>2018-09-09T10:13:49.000Z</time>
      </trkpt>
      <trkpt lat="46.51734" lon="0.3761">
        <ele>164.33</ele>
        <time>2018-09-09T10:13:53.000Z</time>
      </trkpt>
      <trkpt lat="46.51729" lon="0.37622">
        <ele>164.71</ele>
        <time>2018-09-09T10:13:57.000Z</time>
      </trkpt>
      <trkpt lat="46.51724" lon="0.37637">
        <ele>165.35</ele>
        <time>2018-09-09T10:14:01.000Z</time>
      </trkpt>
      <trkpt lat="46.51719" lon="0.3765">
        <ele>166.06</ele>
        <time>2018-09-09T10:14:05.000Z</time>
      </trkpt>
      <trkpt lat="46.51715" lon="0.37663">
        <ele>166.9</ele>
        <time>2018-09-09T10:14:09.000Z</time>
      </trkpt>
      <trkpt lat="46.51708" lon="0.37678">
        <ele>167.93</ele>
        <time>2018-09-09T10:14:14.000Z</time>
      </trkpt>
      <trkpt lat="46.51704" lon="0.37691">
        <ele>168.29</ele>
        <time>2018-09-09T10:14:17.000Z</time>
      </trkpt>
      <trkpt lat="46.51703" lon="0.37708">
        <ele>168.43</ele>
        <time>2018-09-09T10:14:20.000Z</time>
      </trkpt>
      <trkpt lat="46.51701" lon="0.37721">
        <ele>168.58</ele>
        <time>2018-09-09T10:14:25.000Z</time>
      </trkpt>
      <trkpt lat="46.51696" lon="0.37737">
        <ele>168.59</ele>
        <time>2018-09-09T10:14:29.000Z</time>
      </trkpt>
      <trkpt lat="46.51691" lon="0.3775">
        <ele>168.52</ele>
        <time>2018-09-09T10:14:31.000Z</time>
      </trkpt>
      <trkpt lat="46.51685" lon="0.37765">
        <ele>168.49</ele>
        <time>2018-09-09T10:14:34.000Z</time>
      </trkpt>
      <trkpt lat="46.51679" lon="0.37782">
        <ele>168.62</ele>
        <time>2018-09-09T10:14:37.000Z</time>
      </trkpt>
      <trkpt lat="46.51672" lon="0.37798">
        <ele>168.82</ele>
        <time>2018-09-09T10:14:40.000Z</time>
      </trkpt>
      <trkpt lat="46.51667" lon="0.37815">
        <ele>168.99</ele>
        <time>2018-09-09T10:14:43.000Z</time>
      </trkpt>
      <trkpt lat="46.51661" lon="0.37829">
        <ele>169.64</ele>
        <time>2018-09-09T10:14:45.000Z</time>
      </trkpt>
      <trkpt lat="46.51657" lon="0.37842">
        <ele>168.86</ele>
        <time>2018-09-09T10:14:47.000Z</time>
      </trkpt>
      <trkpt lat="46.51652" lon="0.37861">
        <ele>168.31</ele>
        <time>2018-09-09T10:14:49.000Z</time>
      </trkpt>
      <trkpt lat="46.51647" lon="0.37879">
        <ele>168.32</ele>
        <time>2018-09-09T10:14:51.000Z</time>
      </trkpt>
      <trkpt lat="46.51642" lon="0.37892">
        <ele>168.91</ele>
        <time>2018-09-09T10:14:53.000Z</time>
      </trkpt>
      <trkpt lat="46.51638" lon="0.37905">
        <ele>169.67</ele>
        <time>2018-09-09T10:14:55.000Z</time>
      </trkpt>
      <trkpt lat="46.51634" lon="0.37921">
        <ele>169.67</ele>
        <time>2018-09-09T10:14:58.000Z</time>
      </trkpt>
      <trkpt lat="46.5163" lon="0.37939">
        <ele>169.72</ele>
        <time>2018-09-09T10:15:01.000Z</time>
      </trkpt>
      <trkpt lat="46.51623" lon="0.37956">
        <ele>169.5</ele>
        <time>2018-09-09T10:15:04.000Z</time>
      </trkpt>
      <trkpt lat="46.51619" lon="0.37973">
        <ele>169.21</ele>
        <time>2018-09-09T10:15:07.000Z</time>
      </trkpt>
      <trkpt lat="46.51612" lon="0.37983">
        <ele>168.96</ele>
        <time>2018-09-09T10:15:11.000Z</time>
      </trkpt>
      <trkpt lat="46.51604" lon="0.37974">
        <ele>169.29</ele>
        <time>2018-09-09T10:15:17.000Z</time>
      </trkpt>
      <trkpt lat="46.51594" lon="0.37962">
        <ele>169.65</ele>
        <time>2018-09-09T10:15:20.000Z</time>
      </trkpt>
      <trkpt lat="46.51584" lon="0.37959">
        <ele>170.25</ele>
        <time>2018-09-09T10:15:24.000Z</time>
      </trkpt>
      <trkpt lat="46.51574" lon="0.37956">
        <ele>170.84</ele>
        <time>2018-09-09T10:15:27.000Z</time>
      </trkpt>
      <trkpt lat="46.51562" lon="0.37953">
        <ele>171.41</ele>
        <time>2018-09-09T10:15:30.000Z</time>
      </trkpt>
      <trkpt lat="46.5155" lon="0.37951">
        <ele>171.65</ele>
        <time>2018-09-09T10:15:32.000Z</time>
      </trkpt>
      <trkpt lat="46.51539" lon="0.3795">
        <ele>171.71</ele>
        <time>2018-09-09T10:15:34.000Z</time>
      </trkpt>
      <trkpt lat="46.51528" lon="0.37949">
        <ele>171.71</ele>
        <time>2018-09-09T10:15:36.000Z</time>
      </trkpt>
      <trkpt lat="46.51517" lon="0.3795">
        <ele>171.75</ele>
        <time>2018-09-09T10:15:40.000Z</time>
      </trkpt>
      <trkpt lat="46.51506" lon="0.37951">
        <ele>171.92</ele>
        <time>2018-09-09T10:15:43.000Z</time>
      </trkpt>
      <trkpt lat="46.51496" lon="0.3795">
        <ele>173.34</ele>
        <time>2018-09-09T10:15:45.000Z</time>
      </trkpt>
      <trkpt lat="46.51483" lon="0.37952">
        <ele>173.57</ele>
        <time>2018-09-09T10:15:48.000Z</time>
      </trkpt>
      <trkpt lat="46.51469" lon="0.37953">
        <ele>175.82</ele>
        <time>2018-09-09T10:15:51.000Z</time>
      </trkpt>
      <trkpt lat="46.5146" lon="0.37952">
        <ele>176.01</ele>
        <time>2018-09-09T10:15:53.000Z</time>
      </trkpt>
      <trkpt lat="46.5145" lon="0.37953">
        <ele>176.35</ele>
        <time>2018-09-09T10:15:56.000Z</time>
      </trkpt>
      <trkpt lat="46.51439" lon="0.37952">
        <ele>176.65</ele>
        <time>2018-09-09T10:15:59.000Z</time>
      </trkpt>
      <trkpt lat="46.51433" lon="0.3794">
        <ele>177.55</ele>
        <time>2018-09-09T10:16:06.000Z</time>
      </trkpt>
      <trkpt lat="46.51434" lon="0.37926">
        <ele>178.26</ele>
        <time>2018-09-09T10:16:13.000Z</time>
      </trkpt>
      <trkpt lat="46.51434" lon="0.37912">
        <ele>178.58</ele>
        <time>2018-09-09T10:16:18.000Z</time>
      </trkpt>
      <trkpt lat="46.51434" lon="0.37895">
        <ele>178.89</ele>
        <time>2018-09-09T10:16:23.000Z</time>
      </trkpt>
      <trkpt lat="46.51435" lon="0.37879">
        <ele>179.42</ele>
        <time>2018-09-09T10:16:27.000Z</time>
      </trkpt>
      <trkpt lat="46.51435" lon="0.37865">
        <ele>180.1</ele>
        <time>2018-09-09T10:16:30.000Z</time>
      </trkpt>
      <trkpt lat="46.51433" lon="0.37852">
        <ele>180.75</ele>
        <time>2018-09-09T10:16:33.000Z</time>
      </trkpt>
      <trkpt lat="46.51431" lon="0.37838">
        <ele>181.66</ele>
        <time>2018-09-09T10:16:38.000Z</time>
      </trkpt>
      <trkpt lat="46.51428" lon="0.37824">
        <ele>182.07</ele>
        <time>2018-09-09T10:16:42.000Z</time>
      </trkpt>
      <trkpt lat="46.51431" lon="0.37806">
        <ele>182.15</ele>
        <time>2018-09-09T10:16:46.000Z</time>
      </trkpt>
      <trkpt lat="46.51436" lon="0.37791">
        <ele>182.22</ele>
        <time>2018-09-09T10:16:49.000Z</time>
      </trkpt>
      <trkpt lat="46.51441" lon="0.37777">
        <ele>182.31</ele>
        <time>2018-09-09T10:16:51.000Z</time>
      </trkpt>
      <trkpt lat="46.51446" lon="0.37762">
        <ele>182.46</ele>
        <time>2018-09-09T10:16:55.000Z</time>
      </trkpt>
      <trkpt lat="46.51442" lon="0.3775">
        <ele>182.48</ele>
        <time>2018-09-09T10:16:57.000Z</time>
      </trkpt>
      <trkpt lat="46.51439" lon="0.37738">
        <ele>182.47</ele>
        <time>2018-09-09T10:16:59.000Z</time>
      </trkpt>
      <trkpt lat="46.51432" lon="0.37724">
        <ele>182.38</ele>
        <time>2018-09-09T10:17:03.000Z</time>
      </trkpt>
      <trkpt lat="46.51424" lon="0.37715">
        <ele>182.29</ele>
        <time>2018-09-09T10:17:06.000Z</time>
      </trkpt>
      <trkpt lat="46.51415" lon="0.37707">
        <ele>182.27</ele>
        <time>2018-09-09T10:17:08.000Z</time>
      </trkpt>
      <trkpt lat="46.51408" lon="0.37693">
        <ele>182.72</ele>
        <time>2018-09-09T10:17:12.000Z</time>
      </trkpt>
      <trkpt lat="46.51399" lon="0.3768">
        <ele>182.91</ele>
        <time>2018-09-09T10:17:15.000Z</time>
      </trkpt>
      <trkpt lat="46.51392" lon="0.37665">
        <ele>183.23</ele>
        <time>2018-09-09T10:17:20.000Z</time>
      </trkpt>
      <trkpt lat="46.51386" lon="0.37654">
        <ele>183.31</ele>
        <time>2018-09-09T10:17:22.000Z</time>
      </trkpt>
      <trkpt lat="46.51381" lon="0.3764">
        <ele>183.29</ele>
        <time>2018-09-09T10:17:25.000Z</time>
      </trkpt>
      <trkpt lat="46.51375" lon="0.37625">
        <ele>183.34</ele>
        <time>2018-09-09T10:17:28.000Z</time>
      </trkpt>
      <trkpt lat="46.51373" lon="0.3761">
        <ele>183.61</ele>
        <time>2018-09-09T10:17:32.000Z</time>
      </trkpt>
      <trkpt lat="46.51369" lon="0.37597">
        <ele>183.91</ele>
        <time>2018-09-09T10:17:35.000Z</time>
      </trkpt>
      <trkpt lat="46.51368" lon="0.37583">
        <ele>184.18</ele>
        <time>2018-09-09T10:17:37.000Z</time>
      </trkpt>
      <trkpt lat="46.51362" lon="0.37569">
        <ele>184.55</ele>
        <time>2018-09-09T10:17:40.000Z</time>
      </trkpt>
      <trkpt lat="46.51357" lon="0.37555">
        <ele>184.79</ele>
        <time>2018-09-09T10:17:44.000Z</time>
      </trkpt>
      <trkpt lat="46.51354" lon="0.37542">
        <ele>184.94</ele>
        <time>2018-09-09T10:17:48.000Z</time>
      </trkpt>
      <trkpt lat="46.51349" lon="0.37528">
        <ele>185.1</ele>
        <time>2018-09-09T10:17:52.000Z</time>
      </trkpt>
      <trkpt lat="46.51342" lon="0.37518">
        <ele>185.37</ele>
        <time>2018-09-09T10:17:55.000Z</time>
      </trkpt>
      <trkpt lat="46.51333" lon="0.37514">
        <ele>185.6</ele>
        <time>2018-09-09T10:17:58.000Z</time>
      </trkpt>
      <trkpt lat="46.51322" lon="0.3751">
        <ele>186.09</ele>
        <time>2018-09-09T10:18:03.000Z</time>
      </trkpt>
      <trkpt lat="46.51311" lon="0.3751">
        <ele>186.78</ele>
        <time>2018-09-09T10:18:08.000Z</time>
      </trkpt>
      <trkpt lat="46.51302" lon="0.37505">
        <ele>187.5</ele>
        <time>2018-09-09T10:18:12.000Z</time>
      </trkpt>
      <trkpt lat="46.51291" lon="0.375">
        <ele>188.16</ele>
        <time>2018-09-09T10:18:15.000Z</time>
      </trkpt>
      <trkpt lat="46.51282" lon="0.37494">
        <ele>188.85</ele>
        <time>2018-09-09T10:18:18.000Z</time>
      </trkpt>
      <trkpt lat="46.51271" lon="0.3749">
        <ele>190.14</ele>
        <time>2018-09-09T10:18:23.000Z</time>
      </trkpt>
      <trkpt lat="46.5126" lon="0.37484">
        <ele>191.36</ele>
        <time>2018-09-09T10:18:28.000Z</time>
      </trkpt>
      <trkpt lat="46.51251" lon="0.37478">
        <ele>191.97</ele>
        <time>2018-09-09T10:18:32.000Z</time>
      </trkpt>
      <trkpt lat="46.51243" lon="0.37473">
        <ele>192.36</ele>
        <time>2018-09-09T10:18:36.000Z</time>
      </trkpt>
      <trkpt lat="46.51233" lon="0.37468">
        <ele>192.87</ele>
        <time>2018-09-09T10:18:40.000Z</time>
      </trkpt>
      <trkpt lat="46.51221" lon="0.37471">
        <ele>193.11</ele>
        <time>2018-09-09T10:18:43.000Z</time>
      </trkpt>
      <trkpt lat="46.51209" lon="0.37467">
        <ele>193.18</ele>
        <time>2018-09-09T10:18:46.000Z</time>
      </trkpt>
      <trkpt lat="46.51197" lon="0.37464">
        <ele>193.45</ele>
        <time>2018-09-09T10:18:49.000Z</time>
      </trkpt>
      <trkpt lat="46.51188" lon="0.37459">
        <ele>193.7</ele>
        <time>2018-09-09T10:18:52.000Z</time>
      </trkpt>
      <trkpt lat="46.51178" lon="0.37451">
        <ele>194.36</ele>
        <time>2018-09-09T10:18:56.000Z</time>
      </trkpt>
      <trkpt lat="46.51167" lon="0.37452">
        <ele>194.81</ele>
        <time>2018-09-09T10:18:59.000Z</time>
      </trkpt>
      <trkpt lat="46.51156" lon="0.37451">
        <ele>195.13</ele>
        <time>2018-09-09T10:19:02.000Z</time>
      </trkpt>
      <trkpt lat="46.51147" lon="0.37453">
        <ele>195.46</ele>
        <time>2018-09-09T10:19:05.000Z</time>
      </trkpt>
      <trkpt lat="46.51135" lon="0.37448">
        <ele>195.95</ele>
        <time>2018-09-09T10:19:08.000Z</time>
      </trkpt>
      <trkpt lat="46.51127" lon="0.37442">
        <ele>196.36</ele>
        <time>2018-09-09T10:19:10.000Z</time>
      </trkpt>
      <trkpt lat="46.51118" lon="0.37434">
        <ele>196.86</ele>
        <time>2018-09-09T10:19:12.000Z</time>
      </trkpt>
      <trkpt lat="46.51109" lon="0.37425">
        <ele>197.32</ele>
        <time>2018-09-09T10:19:14.000Z</time>
      </trkpt>
      <trkpt lat="46.51102" lon="0.37413">
        <ele>197.88</ele>
        <time>2018-09-09T10:19:17.000Z</time>
      </trkpt>
      <trkpt lat="46.51091" lon="0.37408">
        <ele>198.42</ele>
        <time>2018-09-09T10:19:20.000Z</time>
      </trkpt>
      <trkpt lat="46.51081" lon="0.37406">
        <ele>198.74</ele>
        <time>2018-09-09T10:19:22.000Z</time>
      </trkpt>
      <trkpt lat="46.5107" lon="0.37406">
        <ele>199.47</ele>
        <time>2018-09-09T10:19:24.000Z</time>
      </trkpt>
      <trkpt lat="46.5106" lon="0.37409">
        <ele>199.36</ele>
        <time>2018-09-09T10:19:26.000Z</time>
      </trkpt>
      <trkpt lat="46.51048" lon="0.37414">
        <ele>198.88</ele>
        <time>2018-09-09T10:19:29.000Z</time>
      </trkpt>
      <trkpt lat="46.51038" lon="0.3742">
        <ele>198.51</ele>
        <time>2018-09-09T10:19:33.000Z</time>
      </trkpt>
      <trkpt lat="46.51029" lon="0.37425">
        <ele>196.15</ele>
        <time>2018-09-09T10:19:36.000Z</time>
      </trkpt>
      <trkpt lat="46.51019" lon="0.37429">
        <ele>194.23</ele>
        <time>2018-09-09T10:19:38.000Z</time>
      </trkpt>
      <trkpt lat="46.51008" lon="0.37433">
        <ele>193.7</ele>
        <time>2018-09-09T10:19:40.000Z</time>
      </trkpt>
      <trkpt lat="46.50998" lon="0.37439">
        <ele>193.6</ele>
        <time>2018-09-09T10:19:42.000Z</time>
      </trkpt>
      <trkpt lat="46.50987" lon="0.3744">
        <ele>195.19</ele>
        <time>2018-09-09T10:19:45.000Z</time>
      </trkpt>
      <trkpt lat="46.50979" lon="0.37428">
        <ele>195.12</ele>
        <time>2018-09-09T10:19:48.000Z</time>
      </trkpt>
      <trkpt lat="46.50973" lon="0.37415">
        <ele>193.72</ele>
        <time>2018-09-09T10:19:50.000Z</time>
      </trkpt>
      <trkpt lat="46.50964" lon="0.37402">
        <ele>190.53</ele>
        <time>2018-09-09T10:19:52.000Z</time>
      </trkpt>
      <trkpt lat="46.50957" lon="0.37385">
        <ele>187.65</ele>
        <time>2018-09-09T10:19:55.000Z</time>
      </trkpt>
      <trkpt lat="46.50953" lon="0.37374">
        <ele>186.93</ele>
        <time>2018-09-09T10:19:57.000Z</time>
      </trkpt>
      <trkpt lat="46.50949" lon="0.3736">
        <ele>187.35</ele>
        <time>2018-09-09T10:20:01.000Z</time>
      </trkpt>
      <trkpt lat="46.50941" lon="0.37347">
        <ele>189.51</ele>
        <time>2018-09-09T10:20:03.000Z</time>
      </trkpt>
      <trkpt lat="46.50937" lon="0.37334">
        <ele>191.8</ele>
        <time>2018-09-09T10:20:05.000Z</time>
      </trkpt>
      <trkpt lat="46.50929" lon="0.37323">
        <ele>193.76</ele>
        <time>2018-09-09T10:20:07.000Z</time>
      </trkpt>
      <trkpt lat="46.50924" lon="0.37311">
        <ele>194.35</ele>
        <time>2018-09-09T10:20:09.000Z</time>
      </trkpt>
      <trkpt lat="46.50921" lon="0.37297">
        <ele>194.34</ele>
        <time>2018-09-09T10:20:11.000Z</time>
      </trkpt>
      <trkpt lat="46.50919" lon="0.37281">
        <ele>194.38</ele>
        <time>2018-09-09T10:20:14.000Z</time>
      </trkpt>
      <trkpt lat="46.50915" lon="0.37266">
        <ele>194.42</ele>
        <time>2018-09-09T10:20:16.000Z</time>
      </trkpt>
      <trkpt lat="46.50912" lon="0.37252">
        <ele>194.39</ele>
        <time>2018-09-09T10:20:18.000Z</time>
      </trkpt>
      <trkpt lat="46.50906" lon="0.37236">
        <ele>193.89</ele>
        <time>2018-09-09T10:20:20.000Z</time>
      </trkpt>
      <trkpt lat="46.50898" lon="0.37223">
        <ele>192.36</ele>
        <time>2018-09-09T10:20:22.000Z</time>
      </trkpt>
      <trkpt lat="46.50892" lon="0.37211">
        <ele>191.55</ele>
        <time>2018-09-09T10:20:24.000Z</time>
      </trkpt>
      <trkpt lat="46.50888" lon="0.37199">
        <ele>190.93</ele>
        <time>2018-09-09T10:20:26.000Z</time>
      </trkpt>
      <trkpt lat="46.50881" lon="0.37183">
        <ele>191.62</ele>
        <time>2018-09-09T10:20:29.000Z</time>
      </trkpt>
      <trkpt lat="46.50876" lon="0.37166">
        <ele>191.88</ele>
        <time>2018-09-09T10:20:32.000Z</time>
      </trkpt>
      <trkpt lat="46.50873" lon="0.37152">
        <ele>192.29</ele>
        <time>2018-09-09T10:20:35.000Z</time>
      </trkpt>
      <trkpt lat="46.5087" lon="0.37137">
        <ele>193.78</ele>
        <time>2018-09-09T10:20:37.000Z</time>
      </trkpt>
      <trkpt lat="46.50867" lon="0.3712">
        <ele>195.13</ele>
        <time>2018-09-09T10:20:39.000Z</time>
      </trkpt>
      <trkpt lat="46.50864" lon="0.37106">
        <ele>195.59</ele>
        <time>2018-09-09T10:20:41.000Z</time>
      </trkpt>
      <trkpt lat="46.50862" lon="0.37092">
        <ele>195.75</ele>
        <time>2018-09-09T10:20:43.000Z</time>
      </trkpt>
      <trkpt lat="46.50858" lon="0.37079">
        <ele>195.92</ele>
        <time>2018-09-09T10:20:46.000Z</time>
      </trkpt>
      <trkpt lat="46.5085" lon="0.37064">
        <ele>197.09</ele>
        <time>2018-09-09T10:20:48.000Z</time>
      </trkpt>
      <trkpt lat="46.50841" lon="0.37046">
        <ele>198.25</ele>
        <time>2018-09-09T10:20:50.000Z</time>
      </trkpt>
      <trkpt lat="46.50836" lon="0.37032">
        <ele>199.03</ele>
        <time>2018-09-09T10:20:52.000Z</time>
      </trkpt>
      <trkpt lat="46.50831" lon="0.37015">
        <ele>200.09</ele>
        <time>2018-09-09T10:20:55.000Z</time>
      </trkpt>
      <trkpt lat="46.50829" lon="0.36998">
        <ele>200.81</ele>
        <time>2018-09-09T10:20:57.000Z</time>
      </trkpt>
      <trkpt lat="46.50829" lon="0.36984">
        <ele>201.98</ele>
        <time>2018-09-09T10:20:59.000Z</time>
      </trkpt>
      <trkpt lat="46.50826" lon="0.36965">
        <ele>202.06</ele>
        <time>2018-09-09T10:21:02.000Z</time>
      </trkpt>
      <trkpt lat="46.50822" lon="0.36947">
        <ele>201.99</ele>
        <time>2018-09-09T10:21:04.000Z</time>
      </trkpt>
      <trkpt lat="46.50821" lon="0.3693">
        <ele>200.95</ele>
        <time>2018-09-09T10:21:06.000Z</time>
      </trkpt>
      <trkpt lat="46.50817" lon="0.3691">
        <ele>199.8</ele>
        <time>2018-09-09T10:21:09.000Z</time>
      </trkpt>
      <trkpt lat="46.50811" lon="0.36894">
        <ele>198.38</ele>
        <time>2018-09-09T10:21:11.000Z</time>
      </trkpt>
      <trkpt lat="46.50806" lon="0.36881">
        <ele>196.89</ele>
        <time>2018-09-09T10:21:13.000Z</time>
      </trkpt>
      <trkpt lat="46.50802" lon="0.36867">
        <ele>196.52</ele>
        <time>2018-09-09T10:21:15.000Z</time>
      </trkpt>
      <trkpt lat="46.50795" lon="0.36852">
        <ele>196.13</ele>
        <time>2018-09-09T10:21:17.000Z</time>
      </trkpt>
      <trkpt lat="46.50788" lon="0.36839">
        <ele>195.49</ele>
        <time>2018-09-09T10:21:19.000Z</time>
      </trkpt>
      <trkpt lat="46.50781" lon="0.36827">
        <ele>194.69</ele>
        <time>2018-09-09T10:21:21.000Z</time>
      </trkpt>
      <trkpt lat="46.50775" lon="0.36815">
        <ele>194.01</ele>
        <time>2018-09-09T10:21:23.000Z</time>
      </trkpt>
      <trkpt lat="46.50766" lon="0.36806">
        <ele>194.05</ele>
        <time>2018-09-09T10:21:25.000Z</time>
      </trkpt>
      <trkpt lat="46.50757" lon="0.36799">
        <ele>194.33</ele>
        <time>2018-09-09T10:21:27.000Z</time>
      </trkpt>
      <trkpt lat="46.50745" lon="0.36792">
        <ele>194.29</ele>
        <time>2018-09-09T10:21:29.000Z</time>
      </trkpt>
      <trkpt lat="46.50735" lon="0.36785">
        <ele>194.08</ele>
        <time>2018-09-09T10:21:31.000Z</time>
      </trkpt>
      <trkpt lat="46.50725" lon="0.36773">
        <ele>194.39</ele>
        <time>2018-09-09T10:21:34.000Z</time>
      </trkpt>
      <trkpt lat="46.50713" lon="0.36762">
        <ele>194.4</ele>
        <time>2018-09-09T10:21:37.000Z</time>
      </trkpt>
      <trkpt lat="46.50701" lon="0.36754">
        <ele>194.36</ele>
        <time>2018-09-09T10:21:40.000Z</time>
      </trkpt>
      <trkpt lat="46.50692" lon="0.36758">
        <ele>194.22</ele>
        <time>2018-09-09T10:21:43.000Z</time>
      </trkpt>
      <trkpt lat="46.50681" lon="0.36757">
        <ele>194.06</ele>
        <time>2018-09-09T10:21:47.000Z</time>
      </trkpt>
      <trkpt lat="46.5067" lon="0.3676">
        <ele>194.03</ele>
        <time>2018-09-09T10:21:51.000Z</time>
      </trkpt>
      <trkpt lat="46.50658" lon="0.3676">
        <ele>194</ele>
        <time>2018-09-09T10:21:54.000Z</time>
      </trkpt>
      <trkpt lat="46.5065" lon="0.36768">
        <ele>193.99</ele>
        <time>2018-09-09T10:21:57.000Z</time>
      </trkpt>
      <trkpt lat="46.50645" lon="0.36779">
        <ele>193.77</ele>
        <time>2018-09-09T10:22:01.000Z</time>
      </trkpt>
      <trkpt lat="46.50646" lon="0.36794">
        <ele>193.38</ele>
        <time>2018-09-09T10:22:08.000Z</time>
      </trkpt>
      <trkpt lat="46.50648" lon="0.36807">
        <ele>192.46</ele>
        <time>2018-09-09T10:22:31.000Z</time>
      </trkpt>
      <trkpt lat="46.50655" lon="0.36815">
        <ele>190.63</ele>
        <time>2018-09-09T10:23:05.000Z</time>
      </trkpt>
      <trkpt lat="46.50644" lon="0.36818">
        <ele>190.99</ele>
        <time>2018-09-09T10:23:12.000Z</time>
      </trkpt>
      <trkpt lat="46.50654" lon="0.36818">
        <ele>193.23</ele>
        <time>2018-09-09T10:23:18.000Z</time>
      </trkpt>
    </trkseg>
  </trk>
</gpx>